<?xml version="1.0" encoding="UTF-8" standalone="no" ?>
<gpx xmlns="http://www.topografix.com/GPX/1/1" xmlns:xsi="http://www.w3.org/2001/XMLSchema-instance" xsi:schemaLocation="http://www.topografix.com/GPX/1/1 http://www.topografix.com/GPX/1/1/gpx.xsd" version="1.1" creator="VisuGPX - https://www.visugpx.com">
  <metadata>
    <name>chateau de tredion</name>
  </metadata>
  <trk>
    <name><![CDATA[Sortie vélo le matin]]></name>
    <extensions>
      <line xmlns="http://www.topografix.com/GPX/gpx_style/0/2">
        <color>0000FF</color>
        <width>4</width>
      </line>
    </extensions>
    <trkseg>
      <trkpt lat="47.7891" lon="-2.69224">
        <ele>134</ele>
        <time>2024-09-15T08:34:21Z</time>
      </trkpt>
      <trkpt lat="47.7891" lon="-2.69223">
        <ele>131.6</ele>
        <time>2024-09-15T08:34:22Z</time>
      </trkpt>
      <trkpt lat="47.78912" lon="-2.6922">
        <ele>131</ele>
        <time>2024-09-15T08:35:11Z</time>
      </trkpt>
      <trkpt lat="47.78911" lon="-2.69213">
        <ele>131</ele>
        <time>2024-09-15T08:35:14Z</time>
      </trkpt>
      <trkpt lat="47.78908" lon="-2.69208">
        <ele>131</ele>
        <time>2024-09-15T08:35:16Z</time>
      </trkpt>
      <trkpt lat="47.78905" lon="-2.69206">
        <ele>131</ele>
        <time>2024-09-15T08:35:17Z</time>
      </trkpt>
      <trkpt lat="47.78902" lon="-2.69206">
        <ele>131</ele>
        <time>2024-09-15T08:35:18Z</time>
      </trkpt>
      <trkpt lat="47.78899" lon="-2.69207">
        <ele>131</ele>
        <time>2024-09-15T08:35:19Z</time>
      </trkpt>
      <trkpt lat="47.78889" lon="-2.69214">
        <ele>130.8</ele>
        <time>2024-09-15T08:35:22Z</time>
      </trkpt>
      <trkpt lat="47.78885" lon="-2.69217">
        <ele>130.6</ele>
        <time>2024-09-15T08:35:23Z</time>
      </trkpt>
      <trkpt lat="47.78882" lon="-2.69217">
        <ele>130.4</ele>
        <time>2024-09-15T08:35:24Z</time>
      </trkpt>
      <trkpt lat="47.78879" lon="-2.69215">
        <ele>130.2</ele>
        <time>2024-09-15T08:35:25Z</time>
      </trkpt>
      <trkpt lat="47.78875" lon="-2.69207">
        <ele>130</ele>
        <time>2024-09-15T08:35:27Z</time>
      </trkpt>
      <trkpt lat="47.78874" lon="-2.692">
        <ele>129.8</ele>
        <time>2024-09-15T08:35:28Z</time>
      </trkpt>
      <trkpt lat="47.78872" lon="-2.69193">
        <ele>129.8</ele>
        <time>2024-09-15T08:35:29Z</time>
      </trkpt>
      <trkpt lat="47.78871" lon="-2.69186">
        <ele>129.6</ele>
        <time>2024-09-15T08:35:30Z</time>
      </trkpt>
      <trkpt lat="47.7887" lon="-2.69172">
        <ele>129.6</ele>
        <time>2024-09-15T08:35:32Z</time>
      </trkpt>
      <trkpt lat="47.78869" lon="-2.69133">
        <ele>128.6</ele>
        <time>2024-09-15T08:35:37Z</time>
      </trkpt>
      <trkpt lat="47.78868" lon="-2.69119">
        <ele>128.4</ele>
        <time>2024-09-15T08:35:39Z</time>
      </trkpt>
      <trkpt lat="47.78867" lon="-2.69104">
        <ele>128.4</ele>
        <time>2024-09-15T08:35:41Z</time>
      </trkpt>
      <trkpt lat="47.78866" lon="-2.69096">
        <ele>128.2</ele>
        <time>2024-09-15T08:35:42Z</time>
      </trkpt>
      <trkpt lat="47.78861" lon="-2.6908">
        <ele>128.2</ele>
        <time>2024-09-15T08:35:44Z</time>
      </trkpt>
      <trkpt lat="47.78851" lon="-2.69057">
        <ele>128.2</ele>
        <time>2024-09-15T08:35:47Z</time>
      </trkpt>
      <trkpt lat="47.78848" lon="-2.6905">
        <ele>128.2</ele>
        <time>2024-09-15T08:35:48Z</time>
      </trkpt>
      <trkpt lat="47.78845" lon="-2.69044">
        <ele>128.2</ele>
        <time>2024-09-15T08:35:49Z</time>
      </trkpt>
      <trkpt lat="47.78843" lon="-2.69037">
        <ele>128.4</ele>
        <time>2024-09-15T08:35:50Z</time>
      </trkpt>
      <trkpt lat="47.78841" lon="-2.69031">
        <ele>128.4</ele>
        <time>2024-09-15T08:35:51Z</time>
      </trkpt>
      <trkpt lat="47.78839" lon="-2.69025">
        <ele>128.4</ele>
        <time>2024-09-15T08:35:52Z</time>
      </trkpt>
      <trkpt lat="47.78838" lon="-2.69018">
        <ele>128.6</ele>
        <time>2024-09-15T08:35:53Z</time>
      </trkpt>
      <trkpt lat="47.78836" lon="-2.69012">
        <ele>128.6</ele>
        <time>2024-09-15T08:35:54Z</time>
      </trkpt>
      <trkpt lat="47.78835" lon="-2.69006">
        <ele>128.8</ele>
        <time>2024-09-15T08:35:55Z</time>
      </trkpt>
      <trkpt lat="47.78835" lon="-2.68999">
        <ele>128.8</ele>
        <time>2024-09-15T08:35:56Z</time>
      </trkpt>
      <trkpt lat="47.78835" lon="-2.68993">
        <ele>129</ele>
        <time>2024-09-15T08:35:57Z</time>
      </trkpt>
      <trkpt lat="47.78834" lon="-2.68986">
        <ele>129</ele>
        <time>2024-09-15T08:35:58Z</time>
      </trkpt>
      <trkpt lat="47.78834" lon="-2.6898">
        <ele>129</ele>
        <time>2024-09-15T08:35:59Z</time>
      </trkpt>
      <trkpt lat="47.78833" lon="-2.68975">
        <ele>129.2</ele>
        <time>2024-09-15T08:36:00Z</time>
      </trkpt>
      <trkpt lat="47.78833" lon="-2.68969">
        <ele>129.4</ele>
        <time>2024-09-15T08:36:01Z</time>
      </trkpt>
      <trkpt lat="47.78832" lon="-2.68963">
        <ele>130</ele>
        <time>2024-09-15T08:36:02Z</time>
      </trkpt>
      <trkpt lat="47.78827" lon="-2.68953">
        <ele>130.4</ele>
        <time>2024-09-15T08:36:04Z</time>
      </trkpt>
      <trkpt lat="47.78824" lon="-2.68948">
        <ele>130.4</ele>
        <time>2024-09-15T08:36:05Z</time>
      </trkpt>
      <trkpt lat="47.78822" lon="-2.68943">
        <ele>130.6</ele>
        <time>2024-09-15T08:36:06Z</time>
      </trkpt>
      <trkpt lat="47.78817" lon="-2.68924">
        <ele>130.6</ele>
        <time>2024-09-15T08:36:09Z</time>
      </trkpt>
      <trkpt lat="47.78815" lon="-2.68916">
        <ele>130.6</ele>
        <time>2024-09-15T08:36:10Z</time>
      </trkpt>
      <trkpt lat="47.78812" lon="-2.68898">
        <ele>130.6</ele>
        <time>2024-09-15T08:36:12Z</time>
      </trkpt>
      <trkpt lat="47.78812" lon="-2.6889">
        <ele>130.2</ele>
        <time>2024-09-15T08:36:13Z</time>
      </trkpt>
      <trkpt lat="47.78811" lon="-2.68884">
        <ele>130.2</ele>
        <time>2024-09-15T08:36:14Z</time>
      </trkpt>
      <trkpt lat="47.78811" lon="-2.68878">
        <ele>129.8</ele>
        <time>2024-09-15T08:36:15Z</time>
      </trkpt>
      <trkpt lat="47.78809" lon="-2.68872">
        <ele>129.6</ele>
        <time>2024-09-15T08:36:16Z</time>
      </trkpt>
      <trkpt lat="47.78806" lon="-2.68856">
        <ele>129</ele>
        <time>2024-09-15T08:36:18Z</time>
      </trkpt>
      <trkpt lat="47.78803" lon="-2.68849">
        <ele>129</ele>
        <time>2024-09-15T08:36:19Z</time>
      </trkpt>
      <trkpt lat="47.78802" lon="-2.68844">
        <ele>129</ele>
        <time>2024-09-15T08:36:20Z</time>
      </trkpt>
      <trkpt lat="47.78801" lon="-2.6884">
        <ele>129.2</ele>
        <time>2024-09-15T08:36:21Z</time>
      </trkpt>
      <trkpt lat="47.788" lon="-2.68836">
        <ele>129.4</ele>
        <time>2024-09-15T08:36:22Z</time>
      </trkpt>
      <trkpt lat="47.78798" lon="-2.68832">
        <ele>129.6</ele>
        <time>2024-09-15T08:36:23Z</time>
      </trkpt>
      <trkpt lat="47.78797" lon="-2.68828">
        <ele>129.8</ele>
        <time>2024-09-15T08:36:24Z</time>
      </trkpt>
      <trkpt lat="47.78796" lon="-2.68824">
        <ele>129.8</ele>
        <time>2024-09-15T08:36:25Z</time>
      </trkpt>
      <trkpt lat="47.78794" lon="-2.68818">
        <ele>130</ele>
        <time>2024-09-15T08:36:27Z</time>
      </trkpt>
      <trkpt lat="47.78793" lon="-2.68813">
        <ele>130.2</ele>
        <time>2024-09-15T08:36:28Z</time>
      </trkpt>
      <trkpt lat="47.78792" lon="-2.68809">
        <ele>130.2</ele>
        <time>2024-09-15T08:36:29Z</time>
      </trkpt>
      <trkpt lat="47.78792" lon="-2.68804">
        <ele>130.4</ele>
        <time>2024-09-15T08:36:30Z</time>
      </trkpt>
      <trkpt lat="47.7879" lon="-2.688">
        <ele>130.8</ele>
        <time>2024-09-15T08:36:31Z</time>
      </trkpt>
      <trkpt lat="47.7879" lon="-2.68797">
        <ele>130.8</ele>
        <time>2024-09-15T08:36:32Z</time>
      </trkpt>
      <trkpt lat="47.78788" lon="-2.68793">
        <ele>131.2</ele>
        <time>2024-09-15T08:36:33Z</time>
      </trkpt>
      <trkpt lat="47.78787" lon="-2.6879">
        <ele>131.4</ele>
        <time>2024-09-15T08:36:34Z</time>
      </trkpt>
      <trkpt lat="47.78787" lon="-2.68787">
        <ele>131.6</ele>
        <time>2024-09-15T08:36:35Z</time>
      </trkpt>
      <trkpt lat="47.78786" lon="-2.68781">
        <ele>131.8</ele>
        <time>2024-09-15T08:36:37Z</time>
      </trkpt>
      <trkpt lat="47.78786" lon="-2.68777">
        <ele>132</ele>
        <time>2024-09-15T08:36:38Z</time>
      </trkpt>
      <trkpt lat="47.78785" lon="-2.68774">
        <ele>132</ele>
        <time>2024-09-15T08:36:39Z</time>
      </trkpt>
      <trkpt lat="47.78784" lon="-2.68771">
        <ele>132.2</ele>
        <time>2024-09-15T08:36:40Z</time>
      </trkpt>
      <trkpt lat="47.78782" lon="-2.6877">
        <ele>132.4</ele>
        <time>2024-09-15T08:36:41Z</time>
      </trkpt>
      <trkpt lat="47.78779" lon="-2.68771">
        <ele>132.6</ele>
        <time>2024-09-15T08:36:42Z</time>
      </trkpt>
      <trkpt lat="47.78777" lon="-2.68773">
        <ele>132.6</ele>
        <time>2024-09-15T08:36:43Z</time>
      </trkpt>
      <trkpt lat="47.78773" lon="-2.68776">
        <ele>132.8</ele>
        <time>2024-09-15T08:36:44Z</time>
      </trkpt>
      <trkpt lat="47.78771" lon="-2.68779">
        <ele>132.8</ele>
        <time>2024-09-15T08:36:45Z</time>
      </trkpt>
      <trkpt lat="47.78769" lon="-2.68782">
        <ele>132.8</ele>
        <time>2024-09-15T08:36:46Z</time>
      </trkpt>
      <trkpt lat="47.78766" lon="-2.68785">
        <ele>132.8</ele>
        <time>2024-09-15T08:36:47Z</time>
      </trkpt>
      <trkpt lat="47.78762" lon="-2.68788">
        <ele>132.8</ele>
        <time>2024-09-15T08:36:48Z</time>
      </trkpt>
      <trkpt lat="47.78758" lon="-2.68792">
        <ele>132.8</ele>
        <time>2024-09-15T08:36:49Z</time>
      </trkpt>
      <trkpt lat="47.78752" lon="-2.68797">
        <ele>132.6</ele>
        <time>2024-09-15T08:36:50Z</time>
      </trkpt>
      <trkpt lat="47.78747" lon="-2.68802">
        <ele>132.6</ele>
        <time>2024-09-15T08:36:51Z</time>
      </trkpt>
      <trkpt lat="47.78742" lon="-2.68806">
        <ele>132.4</ele>
        <time>2024-09-15T08:36:52Z</time>
      </trkpt>
      <trkpt lat="47.78738" lon="-2.68807">
        <ele>132.2</ele>
        <time>2024-09-15T08:36:53Z</time>
      </trkpt>
      <trkpt lat="47.78733" lon="-2.68808">
        <ele>131.8</ele>
        <time>2024-09-15T08:36:54Z</time>
      </trkpt>
      <trkpt lat="47.78728" lon="-2.68809">
        <ele>131.8</ele>
        <time>2024-09-15T08:36:55Z</time>
      </trkpt>
      <trkpt lat="47.78721" lon="-2.68812">
        <ele>131.4</ele>
        <time>2024-09-15T08:36:56Z</time>
      </trkpt>
      <trkpt lat="47.78708" lon="-2.68816">
        <ele>131</ele>
        <time>2024-09-15T08:36:58Z</time>
      </trkpt>
      <trkpt lat="47.787" lon="-2.6882">
        <ele>130.6</ele>
        <time>2024-09-15T08:36:59Z</time>
      </trkpt>
      <trkpt lat="47.78693" lon="-2.68825">
        <ele>129.8</ele>
        <time>2024-09-15T08:37:00Z</time>
      </trkpt>
      <trkpt lat="47.78687" lon="-2.68826">
        <ele>129.6</ele>
        <time>2024-09-15T08:37:01Z</time>
      </trkpt>
      <trkpt lat="47.78682" lon="-2.68823">
        <ele>129.2</ele>
        <time>2024-09-15T08:37:02Z</time>
      </trkpt>
      <trkpt lat="47.78677" lon="-2.6882">
        <ele>129</ele>
        <time>2024-09-15T08:37:03Z</time>
      </trkpt>
      <trkpt lat="47.78675" lon="-2.68815">
        <ele>128.8</ele>
        <time>2024-09-15T08:37:04Z</time>
      </trkpt>
      <trkpt lat="47.78674" lon="-2.6881">
        <ele>128.2</ele>
        <time>2024-09-15T08:37:05Z</time>
      </trkpt>
      <trkpt lat="47.78672" lon="-2.68805">
        <ele>128</ele>
        <time>2024-09-15T08:37:06Z</time>
      </trkpt>
      <trkpt lat="47.7867" lon="-2.68801">
        <ele>127.6</ele>
        <time>2024-09-15T08:37:07Z</time>
      </trkpt>
      <trkpt lat="47.78667" lon="-2.68796">
        <ele>127.6</ele>
        <time>2024-09-15T08:37:08Z</time>
      </trkpt>
      <trkpt lat="47.78666" lon="-2.6879">
        <ele>127.6</ele>
        <time>2024-09-15T08:37:09Z</time>
      </trkpt>
      <trkpt lat="47.78663" lon="-2.68777">
        <ele>127.6</ele>
        <time>2024-09-15T08:37:11Z</time>
      </trkpt>
      <trkpt lat="47.78663" lon="-2.6877">
        <ele>127.6</ele>
        <time>2024-09-15T08:37:12Z</time>
      </trkpt>
      <trkpt lat="47.78662" lon="-2.68762">
        <ele>127.6</ele>
        <time>2024-09-15T08:37:13Z</time>
      </trkpt>
      <trkpt lat="47.78661" lon="-2.68757">
        <ele>128.2</ele>
        <time>2024-09-15T08:37:14Z</time>
      </trkpt>
      <trkpt lat="47.78661" lon="-2.68748">
        <ele>128.4</ele>
        <time>2024-09-15T08:37:16Z</time>
      </trkpt>
      <trkpt lat="47.78659" lon="-2.68744">
        <ele>128.6</ele>
        <time>2024-09-15T08:37:17Z</time>
      </trkpt>
      <trkpt lat="47.78656" lon="-2.68731">
        <ele>128.8</ele>
        <time>2024-09-15T08:37:19Z</time>
      </trkpt>
      <trkpt lat="47.78652" lon="-2.68712">
        <ele>128.8</ele>
        <time>2024-09-15T08:37:21Z</time>
      </trkpt>
      <trkpt lat="47.78649" lon="-2.68705">
        <ele>129</ele>
        <time>2024-09-15T08:37:22Z</time>
      </trkpt>
      <trkpt lat="47.78648" lon="-2.68699">
        <ele>129</ele>
        <time>2024-09-15T08:37:23Z</time>
      </trkpt>
      <trkpt lat="47.78646" lon="-2.68696">
        <ele>129.2</ele>
        <time>2024-09-15T08:37:24Z</time>
      </trkpt>
      <trkpt lat="47.78645" lon="-2.68691">
        <ele>129.2</ele>
        <time>2024-09-15T08:37:25Z</time>
      </trkpt>
      <trkpt lat="47.78645" lon="-2.68686">
        <ele>129.2</ele>
        <time>2024-09-15T08:37:26Z</time>
      </trkpt>
      <trkpt lat="47.78643" lon="-2.6868">
        <ele>129.4</ele>
        <time>2024-09-15T08:37:27Z</time>
      </trkpt>
      <trkpt lat="47.78642" lon="-2.68676">
        <ele>129.4</ele>
        <time>2024-09-15T08:37:28Z</time>
      </trkpt>
      <trkpt lat="47.78642" lon="-2.68671">
        <ele>129.4</ele>
        <time>2024-09-15T08:37:29Z</time>
      </trkpt>
      <trkpt lat="47.78642" lon="-2.68663">
        <ele>129.4</ele>
        <time>2024-09-15T08:37:30Z</time>
      </trkpt>
      <trkpt lat="47.78642" lon="-2.68658">
        <ele>129.6</ele>
        <time>2024-09-15T08:37:31Z</time>
      </trkpt>
      <trkpt lat="47.78641" lon="-2.68654">
        <ele>129.6</ele>
        <time>2024-09-15T08:37:32Z</time>
      </trkpt>
      <trkpt lat="47.78639" lon="-2.68651">
        <ele>129.8</ele>
        <time>2024-09-15T08:37:33Z</time>
      </trkpt>
      <trkpt lat="47.7864" lon="-2.68646">
        <ele>129.8</ele>
        <time>2024-09-15T08:37:34Z</time>
      </trkpt>
      <trkpt lat="47.78637" lon="-2.6863">
        <ele>129.8</ele>
        <time>2024-09-15T08:37:36Z</time>
      </trkpt>
      <trkpt lat="47.78635" lon="-2.68625">
        <ele>129.8</ele>
        <time>2024-09-15T08:37:37Z</time>
      </trkpt>
      <trkpt lat="47.78633" lon="-2.68618">
        <ele>129.8</ele>
        <time>2024-09-15T08:37:38Z</time>
      </trkpt>
      <trkpt lat="47.78632" lon="-2.6861">
        <ele>129.8</ele>
        <time>2024-09-15T08:37:39Z</time>
      </trkpt>
      <trkpt lat="47.78633" lon="-2.68601">
        <ele>129.6</ele>
        <time>2024-09-15T08:37:40Z</time>
      </trkpt>
      <trkpt lat="47.78633" lon="-2.68595">
        <ele>129.6</ele>
        <time>2024-09-15T08:37:41Z</time>
      </trkpt>
      <trkpt lat="47.78633" lon="-2.68592">
        <ele>129.4</ele>
        <time>2024-09-15T08:37:42Z</time>
      </trkpt>
      <trkpt lat="47.78632" lon="-2.68586">
        <ele>129.4</ele>
        <time>2024-09-15T08:37:43Z</time>
      </trkpt>
      <trkpt lat="47.78632" lon="-2.68571">
        <ele>129.4</ele>
        <time>2024-09-15T08:37:45Z</time>
      </trkpt>
      <trkpt lat="47.78632" lon="-2.68567">
        <ele>129.4</ele>
        <time>2024-09-15T08:37:46Z</time>
      </trkpt>
      <trkpt lat="47.78634" lon="-2.68564">
        <ele>129.2</ele>
        <time>2024-09-15T08:37:48Z</time>
      </trkpt>
      <trkpt lat="47.78635" lon="-2.6856">
        <ele>129.4</ele>
        <time>2024-09-15T08:37:49Z</time>
      </trkpt>
      <trkpt lat="47.78639" lon="-2.68552">
        <ele>129.4</ele>
        <time>2024-09-15T08:37:50Z</time>
      </trkpt>
      <trkpt lat="47.78641" lon="-2.68548">
        <ele>129.4</ele>
        <time>2024-09-15T08:37:51Z</time>
      </trkpt>
      <trkpt lat="47.78643" lon="-2.68544">
        <ele>129.4</ele>
        <time>2024-09-15T08:37:52Z</time>
      </trkpt>
      <trkpt lat="47.78645" lon="-2.68541">
        <ele>129.4</ele>
        <time>2024-09-15T08:37:53Z</time>
      </trkpt>
      <trkpt lat="47.78646" lon="-2.68539">
        <ele>129.6</ele>
        <time>2024-09-15T08:37:54Z</time>
      </trkpt>
      <trkpt lat="47.78648" lon="-2.68536">
        <ele>129.8</ele>
        <time>2024-09-15T08:37:55Z</time>
      </trkpt>
      <trkpt lat="47.7865" lon="-2.68532">
        <ele>129.8</ele>
        <time>2024-09-15T08:37:56Z</time>
      </trkpt>
      <trkpt lat="47.78652" lon="-2.68529">
        <ele>130</ele>
        <time>2024-09-15T08:37:57Z</time>
      </trkpt>
      <trkpt lat="47.78654" lon="-2.68526">
        <ele>130</ele>
        <time>2024-09-15T08:37:58Z</time>
      </trkpt>
      <trkpt lat="47.78659" lon="-2.68517">
        <ele>130.2</ele>
        <time>2024-09-15T08:38:00Z</time>
      </trkpt>
      <trkpt lat="47.78663" lon="-2.6851">
        <ele>130.4</ele>
        <time>2024-09-15T08:38:02Z</time>
      </trkpt>
      <trkpt lat="47.78668" lon="-2.68502">
        <ele>130.6</ele>
        <time>2024-09-15T08:38:04Z</time>
      </trkpt>
      <trkpt lat="47.78674" lon="-2.68489">
        <ele>130.8</ele>
        <time>2024-09-15T08:38:07Z</time>
      </trkpt>
      <trkpt lat="47.78676" lon="-2.68485">
        <ele>131</ele>
        <time>2024-09-15T08:38:08Z</time>
      </trkpt>
      <trkpt lat="47.78679" lon="-2.68481">
        <ele>131</ele>
        <time>2024-09-15T08:38:09Z</time>
      </trkpt>
      <trkpt lat="47.78681" lon="-2.68477">
        <ele>131.2</ele>
        <time>2024-09-15T08:38:10Z</time>
      </trkpt>
      <trkpt lat="47.78683" lon="-2.68473">
        <ele>131.6</ele>
        <time>2024-09-15T08:38:11Z</time>
      </trkpt>
      <trkpt lat="47.78685" lon="-2.6847">
        <ele>131.8</ele>
        <time>2024-09-15T08:38:12Z</time>
      </trkpt>
      <trkpt lat="47.78686" lon="-2.68468">
        <ele>132</ele>
        <time>2024-09-15T08:38:13Z</time>
      </trkpt>
      <trkpt lat="47.78688" lon="-2.68462">
        <ele>132</ele>
        <time>2024-09-15T08:38:15Z</time>
      </trkpt>
      <trkpt lat="47.78699" lon="-2.68431">
        <ele>132.6</ele>
        <time>2024-09-15T08:38:22Z</time>
      </trkpt>
      <trkpt lat="47.78705" lon="-2.68415">
        <ele>133</ele>
        <time>2024-09-15T08:38:25Z</time>
      </trkpt>
      <trkpt lat="47.78707" lon="-2.68412">
        <ele>133</ele>
        <time>2024-09-15T08:38:26Z</time>
      </trkpt>
      <trkpt lat="47.78709" lon="-2.68408">
        <ele>133</ele>
        <time>2024-09-15T08:38:27Z</time>
      </trkpt>
      <trkpt lat="47.78712" lon="-2.68403">
        <ele>133</ele>
        <time>2024-09-15T08:38:28Z</time>
      </trkpt>
      <trkpt lat="47.78714" lon="-2.68398">
        <ele>133.2</ele>
        <time>2024-09-15T08:38:29Z</time>
      </trkpt>
      <trkpt lat="47.78724" lon="-2.68376">
        <ele>133.6</ele>
        <time>2024-09-15T08:38:34Z</time>
      </trkpt>
      <trkpt lat="47.78725" lon="-2.68372">
        <ele>133.6</ele>
        <time>2024-09-15T08:38:35Z</time>
      </trkpt>
      <trkpt lat="47.78729" lon="-2.68363">
        <ele>133.6</ele>
        <time>2024-09-15T08:38:37Z</time>
      </trkpt>
      <trkpt lat="47.78733" lon="-2.68354">
        <ele>133.8</ele>
        <time>2024-09-15T08:38:39Z</time>
      </trkpt>
      <trkpt lat="47.78735" lon="-2.68349">
        <ele>134</ele>
        <time>2024-09-15T08:38:40Z</time>
      </trkpt>
      <trkpt lat="47.78739" lon="-2.68341">
        <ele>134</ele>
        <time>2024-09-15T08:38:42Z</time>
      </trkpt>
      <trkpt lat="47.78741" lon="-2.68336">
        <ele>134.2</ele>
        <time>2024-09-15T08:38:43Z</time>
      </trkpt>
      <trkpt lat="47.78742" lon="-2.68331">
        <ele>134.2</ele>
        <time>2024-09-15T08:38:44Z</time>
      </trkpt>
      <trkpt lat="47.78746" lon="-2.68326">
        <ele>134.2</ele>
        <time>2024-09-15T08:38:45Z</time>
      </trkpt>
      <trkpt lat="47.78756" lon="-2.68305">
        <ele>134.4</ele>
        <time>2024-09-15T08:38:50Z</time>
      </trkpt>
      <trkpt lat="47.78766" lon="-2.68279">
        <ele>134.4</ele>
        <time>2024-09-15T08:38:56Z</time>
      </trkpt>
      <trkpt lat="47.78768" lon="-2.68275">
        <ele>134.4</ele>
        <time>2024-09-15T08:38:57Z</time>
      </trkpt>
      <trkpt lat="47.78772" lon="-2.68267">
        <ele>134.4</ele>
        <time>2024-09-15T08:38:59Z</time>
      </trkpt>
      <trkpt lat="47.78778" lon="-2.68263">
        <ele>134.6</ele>
        <time>2024-09-15T08:39:01Z</time>
      </trkpt>
      <trkpt lat="47.78781" lon="-2.68264">
        <ele>134.6</ele>
        <time>2024-09-15T08:39:02Z</time>
      </trkpt>
      <trkpt lat="47.78784" lon="-2.68267">
        <ele>134.8</ele>
        <time>2024-09-15T08:39:03Z</time>
      </trkpt>
      <trkpt lat="47.78787" lon="-2.6827">
        <ele>134.8</ele>
        <time>2024-09-15T08:39:04Z</time>
      </trkpt>
      <trkpt lat="47.78792" lon="-2.68277">
        <ele>135</ele>
        <time>2024-09-15T08:39:06Z</time>
      </trkpt>
      <trkpt lat="47.78794" lon="-2.6828">
        <ele>135</ele>
        <time>2024-09-15T08:39:07Z</time>
      </trkpt>
      <trkpt lat="47.78796" lon="-2.68284">
        <ele>135</ele>
        <time>2024-09-15T08:39:08Z</time>
      </trkpt>
      <trkpt lat="47.78798" lon="-2.68287">
        <ele>135.2</ele>
        <time>2024-09-15T08:39:09Z</time>
      </trkpt>
      <trkpt lat="47.78804" lon="-2.68299">
        <ele>135.6</ele>
        <time>2024-09-15T08:39:12Z</time>
      </trkpt>
      <trkpt lat="47.78806" lon="-2.68302">
        <ele>135.8</ele>
        <time>2024-09-15T08:39:13Z</time>
      </trkpt>
      <trkpt lat="47.78808" lon="-2.68306">
        <ele>136.2</ele>
        <time>2024-09-15T08:39:14Z</time>
      </trkpt>
      <trkpt lat="47.7881" lon="-2.68309">
        <ele>136.2</ele>
        <time>2024-09-15T08:39:15Z</time>
      </trkpt>
      <trkpt lat="47.78812" lon="-2.68312">
        <ele>136.6</ele>
        <time>2024-09-15T08:39:16Z</time>
      </trkpt>
      <trkpt lat="47.78819" lon="-2.68319">
        <ele>137</ele>
        <time>2024-09-15T08:39:19Z</time>
      </trkpt>
      <trkpt lat="47.78821" lon="-2.6832">
        <ele>137.2</ele>
        <time>2024-09-15T08:39:20Z</time>
      </trkpt>
      <trkpt lat="47.78824" lon="-2.6832">
        <ele>137.4</ele>
        <time>2024-09-15T08:39:21Z</time>
      </trkpt>
      <trkpt lat="47.78829" lon="-2.68318">
        <ele>137.6</ele>
        <time>2024-09-15T08:39:22Z</time>
      </trkpt>
      <trkpt lat="47.78833" lon="-2.68316">
        <ele>137.6</ele>
        <time>2024-09-15T08:39:23Z</time>
      </trkpt>
      <trkpt lat="47.78837" lon="-2.68315">
        <ele>137.8</ele>
        <time>2024-09-15T08:39:24Z</time>
      </trkpt>
      <trkpt lat="47.78841" lon="-2.68313">
        <ele>137.8</ele>
        <time>2024-09-15T08:39:25Z</time>
      </trkpt>
      <trkpt lat="47.78846" lon="-2.68312">
        <ele>137.8</ele>
        <time>2024-09-15T08:39:26Z</time>
      </trkpt>
      <trkpt lat="47.7885" lon="-2.68311">
        <ele>138</ele>
        <time>2024-09-15T08:39:27Z</time>
      </trkpt>
      <trkpt lat="47.78854" lon="-2.68311">
        <ele>138</ele>
        <time>2024-09-15T08:39:28Z</time>
      </trkpt>
      <trkpt lat="47.78857" lon="-2.68311">
        <ele>138</ele>
        <time>2024-09-15T08:39:29Z</time>
      </trkpt>
      <trkpt lat="47.78861" lon="-2.68309">
        <ele>137.8</ele>
        <time>2024-09-15T08:39:30Z</time>
      </trkpt>
      <trkpt lat="47.78865" lon="-2.68307">
        <ele>137.8</ele>
        <time>2024-09-15T08:39:31Z</time>
      </trkpt>
      <trkpt lat="47.78869" lon="-2.68305">
        <ele>137.8</ele>
        <time>2024-09-15T08:39:32Z</time>
      </trkpt>
      <trkpt lat="47.78873" lon="-2.68303">
        <ele>137.8</ele>
        <time>2024-09-15T08:39:33Z</time>
      </trkpt>
      <trkpt lat="47.78877" lon="-2.683">
        <ele>137.8</ele>
        <time>2024-09-15T08:39:34Z</time>
      </trkpt>
      <trkpt lat="47.78881" lon="-2.68298">
        <ele>137.8</ele>
        <time>2024-09-15T08:39:35Z</time>
      </trkpt>
      <trkpt lat="47.78884" lon="-2.68296">
        <ele>137.8</ele>
        <time>2024-09-15T08:39:36Z</time>
      </trkpt>
      <trkpt lat="47.78887" lon="-2.68295">
        <ele>137.6</ele>
        <time>2024-09-15T08:39:37Z</time>
      </trkpt>
      <trkpt lat="47.78893" lon="-2.68295">
        <ele>137.4</ele>
        <time>2024-09-15T08:39:39Z</time>
      </trkpt>
      <trkpt lat="47.78896" lon="-2.68296">
        <ele>137.2</ele>
        <time>2024-09-15T08:39:40Z</time>
      </trkpt>
      <trkpt lat="47.78915" lon="-2.68294">
        <ele>136.6</ele>
        <time>2024-09-15T08:39:44Z</time>
      </trkpt>
      <trkpt lat="47.78926" lon="-2.68294">
        <ele>136.2</ele>
        <time>2024-09-15T08:39:47Z</time>
      </trkpt>
      <trkpt lat="47.78934" lon="-2.68294">
        <ele>136.2</ele>
        <time>2024-09-15T08:39:49Z</time>
      </trkpt>
      <trkpt lat="47.78937" lon="-2.68294">
        <ele>136</ele>
        <time>2024-09-15T08:39:50Z</time>
      </trkpt>
      <trkpt lat="47.78942" lon="-2.68293">
        <ele>136</ele>
        <time>2024-09-15T08:39:51Z</time>
      </trkpt>
      <trkpt lat="47.78946" lon="-2.68291">
        <ele>136</ele>
        <time>2024-09-15T08:39:52Z</time>
      </trkpt>
      <trkpt lat="47.78952" lon="-2.68287">
        <ele>136</ele>
        <time>2024-09-15T08:39:53Z</time>
      </trkpt>
      <trkpt lat="47.78955" lon="-2.68286">
        <ele>135.8</ele>
        <time>2024-09-15T08:39:54Z</time>
      </trkpt>
      <trkpt lat="47.78957" lon="-2.68285">
        <ele>135.8</ele>
        <time>2024-09-15T08:39:55Z</time>
      </trkpt>
      <trkpt lat="47.78959" lon="-2.68284">
        <ele>135.6</ele>
        <time>2024-09-15T08:39:56Z</time>
      </trkpt>
      <trkpt lat="47.78961" lon="-2.68283">
        <ele>135.6</ele>
        <time>2024-09-15T08:39:57Z</time>
      </trkpt>
      <trkpt lat="47.78965" lon="-2.68281">
        <ele>135.6</ele>
        <time>2024-09-15T08:39:58Z</time>
      </trkpt>
      <trkpt lat="47.78983" lon="-2.68279">
        <ele>135.8</ele>
        <time>2024-09-15T08:40:04Z</time>
      </trkpt>
      <trkpt lat="47.78987" lon="-2.6828">
        <ele>136</ele>
        <time>2024-09-15T08:40:05Z</time>
      </trkpt>
      <trkpt lat="47.7899" lon="-2.6828">
        <ele>136</ele>
        <time>2024-09-15T08:40:06Z</time>
      </trkpt>
      <trkpt lat="47.78992" lon="-2.68281">
        <ele>136</ele>
        <time>2024-09-15T08:40:07Z</time>
      </trkpt>
      <trkpt lat="47.78995" lon="-2.68283">
        <ele>136.2</ele>
        <time>2024-09-15T08:40:08Z</time>
      </trkpt>
      <trkpt lat="47.78996" lon="-2.68284">
        <ele>136.2</ele>
        <time>2024-09-15T08:40:09Z</time>
      </trkpt>
      <trkpt lat="47.78997" lon="-2.68284">
        <ele>136.4</ele>
        <time>2024-09-15T08:40:10Z</time>
      </trkpt>
      <trkpt lat="47.78999" lon="-2.68282">
        <ele>136.6</ele>
        <time>2024-09-15T08:40:12Z</time>
      </trkpt>
      <trkpt lat="47.79001" lon="-2.68282">
        <ele>136.6</ele>
        <time>2024-09-15T08:40:13Z</time>
      </trkpt>
      <trkpt lat="47.79003" lon="-2.68282">
        <ele>136.4</ele>
        <time>2024-09-15T08:40:14Z</time>
      </trkpt>
      <trkpt lat="47.79005" lon="-2.68281">
        <ele>136.4</ele>
        <time>2024-09-15T08:40:15Z</time>
      </trkpt>
      <trkpt lat="47.79011" lon="-2.68279">
        <ele>136.4</ele>
        <time>2024-09-15T08:40:17Z</time>
      </trkpt>
      <trkpt lat="47.79019" lon="-2.68277">
        <ele>136.4</ele>
        <time>2024-09-15T08:40:19Z</time>
      </trkpt>
      <trkpt lat="47.79022" lon="-2.68277">
        <ele>136.4</ele>
        <time>2024-09-15T08:40:20Z</time>
      </trkpt>
      <trkpt lat="47.79026" lon="-2.68276">
        <ele>136.2</ele>
        <time>2024-09-15T08:40:21Z</time>
      </trkpt>
      <trkpt lat="47.7903" lon="-2.68276">
        <ele>136.2</ele>
        <time>2024-09-15T08:40:22Z</time>
      </trkpt>
      <trkpt lat="47.7904" lon="-2.68274">
        <ele>136.2</ele>
        <time>2024-09-15T08:40:25Z</time>
      </trkpt>
      <trkpt lat="47.79045" lon="-2.68273">
        <ele>136.2</ele>
        <time>2024-09-15T08:40:26Z</time>
      </trkpt>
      <trkpt lat="47.79048" lon="-2.68273">
        <ele>136.2</ele>
        <time>2024-09-15T08:40:27Z</time>
      </trkpt>
      <trkpt lat="47.79051" lon="-2.68273">
        <ele>136.2</ele>
        <time>2024-09-15T08:40:28Z</time>
      </trkpt>
      <trkpt lat="47.79054" lon="-2.68272">
        <ele>136.2</ele>
        <time>2024-09-15T08:40:29Z</time>
      </trkpt>
      <trkpt lat="47.79057" lon="-2.68272">
        <ele>136.2</ele>
        <time>2024-09-15T08:40:30Z</time>
      </trkpt>
      <trkpt lat="47.79074" lon="-2.68268">
        <ele>136.4</ele>
        <time>2024-09-15T08:40:35Z</time>
      </trkpt>
      <trkpt lat="47.79077" lon="-2.68267">
        <ele>136.6</ele>
        <time>2024-09-15T08:40:36Z</time>
      </trkpt>
      <trkpt lat="47.79081" lon="-2.68265">
        <ele>136.6</ele>
        <time>2024-09-15T08:40:37Z</time>
      </trkpt>
      <trkpt lat="47.79085" lon="-2.68264">
        <ele>136.6</ele>
        <time>2024-09-15T08:40:38Z</time>
      </trkpt>
      <trkpt lat="47.79088" lon="-2.68263">
        <ele>136.8</ele>
        <time>2024-09-15T08:40:39Z</time>
      </trkpt>
      <trkpt lat="47.79091" lon="-2.68263">
        <ele>136.8</ele>
        <time>2024-09-15T08:40:40Z</time>
      </trkpt>
      <trkpt lat="47.79098" lon="-2.68263">
        <ele>136.8</ele>
        <time>2024-09-15T08:40:42Z</time>
      </trkpt>
      <trkpt lat="47.79101" lon="-2.68262">
        <ele>136.8</ele>
        <time>2024-09-15T08:40:43Z</time>
      </trkpt>
      <trkpt lat="47.79104" lon="-2.68257">
        <ele>136.8</ele>
        <time>2024-09-15T08:40:44Z</time>
      </trkpt>
      <trkpt lat="47.79108" lon="-2.68252">
        <ele>136.8</ele>
        <time>2024-09-15T08:40:45Z</time>
      </trkpt>
      <trkpt lat="47.7911" lon="-2.68249">
        <ele>136.8</ele>
        <time>2024-09-15T08:40:46Z</time>
      </trkpt>
      <trkpt lat="47.79112" lon="-2.68244">
        <ele>136.8</ele>
        <time>2024-09-15T08:40:47Z</time>
      </trkpt>
      <trkpt lat="47.79113" lon="-2.6824">
        <ele>136.8</ele>
        <time>2024-09-15T08:40:48Z</time>
      </trkpt>
      <trkpt lat="47.79114" lon="-2.68236">
        <ele>136.8</ele>
        <time>2024-09-15T08:40:49Z</time>
      </trkpt>
      <trkpt lat="47.79118" lon="-2.68229">
        <ele>136.8</ele>
        <time>2024-09-15T08:40:50Z</time>
      </trkpt>
      <trkpt lat="47.79122" lon="-2.68221">
        <ele>136.8</ele>
        <time>2024-09-15T08:40:51Z</time>
      </trkpt>
      <trkpt lat="47.79125" lon="-2.68214">
        <ele>136.8</ele>
        <time>2024-09-15T08:40:52Z</time>
      </trkpt>
      <trkpt lat="47.79125" lon="-2.68209">
        <ele>136.8</ele>
        <time>2024-09-15T08:40:53Z</time>
      </trkpt>
      <trkpt lat="47.79127" lon="-2.68202">
        <ele>136.8</ele>
        <time>2024-09-15T08:40:54Z</time>
      </trkpt>
      <trkpt lat="47.7913" lon="-2.68184">
        <ele>136.6</ele>
        <time>2024-09-15T08:40:57Z</time>
      </trkpt>
      <trkpt lat="47.7913" lon="-2.68179">
        <ele>136.4</ele>
        <time>2024-09-15T08:40:58Z</time>
      </trkpt>
      <trkpt lat="47.79132" lon="-2.68173">
        <ele>136.4</ele>
        <time>2024-09-15T08:40:59Z</time>
      </trkpt>
      <trkpt lat="47.79135" lon="-2.68169">
        <ele>136.2</ele>
        <time>2024-09-15T08:41:00Z</time>
      </trkpt>
      <trkpt lat="47.79139" lon="-2.68155">
        <ele>135.8</ele>
        <time>2024-09-15T08:41:03Z</time>
      </trkpt>
      <trkpt lat="47.79139" lon="-2.68145">
        <ele>135.6</ele>
        <time>2024-09-15T08:41:05Z</time>
      </trkpt>
      <trkpt lat="47.79139" lon="-2.68141">
        <ele>135.4</ele>
        <time>2024-09-15T08:41:06Z</time>
      </trkpt>
      <trkpt lat="47.79137" lon="-2.68136">
        <ele>135.4</ele>
        <time>2024-09-15T08:41:07Z</time>
      </trkpt>
      <trkpt lat="47.79136" lon="-2.68132">
        <ele>135.2</ele>
        <time>2024-09-15T08:41:08Z</time>
      </trkpt>
      <trkpt lat="47.79134" lon="-2.68127">
        <ele>135.2</ele>
        <time>2024-09-15T08:41:09Z</time>
      </trkpt>
      <trkpt lat="47.79128" lon="-2.68115">
        <ele>135.2</ele>
        <time>2024-09-15T08:41:11Z</time>
      </trkpt>
      <trkpt lat="47.79125" lon="-2.6811">
        <ele>135</ele>
        <time>2024-09-15T08:41:12Z</time>
      </trkpt>
      <trkpt lat="47.79123" lon="-2.68109">
        <ele>135</ele>
        <time>2024-09-15T08:41:13Z</time>
      </trkpt>
      <trkpt lat="47.7912" lon="-2.68108">
        <ele>134.8</ele>
        <time>2024-09-15T08:41:14Z</time>
      </trkpt>
      <trkpt lat="47.79118" lon="-2.68107">
        <ele>134.6</ele>
        <time>2024-09-15T08:41:15Z</time>
      </trkpt>
      <trkpt lat="47.79115" lon="-2.68106">
        <ele>134.6</ele>
        <time>2024-09-15T08:41:16Z</time>
      </trkpt>
      <trkpt lat="47.79113" lon="-2.68102">
        <ele>134.4</ele>
        <time>2024-09-15T08:41:17Z</time>
      </trkpt>
      <trkpt lat="47.79112" lon="-2.68097">
        <ele>134.4</ele>
        <time>2024-09-15T08:41:18Z</time>
      </trkpt>
      <trkpt lat="47.79111" lon="-2.68091">
        <ele>134.2</ele>
        <time>2024-09-15T08:41:19Z</time>
      </trkpt>
      <trkpt lat="47.7911" lon="-2.68085">
        <ele>134.2</ele>
        <time>2024-09-15T08:41:20Z</time>
      </trkpt>
      <trkpt lat="47.79109" lon="-2.68079">
        <ele>134</ele>
        <time>2024-09-15T08:41:21Z</time>
      </trkpt>
      <trkpt lat="47.79107" lon="-2.68073">
        <ele>134</ele>
        <time>2024-09-15T08:41:22Z</time>
      </trkpt>
      <trkpt lat="47.79105" lon="-2.68067">
        <ele>133.8</ele>
        <time>2024-09-15T08:41:23Z</time>
      </trkpt>
      <trkpt lat="47.79104" lon="-2.68064">
        <ele>133.8</ele>
        <time>2024-09-15T08:41:24Z</time>
      </trkpt>
      <trkpt lat="47.79104" lon="-2.6806">
        <ele>133.6</ele>
        <time>2024-09-15T08:41:25Z</time>
      </trkpt>
      <trkpt lat="47.79105" lon="-2.68055">
        <ele>133.4</ele>
        <time>2024-09-15T08:41:26Z</time>
      </trkpt>
      <trkpt lat="47.79105" lon="-2.6805">
        <ele>133.2</ele>
        <time>2024-09-15T08:41:27Z</time>
      </trkpt>
      <trkpt lat="47.79107" lon="-2.68046">
        <ele>133</ele>
        <time>2024-09-15T08:41:28Z</time>
      </trkpt>
      <trkpt lat="47.79111" lon="-2.68038">
        <ele>133</ele>
        <time>2024-09-15T08:41:30Z</time>
      </trkpt>
      <trkpt lat="47.79113" lon="-2.68034">
        <ele>133</ele>
        <time>2024-09-15T08:41:31Z</time>
      </trkpt>
      <trkpt lat="47.79117" lon="-2.68031">
        <ele>133</ele>
        <time>2024-09-15T08:41:32Z</time>
      </trkpt>
      <trkpt lat="47.79119" lon="-2.68028">
        <ele>133</ele>
        <time>2024-09-15T08:41:33Z</time>
      </trkpt>
      <trkpt lat="47.7913" lon="-2.68016">
        <ele>133.2</ele>
        <time>2024-09-15T08:41:37Z</time>
      </trkpt>
      <trkpt lat="47.79158" lon="-2.67992">
        <ele>133.8</ele>
        <time>2024-09-15T08:41:46Z</time>
      </trkpt>
      <trkpt lat="47.7917" lon="-2.67982">
        <ele>134.2</ele>
        <time>2024-09-15T08:41:50Z</time>
      </trkpt>
      <trkpt lat="47.79173" lon="-2.6798">
        <ele>134.2</ele>
        <time>2024-09-15T08:41:51Z</time>
      </trkpt>
      <trkpt lat="47.79184" lon="-2.67971">
        <ele>134.4</ele>
        <time>2024-09-15T08:41:54Z</time>
      </trkpt>
      <trkpt lat="47.79198" lon="-2.67959">
        <ele>134.6</ele>
        <time>2024-09-15T08:41:58Z</time>
      </trkpt>
      <trkpt lat="47.79203" lon="-2.67949">
        <ele>134.6</ele>
        <time>2024-09-15T08:42:00Z</time>
      </trkpt>
      <trkpt lat="47.79204" lon="-2.67944">
        <ele>134.6</ele>
        <time>2024-09-15T08:42:01Z</time>
      </trkpt>
      <trkpt lat="47.79205" lon="-2.67938">
        <ele>134.6</ele>
        <time>2024-09-15T08:42:02Z</time>
      </trkpt>
      <trkpt lat="47.79205" lon="-2.67933">
        <ele>134.6</ele>
        <time>2024-09-15T08:42:03Z</time>
      </trkpt>
      <trkpt lat="47.79205" lon="-2.67928">
        <ele>134.6</ele>
        <time>2024-09-15T08:42:04Z</time>
      </trkpt>
      <trkpt lat="47.79205" lon="-2.67917">
        <ele>134.8</ele>
        <time>2024-09-15T08:42:06Z</time>
      </trkpt>
      <trkpt lat="47.79205" lon="-2.67911">
        <ele>135</ele>
        <time>2024-09-15T08:42:07Z</time>
      </trkpt>
      <trkpt lat="47.79205" lon="-2.67904">
        <ele>135</ele>
        <time>2024-09-15T08:42:08Z</time>
      </trkpt>
      <trkpt lat="47.79206" lon="-2.67897">
        <ele>135.2</ele>
        <time>2024-09-15T08:42:09Z</time>
      </trkpt>
      <trkpt lat="47.79206" lon="-2.6789">
        <ele>135.2</ele>
        <time>2024-09-15T08:42:10Z</time>
      </trkpt>
      <trkpt lat="47.79207" lon="-2.67882">
        <ele>135.2</ele>
        <time>2024-09-15T08:42:11Z</time>
      </trkpt>
      <trkpt lat="47.79207" lon="-2.67876">
        <ele>135.2</ele>
        <time>2024-09-15T08:42:12Z</time>
      </trkpt>
      <trkpt lat="47.79209" lon="-2.67853">
        <ele>135.2</ele>
        <time>2024-09-15T08:42:15Z</time>
      </trkpt>
      <trkpt lat="47.7921" lon="-2.67839">
        <ele>135.4</ele>
        <time>2024-09-15T08:42:17Z</time>
      </trkpt>
      <trkpt lat="47.79211" lon="-2.67832">
        <ele>135.4</ele>
        <time>2024-09-15T08:42:18Z</time>
      </trkpt>
      <trkpt lat="47.79211" lon="-2.67823">
        <ele>135.4</ele>
        <time>2024-09-15T08:42:19Z</time>
      </trkpt>
      <trkpt lat="47.79211" lon="-2.67817">
        <ele>135.6</ele>
        <time>2024-09-15T08:42:20Z</time>
      </trkpt>
      <trkpt lat="47.79211" lon="-2.6781">
        <ele>135.6</ele>
        <time>2024-09-15T08:42:21Z</time>
      </trkpt>
      <trkpt lat="47.79212" lon="-2.67791">
        <ele>136</ele>
        <time>2024-09-15T08:42:24Z</time>
      </trkpt>
      <trkpt lat="47.79213" lon="-2.67771">
        <ele>136.2</ele>
        <time>2024-09-15T08:42:27Z</time>
      </trkpt>
      <trkpt lat="47.79214" lon="-2.67765">
        <ele>136.2</ele>
        <time>2024-09-15T08:42:28Z</time>
      </trkpt>
      <trkpt lat="47.79214" lon="-2.67758">
        <ele>136.4</ele>
        <time>2024-09-15T08:42:29Z</time>
      </trkpt>
      <trkpt lat="47.79216" lon="-2.67733">
        <ele>136.4</ele>
        <time>2024-09-15T08:42:33Z</time>
      </trkpt>
      <trkpt lat="47.79218" lon="-2.67708">
        <ele>136.8</ele>
        <time>2024-09-15T08:42:37Z</time>
      </trkpt>
      <trkpt lat="47.79219" lon="-2.67696">
        <ele>136.8</ele>
        <time>2024-09-15T08:42:39Z</time>
      </trkpt>
      <trkpt lat="47.79219" lon="-2.67682">
        <ele>136.6</ele>
        <time>2024-09-15T08:42:41Z</time>
      </trkpt>
      <trkpt lat="47.7922" lon="-2.67675">
        <ele>136.4</ele>
        <time>2024-09-15T08:42:42Z</time>
      </trkpt>
      <trkpt lat="47.79223" lon="-2.67638">
        <ele>136.4</ele>
        <time>2024-09-15T08:42:47Z</time>
      </trkpt>
      <trkpt lat="47.79224" lon="-2.6763">
        <ele>136.4</ele>
        <time>2024-09-15T08:42:48Z</time>
      </trkpt>
      <trkpt lat="47.79224" lon="-2.67622">
        <ele>136.2</ele>
        <time>2024-09-15T08:42:49Z</time>
      </trkpt>
      <trkpt lat="47.79224" lon="-2.67614">
        <ele>136.2</ele>
        <time>2024-09-15T08:42:50Z</time>
      </trkpt>
      <trkpt lat="47.79225" lon="-2.67607">
        <ele>136.2</ele>
        <time>2024-09-15T08:42:51Z</time>
      </trkpt>
      <trkpt lat="47.79225" lon="-2.67599">
        <ele>136.2</ele>
        <time>2024-09-15T08:42:52Z</time>
      </trkpt>
      <trkpt lat="47.79225" lon="-2.67591">
        <ele>136.2</ele>
        <time>2024-09-15T08:42:53Z</time>
      </trkpt>
      <trkpt lat="47.79225" lon="-2.67584">
        <ele>136.2</ele>
        <time>2024-09-15T08:42:54Z</time>
      </trkpt>
      <trkpt lat="47.79225" lon="-2.67577">
        <ele>136.2</ele>
        <time>2024-09-15T08:42:55Z</time>
      </trkpt>
      <trkpt lat="47.79225" lon="-2.6757">
        <ele>136.2</ele>
        <time>2024-09-15T08:42:56Z</time>
      </trkpt>
      <trkpt lat="47.79224" lon="-2.67564">
        <ele>136.2</ele>
        <time>2024-09-15T08:42:57Z</time>
      </trkpt>
      <trkpt lat="47.79224" lon="-2.67551">
        <ele>136.4</ele>
        <time>2024-09-15T08:42:59Z</time>
      </trkpt>
      <trkpt lat="47.79224" lon="-2.67543">
        <ele>136.4</ele>
        <time>2024-09-15T08:43:00Z</time>
      </trkpt>
      <trkpt lat="47.79225" lon="-2.67537">
        <ele>136.4</ele>
        <time>2024-09-15T08:43:01Z</time>
      </trkpt>
      <trkpt lat="47.79224" lon="-2.67495">
        <ele>136.8</ele>
        <time>2024-09-15T08:43:07Z</time>
      </trkpt>
      <trkpt lat="47.79224" lon="-2.67447">
        <ele>136.8</ele>
        <time>2024-09-15T08:43:14Z</time>
      </trkpt>
      <trkpt lat="47.79225" lon="-2.6744">
        <ele>136.8</ele>
        <time>2024-09-15T08:43:15Z</time>
      </trkpt>
      <trkpt lat="47.79226" lon="-2.67394">
        <ele>136.6</ele>
        <time>2024-09-15T08:43:20Z</time>
      </trkpt>
      <trkpt lat="47.79225" lon="-2.67327">
        <ele>135.6</ele>
        <time>2024-09-15T08:43:26Z</time>
      </trkpt>
      <trkpt lat="47.79224" lon="-2.67292">
        <ele>134.8</ele>
        <time>2024-09-15T08:43:29Z</time>
      </trkpt>
      <trkpt lat="47.79224" lon="-2.67279">
        <ele>134.8</ele>
        <time>2024-09-15T08:43:30Z</time>
      </trkpt>
      <trkpt lat="47.79223" lon="-2.67267">
        <ele>134.2</ele>
        <time>2024-09-15T08:43:31Z</time>
      </trkpt>
      <trkpt lat="47.79222" lon="-2.67256">
        <ele>134</ele>
        <time>2024-09-15T08:43:32Z</time>
      </trkpt>
      <trkpt lat="47.79222" lon="-2.67245">
        <ele>133.8</ele>
        <time>2024-09-15T08:43:33Z</time>
      </trkpt>
      <trkpt lat="47.79222" lon="-2.67235">
        <ele>133.6</ele>
        <time>2024-09-15T08:43:34Z</time>
      </trkpt>
      <trkpt lat="47.79222" lon="-2.67213">
        <ele>133</ele>
        <time>2024-09-15T08:43:36Z</time>
      </trkpt>
      <trkpt lat="47.79222" lon="-2.67203">
        <ele>132.8</ele>
        <time>2024-09-15T08:43:37Z</time>
      </trkpt>
      <trkpt lat="47.79222" lon="-2.67193">
        <ele>132.6</ele>
        <time>2024-09-15T08:43:38Z</time>
      </trkpt>
      <trkpt lat="47.7922" lon="-2.67162">
        <ele>132</ele>
        <time>2024-09-15T08:43:41Z</time>
      </trkpt>
      <trkpt lat="47.7922" lon="-2.67118">
        <ele>131.4</ele>
        <time>2024-09-15T08:43:45Z</time>
      </trkpt>
      <trkpt lat="47.79219" lon="-2.67083">
        <ele>130.6</ele>
        <time>2024-09-15T08:43:48Z</time>
      </trkpt>
      <trkpt lat="47.79219" lon="-2.67071">
        <ele>130.2</ele>
        <time>2024-09-15T08:43:49Z</time>
      </trkpt>
      <trkpt lat="47.79219" lon="-2.67036">
        <ele>129.4</ele>
        <time>2024-09-15T08:43:52Z</time>
      </trkpt>
      <trkpt lat="47.79219" lon="-2.67024">
        <ele>129.2</ele>
        <time>2024-09-15T08:43:53Z</time>
      </trkpt>
      <trkpt lat="47.79219" lon="-2.67012">
        <ele>128.8</ele>
        <time>2024-09-15T08:43:54Z</time>
      </trkpt>
      <trkpt lat="47.79219" lon="-2.66989">
        <ele>128.2</ele>
        <time>2024-09-15T08:43:56Z</time>
      </trkpt>
      <trkpt lat="47.79219" lon="-2.66978">
        <ele>128</ele>
        <time>2024-09-15T08:43:57Z</time>
      </trkpt>
      <trkpt lat="47.79219" lon="-2.66967">
        <ele>127.8</ele>
        <time>2024-09-15T08:43:58Z</time>
      </trkpt>
      <trkpt lat="47.79219" lon="-2.66956">
        <ele>127.8</ele>
        <time>2024-09-15T08:43:59Z</time>
      </trkpt>
      <trkpt lat="47.79219" lon="-2.66946">
        <ele>127.6</ele>
        <time>2024-09-15T08:44:00Z</time>
      </trkpt>
      <trkpt lat="47.79219" lon="-2.66936">
        <ele>127.4</ele>
        <time>2024-09-15T08:44:01Z</time>
      </trkpt>
      <trkpt lat="47.79219" lon="-2.66926">
        <ele>127.2</ele>
        <time>2024-09-15T08:44:02Z</time>
      </trkpt>
      <trkpt lat="47.79218" lon="-2.66916">
        <ele>126.8</ele>
        <time>2024-09-15T08:44:03Z</time>
      </trkpt>
      <trkpt lat="47.79218" lon="-2.66907">
        <ele>126.4</ele>
        <time>2024-09-15T08:44:04Z</time>
      </trkpt>
      <trkpt lat="47.79217" lon="-2.66898">
        <ele>126.2</ele>
        <time>2024-09-15T08:44:05Z</time>
      </trkpt>
      <trkpt lat="47.79217" lon="-2.6689">
        <ele>126</ele>
        <time>2024-09-15T08:44:06Z</time>
      </trkpt>
      <trkpt lat="47.79217" lon="-2.66881">
        <ele>125.6</ele>
        <time>2024-09-15T08:44:07Z</time>
      </trkpt>
      <trkpt lat="47.79218" lon="-2.66864">
        <ele>125.4</ele>
        <time>2024-09-15T08:44:09Z</time>
      </trkpt>
      <trkpt lat="47.79218" lon="-2.66856">
        <ele>125.2</ele>
        <time>2024-09-15T08:44:10Z</time>
      </trkpt>
      <trkpt lat="47.79218" lon="-2.66839">
        <ele>125.2</ele>
        <time>2024-09-15T08:44:12Z</time>
      </trkpt>
      <trkpt lat="47.79218" lon="-2.66831">
        <ele>125.2</ele>
        <time>2024-09-15T08:44:13Z</time>
      </trkpt>
      <trkpt lat="47.79218" lon="-2.66815">
        <ele>125.4</ele>
        <time>2024-09-15T08:44:15Z</time>
      </trkpt>
      <trkpt lat="47.79218" lon="-2.66808">
        <ele>125.6</ele>
        <time>2024-09-15T08:44:16Z</time>
      </trkpt>
      <trkpt lat="47.79218" lon="-2.66801">
        <ele>125.6</ele>
        <time>2024-09-15T08:44:17Z</time>
      </trkpt>
      <trkpt lat="47.79217" lon="-2.66794">
        <ele>125.6</ele>
        <time>2024-09-15T08:44:18Z</time>
      </trkpt>
      <trkpt lat="47.79217" lon="-2.66787">
        <ele>125.6</ele>
        <time>2024-09-15T08:44:19Z</time>
      </trkpt>
      <trkpt lat="47.79217" lon="-2.66781">
        <ele>125.6</ele>
        <time>2024-09-15T08:44:20Z</time>
      </trkpt>
      <trkpt lat="47.79217" lon="-2.66775">
        <ele>125.8</ele>
        <time>2024-09-15T08:44:21Z</time>
      </trkpt>
      <trkpt lat="47.79217" lon="-2.66769">
        <ele>125.8</ele>
        <time>2024-09-15T08:44:22Z</time>
      </trkpt>
      <trkpt lat="47.79217" lon="-2.6675">
        <ele>125.8</ele>
        <time>2024-09-15T08:44:25Z</time>
      </trkpt>
      <trkpt lat="47.79216" lon="-2.66744">
        <ele>125.8</ele>
        <time>2024-09-15T08:44:26Z</time>
      </trkpt>
      <trkpt lat="47.79216" lon="-2.66731">
        <ele>125.8</ele>
        <time>2024-09-15T08:44:28Z</time>
      </trkpt>
      <trkpt lat="47.79215" lon="-2.66718">
        <ele>126</ele>
        <time>2024-09-15T08:44:30Z</time>
      </trkpt>
      <trkpt lat="47.79215" lon="-2.66712">
        <ele>126</ele>
        <time>2024-09-15T08:44:31Z</time>
      </trkpt>
      <trkpt lat="47.79215" lon="-2.66706">
        <ele>126</ele>
        <time>2024-09-15T08:44:32Z</time>
      </trkpt>
      <trkpt lat="47.79215" lon="-2.667">
        <ele>126.2</ele>
        <time>2024-09-15T08:44:33Z</time>
      </trkpt>
      <trkpt lat="47.79215" lon="-2.66694">
        <ele>126.2</ele>
        <time>2024-09-15T08:44:34Z</time>
      </trkpt>
      <trkpt lat="47.79216" lon="-2.66683">
        <ele>126.2</ele>
        <time>2024-09-15T08:44:36Z</time>
      </trkpt>
      <trkpt lat="47.79215" lon="-2.66666">
        <ele>126.2</ele>
        <time>2024-09-15T08:44:39Z</time>
      </trkpt>
      <trkpt lat="47.79212" lon="-2.6665">
        <ele>126.4</ele>
        <time>2024-09-15T08:44:42Z</time>
      </trkpt>
      <trkpt lat="47.79211" lon="-2.66632">
        <ele>126.6</ele>
        <time>2024-09-15T08:44:45Z</time>
      </trkpt>
      <trkpt lat="47.79211" lon="-2.66618">
        <ele>126.8</ele>
        <time>2024-09-15T08:44:47Z</time>
      </trkpt>
      <trkpt lat="47.7921" lon="-2.66598">
        <ele>126.8</ele>
        <time>2024-09-15T08:44:50Z</time>
      </trkpt>
      <trkpt lat="47.79211" lon="-2.66591">
        <ele>126.8</ele>
        <time>2024-09-15T08:44:51Z</time>
      </trkpt>
      <trkpt lat="47.79212" lon="-2.6655">
        <ele>126.6</ele>
        <time>2024-09-15T08:44:57Z</time>
      </trkpt>
      <trkpt lat="47.79211" lon="-2.66542">
        <ele>126.6</ele>
        <time>2024-09-15T08:44:58Z</time>
      </trkpt>
      <trkpt lat="47.79211" lon="-2.66535">
        <ele>126.6</ele>
        <time>2024-09-15T08:44:59Z</time>
      </trkpt>
      <trkpt lat="47.79212" lon="-2.66517">
        <ele>126</ele>
        <time>2024-09-15T08:45:02Z</time>
      </trkpt>
      <trkpt lat="47.79211" lon="-2.665">
        <ele>125.8</ele>
        <time>2024-09-15T08:45:04Z</time>
      </trkpt>
      <trkpt lat="47.79212" lon="-2.66492">
        <ele>125.8</ele>
        <time>2024-09-15T08:45:05Z</time>
      </trkpt>
      <trkpt lat="47.79208" lon="-2.66467">
        <ele>125.8</ele>
        <time>2024-09-15T08:45:08Z</time>
      </trkpt>
      <trkpt lat="47.79207" lon="-2.66458">
        <ele>125.8</ele>
        <time>2024-09-15T08:45:09Z</time>
      </trkpt>
      <trkpt lat="47.79206" lon="-2.6644">
        <ele>125.6</ele>
        <time>2024-09-15T08:45:11Z</time>
      </trkpt>
      <trkpt lat="47.79206" lon="-2.66426">
        <ele>125.6</ele>
        <time>2024-09-15T08:45:13Z</time>
      </trkpt>
      <trkpt lat="47.79206" lon="-2.66398">
        <ele>125.2</ele>
        <time>2024-09-15T08:45:16Z</time>
      </trkpt>
      <trkpt lat="47.79207" lon="-2.66363">
        <ele>125</ele>
        <time>2024-09-15T08:45:20Z</time>
      </trkpt>
      <trkpt lat="47.79208" lon="-2.66347">
        <ele>124.8</ele>
        <time>2024-09-15T08:45:22Z</time>
      </trkpt>
      <trkpt lat="47.79209" lon="-2.66339">
        <ele>124.8</ele>
        <time>2024-09-15T08:45:23Z</time>
      </trkpt>
      <trkpt lat="47.79209" lon="-2.66331">
        <ele>124.8</ele>
        <time>2024-09-15T08:45:24Z</time>
      </trkpt>
      <trkpt lat="47.79209" lon="-2.66323">
        <ele>124.6</ele>
        <time>2024-09-15T08:45:25Z</time>
      </trkpt>
      <trkpt lat="47.7921" lon="-2.66283">
        <ele>124.2</ele>
        <time>2024-09-15T08:45:30Z</time>
      </trkpt>
      <trkpt lat="47.7921" lon="-2.66275">
        <ele>124</ele>
        <time>2024-09-15T08:45:31Z</time>
      </trkpt>
      <trkpt lat="47.7921" lon="-2.66269">
        <ele>123.8</ele>
        <time>2024-09-15T08:45:32Z</time>
      </trkpt>
      <trkpt lat="47.79209" lon="-2.66263">
        <ele>123.8</ele>
        <time>2024-09-15T08:45:33Z</time>
      </trkpt>
      <trkpt lat="47.79209" lon="-2.66258">
        <ele>123.8</ele>
        <time>2024-09-15T08:45:34Z</time>
      </trkpt>
      <trkpt lat="47.79208" lon="-2.66251">
        <ele>123.8</ele>
        <time>2024-09-15T08:45:35Z</time>
      </trkpt>
      <trkpt lat="47.79209" lon="-2.6622">
        <ele>123.4</ele>
        <time>2024-09-15T08:45:39Z</time>
      </trkpt>
      <trkpt lat="47.79209" lon="-2.66213">
        <ele>123.4</ele>
        <time>2024-09-15T08:45:40Z</time>
      </trkpt>
      <trkpt lat="47.79209" lon="-2.66206">
        <ele>123.4</ele>
        <time>2024-09-15T08:45:41Z</time>
      </trkpt>
      <trkpt lat="47.79209" lon="-2.66199">
        <ele>123.4</ele>
        <time>2024-09-15T08:45:42Z</time>
      </trkpt>
      <trkpt lat="47.79209" lon="-2.66191">
        <ele>123.4</ele>
        <time>2024-09-15T08:45:43Z</time>
      </trkpt>
      <trkpt lat="47.79209" lon="-2.66185">
        <ele>123.4</ele>
        <time>2024-09-15T08:45:44Z</time>
      </trkpt>
      <trkpt lat="47.7921" lon="-2.6618">
        <ele>123.4</ele>
        <time>2024-09-15T08:45:45Z</time>
      </trkpt>
      <trkpt lat="47.79211" lon="-2.66174">
        <ele>123.4</ele>
        <time>2024-09-15T08:45:46Z</time>
      </trkpt>
      <trkpt lat="47.79211" lon="-2.66168">
        <ele>123.4</ele>
        <time>2024-09-15T08:45:47Z</time>
      </trkpt>
      <trkpt lat="47.79209" lon="-2.66156">
        <ele>123.6</ele>
        <time>2024-09-15T08:45:49Z</time>
      </trkpt>
      <trkpt lat="47.79209" lon="-2.6615">
        <ele>123.6</ele>
        <time>2024-09-15T08:45:50Z</time>
      </trkpt>
      <trkpt lat="47.79208" lon="-2.66145">
        <ele>123.6</ele>
        <time>2024-09-15T08:45:51Z</time>
      </trkpt>
      <trkpt lat="47.79207" lon="-2.66139">
        <ele>123.6</ele>
        <time>2024-09-15T08:45:52Z</time>
      </trkpt>
      <trkpt lat="47.79208" lon="-2.66132">
        <ele>123.6</ele>
        <time>2024-09-15T08:45:53Z</time>
      </trkpt>
      <trkpt lat="47.79206" lon="-2.6612">
        <ele>124</ele>
        <time>2024-09-15T08:45:55Z</time>
      </trkpt>
      <trkpt lat="47.79205" lon="-2.6611">
        <ele>124.2</ele>
        <time>2024-09-15T08:45:57Z</time>
      </trkpt>
      <trkpt lat="47.79203" lon="-2.66105">
        <ele>124.4</ele>
        <time>2024-09-15T08:45:58Z</time>
      </trkpt>
      <trkpt lat="47.79204" lon="-2.66098">
        <ele>124.4</ele>
        <time>2024-09-15T08:45:59Z</time>
      </trkpt>
      <trkpt lat="47.79204" lon="-2.66092">
        <ele>124.4</ele>
        <time>2024-09-15T08:46:00Z</time>
      </trkpt>
      <trkpt lat="47.79204" lon="-2.66086">
        <ele>124.4</ele>
        <time>2024-09-15T08:46:01Z</time>
      </trkpt>
      <trkpt lat="47.79204" lon="-2.66082">
        <ele>124.6</ele>
        <time>2024-09-15T08:46:02Z</time>
      </trkpt>
      <trkpt lat="47.79204" lon="-2.66077">
        <ele>124.6</ele>
        <time>2024-09-15T08:46:03Z</time>
      </trkpt>
      <trkpt lat="47.79205" lon="-2.6607">
        <ele>124.6</ele>
        <time>2024-09-15T08:46:04Z</time>
      </trkpt>
      <trkpt lat="47.79204" lon="-2.66064">
        <ele>124.8</ele>
        <time>2024-09-15T08:46:05Z</time>
      </trkpt>
      <trkpt lat="47.79205" lon="-2.66059">
        <ele>124.8</ele>
        <time>2024-09-15T08:46:06Z</time>
      </trkpt>
      <trkpt lat="47.79206" lon="-2.66043">
        <ele>125</ele>
        <time>2024-09-15T08:46:09Z</time>
      </trkpt>
      <trkpt lat="47.79208" lon="-2.66039">
        <ele>125.2</ele>
        <time>2024-09-15T08:46:10Z</time>
      </trkpt>
      <trkpt lat="47.79207" lon="-2.66035">
        <ele>125.2</ele>
        <time>2024-09-15T08:46:11Z</time>
      </trkpt>
      <trkpt lat="47.79206" lon="-2.6603">
        <ele>125.2</ele>
        <time>2024-09-15T08:46:12Z</time>
      </trkpt>
      <trkpt lat="47.79205" lon="-2.66027">
        <ele>125.2</ele>
        <time>2024-09-15T08:46:13Z</time>
      </trkpt>
      <trkpt lat="47.79205" lon="-2.66023">
        <ele>125.4</ele>
        <time>2024-09-15T08:46:14Z</time>
      </trkpt>
      <trkpt lat="47.79202" lon="-2.66018">
        <ele>125.4</ele>
        <time>2024-09-15T08:46:15Z</time>
      </trkpt>
      <trkpt lat="47.79201" lon="-2.66012">
        <ele>125.8</ele>
        <time>2024-09-15T08:46:16Z</time>
      </trkpt>
      <trkpt lat="47.79198" lon="-2.65999">
        <ele>126</ele>
        <time>2024-09-15T08:46:19Z</time>
      </trkpt>
      <trkpt lat="47.79198" lon="-2.65994">
        <ele>126</ele>
        <time>2024-09-15T08:46:20Z</time>
      </trkpt>
      <trkpt lat="47.792" lon="-2.65989">
        <ele>126</ele>
        <time>2024-09-15T08:46:21Z</time>
      </trkpt>
      <trkpt lat="47.79202" lon="-2.65986">
        <ele>126.2</ele>
        <time>2024-09-15T08:46:22Z</time>
      </trkpt>
      <trkpt lat="47.79203" lon="-2.65981">
        <ele>126.2</ele>
        <time>2024-09-15T08:46:23Z</time>
      </trkpt>
      <trkpt lat="47.79203" lon="-2.65976">
        <ele>126.4</ele>
        <time>2024-09-15T08:46:24Z</time>
      </trkpt>
      <trkpt lat="47.79203" lon="-2.65972">
        <ele>126.6</ele>
        <time>2024-09-15T08:46:25Z</time>
      </trkpt>
      <trkpt lat="47.79202" lon="-2.65966">
        <ele>126.8</ele>
        <time>2024-09-15T08:46:26Z</time>
      </trkpt>
      <trkpt lat="47.79201" lon="-2.65961">
        <ele>126.8</ele>
        <time>2024-09-15T08:46:27Z</time>
      </trkpt>
      <trkpt lat="47.79202" lon="-2.65957">
        <ele>127</ele>
        <time>2024-09-15T08:46:28Z</time>
      </trkpt>
      <trkpt lat="47.79204" lon="-2.65947">
        <ele>127</ele>
        <time>2024-09-15T08:46:30Z</time>
      </trkpt>
      <trkpt lat="47.79204" lon="-2.65941">
        <ele>127</ele>
        <time>2024-09-15T08:46:31Z</time>
      </trkpt>
      <trkpt lat="47.79204" lon="-2.65924">
        <ele>127.2</ele>
        <time>2024-09-15T08:46:33Z</time>
      </trkpt>
      <trkpt lat="47.79204" lon="-2.65918">
        <ele>127.4</ele>
        <time>2024-09-15T08:46:34Z</time>
      </trkpt>
      <trkpt lat="47.79202" lon="-2.65914">
        <ele>127.4</ele>
        <time>2024-09-15T08:46:35Z</time>
      </trkpt>
      <trkpt lat="47.79201" lon="-2.65909">
        <ele>127.4</ele>
        <time>2024-09-15T08:46:36Z</time>
      </trkpt>
      <trkpt lat="47.792" lon="-2.659">
        <ele>127.6</ele>
        <time>2024-09-15T08:46:37Z</time>
      </trkpt>
      <trkpt lat="47.79199" lon="-2.65888">
        <ele>127.8</ele>
        <time>2024-09-15T08:46:40Z</time>
      </trkpt>
      <trkpt lat="47.79199" lon="-2.65882">
        <ele>127.8</ele>
        <time>2024-09-15T08:46:41Z</time>
      </trkpt>
      <trkpt lat="47.79199" lon="-2.65872">
        <ele>127.8</ele>
        <time>2024-09-15T08:46:42Z</time>
      </trkpt>
      <trkpt lat="47.79199" lon="-2.65867">
        <ele>127.8</ele>
        <time>2024-09-15T08:46:43Z</time>
      </trkpt>
      <trkpt lat="47.79198" lon="-2.65863">
        <ele>127.8</ele>
        <time>2024-09-15T08:46:44Z</time>
      </trkpt>
      <trkpt lat="47.79197" lon="-2.65847">
        <ele>128.2</ele>
        <time>2024-09-15T08:46:48Z</time>
      </trkpt>
      <trkpt lat="47.79199" lon="-2.65843">
        <ele>128.4</ele>
        <time>2024-09-15T08:46:49Z</time>
      </trkpt>
      <trkpt lat="47.79201" lon="-2.65838">
        <ele>128.6</ele>
        <time>2024-09-15T08:46:50Z</time>
      </trkpt>
      <trkpt lat="47.792" lon="-2.65832">
        <ele>128.6</ele>
        <time>2024-09-15T08:46:51Z</time>
      </trkpt>
      <trkpt lat="47.79198" lon="-2.65816">
        <ele>128.8</ele>
        <time>2024-09-15T08:46:53Z</time>
      </trkpt>
      <trkpt lat="47.79199" lon="-2.65811">
        <ele>128.6</ele>
        <time>2024-09-15T08:46:54Z</time>
      </trkpt>
      <trkpt lat="47.79199" lon="-2.65807">
        <ele>129</ele>
        <time>2024-09-15T08:46:55Z</time>
      </trkpt>
      <trkpt lat="47.79198" lon="-2.65795">
        <ele>129</ele>
        <time>2024-09-15T08:46:58Z</time>
      </trkpt>
      <trkpt lat="47.79196" lon="-2.65763">
        <ele>129.4</ele>
        <time>2024-09-15T08:47:03Z</time>
      </trkpt>
      <trkpt lat="47.79198" lon="-2.65749">
        <ele>129.4</ele>
        <time>2024-09-15T08:47:06Z</time>
      </trkpt>
      <trkpt lat="47.79197" lon="-2.65723">
        <ele>129.6</ele>
        <time>2024-09-15T08:47:11Z</time>
      </trkpt>
      <trkpt lat="47.79199" lon="-2.65719">
        <ele>129.6</ele>
        <time>2024-09-15T08:47:12Z</time>
      </trkpt>
      <trkpt lat="47.79199" lon="-2.65712">
        <ele>129.6</ele>
        <time>2024-09-15T08:47:13Z</time>
      </trkpt>
      <trkpt lat="47.79198" lon="-2.65705">
        <ele>129.6</ele>
        <time>2024-09-15T08:47:14Z</time>
      </trkpt>
      <trkpt lat="47.79198" lon="-2.65694">
        <ele>129.8</ele>
        <time>2024-09-15T08:47:16Z</time>
      </trkpt>
      <trkpt lat="47.79198" lon="-2.65684">
        <ele>129.8</ele>
        <time>2024-09-15T08:47:18Z</time>
      </trkpt>
      <trkpt lat="47.79198" lon="-2.65674">
        <ele>130</ele>
        <time>2024-09-15T08:47:20Z</time>
      </trkpt>
      <trkpt lat="47.79198" lon="-2.65656">
        <ele>130</ele>
        <time>2024-09-15T08:47:22Z</time>
      </trkpt>
      <trkpt lat="47.79197" lon="-2.65644">
        <ele>130</ele>
        <time>2024-09-15T08:47:24Z</time>
      </trkpt>
      <trkpt lat="47.79196" lon="-2.65639">
        <ele>130</ele>
        <time>2024-09-15T08:47:25Z</time>
      </trkpt>
      <trkpt lat="47.79194" lon="-2.65631">
        <ele>130.2</ele>
        <time>2024-09-15T08:47:27Z</time>
      </trkpt>
      <trkpt lat="47.79199" lon="-2.65615">
        <ele>130.2</ele>
        <time>2024-09-15T08:47:29Z</time>
      </trkpt>
      <trkpt lat="47.79201" lon="-2.65608">
        <ele>130.2</ele>
        <time>2024-09-15T08:47:30Z</time>
      </trkpt>
      <trkpt lat="47.79201" lon="-2.65603">
        <ele>130.2</ele>
        <time>2024-09-15T08:47:31Z</time>
      </trkpt>
      <trkpt lat="47.79201" lon="-2.65577">
        <ele>130</ele>
        <time>2024-09-15T08:47:35Z</time>
      </trkpt>
      <trkpt lat="47.792" lon="-2.6556">
        <ele>130</ele>
        <time>2024-09-15T08:47:37Z</time>
      </trkpt>
      <trkpt lat="47.79199" lon="-2.65536">
        <ele>129.8</ele>
        <time>2024-09-15T08:47:39Z</time>
      </trkpt>
      <trkpt lat="47.79197" lon="-2.6551">
        <ele>129.6</ele>
        <time>2024-09-15T08:47:42Z</time>
      </trkpt>
      <trkpt lat="47.79198" lon="-2.65492">
        <ele>129.4</ele>
        <time>2024-09-15T08:47:44Z</time>
      </trkpt>
      <trkpt lat="47.79197" lon="-2.65484">
        <ele>129.4</ele>
        <time>2024-09-15T08:47:45Z</time>
      </trkpt>
      <trkpt lat="47.79195" lon="-2.65471">
        <ele>129.4</ele>
        <time>2024-09-15T08:47:47Z</time>
      </trkpt>
      <trkpt lat="47.79195" lon="-2.65467">
        <ele>129.4</ele>
        <time>2024-09-15T08:47:48Z</time>
      </trkpt>
      <trkpt lat="47.79196" lon="-2.65459">
        <ele>129.4</ele>
        <time>2024-09-15T08:47:49Z</time>
      </trkpt>
      <trkpt lat="47.79196" lon="-2.65452">
        <ele>129.4</ele>
        <time>2024-09-15T08:47:50Z</time>
      </trkpt>
      <trkpt lat="47.79195" lon="-2.65444">
        <ele>129.4</ele>
        <time>2024-09-15T08:47:51Z</time>
      </trkpt>
      <trkpt lat="47.79195" lon="-2.65436">
        <ele>129.4</ele>
        <time>2024-09-15T08:47:52Z</time>
      </trkpt>
      <trkpt lat="47.79195" lon="-2.6543">
        <ele>129.4</ele>
        <time>2024-09-15T08:47:53Z</time>
      </trkpt>
      <trkpt lat="47.79196" lon="-2.65423">
        <ele>129.4</ele>
        <time>2024-09-15T08:47:54Z</time>
      </trkpt>
      <trkpt lat="47.79197" lon="-2.65413">
        <ele>129.4</ele>
        <time>2024-09-15T08:47:55Z</time>
      </trkpt>
      <trkpt lat="47.79197" lon="-2.65409">
        <ele>129.6</ele>
        <time>2024-09-15T08:47:56Z</time>
      </trkpt>
      <trkpt lat="47.79197" lon="-2.65404">
        <ele>129.8</ele>
        <time>2024-09-15T08:47:57Z</time>
      </trkpt>
      <trkpt lat="47.79196" lon="-2.654">
        <ele>129.8</ele>
        <time>2024-09-15T08:47:58Z</time>
      </trkpt>
      <trkpt lat="47.79196" lon="-2.65395">
        <ele>130</ele>
        <time>2024-09-15T08:47:59Z</time>
      </trkpt>
      <trkpt lat="47.79195" lon="-2.65388">
        <ele>130</ele>
        <time>2024-09-15T08:48:00Z</time>
      </trkpt>
      <trkpt lat="47.79195" lon="-2.65381">
        <ele>130</ele>
        <time>2024-09-15T08:48:01Z</time>
      </trkpt>
      <trkpt lat="47.79196" lon="-2.65369">
        <ele>130</ele>
        <time>2024-09-15T08:48:03Z</time>
      </trkpt>
      <trkpt lat="47.79197" lon="-2.6536">
        <ele>130.2</ele>
        <time>2024-09-15T08:48:04Z</time>
      </trkpt>
      <trkpt lat="47.79199" lon="-2.65352">
        <ele>130.2</ele>
        <time>2024-09-15T08:48:05Z</time>
      </trkpt>
      <trkpt lat="47.792" lon="-2.65345">
        <ele>130.2</ele>
        <time>2024-09-15T08:48:06Z</time>
      </trkpt>
      <trkpt lat="47.79201" lon="-2.65338">
        <ele>130.2</ele>
        <time>2024-09-15T08:48:07Z</time>
      </trkpt>
      <trkpt lat="47.79201" lon="-2.65328">
        <ele>130.2</ele>
        <time>2024-09-15T08:48:08Z</time>
      </trkpt>
      <trkpt lat="47.792" lon="-2.65315">
        <ele>130.2</ele>
        <time>2024-09-15T08:48:09Z</time>
      </trkpt>
      <trkpt lat="47.79198" lon="-2.65297">
        <ele>130.4</ele>
        <time>2024-09-15T08:48:11Z</time>
      </trkpt>
      <trkpt lat="47.79196" lon="-2.65292">
        <ele>130.4</ele>
        <time>2024-09-15T08:48:12Z</time>
      </trkpt>
      <trkpt lat="47.79196" lon="-2.65286">
        <ele>130.4</ele>
        <time>2024-09-15T08:48:13Z</time>
      </trkpt>
      <trkpt lat="47.79195" lon="-2.6528">
        <ele>130.4</ele>
        <time>2024-09-15T08:48:14Z</time>
      </trkpt>
      <trkpt lat="47.79195" lon="-2.65274">
        <ele>130.4</ele>
        <time>2024-09-15T08:48:15Z</time>
      </trkpt>
      <trkpt lat="47.79194" lon="-2.65268">
        <ele>130.4</ele>
        <time>2024-09-15T08:48:16Z</time>
      </trkpt>
      <trkpt lat="47.79195" lon="-2.6526">
        <ele>130.2</ele>
        <time>2024-09-15T08:48:17Z</time>
      </trkpt>
      <trkpt lat="47.79195" lon="-2.65251">
        <ele>130.2</ele>
        <time>2024-09-15T08:48:18Z</time>
      </trkpt>
      <trkpt lat="47.79194" lon="-2.65235">
        <ele>130.2</ele>
        <time>2024-09-15T08:48:20Z</time>
      </trkpt>
      <trkpt lat="47.79194" lon="-2.65227">
        <ele>130</ele>
        <time>2024-09-15T08:48:21Z</time>
      </trkpt>
      <trkpt lat="47.79194" lon="-2.65213">
        <ele>130</ele>
        <time>2024-09-15T08:48:23Z</time>
      </trkpt>
      <trkpt lat="47.79192" lon="-2.652">
        <ele>130</ele>
        <time>2024-09-15T08:48:25Z</time>
      </trkpt>
      <trkpt lat="47.79196" lon="-2.65151">
        <ele>130.2</ele>
        <time>2024-09-15T08:48:31Z</time>
      </trkpt>
      <trkpt lat="47.79197" lon="-2.65127">
        <ele>130.6</ele>
        <time>2024-09-15T08:48:34Z</time>
      </trkpt>
      <trkpt lat="47.79197" lon="-2.65121">
        <ele>130.6</ele>
        <time>2024-09-15T08:48:35Z</time>
      </trkpt>
      <trkpt lat="47.79196" lon="-2.65111">
        <ele>130.8</ele>
        <time>2024-09-15T08:48:36Z</time>
      </trkpt>
      <trkpt lat="47.79194" lon="-2.65096">
        <ele>130.8</ele>
        <time>2024-09-15T08:48:38Z</time>
      </trkpt>
      <trkpt lat="47.79194" lon="-2.6509">
        <ele>130.8</ele>
        <time>2024-09-15T08:48:39Z</time>
      </trkpt>
      <trkpt lat="47.79193" lon="-2.65073">
        <ele>131</ele>
        <time>2024-09-15T08:48:41Z</time>
      </trkpt>
      <trkpt lat="47.79194" lon="-2.65052">
        <ele>131</ele>
        <time>2024-09-15T08:48:43Z</time>
      </trkpt>
      <trkpt lat="47.79194" lon="-2.65044">
        <ele>130.8</ele>
        <time>2024-09-15T08:48:44Z</time>
      </trkpt>
      <trkpt lat="47.79193" lon="-2.65037">
        <ele>130.6</ele>
        <time>2024-09-15T08:48:45Z</time>
      </trkpt>
      <trkpt lat="47.79193" lon="-2.65023">
        <ele>130.6</ele>
        <time>2024-09-15T08:48:47Z</time>
      </trkpt>
      <trkpt lat="47.79194" lon="-2.65016">
        <ele>130.6</ele>
        <time>2024-09-15T08:48:48Z</time>
      </trkpt>
      <trkpt lat="47.79192" lon="-2.65008">
        <ele>130.6</ele>
        <time>2024-09-15T08:48:49Z</time>
      </trkpt>
      <trkpt lat="47.79192" lon="-2.64994">
        <ele>130.6</ele>
        <time>2024-09-15T08:48:51Z</time>
      </trkpt>
      <trkpt lat="47.79192" lon="-2.64987">
        <ele>130.6</ele>
        <time>2024-09-15T08:48:52Z</time>
      </trkpt>
      <trkpt lat="47.79193" lon="-2.64982">
        <ele>130.6</ele>
        <time>2024-09-15T08:48:53Z</time>
      </trkpt>
      <trkpt lat="47.79193" lon="-2.64974">
        <ele>130.4</ele>
        <time>2024-09-15T08:48:54Z</time>
      </trkpt>
      <trkpt lat="47.79192" lon="-2.64966">
        <ele>130.4</ele>
        <time>2024-09-15T08:48:55Z</time>
      </trkpt>
      <trkpt lat="47.79192" lon="-2.64946">
        <ele>130.2</ele>
        <time>2024-09-15T08:48:57Z</time>
      </trkpt>
      <trkpt lat="47.79191" lon="-2.64939">
        <ele>130.2</ele>
        <time>2024-09-15T08:48:58Z</time>
      </trkpt>
      <trkpt lat="47.7919" lon="-2.6493">
        <ele>130.2</ele>
        <time>2024-09-15T08:48:59Z</time>
      </trkpt>
      <trkpt lat="47.79189" lon="-2.64914">
        <ele>130.2</ele>
        <time>2024-09-15T08:49:01Z</time>
      </trkpt>
      <trkpt lat="47.79189" lon="-2.64896">
        <ele>130.2</ele>
        <time>2024-09-15T08:49:03Z</time>
      </trkpt>
      <trkpt lat="47.79191" lon="-2.64888">
        <ele>130.2</ele>
        <time>2024-09-15T08:49:04Z</time>
      </trkpt>
      <trkpt lat="47.79193" lon="-2.64877">
        <ele>130.2</ele>
        <time>2024-09-15T08:49:05Z</time>
      </trkpt>
      <trkpt lat="47.79195" lon="-2.64869">
        <ele>130.2</ele>
        <time>2024-09-15T08:49:06Z</time>
      </trkpt>
      <trkpt lat="47.79195" lon="-2.64863">
        <ele>130</ele>
        <time>2024-09-15T08:49:07Z</time>
      </trkpt>
      <trkpt lat="47.79196" lon="-2.64858">
        <ele>130</ele>
        <time>2024-09-15T08:49:08Z</time>
      </trkpt>
      <trkpt lat="47.79196" lon="-2.64834">
        <ele>129.8</ele>
        <time>2024-09-15T08:49:11Z</time>
      </trkpt>
      <trkpt lat="47.79197" lon="-2.64817">
        <ele>129.8</ele>
        <time>2024-09-15T08:49:13Z</time>
      </trkpt>
      <trkpt lat="47.79196" lon="-2.6481">
        <ele>129.8</ele>
        <time>2024-09-15T08:49:14Z</time>
      </trkpt>
      <trkpt lat="47.79196" lon="-2.64796">
        <ele>129.8</ele>
        <time>2024-09-15T08:49:15Z</time>
      </trkpt>
      <trkpt lat="47.79195" lon="-2.64788">
        <ele>129.8</ele>
        <time>2024-09-15T08:49:16Z</time>
      </trkpt>
      <trkpt lat="47.79196" lon="-2.64782">
        <ele>129.8</ele>
        <time>2024-09-15T08:49:17Z</time>
      </trkpt>
      <trkpt lat="47.79196" lon="-2.64764">
        <ele>129.8</ele>
        <time>2024-09-15T08:49:19Z</time>
      </trkpt>
      <trkpt lat="47.79195" lon="-2.64741">
        <ele>129.8</ele>
        <time>2024-09-15T08:49:21Z</time>
      </trkpt>
      <trkpt lat="47.79194" lon="-2.64728">
        <ele>129.8</ele>
        <time>2024-09-15T08:49:22Z</time>
      </trkpt>
      <trkpt lat="47.79193" lon="-2.64713">
        <ele>129.8</ele>
        <time>2024-09-15T08:49:24Z</time>
      </trkpt>
      <trkpt lat="47.79193" lon="-2.64708">
        <ele>129.8</ele>
        <time>2024-09-15T08:49:25Z</time>
      </trkpt>
      <trkpt lat="47.79193" lon="-2.64701">
        <ele>129.8</ele>
        <time>2024-09-15T08:49:26Z</time>
      </trkpt>
      <trkpt lat="47.79193" lon="-2.64693">
        <ele>129.8</ele>
        <time>2024-09-15T08:49:27Z</time>
      </trkpt>
      <trkpt lat="47.79193" lon="-2.64684">
        <ele>129.8</ele>
        <time>2024-09-15T08:49:28Z</time>
      </trkpt>
      <trkpt lat="47.79193" lon="-2.64676">
        <ele>129.8</ele>
        <time>2024-09-15T08:49:29Z</time>
      </trkpt>
      <trkpt lat="47.79192" lon="-2.64672">
        <ele>129.8</ele>
        <time>2024-09-15T08:49:30Z</time>
      </trkpt>
      <trkpt lat="47.79193" lon="-2.64665">
        <ele>129.8</ele>
        <time>2024-09-15T08:49:31Z</time>
      </trkpt>
      <trkpt lat="47.79192" lon="-2.64657">
        <ele>129.8</ele>
        <time>2024-09-15T08:49:32Z</time>
      </trkpt>
      <trkpt lat="47.79193" lon="-2.6465">
        <ele>129.8</ele>
        <time>2024-09-15T08:49:33Z</time>
      </trkpt>
      <trkpt lat="47.79193" lon="-2.64644">
        <ele>129.8</ele>
        <time>2024-09-15T08:49:34Z</time>
      </trkpt>
      <trkpt lat="47.79194" lon="-2.64638">
        <ele>130</ele>
        <time>2024-09-15T08:49:35Z</time>
      </trkpt>
      <trkpt lat="47.79193" lon="-2.64632">
        <ele>130.2</ele>
        <time>2024-09-15T08:49:36Z</time>
      </trkpt>
      <trkpt lat="47.79193" lon="-2.64626">
        <ele>130.6</ele>
        <time>2024-09-15T08:49:37Z</time>
      </trkpt>
      <trkpt lat="47.79194" lon="-2.64624">
        <ele>130.8</ele>
        <time>2024-09-15T08:49:38Z</time>
      </trkpt>
      <trkpt lat="47.79193" lon="-2.64616">
        <ele>131</ele>
        <time>2024-09-15T08:49:39Z</time>
      </trkpt>
      <trkpt lat="47.79191" lon="-2.64608">
        <ele>131</ele>
        <time>2024-09-15T08:49:40Z</time>
      </trkpt>
      <trkpt lat="47.79191" lon="-2.64599">
        <ele>131.2</ele>
        <time>2024-09-15T08:49:41Z</time>
      </trkpt>
      <trkpt lat="47.79191" lon="-2.64594">
        <ele>131.2</ele>
        <time>2024-09-15T08:49:42Z</time>
      </trkpt>
      <trkpt lat="47.79191" lon="-2.6459">
        <ele>131.4</ele>
        <time>2024-09-15T08:49:43Z</time>
      </trkpt>
      <trkpt lat="47.79191" lon="-2.64588">
        <ele>131.6</ele>
        <time>2024-09-15T08:49:44Z</time>
      </trkpt>
      <trkpt lat="47.79191" lon="-2.64582">
        <ele>131.8</ele>
        <time>2024-09-15T08:49:45Z</time>
      </trkpt>
      <trkpt lat="47.79191" lon="-2.64581">
        <ele>132.2</ele>
        <time>2024-09-15T08:49:46Z</time>
      </trkpt>
      <trkpt lat="47.79191" lon="-2.6458">
        <ele>132.2</ele>
        <time>2024-09-15T08:49:47Z</time>
      </trkpt>
      <trkpt lat="47.7919" lon="-2.64578">
        <ele>132.4</ele>
        <time>2024-09-15T08:49:48Z</time>
      </trkpt>
      <trkpt lat="47.7919" lon="-2.64575">
        <ele>132.6</ele>
        <time>2024-09-15T08:49:49Z</time>
      </trkpt>
      <trkpt lat="47.79191" lon="-2.64572">
        <ele>132.8</ele>
        <time>2024-09-15T08:49:50Z</time>
      </trkpt>
      <trkpt lat="47.79191" lon="-2.64568">
        <ele>133</ele>
        <time>2024-09-15T08:49:51Z</time>
      </trkpt>
      <trkpt lat="47.79191" lon="-2.64564">
        <ele>133.4</ele>
        <time>2024-09-15T08:49:52Z</time>
      </trkpt>
      <trkpt lat="47.79192" lon="-2.64561">
        <ele>133.4</ele>
        <time>2024-09-15T08:49:53Z</time>
      </trkpt>
      <trkpt lat="47.79193" lon="-2.64558">
        <ele>133.6</ele>
        <time>2024-09-15T08:49:54Z</time>
      </trkpt>
      <trkpt lat="47.79193" lon="-2.64555">
        <ele>133.8</ele>
        <time>2024-09-15T08:49:55Z</time>
      </trkpt>
      <trkpt lat="47.79194" lon="-2.64551">
        <ele>134</ele>
        <time>2024-09-15T08:49:56Z</time>
      </trkpt>
      <trkpt lat="47.79194" lon="-2.64547">
        <ele>134.2</ele>
        <time>2024-09-15T08:49:57Z</time>
      </trkpt>
      <trkpt lat="47.79195" lon="-2.64543">
        <ele>134.2</ele>
        <time>2024-09-15T08:49:58Z</time>
      </trkpt>
      <trkpt lat="47.79195" lon="-2.64537">
        <ele>134.2</ele>
        <time>2024-09-15T08:49:59Z</time>
      </trkpt>
      <trkpt lat="47.79195" lon="-2.64532">
        <ele>134.4</ele>
        <time>2024-09-15T08:50:00Z</time>
      </trkpt>
      <trkpt lat="47.79196" lon="-2.64527">
        <ele>134.4</ele>
        <time>2024-09-15T08:50:01Z</time>
      </trkpt>
      <trkpt lat="47.79196" lon="-2.64523">
        <ele>134.6</ele>
        <time>2024-09-15T08:50:02Z</time>
      </trkpt>
      <trkpt lat="47.79193" lon="-2.64517">
        <ele>134.8</ele>
        <time>2024-09-15T08:50:03Z</time>
      </trkpt>
      <trkpt lat="47.79192" lon="-2.64509">
        <ele>134.8</ele>
        <time>2024-09-15T08:50:04Z</time>
      </trkpt>
      <trkpt lat="47.7919" lon="-2.64502">
        <ele>135</ele>
        <time>2024-09-15T08:50:05Z</time>
      </trkpt>
      <trkpt lat="47.79189" lon="-2.64495">
        <ele>135.2</ele>
        <time>2024-09-15T08:50:06Z</time>
      </trkpt>
      <trkpt lat="47.79187" lon="-2.6449">
        <ele>135.2</ele>
        <time>2024-09-15T08:50:07Z</time>
      </trkpt>
      <trkpt lat="47.79185" lon="-2.64483">
        <ele>135.6</ele>
        <time>2024-09-15T08:50:08Z</time>
      </trkpt>
      <trkpt lat="47.79184" lon="-2.64476">
        <ele>135.6</ele>
        <time>2024-09-15T08:50:09Z</time>
      </trkpt>
      <trkpt lat="47.79181" lon="-2.6447">
        <ele>135.8</ele>
        <time>2024-09-15T08:50:10Z</time>
      </trkpt>
      <trkpt lat="47.79179" lon="-2.64464">
        <ele>135.8</ele>
        <time>2024-09-15T08:50:11Z</time>
      </trkpt>
      <trkpt lat="47.79178" lon="-2.64457">
        <ele>136</ele>
        <time>2024-09-15T08:50:12Z</time>
      </trkpt>
      <trkpt lat="47.79177" lon="-2.64453">
        <ele>136</ele>
        <time>2024-09-15T08:50:13Z</time>
      </trkpt>
      <trkpt lat="47.79177" lon="-2.64448">
        <ele>136</ele>
        <time>2024-09-15T08:50:14Z</time>
      </trkpt>
      <trkpt lat="47.79178" lon="-2.64443">
        <ele>136</ele>
        <time>2024-09-15T08:50:15Z</time>
      </trkpt>
      <trkpt lat="47.79178" lon="-2.64435">
        <ele>136</ele>
        <time>2024-09-15T08:50:16Z</time>
      </trkpt>
      <trkpt lat="47.79178" lon="-2.64426">
        <ele>136</ele>
        <time>2024-09-15T08:50:17Z</time>
      </trkpt>
      <trkpt lat="47.79178" lon="-2.6442">
        <ele>136</ele>
        <time>2024-09-15T08:50:18Z</time>
      </trkpt>
      <trkpt lat="47.79179" lon="-2.64415">
        <ele>136</ele>
        <time>2024-09-15T08:50:19Z</time>
      </trkpt>
      <trkpt lat="47.79179" lon="-2.6441">
        <ele>136</ele>
        <time>2024-09-15T08:50:20Z</time>
      </trkpt>
      <trkpt lat="47.79178" lon="-2.64406">
        <ele>135.8</ele>
        <time>2024-09-15T08:50:21Z</time>
      </trkpt>
      <trkpt lat="47.79178" lon="-2.64401">
        <ele>135.8</ele>
        <time>2024-09-15T08:50:22Z</time>
      </trkpt>
      <trkpt lat="47.79177" lon="-2.64394">
        <ele>135.8</ele>
        <time>2024-09-15T08:50:23Z</time>
      </trkpt>
      <trkpt lat="47.79175" lon="-2.64385">
        <ele>135.8</ele>
        <time>2024-09-15T08:50:24Z</time>
      </trkpt>
      <trkpt lat="47.79172" lon="-2.64362">
        <ele>135.8</ele>
        <time>2024-09-15T08:50:27Z</time>
      </trkpt>
      <trkpt lat="47.79168" lon="-2.64348">
        <ele>135.6</ele>
        <time>2024-09-15T08:50:29Z</time>
      </trkpt>
      <trkpt lat="47.79162" lon="-2.64328">
        <ele>135.2</ele>
        <time>2024-09-15T08:50:31Z</time>
      </trkpt>
      <trkpt lat="47.79157" lon="-2.64309">
        <ele>134.8</ele>
        <time>2024-09-15T08:50:33Z</time>
      </trkpt>
      <trkpt lat="47.79155" lon="-2.643">
        <ele>134.4</ele>
        <time>2024-09-15T08:50:34Z</time>
      </trkpt>
      <trkpt lat="47.79146" lon="-2.64268">
        <ele>134</ele>
        <time>2024-09-15T08:50:37Z</time>
      </trkpt>
      <trkpt lat="47.79142" lon="-2.64249">
        <ele>133.8</ele>
        <time>2024-09-15T08:50:39Z</time>
      </trkpt>
      <trkpt lat="47.79134" lon="-2.64211">
        <ele>132.8</ele>
        <time>2024-09-15T08:50:42Z</time>
      </trkpt>
      <trkpt lat="47.7913" lon="-2.64197">
        <ele>132.4</ele>
        <time>2024-09-15T08:50:43Z</time>
      </trkpt>
      <trkpt lat="47.79125" lon="-2.64172">
        <ele>131.2</ele>
        <time>2024-09-15T08:50:45Z</time>
      </trkpt>
      <trkpt lat="47.79122" lon="-2.64155">
        <ele>131</ele>
        <time>2024-09-15T08:50:46Z</time>
      </trkpt>
      <trkpt lat="47.7912" lon="-2.6413">
        <ele>130</ele>
        <time>2024-09-15T08:50:48Z</time>
      </trkpt>
      <trkpt lat="47.79113" lon="-2.64102">
        <ele>129.4</ele>
        <time>2024-09-15T08:50:50Z</time>
      </trkpt>
      <trkpt lat="47.79106" lon="-2.64077">
        <ele>128.4</ele>
        <time>2024-09-15T08:50:52Z</time>
      </trkpt>
      <trkpt lat="47.79103" lon="-2.64065">
        <ele>128.2</ele>
        <time>2024-09-15T08:50:53Z</time>
      </trkpt>
      <trkpt lat="47.79101" lon="-2.64054">
        <ele>127.8</ele>
        <time>2024-09-15T08:50:54Z</time>
      </trkpt>
      <trkpt lat="47.79097" lon="-2.64044">
        <ele>127.6</ele>
        <time>2024-09-15T08:50:55Z</time>
      </trkpt>
      <trkpt lat="47.79094" lon="-2.64033">
        <ele>127.2</ele>
        <time>2024-09-15T08:50:56Z</time>
      </trkpt>
      <trkpt lat="47.79091" lon="-2.64022">
        <ele>126.8</ele>
        <time>2024-09-15T08:50:57Z</time>
      </trkpt>
      <trkpt lat="47.79089" lon="-2.64011">
        <ele>126.4</ele>
        <time>2024-09-15T08:50:58Z</time>
      </trkpt>
      <trkpt lat="47.79087" lon="-2.64001">
        <ele>126.2</ele>
        <time>2024-09-15T08:50:59Z</time>
      </trkpt>
      <trkpt lat="47.79085" lon="-2.63992">
        <ele>126.2</ele>
        <time>2024-09-15T08:51:00Z</time>
      </trkpt>
      <trkpt lat="47.79082" lon="-2.63982">
        <ele>125.8</ele>
        <time>2024-09-15T08:51:01Z</time>
      </trkpt>
      <trkpt lat="47.7908" lon="-2.63972">
        <ele>125.8</ele>
        <time>2024-09-15T08:51:02Z</time>
      </trkpt>
      <trkpt lat="47.79077" lon="-2.63961">
        <ele>125.6</ele>
        <time>2024-09-15T08:51:03Z</time>
      </trkpt>
      <trkpt lat="47.79071" lon="-2.63939">
        <ele>125.4</ele>
        <time>2024-09-15T08:51:05Z</time>
      </trkpt>
      <trkpt lat="47.79069" lon="-2.63928">
        <ele>125.2</ele>
        <time>2024-09-15T08:51:06Z</time>
      </trkpt>
      <trkpt lat="47.79067" lon="-2.63918">
        <ele>125</ele>
        <time>2024-09-15T08:51:07Z</time>
      </trkpt>
      <trkpt lat="47.79065" lon="-2.63909">
        <ele>125</ele>
        <time>2024-09-15T08:51:08Z</time>
      </trkpt>
      <trkpt lat="47.79063" lon="-2.63899">
        <ele>124.8</ele>
        <time>2024-09-15T08:51:09Z</time>
      </trkpt>
      <trkpt lat="47.7906" lon="-2.63889">
        <ele>124.6</ele>
        <time>2024-09-15T08:51:10Z</time>
      </trkpt>
      <trkpt lat="47.79058" lon="-2.63881">
        <ele>124.4</ele>
        <time>2024-09-15T08:51:11Z</time>
      </trkpt>
      <trkpt lat="47.79054" lon="-2.63873">
        <ele>124.4</ele>
        <time>2024-09-15T08:51:12Z</time>
      </trkpt>
      <trkpt lat="47.79051" lon="-2.63865">
        <ele>124.4</ele>
        <time>2024-09-15T08:51:13Z</time>
      </trkpt>
      <trkpt lat="47.79048" lon="-2.63858">
        <ele>124.2</ele>
        <time>2024-09-15T08:51:14Z</time>
      </trkpt>
      <trkpt lat="47.79046" lon="-2.63854">
        <ele>124.2</ele>
        <time>2024-09-15T08:51:15Z</time>
      </trkpt>
      <trkpt lat="47.79044" lon="-2.63853">
        <ele>123.8</ele>
        <time>2024-09-15T08:51:16Z</time>
      </trkpt>
      <trkpt lat="47.79042" lon="-2.63853">
        <ele>123.6</ele>
        <time>2024-09-15T08:51:17Z</time>
      </trkpt>
      <trkpt lat="47.79038" lon="-2.63854">
        <ele>123.4</ele>
        <time>2024-09-15T08:51:18Z</time>
      </trkpt>
      <trkpt lat="47.79034" lon="-2.63856">
        <ele>123.4</ele>
        <time>2024-09-15T08:51:19Z</time>
      </trkpt>
      <trkpt lat="47.7903" lon="-2.63859">
        <ele>123.4</ele>
        <time>2024-09-15T08:51:20Z</time>
      </trkpt>
      <trkpt lat="47.79026" lon="-2.63862">
        <ele>123.2</ele>
        <time>2024-09-15T08:51:21Z</time>
      </trkpt>
      <trkpt lat="47.79023" lon="-2.63865">
        <ele>123</ele>
        <time>2024-09-15T08:51:22Z</time>
      </trkpt>
      <trkpt lat="47.79012" lon="-2.63879">
        <ele>122.6</ele>
        <time>2024-09-15T08:51:25Z</time>
      </trkpt>
      <trkpt lat="47.79004" lon="-2.63887">
        <ele>122.4</ele>
        <time>2024-09-15T08:51:27Z</time>
      </trkpt>
      <trkpt lat="47.78999" lon="-2.63892">
        <ele>122.4</ele>
        <time>2024-09-15T08:51:28Z</time>
      </trkpt>
      <trkpt lat="47.78994" lon="-2.63895">
        <ele>122.4</ele>
        <time>2024-09-15T08:51:29Z</time>
      </trkpt>
      <trkpt lat="47.7899" lon="-2.63899">
        <ele>122.2</ele>
        <time>2024-09-15T08:51:30Z</time>
      </trkpt>
      <trkpt lat="47.78987" lon="-2.63904">
        <ele>122</ele>
        <time>2024-09-15T08:51:31Z</time>
      </trkpt>
      <trkpt lat="47.78986" lon="-2.63909">
        <ele>121.8</ele>
        <time>2024-09-15T08:51:32Z</time>
      </trkpt>
      <trkpt lat="47.78982" lon="-2.63918">
        <ele>121.8</ele>
        <time>2024-09-15T08:51:33Z</time>
      </trkpt>
      <trkpt lat="47.7898" lon="-2.63926">
        <ele>121.8</ele>
        <time>2024-09-15T08:51:34Z</time>
      </trkpt>
      <trkpt lat="47.78976" lon="-2.63934">
        <ele>121.8</ele>
        <time>2024-09-15T08:51:35Z</time>
      </trkpt>
      <trkpt lat="47.78975" lon="-2.63939">
        <ele>121.6</ele>
        <time>2024-09-15T08:51:36Z</time>
      </trkpt>
      <trkpt lat="47.78972" lon="-2.63944">
        <ele>121.6</ele>
        <time>2024-09-15T08:51:37Z</time>
      </trkpt>
      <trkpt lat="47.78971" lon="-2.6395">
        <ele>121.6</ele>
        <time>2024-09-15T08:51:38Z</time>
      </trkpt>
      <trkpt lat="47.78968" lon="-2.63955">
        <ele>121.6</ele>
        <time>2024-09-15T08:51:39Z</time>
      </trkpt>
      <trkpt lat="47.78965" lon="-2.6396">
        <ele>121.6</ele>
        <time>2024-09-15T08:51:40Z</time>
      </trkpt>
      <trkpt lat="47.78961" lon="-2.63966">
        <ele>121.4</ele>
        <time>2024-09-15T08:51:41Z</time>
      </trkpt>
      <trkpt lat="47.78956" lon="-2.63974">
        <ele>120.8</ele>
        <time>2024-09-15T08:51:43Z</time>
      </trkpt>
      <trkpt lat="47.78951" lon="-2.63979">
        <ele>120.8</ele>
        <time>2024-09-15T08:51:44Z</time>
      </trkpt>
      <trkpt lat="47.78947" lon="-2.63982">
        <ele>120.2</ele>
        <time>2024-09-15T08:51:45Z</time>
      </trkpt>
      <trkpt lat="47.78941" lon="-2.63985">
        <ele>119.8</ele>
        <time>2024-09-15T08:51:47Z</time>
      </trkpt>
      <trkpt lat="47.78938" lon="-2.63987">
        <ele>119.6</ele>
        <time>2024-09-15T08:51:48Z</time>
      </trkpt>
      <trkpt lat="47.78935" lon="-2.63988">
        <ele>119.6</ele>
        <time>2024-09-15T08:51:49Z</time>
      </trkpt>
      <trkpt lat="47.78935" lon="-2.63989">
        <ele>119.6</ele>
        <time>2024-09-15T08:51:50Z</time>
      </trkpt>
      <trkpt lat="47.78935" lon="-2.63989">
        <ele>118.8</ele>
        <time>2024-09-15T08:51:53Z</time>
      </trkpt>
      <trkpt lat="47.78934" lon="-2.63987">
        <ele>118</ele>
        <time>2024-09-15T08:51:56Z</time>
      </trkpt>
      <trkpt lat="47.78933" lon="-2.63981">
        <ele>117.8</ele>
        <time>2024-09-15T08:51:59Z</time>
      </trkpt>
      <trkpt lat="47.78933" lon="-2.63981">
        <ele>117.8</ele>
        <time>2024-09-15T08:52:00Z</time>
      </trkpt>
      <trkpt lat="47.78933" lon="-2.63978">
        <ele>117.8</ele>
        <time>2024-09-15T08:52:02Z</time>
      </trkpt>
      <trkpt lat="47.78935" lon="-2.63969">
        <ele>117.6</ele>
        <time>2024-09-15T08:52:05Z</time>
      </trkpt>
      <trkpt lat="47.78935" lon="-2.63966">
        <ele>117.6</ele>
        <time>2024-09-15T08:52:06Z</time>
      </trkpt>
      <trkpt lat="47.78935" lon="-2.63963">
        <ele>117.6</ele>
        <time>2024-09-15T08:52:07Z</time>
      </trkpt>
      <trkpt lat="47.78935" lon="-2.63962">
        <ele>117.4</ele>
        <time>2024-09-15T08:52:09Z</time>
      </trkpt>
      <trkpt lat="47.78935" lon="-2.63962">
        <ele>117.4</ele>
        <time>2024-09-15T08:52:10Z</time>
      </trkpt>
      <trkpt lat="47.78935" lon="-2.63962">
        <ele>117.8</ele>
        <time>2024-09-15T08:52:57Z</time>
      </trkpt>
      <trkpt lat="47.78935" lon="-2.63963">
        <ele>117.6</ele>
        <time>2024-09-15T08:53:01Z</time>
      </trkpt>
      <trkpt lat="47.78934" lon="-2.63964">
        <ele>117.6</ele>
        <time>2024-09-15T08:53:02Z</time>
      </trkpt>
      <trkpt lat="47.78934" lon="-2.63965">
        <ele>117.6</ele>
        <time>2024-09-15T08:53:03Z</time>
      </trkpt>
      <trkpt lat="47.78934" lon="-2.63967">
        <ele>117.6</ele>
        <time>2024-09-15T08:53:05Z</time>
      </trkpt>
      <trkpt lat="47.78933" lon="-2.63969">
        <ele>117.6</ele>
        <time>2024-09-15T08:53:06Z</time>
      </trkpt>
      <trkpt lat="47.78932" lon="-2.63974">
        <ele>117.8</ele>
        <time>2024-09-15T08:53:09Z</time>
      </trkpt>
      <trkpt lat="47.78932" lon="-2.63975">
        <ele>117.8</ele>
        <time>2024-09-15T08:53:10Z</time>
      </trkpt>
      <trkpt lat="47.78932" lon="-2.63975">
        <ele>117.8</ele>
        <time>2024-09-15T08:53:11Z</time>
      </trkpt>
      <trkpt lat="47.78932" lon="-2.63976">
        <ele>117.8</ele>
        <time>2024-09-15T08:53:12Z</time>
      </trkpt>
      <trkpt lat="47.78931" lon="-2.63977">
        <ele>117.8</ele>
        <time>2024-09-15T08:53:13Z</time>
      </trkpt>
      <trkpt lat="47.7893" lon="-2.6398">
        <ele>117.8</ele>
        <time>2024-09-15T08:53:14Z</time>
      </trkpt>
      <trkpt lat="47.78929" lon="-2.63981">
        <ele>117.8</ele>
        <time>2024-09-15T08:53:15Z</time>
      </trkpt>
      <trkpt lat="47.78929" lon="-2.63983">
        <ele>117.8</ele>
        <time>2024-09-15T08:53:16Z</time>
      </trkpt>
      <trkpt lat="47.78927" lon="-2.63984">
        <ele>117.6</ele>
        <time>2024-09-15T08:53:17Z</time>
      </trkpt>
      <trkpt lat="47.78925" lon="-2.63985">
        <ele>117.6</ele>
        <time>2024-09-15T08:53:18Z</time>
      </trkpt>
      <trkpt lat="47.78919" lon="-2.63992">
        <ele>117.4</ele>
        <time>2024-09-15T08:53:21Z</time>
      </trkpt>
      <trkpt lat="47.78917" lon="-2.63994">
        <ele>117.4</ele>
        <time>2024-09-15T08:53:22Z</time>
      </trkpt>
      <trkpt lat="47.78916" lon="-2.63996">
        <ele>117.4</ele>
        <time>2024-09-15T08:53:23Z</time>
      </trkpt>
      <trkpt lat="47.78913" lon="-2.63998">
        <ele>117.4</ele>
        <time>2024-09-15T08:53:24Z</time>
      </trkpt>
      <trkpt lat="47.78913" lon="-2.63999">
        <ele>117.4</ele>
        <time>2024-09-15T08:53:25Z</time>
      </trkpt>
      <trkpt lat="47.78912" lon="-2.63999">
        <ele>117.2</ele>
        <time>2024-09-15T08:53:26Z</time>
      </trkpt>
      <trkpt lat="47.78911" lon="-2.63999">
        <ele>117.2</ele>
        <time>2024-09-15T08:53:27Z</time>
      </trkpt>
      <trkpt lat="47.7891" lon="-2.64">
        <ele>117.2</ele>
        <time>2024-09-15T08:53:28Z</time>
      </trkpt>
      <trkpt lat="47.78908" lon="-2.64">
        <ele>117.2</ele>
        <time>2024-09-15T08:53:29Z</time>
      </trkpt>
      <trkpt lat="47.78907" lon="-2.64">
        <ele>117.2</ele>
        <time>2024-09-15T08:53:30Z</time>
      </trkpt>
      <trkpt lat="47.78906" lon="-2.64001">
        <ele>117.2</ele>
        <time>2024-09-15T08:53:31Z</time>
      </trkpt>
      <trkpt lat="47.78906" lon="-2.64">
        <ele>117.2</ele>
        <time>2024-09-15T08:53:32Z</time>
      </trkpt>
      <trkpt lat="47.789" lon="-2.64002">
        <ele>117.2</ele>
        <time>2024-09-15T08:53:35Z</time>
      </trkpt>
      <trkpt lat="47.78899" lon="-2.64002">
        <ele>117.2</ele>
        <time>2024-09-15T08:53:36Z</time>
      </trkpt>
      <trkpt lat="47.78897" lon="-2.64001">
        <ele>117.2</ele>
        <time>2024-09-15T08:53:37Z</time>
      </trkpt>
      <trkpt lat="47.78885" lon="-2.64">
        <ele>117.4</ele>
        <time>2024-09-15T08:53:42Z</time>
      </trkpt>
      <trkpt lat="47.78878" lon="-2.64">
        <ele>117.4</ele>
        <time>2024-09-15T08:53:44Z</time>
      </trkpt>
      <trkpt lat="47.78874" lon="-2.64002">
        <ele>117.4</ele>
        <time>2024-09-15T08:53:45Z</time>
      </trkpt>
      <trkpt lat="47.78872" lon="-2.64002">
        <ele>117.6</ele>
        <time>2024-09-15T08:53:46Z</time>
      </trkpt>
      <trkpt lat="47.78865" lon="-2.64003">
        <ele>118.2</ele>
        <time>2024-09-15T08:53:48Z</time>
      </trkpt>
      <trkpt lat="47.78862" lon="-2.64003">
        <ele>118.2</ele>
        <time>2024-09-15T08:53:49Z</time>
      </trkpt>
      <trkpt lat="47.78858" lon="-2.64005">
        <ele>118.4</ele>
        <time>2024-09-15T08:53:50Z</time>
      </trkpt>
      <trkpt lat="47.78853" lon="-2.64007">
        <ele>118.4</ele>
        <time>2024-09-15T08:53:51Z</time>
      </trkpt>
      <trkpt lat="47.78851" lon="-2.64007">
        <ele>118.4</ele>
        <time>2024-09-15T08:53:52Z</time>
      </trkpt>
      <trkpt lat="47.78846" lon="-2.64007">
        <ele>118.6</ele>
        <time>2024-09-15T08:53:54Z</time>
      </trkpt>
      <trkpt lat="47.7884" lon="-2.64008">
        <ele>118.6</ele>
        <time>2024-09-15T08:53:55Z</time>
      </trkpt>
      <trkpt lat="47.78837" lon="-2.64009">
        <ele>118.6</ele>
        <time>2024-09-15T08:53:56Z</time>
      </trkpt>
      <trkpt lat="47.78826" lon="-2.64008">
        <ele>118.8</ele>
        <time>2024-09-15T08:53:59Z</time>
      </trkpt>
      <trkpt lat="47.78823" lon="-2.64007">
        <ele>118.8</ele>
        <time>2024-09-15T08:54:00Z</time>
      </trkpt>
      <trkpt lat="47.7882" lon="-2.64005">
        <ele>119</ele>
        <time>2024-09-15T08:54:02Z</time>
      </trkpt>
      <trkpt lat="47.78813" lon="-2.64005">
        <ele>119.2</ele>
        <time>2024-09-15T08:54:05Z</time>
      </trkpt>
      <trkpt lat="47.78809" lon="-2.64009">
        <ele>119.4</ele>
        <time>2024-09-15T08:54:07Z</time>
      </trkpt>
      <trkpt lat="47.78806" lon="-2.6401">
        <ele>119.8</ele>
        <time>2024-09-15T08:54:08Z</time>
      </trkpt>
      <trkpt lat="47.78797" lon="-2.64014">
        <ele>120.2</ele>
        <time>2024-09-15T08:54:10Z</time>
      </trkpt>
      <trkpt lat="47.78795" lon="-2.64015">
        <ele>120.6</ele>
        <time>2024-09-15T08:54:11Z</time>
      </trkpt>
      <trkpt lat="47.78788" lon="-2.64021">
        <ele>121.2</ele>
        <time>2024-09-15T08:54:14Z</time>
      </trkpt>
      <trkpt lat="47.78787" lon="-2.64022">
        <ele>121.6</ele>
        <time>2024-09-15T08:54:15Z</time>
      </trkpt>
      <trkpt lat="47.78782" lon="-2.64024">
        <ele>121.6</ele>
        <time>2024-09-15T08:54:16Z</time>
      </trkpt>
      <trkpt lat="47.7878" lon="-2.64025">
        <ele>121.8</ele>
        <time>2024-09-15T08:54:17Z</time>
      </trkpt>
      <trkpt lat="47.78778" lon="-2.64025">
        <ele>121.8</ele>
        <time>2024-09-15T08:54:18Z</time>
      </trkpt>
      <trkpt lat="47.78776" lon="-2.64025">
        <ele>121.8</ele>
        <time>2024-09-15T08:54:19Z</time>
      </trkpt>
      <trkpt lat="47.78775" lon="-2.64025">
        <ele>121.8</ele>
        <time>2024-09-15T08:54:20Z</time>
      </trkpt>
      <trkpt lat="47.78773" lon="-2.64025">
        <ele>122.2</ele>
        <time>2024-09-15T08:54:21Z</time>
      </trkpt>
      <trkpt lat="47.78769" lon="-2.64027">
        <ele>122.4</ele>
        <time>2024-09-15T08:54:22Z</time>
      </trkpt>
      <trkpt lat="47.78768" lon="-2.64028">
        <ele>122.8</ele>
        <time>2024-09-15T08:54:23Z</time>
      </trkpt>
      <trkpt lat="47.78767" lon="-2.64028">
        <ele>122.8</ele>
        <time>2024-09-15T08:54:24Z</time>
      </trkpt>
      <trkpt lat="47.78765" lon="-2.64029">
        <ele>123</ele>
        <time>2024-09-15T08:54:25Z</time>
      </trkpt>
      <trkpt lat="47.78763" lon="-2.6403">
        <ele>123.2</ele>
        <time>2024-09-15T08:54:26Z</time>
      </trkpt>
      <trkpt lat="47.78761" lon="-2.6403">
        <ele>123.2</ele>
        <time>2024-09-15T08:54:27Z</time>
      </trkpt>
      <trkpt lat="47.7876" lon="-2.6403">
        <ele>123.6</ele>
        <time>2024-09-15T08:54:28Z</time>
      </trkpt>
      <trkpt lat="47.78758" lon="-2.64031">
        <ele>123.6</ele>
        <time>2024-09-15T08:54:29Z</time>
      </trkpt>
      <trkpt lat="47.78757" lon="-2.64031">
        <ele>123.8</ele>
        <time>2024-09-15T08:54:30Z</time>
      </trkpt>
      <trkpt lat="47.78755" lon="-2.64031">
        <ele>123.8</ele>
        <time>2024-09-15T08:54:31Z</time>
      </trkpt>
      <trkpt lat="47.78754" lon="-2.64032">
        <ele>124</ele>
        <time>2024-09-15T08:54:32Z</time>
      </trkpt>
      <trkpt lat="47.78751" lon="-2.64033">
        <ele>124</ele>
        <time>2024-09-15T08:54:33Z</time>
      </trkpt>
      <trkpt lat="47.78749" lon="-2.64034">
        <ele>124</ele>
        <time>2024-09-15T08:54:34Z</time>
      </trkpt>
      <trkpt lat="47.78747" lon="-2.64035">
        <ele>124.2</ele>
        <time>2024-09-15T08:54:35Z</time>
      </trkpt>
      <trkpt lat="47.78744" lon="-2.64036">
        <ele>124.4</ele>
        <time>2024-09-15T08:54:36Z</time>
      </trkpt>
      <trkpt lat="47.78741" lon="-2.64036">
        <ele>124.6</ele>
        <time>2024-09-15T08:54:37Z</time>
      </trkpt>
      <trkpt lat="47.78739" lon="-2.64037">
        <ele>124.6</ele>
        <time>2024-09-15T08:54:38Z</time>
      </trkpt>
      <trkpt lat="47.78736" lon="-2.64037">
        <ele>124.6</ele>
        <time>2024-09-15T08:54:39Z</time>
      </trkpt>
      <trkpt lat="47.78734" lon="-2.64036">
        <ele>124.6</ele>
        <time>2024-09-15T08:54:40Z</time>
      </trkpt>
      <trkpt lat="47.78731" lon="-2.64036">
        <ele>125</ele>
        <time>2024-09-15T08:54:41Z</time>
      </trkpt>
      <trkpt lat="47.78728" lon="-2.64036">
        <ele>125</ele>
        <time>2024-09-15T08:54:42Z</time>
      </trkpt>
      <trkpt lat="47.78724" lon="-2.64036">
        <ele>125</ele>
        <time>2024-09-15T08:54:43Z</time>
      </trkpt>
      <trkpt lat="47.78722" lon="-2.64036">
        <ele>125.2</ele>
        <time>2024-09-15T08:54:44Z</time>
      </trkpt>
      <trkpt lat="47.78719" lon="-2.64035">
        <ele>125.2</ele>
        <time>2024-09-15T08:54:45Z</time>
      </trkpt>
      <trkpt lat="47.78716" lon="-2.64035">
        <ele>125.2</ele>
        <time>2024-09-15T08:54:46Z</time>
      </trkpt>
      <trkpt lat="47.78712" lon="-2.64037">
        <ele>125.2</ele>
        <time>2024-09-15T08:54:47Z</time>
      </trkpt>
      <trkpt lat="47.78708" lon="-2.64038">
        <ele>125.4</ele>
        <time>2024-09-15T08:54:48Z</time>
      </trkpt>
      <trkpt lat="47.78705" lon="-2.6404">
        <ele>125.4</ele>
        <time>2024-09-15T08:54:49Z</time>
      </trkpt>
      <trkpt lat="47.78703" lon="-2.64042">
        <ele>125.6</ele>
        <time>2024-09-15T08:54:50Z</time>
      </trkpt>
      <trkpt lat="47.78701" lon="-2.64043">
        <ele>125.8</ele>
        <time>2024-09-15T08:54:51Z</time>
      </trkpt>
      <trkpt lat="47.78698" lon="-2.64047">
        <ele>125.8</ele>
        <time>2024-09-15T08:54:52Z</time>
      </trkpt>
      <trkpt lat="47.78696" lon="-2.6405">
        <ele>125.8</ele>
        <time>2024-09-15T08:54:53Z</time>
      </trkpt>
      <trkpt lat="47.78693" lon="-2.64052">
        <ele>125.8</ele>
        <time>2024-09-15T08:54:54Z</time>
      </trkpt>
      <trkpt lat="47.78691" lon="-2.64054">
        <ele>126</ele>
        <time>2024-09-15T08:54:55Z</time>
      </trkpt>
      <trkpt lat="47.78689" lon="-2.64057">
        <ele>126</ele>
        <time>2024-09-15T08:54:56Z</time>
      </trkpt>
      <trkpt lat="47.78686" lon="-2.64059">
        <ele>126</ele>
        <time>2024-09-15T08:54:57Z</time>
      </trkpt>
      <trkpt lat="47.78683" lon="-2.6406">
        <ele>126</ele>
        <time>2024-09-15T08:54:58Z</time>
      </trkpt>
      <trkpt lat="47.78678" lon="-2.64063">
        <ele>125.8</ele>
        <time>2024-09-15T08:55:00Z</time>
      </trkpt>
      <trkpt lat="47.78675" lon="-2.64065">
        <ele>125.8</ele>
        <time>2024-09-15T08:55:01Z</time>
      </trkpt>
      <trkpt lat="47.7867" lon="-2.64067">
        <ele>125.8</ele>
        <time>2024-09-15T08:55:03Z</time>
      </trkpt>
      <trkpt lat="47.78667" lon="-2.64068">
        <ele>125.8</ele>
        <time>2024-09-15T08:55:04Z</time>
      </trkpt>
      <trkpt lat="47.78657" lon="-2.6407">
        <ele>125.8</ele>
        <time>2024-09-15T08:55:06Z</time>
      </trkpt>
      <trkpt lat="47.78653" lon="-2.6407">
        <ele>125.6</ele>
        <time>2024-09-15T08:55:07Z</time>
      </trkpt>
      <trkpt lat="47.78649" lon="-2.64071">
        <ele>125.6</ele>
        <time>2024-09-15T08:55:08Z</time>
      </trkpt>
      <trkpt lat="47.78647" lon="-2.6407">
        <ele>125.8</ele>
        <time>2024-09-15T08:55:09Z</time>
      </trkpt>
      <trkpt lat="47.78643" lon="-2.64071">
        <ele>125.8</ele>
        <time>2024-09-15T08:55:11Z</time>
      </trkpt>
      <trkpt lat="47.7864" lon="-2.64071">
        <ele>125.8</ele>
        <time>2024-09-15T08:55:12Z</time>
      </trkpt>
      <trkpt lat="47.78637" lon="-2.64071">
        <ele>125.8</ele>
        <time>2024-09-15T08:55:13Z</time>
      </trkpt>
      <trkpt lat="47.78634" lon="-2.64071">
        <ele>125.8</ele>
        <time>2024-09-15T08:55:14Z</time>
      </trkpt>
      <trkpt lat="47.78631" lon="-2.64071">
        <ele>125.8</ele>
        <time>2024-09-15T08:55:15Z</time>
      </trkpt>
      <trkpt lat="47.7863" lon="-2.6407">
        <ele>125.8</ele>
        <time>2024-09-15T08:55:16Z</time>
      </trkpt>
      <trkpt lat="47.78628" lon="-2.64069">
        <ele>125.8</ele>
        <time>2024-09-15T08:55:17Z</time>
      </trkpt>
      <trkpt lat="47.78622" lon="-2.64066">
        <ele>125.8</ele>
        <time>2024-09-15T08:55:21Z</time>
      </trkpt>
      <trkpt lat="47.78602" lon="-2.64066">
        <ele>126.2</ele>
        <time>2024-09-15T08:55:30Z</time>
      </trkpt>
      <trkpt lat="47.78593" lon="-2.64067">
        <ele>126.6</ele>
        <time>2024-09-15T08:55:33Z</time>
      </trkpt>
      <trkpt lat="47.7859" lon="-2.64068">
        <ele>126.6</ele>
        <time>2024-09-15T08:55:34Z</time>
      </trkpt>
      <trkpt lat="47.78588" lon="-2.64068">
        <ele>126.8</ele>
        <time>2024-09-15T08:55:35Z</time>
      </trkpt>
      <trkpt lat="47.78569" lon="-2.64069">
        <ele>127</ele>
        <time>2024-09-15T08:55:41Z</time>
      </trkpt>
      <trkpt lat="47.78557" lon="-2.64075">
        <ele>127.2</ele>
        <time>2024-09-15T08:55:45Z</time>
      </trkpt>
      <trkpt lat="47.7855" lon="-2.64081">
        <ele>127.4</ele>
        <time>2024-09-15T08:55:47Z</time>
      </trkpt>
      <trkpt lat="47.78535" lon="-2.64092">
        <ele>127.4</ele>
        <time>2024-09-15T08:55:51Z</time>
      </trkpt>
      <trkpt lat="47.78522" lon="-2.64101">
        <ele>127.4</ele>
        <time>2024-09-15T08:55:54Z</time>
      </trkpt>
      <trkpt lat="47.78514" lon="-2.64108">
        <ele>127.4</ele>
        <time>2024-09-15T08:55:56Z</time>
      </trkpt>
      <trkpt lat="47.78503" lon="-2.64115">
        <ele>127.4</ele>
        <time>2024-09-15T08:55:58Z</time>
      </trkpt>
      <trkpt lat="47.78498" lon="-2.64118">
        <ele>127.2</ele>
        <time>2024-09-15T08:55:59Z</time>
      </trkpt>
      <trkpt lat="47.78493" lon="-2.64119">
        <ele>127</ele>
        <time>2024-09-15T08:56:00Z</time>
      </trkpt>
      <trkpt lat="47.78476" lon="-2.64115">
        <ele>126.8</ele>
        <time>2024-09-15T08:56:03Z</time>
      </trkpt>
      <trkpt lat="47.78471" lon="-2.64114">
        <ele>126.6</ele>
        <time>2024-09-15T08:56:04Z</time>
      </trkpt>
      <trkpt lat="47.78466" lon="-2.64112">
        <ele>126.4</ele>
        <time>2024-09-15T08:56:05Z</time>
      </trkpt>
      <trkpt lat="47.78461" lon="-2.6411">
        <ele>126.4</ele>
        <time>2024-09-15T08:56:06Z</time>
      </trkpt>
      <trkpt lat="47.7845" lon="-2.64109">
        <ele>126.2</ele>
        <time>2024-09-15T08:56:08Z</time>
      </trkpt>
      <trkpt lat="47.78446" lon="-2.64111">
        <ele>126</ele>
        <time>2024-09-15T08:56:09Z</time>
      </trkpt>
      <trkpt lat="47.78441" lon="-2.64112">
        <ele>126</ele>
        <time>2024-09-15T08:56:10Z</time>
      </trkpt>
      <trkpt lat="47.78432" lon="-2.64114">
        <ele>126</ele>
        <time>2024-09-15T08:56:12Z</time>
      </trkpt>
      <trkpt lat="47.78428" lon="-2.64115">
        <ele>125.8</ele>
        <time>2024-09-15T08:56:13Z</time>
      </trkpt>
      <trkpt lat="47.78424" lon="-2.64116">
        <ele>125.6</ele>
        <time>2024-09-15T08:56:14Z</time>
      </trkpt>
      <trkpt lat="47.7842" lon="-2.64118">
        <ele>125.6</ele>
        <time>2024-09-15T08:56:15Z</time>
      </trkpt>
      <trkpt lat="47.78415" lon="-2.64118">
        <ele>125.6</ele>
        <time>2024-09-15T08:56:16Z</time>
      </trkpt>
      <trkpt lat="47.78411" lon="-2.64118">
        <ele>125.4</ele>
        <time>2024-09-15T08:56:17Z</time>
      </trkpt>
      <trkpt lat="47.78401" lon="-2.64118">
        <ele>125.2</ele>
        <time>2024-09-15T08:56:19Z</time>
      </trkpt>
      <trkpt lat="47.78397" lon="-2.64117">
        <ele>125</ele>
        <time>2024-09-15T08:56:20Z</time>
      </trkpt>
      <trkpt lat="47.78387" lon="-2.64118">
        <ele>124.8</ele>
        <time>2024-09-15T08:56:22Z</time>
      </trkpt>
      <trkpt lat="47.78381" lon="-2.64118">
        <ele>124.8</ele>
        <time>2024-09-15T08:56:23Z</time>
      </trkpt>
      <trkpt lat="47.78371" lon="-2.64118">
        <ele>124.6</ele>
        <time>2024-09-15T08:56:25Z</time>
      </trkpt>
      <trkpt lat="47.78368" lon="-2.64117">
        <ele>124.6</ele>
        <time>2024-09-15T08:56:26Z</time>
      </trkpt>
      <trkpt lat="47.78364" lon="-2.64117">
        <ele>124.6</ele>
        <time>2024-09-15T08:56:27Z</time>
      </trkpt>
      <trkpt lat="47.7836" lon="-2.64116">
        <ele>124.6</ele>
        <time>2024-09-15T08:56:28Z</time>
      </trkpt>
      <trkpt lat="47.78356" lon="-2.64116">
        <ele>124.6</ele>
        <time>2024-09-15T08:56:29Z</time>
      </trkpt>
      <trkpt lat="47.7835" lon="-2.64115">
        <ele>124.6</ele>
        <time>2024-09-15T08:56:30Z</time>
      </trkpt>
      <trkpt lat="47.78342" lon="-2.64113">
        <ele>124.6</ele>
        <time>2024-09-15T08:56:32Z</time>
      </trkpt>
      <trkpt lat="47.78334" lon="-2.6411">
        <ele>124.6</ele>
        <time>2024-09-15T08:56:34Z</time>
      </trkpt>
      <trkpt lat="47.78329" lon="-2.64108">
        <ele>124.6</ele>
        <time>2024-09-15T08:56:35Z</time>
      </trkpt>
      <trkpt lat="47.7832" lon="-2.64105">
        <ele>124.6</ele>
        <time>2024-09-15T08:56:37Z</time>
      </trkpt>
      <trkpt lat="47.78317" lon="-2.64104">
        <ele>124.6</ele>
        <time>2024-09-15T08:56:38Z</time>
      </trkpt>
      <trkpt lat="47.78312" lon="-2.64101">
        <ele>124.6</ele>
        <time>2024-09-15T08:56:39Z</time>
      </trkpt>
      <trkpt lat="47.78306" lon="-2.64102">
        <ele>124.6</ele>
        <time>2024-09-15T08:56:40Z</time>
      </trkpt>
      <trkpt lat="47.783" lon="-2.64102">
        <ele>124.6</ele>
        <time>2024-09-15T08:56:41Z</time>
      </trkpt>
      <trkpt lat="47.78295" lon="-2.64101">
        <ele>124.6</ele>
        <time>2024-09-15T08:56:42Z</time>
      </trkpt>
      <trkpt lat="47.78289" lon="-2.641">
        <ele>124.6</ele>
        <time>2024-09-15T08:56:43Z</time>
      </trkpt>
      <trkpt lat="47.78286" lon="-2.64101">
        <ele>124.4</ele>
        <time>2024-09-15T08:56:44Z</time>
      </trkpt>
      <trkpt lat="47.78282" lon="-2.64102">
        <ele>124.4</ele>
        <time>2024-09-15T08:56:45Z</time>
      </trkpt>
      <trkpt lat="47.78267" lon="-2.64106">
        <ele>124.6</ele>
        <time>2024-09-15T08:56:48Z</time>
      </trkpt>
      <trkpt lat="47.78264" lon="-2.64106">
        <ele>124.6</ele>
        <time>2024-09-15T08:56:49Z</time>
      </trkpt>
      <trkpt lat="47.78261" lon="-2.64106">
        <ele>124.6</ele>
        <time>2024-09-15T08:56:50Z</time>
      </trkpt>
      <trkpt lat="47.78258" lon="-2.64106">
        <ele>125</ele>
        <time>2024-09-15T08:56:51Z</time>
      </trkpt>
      <trkpt lat="47.78255" lon="-2.64108">
        <ele>125</ele>
        <time>2024-09-15T08:56:52Z</time>
      </trkpt>
      <trkpt lat="47.78252" lon="-2.64108">
        <ele>125</ele>
        <time>2024-09-15T08:56:53Z</time>
      </trkpt>
      <trkpt lat="47.78249" lon="-2.64107">
        <ele>125.2</ele>
        <time>2024-09-15T08:56:54Z</time>
      </trkpt>
      <trkpt lat="47.78242" lon="-2.64109">
        <ele>125.4</ele>
        <time>2024-09-15T08:56:57Z</time>
      </trkpt>
      <trkpt lat="47.78235" lon="-2.64112">
        <ele>125.6</ele>
        <time>2024-09-15T08:56:59Z</time>
      </trkpt>
      <trkpt lat="47.78232" lon="-2.64112">
        <ele>125.6</ele>
        <time>2024-09-15T08:57:00Z</time>
      </trkpt>
      <trkpt lat="47.78229" lon="-2.64113">
        <ele>125.6</ele>
        <time>2024-09-15T08:57:01Z</time>
      </trkpt>
      <trkpt lat="47.78227" lon="-2.64114">
        <ele>125.8</ele>
        <time>2024-09-15T08:57:02Z</time>
      </trkpt>
      <trkpt lat="47.78225" lon="-2.64115">
        <ele>125.8</ele>
        <time>2024-09-15T08:57:03Z</time>
      </trkpt>
      <trkpt lat="47.78222" lon="-2.64117">
        <ele>125.8</ele>
        <time>2024-09-15T08:57:04Z</time>
      </trkpt>
      <trkpt lat="47.78213" lon="-2.64123">
        <ele>125.8</ele>
        <time>2024-09-15T08:57:07Z</time>
      </trkpt>
      <trkpt lat="47.78208" lon="-2.64123">
        <ele>126</ele>
        <time>2024-09-15T08:57:09Z</time>
      </trkpt>
      <trkpt lat="47.78204" lon="-2.64124">
        <ele>126.2</ele>
        <time>2024-09-15T08:57:10Z</time>
      </trkpt>
      <trkpt lat="47.78194" lon="-2.64122">
        <ele>126.2</ele>
        <time>2024-09-15T08:57:12Z</time>
      </trkpt>
      <trkpt lat="47.7819" lon="-2.64121">
        <ele>126.2</ele>
        <time>2024-09-15T08:57:13Z</time>
      </trkpt>
      <trkpt lat="47.78184" lon="-2.64122">
        <ele>126.2</ele>
        <time>2024-09-15T08:57:14Z</time>
      </trkpt>
      <trkpt lat="47.7818" lon="-2.64125">
        <ele>126.2</ele>
        <time>2024-09-15T08:57:15Z</time>
      </trkpt>
      <trkpt lat="47.78175" lon="-2.64129">
        <ele>126</ele>
        <time>2024-09-15T08:57:16Z</time>
      </trkpt>
      <trkpt lat="47.7817" lon="-2.64134">
        <ele>126</ele>
        <time>2024-09-15T08:57:17Z</time>
      </trkpt>
      <trkpt lat="47.78165" lon="-2.64139">
        <ele>126</ele>
        <time>2024-09-15T08:57:18Z</time>
      </trkpt>
      <trkpt lat="47.78159" lon="-2.64143">
        <ele>125.8</ele>
        <time>2024-09-15T08:57:19Z</time>
      </trkpt>
      <trkpt lat="47.78154" lon="-2.64146">
        <ele>125.4</ele>
        <time>2024-09-15T08:57:20Z</time>
      </trkpt>
      <trkpt lat="47.78146" lon="-2.64149">
        <ele>125.2</ele>
        <time>2024-09-15T08:57:21Z</time>
      </trkpt>
      <trkpt lat="47.78138" lon="-2.64153">
        <ele>124.6</ele>
        <time>2024-09-15T08:57:22Z</time>
      </trkpt>
      <trkpt lat="47.78129" lon="-2.64155">
        <ele>124.4</ele>
        <time>2024-09-15T08:57:23Z</time>
      </trkpt>
      <trkpt lat="47.78122" lon="-2.64157">
        <ele>124.2</ele>
        <time>2024-09-15T08:57:24Z</time>
      </trkpt>
      <trkpt lat="47.78117" lon="-2.64157">
        <ele>124</ele>
        <time>2024-09-15T08:57:25Z</time>
      </trkpt>
      <trkpt lat="47.78112" lon="-2.64159">
        <ele>123.6</ele>
        <time>2024-09-15T08:57:26Z</time>
      </trkpt>
      <trkpt lat="47.78102" lon="-2.64162">
        <ele>123.2</ele>
        <time>2024-09-15T08:57:28Z</time>
      </trkpt>
      <trkpt lat="47.78091" lon="-2.64161">
        <ele>123</ele>
        <time>2024-09-15T08:57:30Z</time>
      </trkpt>
      <trkpt lat="47.78079" lon="-2.64163">
        <ele>122.8</ele>
        <time>2024-09-15T08:57:32Z</time>
      </trkpt>
      <trkpt lat="47.78068" lon="-2.64163">
        <ele>122.6</ele>
        <time>2024-09-15T08:57:34Z</time>
      </trkpt>
      <trkpt lat="47.78061" lon="-2.64163">
        <ele>122.6</ele>
        <time>2024-09-15T08:57:35Z</time>
      </trkpt>
      <trkpt lat="47.78056" lon="-2.64164">
        <ele>122.6</ele>
        <time>2024-09-15T08:57:36Z</time>
      </trkpt>
      <trkpt lat="47.78048" lon="-2.64165">
        <ele>122.4</ele>
        <time>2024-09-15T08:57:37Z</time>
      </trkpt>
      <trkpt lat="47.78043" lon="-2.64167">
        <ele>122.4</ele>
        <time>2024-09-15T08:57:38Z</time>
      </trkpt>
      <trkpt lat="47.78038" lon="-2.64167">
        <ele>122.4</ele>
        <time>2024-09-15T08:57:39Z</time>
      </trkpt>
      <trkpt lat="47.78033" lon="-2.64166">
        <ele>122.4</ele>
        <time>2024-09-15T08:57:40Z</time>
      </trkpt>
      <trkpt lat="47.78029" lon="-2.64166">
        <ele>122.6</ele>
        <time>2024-09-15T08:57:41Z</time>
      </trkpt>
      <trkpt lat="47.78022" lon="-2.64166">
        <ele>122.6</ele>
        <time>2024-09-15T08:57:42Z</time>
      </trkpt>
      <trkpt lat="47.78017" lon="-2.64166">
        <ele>122.6</ele>
        <time>2024-09-15T08:57:43Z</time>
      </trkpt>
      <trkpt lat="47.78013" lon="-2.64167">
        <ele>122.6</ele>
        <time>2024-09-15T08:57:44Z</time>
      </trkpt>
      <trkpt lat="47.78008" lon="-2.64167">
        <ele>122.8</ele>
        <time>2024-09-15T08:57:45Z</time>
      </trkpt>
      <trkpt lat="47.78004" lon="-2.64167">
        <ele>122.8</ele>
        <time>2024-09-15T08:57:46Z</time>
      </trkpt>
      <trkpt lat="47.77996" lon="-2.64166">
        <ele>122.6</ele>
        <time>2024-09-15T08:57:48Z</time>
      </trkpt>
      <trkpt lat="47.77991" lon="-2.64167">
        <ele>122.6</ele>
        <time>2024-09-15T08:57:49Z</time>
      </trkpt>
      <trkpt lat="47.77986" lon="-2.64168">
        <ele>122.8</ele>
        <time>2024-09-15T08:57:50Z</time>
      </trkpt>
      <trkpt lat="47.77982" lon="-2.64169">
        <ele>122.8</ele>
        <time>2024-09-15T08:57:51Z</time>
      </trkpt>
      <trkpt lat="47.77978" lon="-2.6417">
        <ele>122.8</ele>
        <time>2024-09-15T08:57:52Z</time>
      </trkpt>
      <trkpt lat="47.77974" lon="-2.64171">
        <ele>123</ele>
        <time>2024-09-15T08:57:53Z</time>
      </trkpt>
      <trkpt lat="47.7797" lon="-2.64171">
        <ele>123</ele>
        <time>2024-09-15T08:57:54Z</time>
      </trkpt>
      <trkpt lat="47.77966" lon="-2.64171">
        <ele>123</ele>
        <time>2024-09-15T08:57:55Z</time>
      </trkpt>
      <trkpt lat="47.77962" lon="-2.64171">
        <ele>123</ele>
        <time>2024-09-15T08:57:56Z</time>
      </trkpt>
      <trkpt lat="47.77955" lon="-2.6417">
        <ele>123</ele>
        <time>2024-09-15T08:57:58Z</time>
      </trkpt>
      <trkpt lat="47.77952" lon="-2.6417">
        <ele>123</ele>
        <time>2024-09-15T08:57:59Z</time>
      </trkpt>
      <trkpt lat="47.77948" lon="-2.6417">
        <ele>123</ele>
        <time>2024-09-15T08:58:00Z</time>
      </trkpt>
      <trkpt lat="47.77943" lon="-2.6417">
        <ele>123.2</ele>
        <time>2024-09-15T08:58:01Z</time>
      </trkpt>
      <trkpt lat="47.7793" lon="-2.64173">
        <ele>123.2</ele>
        <time>2024-09-15T08:58:04Z</time>
      </trkpt>
      <trkpt lat="47.77921" lon="-2.64175">
        <ele>123.2</ele>
        <time>2024-09-15T08:58:06Z</time>
      </trkpt>
      <trkpt lat="47.77915" lon="-2.64176">
        <ele>123.2</ele>
        <time>2024-09-15T08:58:07Z</time>
      </trkpt>
      <trkpt lat="47.77912" lon="-2.64177">
        <ele>123.2</ele>
        <time>2024-09-15T08:58:08Z</time>
      </trkpt>
      <trkpt lat="47.77908" lon="-2.64177">
        <ele>123.2</ele>
        <time>2024-09-15T08:58:09Z</time>
      </trkpt>
      <trkpt lat="47.77903" lon="-2.64178">
        <ele>123.4</ele>
        <time>2024-09-15T08:58:10Z</time>
      </trkpt>
      <trkpt lat="47.77898" lon="-2.64179">
        <ele>123.4</ele>
        <time>2024-09-15T08:58:11Z</time>
      </trkpt>
      <trkpt lat="47.77868" lon="-2.64185">
        <ele>123</ele>
        <time>2024-09-15T08:58:17Z</time>
      </trkpt>
      <trkpt lat="47.77856" lon="-2.64187">
        <ele>122.8</ele>
        <time>2024-09-15T08:58:19Z</time>
      </trkpt>
      <trkpt lat="47.77852" lon="-2.64187">
        <ele>122.8</ele>
        <time>2024-09-15T08:58:20Z</time>
      </trkpt>
      <trkpt lat="47.77842" lon="-2.64187">
        <ele>122.6</ele>
        <time>2024-09-15T08:58:22Z</time>
      </trkpt>
      <trkpt lat="47.77831" lon="-2.64191">
        <ele>122.6</ele>
        <time>2024-09-15T08:58:24Z</time>
      </trkpt>
      <trkpt lat="47.77819" lon="-2.64194">
        <ele>122.4</ele>
        <time>2024-09-15T08:58:26Z</time>
      </trkpt>
      <trkpt lat="47.77814" lon="-2.64196">
        <ele>122.4</ele>
        <time>2024-09-15T08:58:27Z</time>
      </trkpt>
      <trkpt lat="47.77806" lon="-2.642">
        <ele>122.4</ele>
        <time>2024-09-15T08:58:29Z</time>
      </trkpt>
      <trkpt lat="47.77801" lon="-2.64202">
        <ele>122.2</ele>
        <time>2024-09-15T08:58:30Z</time>
      </trkpt>
      <trkpt lat="47.7779" lon="-2.64208">
        <ele>121.8</ele>
        <time>2024-09-15T08:58:32Z</time>
      </trkpt>
      <trkpt lat="47.77773" lon="-2.64212">
        <ele>121.2</ele>
        <time>2024-09-15T08:58:36Z</time>
      </trkpt>
      <trkpt lat="47.77768" lon="-2.64214">
        <ele>121</ele>
        <time>2024-09-15T08:58:37Z</time>
      </trkpt>
      <trkpt lat="47.77759" lon="-2.64216">
        <ele>120.8</ele>
        <time>2024-09-15T08:58:39Z</time>
      </trkpt>
      <trkpt lat="47.77754" lon="-2.64218">
        <ele>120.8</ele>
        <time>2024-09-15T08:58:40Z</time>
      </trkpt>
      <trkpt lat="47.77749" lon="-2.6422">
        <ele>120.6</ele>
        <time>2024-09-15T08:58:41Z</time>
      </trkpt>
      <trkpt lat="47.77744" lon="-2.64221">
        <ele>120.6</ele>
        <time>2024-09-15T08:58:42Z</time>
      </trkpt>
      <trkpt lat="47.7774" lon="-2.64222">
        <ele>120.6</ele>
        <time>2024-09-15T08:58:43Z</time>
      </trkpt>
      <trkpt lat="47.77736" lon="-2.64223">
        <ele>120.6</ele>
        <time>2024-09-15T08:58:44Z</time>
      </trkpt>
      <trkpt lat="47.77731" lon="-2.64223">
        <ele>120.8</ele>
        <time>2024-09-15T08:58:45Z</time>
      </trkpt>
      <trkpt lat="47.77726" lon="-2.64223">
        <ele>120.6</ele>
        <time>2024-09-15T08:58:46Z</time>
      </trkpt>
      <trkpt lat="47.77723" lon="-2.64222">
        <ele>120.6</ele>
        <time>2024-09-15T08:58:47Z</time>
      </trkpt>
      <trkpt lat="47.77719" lon="-2.64222">
        <ele>120.6</ele>
        <time>2024-09-15T08:58:48Z</time>
      </trkpt>
      <trkpt lat="47.77716" lon="-2.64221">
        <ele>120.6</ele>
        <time>2024-09-15T08:58:49Z</time>
      </trkpt>
      <trkpt lat="47.77713" lon="-2.64221">
        <ele>120.6</ele>
        <time>2024-09-15T08:58:50Z</time>
      </trkpt>
      <trkpt lat="47.77711" lon="-2.6422">
        <ele>120.6</ele>
        <time>2024-09-15T08:58:51Z</time>
      </trkpt>
      <trkpt lat="47.7771" lon="-2.6422">
        <ele>120.6</ele>
        <time>2024-09-15T08:58:52Z</time>
      </trkpt>
      <trkpt lat="47.77708" lon="-2.6422">
        <ele>120.6</ele>
        <time>2024-09-15T08:58:53Z</time>
      </trkpt>
      <trkpt lat="47.77706" lon="-2.64218">
        <ele>120.6</ele>
        <time>2024-09-15T08:58:54Z</time>
      </trkpt>
      <trkpt lat="47.77705" lon="-2.64215">
        <ele>120.6</ele>
        <time>2024-09-15T08:58:55Z</time>
      </trkpt>
      <trkpt lat="47.77704" lon="-2.64207">
        <ele>120.6</ele>
        <time>2024-09-15T08:58:57Z</time>
      </trkpt>
      <trkpt lat="47.77703" lon="-2.64202">
        <ele>120.6</ele>
        <time>2024-09-15T08:58:58Z</time>
      </trkpt>
      <trkpt lat="47.77702" lon="-2.64198">
        <ele>120.6</ele>
        <time>2024-09-15T08:58:59Z</time>
      </trkpt>
      <trkpt lat="47.77701" lon="-2.64184">
        <ele>120.8</ele>
        <time>2024-09-15T08:59:02Z</time>
      </trkpt>
      <trkpt lat="47.777" lon="-2.6418">
        <ele>120.8</ele>
        <time>2024-09-15T08:59:03Z</time>
      </trkpt>
      <trkpt lat="47.77696" lon="-2.64155">
        <ele>121.2</ele>
        <time>2024-09-15T08:59:09Z</time>
      </trkpt>
      <trkpt lat="47.77692" lon="-2.64131">
        <ele>121.8</ele>
        <time>2024-09-15T08:59:14Z</time>
      </trkpt>
      <trkpt lat="47.77691" lon="-2.64124">
        <ele>121.8</ele>
        <time>2024-09-15T08:59:15Z</time>
      </trkpt>
      <trkpt lat="47.77679" lon="-2.64082">
        <ele>122</ele>
        <time>2024-09-15T08:59:22Z</time>
      </trkpt>
      <trkpt lat="47.77658" lon="-2.64017">
        <ele>121.6</ele>
        <time>2024-09-15T08:59:32Z</time>
      </trkpt>
      <trkpt lat="47.77655" lon="-2.64002">
        <ele>121.4</ele>
        <time>2024-09-15T08:59:34Z</time>
      </trkpt>
      <trkpt lat="47.77655" lon="-2.63987">
        <ele>121.4</ele>
        <time>2024-09-15T08:59:36Z</time>
      </trkpt>
      <trkpt lat="47.77656" lon="-2.6398">
        <ele>121.4</ele>
        <time>2024-09-15T08:59:37Z</time>
      </trkpt>
      <trkpt lat="47.77658" lon="-2.63951">
        <ele>121.2</ele>
        <time>2024-09-15T08:59:41Z</time>
      </trkpt>
      <trkpt lat="47.77664" lon="-2.63914">
        <ele>120.8</ele>
        <time>2024-09-15T08:59:46Z</time>
      </trkpt>
      <trkpt lat="47.77671" lon="-2.63861">
        <ele>120.2</ele>
        <time>2024-09-15T08:59:52Z</time>
      </trkpt>
      <trkpt lat="47.77674" lon="-2.63834">
        <ele>120</ele>
        <time>2024-09-15T08:59:55Z</time>
      </trkpt>
      <trkpt lat="47.77674" lon="-2.63806">
        <ele>119.4</ele>
        <time>2024-09-15T08:59:58Z</time>
      </trkpt>
      <trkpt lat="47.77673" lon="-2.63785">
        <ele>119.2</ele>
        <time>2024-09-15T09:00:00Z</time>
      </trkpt>
      <trkpt lat="47.77672" lon="-2.63734">
        <ele>118</ele>
        <time>2024-09-15T09:00:05Z</time>
      </trkpt>
      <trkpt lat="47.77671" lon="-2.63722">
        <ele>117.8</ele>
        <time>2024-09-15T09:00:06Z</time>
      </trkpt>
      <trkpt lat="47.77665" lon="-2.63701">
        <ele>117.6</ele>
        <time>2024-09-15T09:00:08Z</time>
      </trkpt>
      <trkpt lat="47.77661" lon="-2.63691">
        <ele>117.2</ele>
        <time>2024-09-15T09:00:09Z</time>
      </trkpt>
      <trkpt lat="47.77658" lon="-2.63681">
        <ele>117</ele>
        <time>2024-09-15T09:00:10Z</time>
      </trkpt>
      <trkpt lat="47.77654" lon="-2.63671">
        <ele>116.4</ele>
        <time>2024-09-15T09:00:11Z</time>
      </trkpt>
      <trkpt lat="47.77651" lon="-2.63653">
        <ele>115.8</ele>
        <time>2024-09-15T09:00:13Z</time>
      </trkpt>
      <trkpt lat="47.77649" lon="-2.6364">
        <ele>115.2</ele>
        <time>2024-09-15T09:00:14Z</time>
      </trkpt>
      <trkpt lat="47.77649" lon="-2.63618">
        <ele>114.4</ele>
        <time>2024-09-15T09:00:16Z</time>
      </trkpt>
      <trkpt lat="47.7765" lon="-2.63596">
        <ele>113.8</ele>
        <time>2024-09-15T09:00:18Z</time>
      </trkpt>
      <trkpt lat="47.77652" lon="-2.63585">
        <ele>113.6</ele>
        <time>2024-09-15T09:00:19Z</time>
      </trkpt>
      <trkpt lat="47.77654" lon="-2.63575">
        <ele>113</ele>
        <time>2024-09-15T09:00:20Z</time>
      </trkpt>
      <trkpt lat="47.77657" lon="-2.63565">
        <ele>112.8</ele>
        <time>2024-09-15T09:00:21Z</time>
      </trkpt>
      <trkpt lat="47.7766" lon="-2.63554">
        <ele>112.2</ele>
        <time>2024-09-15T09:00:22Z</time>
      </trkpt>
      <trkpt lat="47.77662" lon="-2.63544">
        <ele>112</ele>
        <time>2024-09-15T09:00:23Z</time>
      </trkpt>
      <trkpt lat="47.77664" lon="-2.63534">
        <ele>111.8</ele>
        <time>2024-09-15T09:00:24Z</time>
      </trkpt>
      <trkpt lat="47.77666" lon="-2.63524">
        <ele>111.6</ele>
        <time>2024-09-15T09:00:25Z</time>
      </trkpt>
      <trkpt lat="47.77667" lon="-2.63514">
        <ele>111.4</ele>
        <time>2024-09-15T09:00:26Z</time>
      </trkpt>
      <trkpt lat="47.77667" lon="-2.63505">
        <ele>110.8</ele>
        <time>2024-09-15T09:00:27Z</time>
      </trkpt>
      <trkpt lat="47.77667" lon="-2.63496">
        <ele>110.8</ele>
        <time>2024-09-15T09:00:28Z</time>
      </trkpt>
      <trkpt lat="47.77666" lon="-2.63488">
        <ele>110.4</ele>
        <time>2024-09-15T09:00:29Z</time>
      </trkpt>
      <trkpt lat="47.77665" lon="-2.63481">
        <ele>110.2</ele>
        <time>2024-09-15T09:00:30Z</time>
      </trkpt>
      <trkpt lat="47.77662" lon="-2.63474">
        <ele>110.2</ele>
        <time>2024-09-15T09:00:31Z</time>
      </trkpt>
      <trkpt lat="47.7766" lon="-2.63469">
        <ele>110</ele>
        <time>2024-09-15T09:00:32Z</time>
      </trkpt>
      <trkpt lat="47.77658" lon="-2.63464">
        <ele>110</ele>
        <time>2024-09-15T09:00:33Z</time>
      </trkpt>
      <trkpt lat="47.77657" lon="-2.6346">
        <ele>110</ele>
        <time>2024-09-15T09:00:34Z</time>
      </trkpt>
      <trkpt lat="47.77657" lon="-2.63458">
        <ele>109.8</ele>
        <time>2024-09-15T09:00:35Z</time>
      </trkpt>
      <trkpt lat="47.77656" lon="-2.63457">
        <ele>109.8</ele>
        <time>2024-09-15T09:00:36Z</time>
      </trkpt>
      <trkpt lat="47.77656" lon="-2.63456">
        <ele>109.6</ele>
        <time>2024-09-15T09:00:37Z</time>
      </trkpt>
      <trkpt lat="47.77655" lon="-2.63455">
        <ele>109.4</ele>
        <time>2024-09-15T09:00:38Z</time>
      </trkpt>
      <trkpt lat="47.77655" lon="-2.63455">
        <ele>109.4</ele>
        <time>2024-09-15T09:00:39Z</time>
      </trkpt>
      <trkpt lat="47.77655" lon="-2.63454">
        <ele>109.4</ele>
        <time>2024-09-15T09:00:40Z</time>
      </trkpt>
      <trkpt lat="47.77655" lon="-2.63452">
        <ele>109.2</ele>
        <time>2024-09-15T09:00:41Z</time>
      </trkpt>
      <trkpt lat="47.77653" lon="-2.63445">
        <ele>109.4</ele>
        <time>2024-09-15T09:00:45Z</time>
      </trkpt>
      <trkpt lat="47.77652" lon="-2.63442">
        <ele>109.4</ele>
        <time>2024-09-15T09:00:46Z</time>
      </trkpt>
      <trkpt lat="47.77651" lon="-2.63438">
        <ele>109.2</ele>
        <time>2024-09-15T09:00:47Z</time>
      </trkpt>
      <trkpt lat="47.77651" lon="-2.63434">
        <ele>109.2</ele>
        <time>2024-09-15T09:00:48Z</time>
      </trkpt>
      <trkpt lat="47.77651" lon="-2.63429">
        <ele>109</ele>
        <time>2024-09-15T09:00:49Z</time>
      </trkpt>
      <trkpt lat="47.77652" lon="-2.63424">
        <ele>109</ele>
        <time>2024-09-15T09:00:50Z</time>
      </trkpt>
      <trkpt lat="47.77653" lon="-2.63419">
        <ele>108.8</ele>
        <time>2024-09-15T09:00:51Z</time>
      </trkpt>
      <trkpt lat="47.77653" lon="-2.63413">
        <ele>108.8</ele>
        <time>2024-09-15T09:00:52Z</time>
      </trkpt>
      <trkpt lat="47.77651" lon="-2.63403">
        <ele>108.4</ele>
        <time>2024-09-15T09:00:54Z</time>
      </trkpt>
      <trkpt lat="47.77651" lon="-2.63398">
        <ele>107.8</ele>
        <time>2024-09-15T09:00:55Z</time>
      </trkpt>
      <trkpt lat="47.7765" lon="-2.63393">
        <ele>107.6</ele>
        <time>2024-09-15T09:00:56Z</time>
      </trkpt>
      <trkpt lat="47.7765" lon="-2.63386">
        <ele>107.4</ele>
        <time>2024-09-15T09:00:57Z</time>
      </trkpt>
      <trkpt lat="47.77652" lon="-2.63368">
        <ele>107</ele>
        <time>2024-09-15T09:00:59Z</time>
      </trkpt>
      <trkpt lat="47.77653" lon="-2.63361">
        <ele>107</ele>
        <time>2024-09-15T09:01:00Z</time>
      </trkpt>
      <trkpt lat="47.77654" lon="-2.63352">
        <ele>106.8</ele>
        <time>2024-09-15T09:01:01Z</time>
      </trkpt>
      <trkpt lat="47.77653" lon="-2.63344">
        <ele>106.8</ele>
        <time>2024-09-15T09:01:02Z</time>
      </trkpt>
      <trkpt lat="47.77653" lon="-2.63337">
        <ele>106.8</ele>
        <time>2024-09-15T09:01:03Z</time>
      </trkpt>
      <trkpt lat="47.77656" lon="-2.63328">
        <ele>106.6</ele>
        <time>2024-09-15T09:01:04Z</time>
      </trkpt>
      <trkpt lat="47.77659" lon="-2.63318">
        <ele>106.6</ele>
        <time>2024-09-15T09:01:05Z</time>
      </trkpt>
      <trkpt lat="47.7766" lon="-2.6331">
        <ele>106.6</ele>
        <time>2024-09-15T09:01:06Z</time>
      </trkpt>
      <trkpt lat="47.77662" lon="-2.63303">
        <ele>106.2</ele>
        <time>2024-09-15T09:01:07Z</time>
      </trkpt>
      <trkpt lat="47.77663" lon="-2.63299">
        <ele>106</ele>
        <time>2024-09-15T09:01:08Z</time>
      </trkpt>
      <trkpt lat="47.77662" lon="-2.63295">
        <ele>105.6</ele>
        <time>2024-09-15T09:01:09Z</time>
      </trkpt>
      <trkpt lat="47.77662" lon="-2.63293">
        <ele>105.4</ele>
        <time>2024-09-15T09:01:10Z</time>
      </trkpt>
      <trkpt lat="47.77663" lon="-2.63289">
        <ele>105</ele>
        <time>2024-09-15T09:01:11Z</time>
      </trkpt>
      <trkpt lat="47.77666" lon="-2.63277">
        <ele>104.6</ele>
        <time>2024-09-15T09:01:13Z</time>
      </trkpt>
      <trkpt lat="47.77667" lon="-2.63271">
        <ele>104.6</ele>
        <time>2024-09-15T09:01:14Z</time>
      </trkpt>
      <trkpt lat="47.77671" lon="-2.63258">
        <ele>104.2</ele>
        <time>2024-09-15T09:01:17Z</time>
      </trkpt>
      <trkpt lat="47.7767" lon="-2.6325">
        <ele>103.6</ele>
        <time>2024-09-15T09:01:19Z</time>
      </trkpt>
      <trkpt lat="47.77668" lon="-2.63245">
        <ele>103.2</ele>
        <time>2024-09-15T09:01:20Z</time>
      </trkpt>
      <trkpt lat="47.77667" lon="-2.6324">
        <ele>103.2</ele>
        <time>2024-09-15T09:01:21Z</time>
      </trkpt>
      <trkpt lat="47.77665" lon="-2.63232">
        <ele>102.8</ele>
        <time>2024-09-15T09:01:22Z</time>
      </trkpt>
      <trkpt lat="47.77667" lon="-2.63227">
        <ele>102.6</ele>
        <time>2024-09-15T09:01:23Z</time>
      </trkpt>
      <trkpt lat="47.77671" lon="-2.63223">
        <ele>102.4</ele>
        <time>2024-09-15T09:01:24Z</time>
      </trkpt>
      <trkpt lat="47.77673" lon="-2.63218">
        <ele>102.2</ele>
        <time>2024-09-15T09:01:25Z</time>
      </trkpt>
      <trkpt lat="47.77675" lon="-2.63213">
        <ele>101.8</ele>
        <time>2024-09-15T09:01:26Z</time>
      </trkpt>
      <trkpt lat="47.77676" lon="-2.63208">
        <ele>101.6</ele>
        <time>2024-09-15T09:01:27Z</time>
      </trkpt>
      <trkpt lat="47.77676" lon="-2.63204">
        <ele>101.2</ele>
        <time>2024-09-15T09:01:28Z</time>
      </trkpt>
      <trkpt lat="47.77678" lon="-2.63198">
        <ele>100.8</ele>
        <time>2024-09-15T09:01:29Z</time>
      </trkpt>
      <trkpt lat="47.77681" lon="-2.6319">
        <ele>100.4</ele>
        <time>2024-09-15T09:01:31Z</time>
      </trkpt>
      <trkpt lat="47.77683" lon="-2.63182">
        <ele>100</ele>
        <time>2024-09-15T09:01:33Z</time>
      </trkpt>
      <trkpt lat="47.77684" lon="-2.63176">
        <ele>100</ele>
        <time>2024-09-15T09:01:34Z</time>
      </trkpt>
      <trkpt lat="47.77684" lon="-2.63171">
        <ele>99.6</ele>
        <time>2024-09-15T09:01:35Z</time>
      </trkpt>
      <trkpt lat="47.77687" lon="-2.63161">
        <ele>99.2</ele>
        <time>2024-09-15T09:01:37Z</time>
      </trkpt>
      <trkpt lat="47.77688" lon="-2.63157">
        <ele>98.6</ele>
        <time>2024-09-15T09:01:38Z</time>
      </trkpt>
      <trkpt lat="47.77688" lon="-2.6315">
        <ele>98.2</ele>
        <time>2024-09-15T09:01:39Z</time>
      </trkpt>
      <trkpt lat="47.77686" lon="-2.63145">
        <ele>98</ele>
        <time>2024-09-15T09:01:40Z</time>
      </trkpt>
      <trkpt lat="47.77686" lon="-2.6314">
        <ele>97.8</ele>
        <time>2024-09-15T09:01:41Z</time>
      </trkpt>
      <trkpt lat="47.77688" lon="-2.6313">
        <ele>97.4</ele>
        <time>2024-09-15T09:01:43Z</time>
      </trkpt>
      <trkpt lat="47.7769" lon="-2.63126">
        <ele>97.2</ele>
        <time>2024-09-15T09:01:44Z</time>
      </trkpt>
      <trkpt lat="47.77696" lon="-2.63103">
        <ele>96.4</ele>
        <time>2024-09-15T09:01:48Z</time>
      </trkpt>
      <trkpt lat="47.77698" lon="-2.63098">
        <ele>96</ele>
        <time>2024-09-15T09:01:49Z</time>
      </trkpt>
      <trkpt lat="47.77698" lon="-2.63091">
        <ele>96</ele>
        <time>2024-09-15T09:01:50Z</time>
      </trkpt>
      <trkpt lat="47.77699" lon="-2.63085">
        <ele>95.4</ele>
        <time>2024-09-15T09:01:51Z</time>
      </trkpt>
      <trkpt lat="47.77699" lon="-2.63081">
        <ele>95.2</ele>
        <time>2024-09-15T09:01:52Z</time>
      </trkpt>
      <trkpt lat="47.77699" lon="-2.63076">
        <ele>94.8</ele>
        <time>2024-09-15T09:01:53Z</time>
      </trkpt>
      <trkpt lat="47.777" lon="-2.63065">
        <ele>94.4</ele>
        <time>2024-09-15T09:01:55Z</time>
      </trkpt>
      <trkpt lat="47.777" lon="-2.63056">
        <ele>94.2</ele>
        <time>2024-09-15T09:01:56Z</time>
      </trkpt>
      <trkpt lat="47.777" lon="-2.63034">
        <ele>93.6</ele>
        <time>2024-09-15T09:01:59Z</time>
      </trkpt>
      <trkpt lat="47.77702" lon="-2.63027">
        <ele>93.6</ele>
        <time>2024-09-15T09:02:00Z</time>
      </trkpt>
      <trkpt lat="47.77705" lon="-2.63017">
        <ele>93.4</ele>
        <time>2024-09-15T09:02:01Z</time>
      </trkpt>
      <trkpt lat="47.77705" lon="-2.63011">
        <ele>93.2</ele>
        <time>2024-09-15T09:02:02Z</time>
      </trkpt>
      <trkpt lat="47.77705" lon="-2.63005">
        <ele>93.2</ele>
        <time>2024-09-15T09:02:03Z</time>
      </trkpt>
      <trkpt lat="47.77705" lon="-2.62999">
        <ele>92.6</ele>
        <time>2024-09-15T09:02:04Z</time>
      </trkpt>
      <trkpt lat="47.77705" lon="-2.62994">
        <ele>92.2</ele>
        <time>2024-09-15T09:02:05Z</time>
      </trkpt>
      <trkpt lat="47.77704" lon="-2.62986">
        <ele>91.8</ele>
        <time>2024-09-15T09:02:06Z</time>
      </trkpt>
      <trkpt lat="47.77706" lon="-2.62981">
        <ele>91.6</ele>
        <time>2024-09-15T09:02:07Z</time>
      </trkpt>
      <trkpt lat="47.77707" lon="-2.62978">
        <ele>91.2</ele>
        <time>2024-09-15T09:02:08Z</time>
      </trkpt>
      <trkpt lat="47.77707" lon="-2.62975">
        <ele>90.8</ele>
        <time>2024-09-15T09:02:09Z</time>
      </trkpt>
      <trkpt lat="47.77704" lon="-2.62974">
        <ele>90.6</ele>
        <time>2024-09-15T09:02:11Z</time>
      </trkpt>
      <trkpt lat="47.77703" lon="-2.62975">
        <ele>90.6</ele>
        <time>2024-09-15T09:02:12Z</time>
      </trkpt>
      <trkpt lat="47.77696" lon="-2.62981">
        <ele>90.2</ele>
        <time>2024-09-15T09:02:15Z</time>
      </trkpt>
      <trkpt lat="47.77695" lon="-2.62983">
        <ele>90.2</ele>
        <time>2024-09-15T09:02:16Z</time>
      </trkpt>
      <trkpt lat="47.7769" lon="-2.62987">
        <ele>90.2</ele>
        <time>2024-09-15T09:02:19Z</time>
      </trkpt>
      <trkpt lat="47.77682" lon="-2.62992">
        <ele>90.2</ele>
        <time>2024-09-15T09:02:22Z</time>
      </trkpt>
      <trkpt lat="47.77673" lon="-2.63">
        <ele>90.4</ele>
        <time>2024-09-15T09:02:25Z</time>
      </trkpt>
      <trkpt lat="47.7767" lon="-2.63002">
        <ele>90.4</ele>
        <time>2024-09-15T09:02:26Z</time>
      </trkpt>
      <trkpt lat="47.77668" lon="-2.63003">
        <ele>90.6</ele>
        <time>2024-09-15T09:02:27Z</time>
      </trkpt>
      <trkpt lat="47.77666" lon="-2.63005">
        <ele>90.6</ele>
        <time>2024-09-15T09:02:28Z</time>
      </trkpt>
      <trkpt lat="47.77662" lon="-2.63009">
        <ele>91</ele>
        <time>2024-09-15T09:02:30Z</time>
      </trkpt>
      <trkpt lat="47.7766" lon="-2.6301">
        <ele>91</ele>
        <time>2024-09-15T09:02:31Z</time>
      </trkpt>
      <trkpt lat="47.77653" lon="-2.63015">
        <ele>91.2</ele>
        <time>2024-09-15T09:02:34Z</time>
      </trkpt>
      <trkpt lat="47.77651" lon="-2.63017">
        <ele>91.4</ele>
        <time>2024-09-15T09:02:35Z</time>
      </trkpt>
      <trkpt lat="47.77649" lon="-2.63019">
        <ele>91.6</ele>
        <time>2024-09-15T09:02:36Z</time>
      </trkpt>
      <trkpt lat="47.77644" lon="-2.63024">
        <ele>92.2</ele>
        <time>2024-09-15T09:02:39Z</time>
      </trkpt>
      <trkpt lat="47.77641" lon="-2.63026">
        <ele>92.2</ele>
        <time>2024-09-15T09:02:40Z</time>
      </trkpt>
      <trkpt lat="47.77635" lon="-2.63031">
        <ele>92.2</ele>
        <time>2024-09-15T09:02:43Z</time>
      </trkpt>
      <trkpt lat="47.77627" lon="-2.63037">
        <ele>92.6</ele>
        <time>2024-09-15T09:02:46Z</time>
      </trkpt>
      <trkpt lat="47.77613" lon="-2.63048">
        <ele>92.6</ele>
        <time>2024-09-15T09:02:51Z</time>
      </trkpt>
      <trkpt lat="47.77611" lon="-2.63049">
        <ele>92.6</ele>
        <time>2024-09-15T09:02:52Z</time>
      </trkpt>
      <trkpt lat="47.77608" lon="-2.63051">
        <ele>92.6</ele>
        <time>2024-09-15T09:02:53Z</time>
      </trkpt>
      <trkpt lat="47.77605" lon="-2.63053">
        <ele>92.6</ele>
        <time>2024-09-15T09:02:54Z</time>
      </trkpt>
      <trkpt lat="47.77596" lon="-2.63059">
        <ele>92.8</ele>
        <time>2024-09-15T09:02:57Z</time>
      </trkpt>
      <trkpt lat="47.77594" lon="-2.63061">
        <ele>92.8</ele>
        <time>2024-09-15T09:02:58Z</time>
      </trkpt>
      <trkpt lat="47.77592" lon="-2.63063">
        <ele>92.8</ele>
        <time>2024-09-15T09:02:59Z</time>
      </trkpt>
      <trkpt lat="47.7759" lon="-2.63065">
        <ele>92.8</ele>
        <time>2024-09-15T09:03:00Z</time>
      </trkpt>
      <trkpt lat="47.77587" lon="-2.63068">
        <ele>92.8</ele>
        <time>2024-09-15T09:03:01Z</time>
      </trkpt>
      <trkpt lat="47.77582" lon="-2.63072">
        <ele>92.8</ele>
        <time>2024-09-15T09:03:03Z</time>
      </trkpt>
      <trkpt lat="47.77576" lon="-2.63076">
        <ele>92.6</ele>
        <time>2024-09-15T09:03:05Z</time>
      </trkpt>
      <trkpt lat="47.77572" lon="-2.63079">
        <ele>92.6</ele>
        <time>2024-09-15T09:03:06Z</time>
      </trkpt>
      <trkpt lat="47.77566" lon="-2.63086">
        <ele>92.6</ele>
        <time>2024-09-15T09:03:08Z</time>
      </trkpt>
      <trkpt lat="47.77563" lon="-2.63088">
        <ele>92.6</ele>
        <time>2024-09-15T09:03:09Z</time>
      </trkpt>
      <trkpt lat="47.77555" lon="-2.63094">
        <ele>92.6</ele>
        <time>2024-09-15T09:03:12Z</time>
      </trkpt>
      <trkpt lat="47.7754" lon="-2.63109">
        <ele>92.6</ele>
        <time>2024-09-15T09:03:17Z</time>
      </trkpt>
      <trkpt lat="47.77534" lon="-2.63113">
        <ele>92.6</ele>
        <time>2024-09-15T09:03:18Z</time>
      </trkpt>
      <trkpt lat="47.77524" lon="-2.63121">
        <ele>92.8</ele>
        <time>2024-09-15T09:03:22Z</time>
      </trkpt>
      <trkpt lat="47.77522" lon="-2.63122">
        <ele>92.8</ele>
        <time>2024-09-15T09:03:23Z</time>
      </trkpt>
      <trkpt lat="47.7752" lon="-2.63123">
        <ele>93</ele>
        <time>2024-09-15T09:03:24Z</time>
      </trkpt>
      <trkpt lat="47.77518" lon="-2.63125">
        <ele>93</ele>
        <time>2024-09-15T09:03:25Z</time>
      </trkpt>
      <trkpt lat="47.77517" lon="-2.63127">
        <ele>93</ele>
        <time>2024-09-15T09:03:26Z</time>
      </trkpt>
      <trkpt lat="47.77502" lon="-2.6314">
        <ele>93</ele>
        <time>2024-09-15T09:03:31Z</time>
      </trkpt>
      <trkpt lat="47.77497" lon="-2.63145">
        <ele>93</ele>
        <time>2024-09-15T09:03:33Z</time>
      </trkpt>
      <trkpt lat="47.77486" lon="-2.63153">
        <ele>93</ele>
        <time>2024-09-15T09:03:36Z</time>
      </trkpt>
      <trkpt lat="47.77483" lon="-2.63155">
        <ele>93</ele>
        <time>2024-09-15T09:03:37Z</time>
      </trkpt>
      <trkpt lat="47.7748" lon="-2.63158">
        <ele>93</ele>
        <time>2024-09-15T09:03:38Z</time>
      </trkpt>
      <trkpt lat="47.77476" lon="-2.63161">
        <ele>93</ele>
        <time>2024-09-15T09:03:39Z</time>
      </trkpt>
      <trkpt lat="47.77473" lon="-2.63164">
        <ele>93</ele>
        <time>2024-09-15T09:03:40Z</time>
      </trkpt>
      <trkpt lat="47.7747" lon="-2.63165">
        <ele>93</ele>
        <time>2024-09-15T09:03:41Z</time>
      </trkpt>
      <trkpt lat="47.77467" lon="-2.63167">
        <ele>93</ele>
        <time>2024-09-15T09:03:42Z</time>
      </trkpt>
      <trkpt lat="47.77461" lon="-2.63171">
        <ele>92.8</ele>
        <time>2024-09-15T09:03:44Z</time>
      </trkpt>
      <trkpt lat="47.77454" lon="-2.63177">
        <ele>92.6</ele>
        <time>2024-09-15T09:03:47Z</time>
      </trkpt>
      <trkpt lat="47.77451" lon="-2.63179">
        <ele>92.6</ele>
        <time>2024-09-15T09:03:48Z</time>
      </trkpt>
      <trkpt lat="47.77447" lon="-2.63182">
        <ele>92.6</ele>
        <time>2024-09-15T09:03:49Z</time>
      </trkpt>
      <trkpt lat="47.77444" lon="-2.63184">
        <ele>92.4</ele>
        <time>2024-09-15T09:03:50Z</time>
      </trkpt>
      <trkpt lat="47.77441" lon="-2.63186">
        <ele>92.4</ele>
        <time>2024-09-15T09:03:51Z</time>
      </trkpt>
      <trkpt lat="47.7744" lon="-2.63186">
        <ele>92.2</ele>
        <time>2024-09-15T09:03:52Z</time>
      </trkpt>
      <trkpt lat="47.77439" lon="-2.63183">
        <ele>92.2</ele>
        <time>2024-09-15T09:03:53Z</time>
      </trkpt>
      <trkpt lat="47.77437" lon="-2.63182">
        <ele>92.2</ele>
        <time>2024-09-15T09:03:54Z</time>
      </trkpt>
      <trkpt lat="47.77437" lon="-2.63182">
        <ele>92</ele>
        <time>2024-09-15T09:03:55Z</time>
      </trkpt>
      <trkpt lat="47.77435" lon="-2.6318">
        <ele>92</ele>
        <time>2024-09-15T09:03:56Z</time>
      </trkpt>
      <trkpt lat="47.77433" lon="-2.63178">
        <ele>92</ele>
        <time>2024-09-15T09:03:57Z</time>
      </trkpt>
      <trkpt lat="47.77432" lon="-2.6317">
        <ele>91.8</ele>
        <time>2024-09-15T09:03:58Z</time>
      </trkpt>
      <trkpt lat="47.77432" lon="-2.63164">
        <ele>91.8</ele>
        <time>2024-09-15T09:03:59Z</time>
      </trkpt>
      <trkpt lat="47.7743" lon="-2.63159">
        <ele>91.8</ele>
        <time>2024-09-15T09:04:00Z</time>
      </trkpt>
      <trkpt lat="47.7743" lon="-2.63159">
        <ele>91.4</ele>
        <time>2024-09-15T09:04:01Z</time>
      </trkpt>
      <trkpt lat="47.77428" lon="-2.63155">
        <ele>91.4</ele>
        <time>2024-09-15T09:04:02Z</time>
      </trkpt>
      <trkpt lat="47.77425" lon="-2.63152">
        <ele>91.2</ele>
        <time>2024-09-15T09:04:03Z</time>
      </trkpt>
      <trkpt lat="47.7742" lon="-2.63145">
        <ele>90.8</ele>
        <time>2024-09-15T09:04:04Z</time>
      </trkpt>
      <trkpt lat="47.77419" lon="-2.63142">
        <ele>90.8</ele>
        <time>2024-09-15T09:04:05Z</time>
      </trkpt>
      <trkpt lat="47.77419" lon="-2.63142">
        <ele>90.6</ele>
        <time>2024-09-15T09:04:06Z</time>
      </trkpt>
      <trkpt lat="47.77414" lon="-2.63132">
        <ele>90</ele>
        <time>2024-09-15T09:04:08Z</time>
      </trkpt>
      <trkpt lat="47.7741" lon="-2.63116">
        <ele>89.8</ele>
        <time>2024-09-15T09:04:11Z</time>
      </trkpt>
      <trkpt lat="47.77406" lon="-2.63103">
        <ele>89.2</ele>
        <time>2024-09-15T09:04:14Z</time>
      </trkpt>
      <trkpt lat="47.77406" lon="-2.63099">
        <ele>88.8</ele>
        <time>2024-09-15T09:04:15Z</time>
      </trkpt>
      <trkpt lat="47.77407" lon="-2.63096">
        <ele>88.6</ele>
        <time>2024-09-15T09:04:16Z</time>
      </trkpt>
      <trkpt lat="47.77406" lon="-2.63094">
        <ele>88.6</ele>
        <time>2024-09-15T09:04:17Z</time>
      </trkpt>
      <trkpt lat="47.77405" lon="-2.63092">
        <ele>88.4</ele>
        <time>2024-09-15T09:04:18Z</time>
      </trkpt>
      <trkpt lat="47.77402" lon="-2.63086">
        <ele>88.8</ele>
        <time>2024-09-15T09:04:27Z</time>
      </trkpt>
      <trkpt lat="47.774" lon="-2.63082">
        <ele>87.4</ele>
        <time>2024-09-15T09:04:29Z</time>
      </trkpt>
      <trkpt lat="47.77397" lon="-2.63079">
        <ele>87.2</ele>
        <time>2024-09-15T09:04:31Z</time>
      </trkpt>
      <trkpt lat="47.77396" lon="-2.63077">
        <ele>87</ele>
        <time>2024-09-15T09:04:32Z</time>
      </trkpt>
      <trkpt lat="47.77395" lon="-2.63076">
        <ele>87</ele>
        <time>2024-09-15T09:04:33Z</time>
      </trkpt>
      <trkpt lat="47.77392" lon="-2.6307">
        <ele>86.4</ele>
        <time>2024-09-15T09:04:35Z</time>
      </trkpt>
      <trkpt lat="47.77389" lon="-2.63057">
        <ele>85.6</ele>
        <time>2024-09-15T09:04:38Z</time>
      </trkpt>
      <trkpt lat="47.77388" lon="-2.63054">
        <ele>85.4</ele>
        <time>2024-09-15T09:04:39Z</time>
      </trkpt>
      <trkpt lat="47.77388" lon="-2.63051">
        <ele>85.2</ele>
        <time>2024-09-15T09:04:40Z</time>
      </trkpt>
      <trkpt lat="47.77387" lon="-2.63043">
        <ele>84.8</ele>
        <time>2024-09-15T09:04:42Z</time>
      </trkpt>
      <trkpt lat="47.77387" lon="-2.63039">
        <ele>84.4</ele>
        <time>2024-09-15T09:04:43Z</time>
      </trkpt>
      <trkpt lat="47.77388" lon="-2.63036">
        <ele>84.4</ele>
        <time>2024-09-15T09:04:44Z</time>
      </trkpt>
      <trkpt lat="47.77388" lon="-2.63032">
        <ele>84</ele>
        <time>2024-09-15T09:04:45Z</time>
      </trkpt>
      <trkpt lat="47.77388" lon="-2.63029">
        <ele>84</ele>
        <time>2024-09-15T09:04:46Z</time>
      </trkpt>
      <trkpt lat="47.77387" lon="-2.63026">
        <ele>83.8</ele>
        <time>2024-09-15T09:04:47Z</time>
      </trkpt>
      <trkpt lat="47.77388" lon="-2.63015">
        <ele>83.4</ele>
        <time>2024-09-15T09:04:49Z</time>
      </trkpt>
      <trkpt lat="47.77387" lon="-2.63009">
        <ele>82.8</ele>
        <time>2024-09-15T09:04:50Z</time>
      </trkpt>
      <trkpt lat="47.77385" lon="-2.63002">
        <ele>82.6</ele>
        <time>2024-09-15T09:04:51Z</time>
      </trkpt>
      <trkpt lat="47.77381" lon="-2.62987">
        <ele>82.2</ele>
        <time>2024-09-15T09:04:53Z</time>
      </trkpt>
      <trkpt lat="47.7738" lon="-2.62981">
        <ele>81.8</ele>
        <time>2024-09-15T09:04:54Z</time>
      </trkpt>
      <trkpt lat="47.77379" lon="-2.62975">
        <ele>81.6</ele>
        <time>2024-09-15T09:04:55Z</time>
      </trkpt>
      <trkpt lat="47.77378" lon="-2.62972">
        <ele>81.2</ele>
        <time>2024-09-15T09:04:56Z</time>
      </trkpt>
      <trkpt lat="47.77376" lon="-2.62968">
        <ele>81</ele>
        <time>2024-09-15T09:04:57Z</time>
      </trkpt>
      <trkpt lat="47.77375" lon="-2.62964">
        <ele>80.4</ele>
        <time>2024-09-15T09:04:58Z</time>
      </trkpt>
      <trkpt lat="47.77377" lon="-2.62961">
        <ele>78.6</ele>
        <time>2024-09-15T09:04:59Z</time>
      </trkpt>
      <trkpt lat="47.77377" lon="-2.62958">
        <ele>78</ele>
        <time>2024-09-15T09:05:00Z</time>
      </trkpt>
      <trkpt lat="47.77376" lon="-2.62955">
        <ele>77</ele>
        <time>2024-09-15T09:05:01Z</time>
      </trkpt>
      <trkpt lat="47.77373" lon="-2.62953">
        <ele>76.6</ele>
        <time>2024-09-15T09:05:02Z</time>
      </trkpt>
      <trkpt lat="47.77371" lon="-2.62951">
        <ele>76.4</ele>
        <time>2024-09-15T09:05:03Z</time>
      </trkpt>
      <trkpt lat="47.7737" lon="-2.62947">
        <ele>76.4</ele>
        <time>2024-09-15T09:05:04Z</time>
      </trkpt>
      <trkpt lat="47.77368" lon="-2.62942">
        <ele>76.2</ele>
        <time>2024-09-15T09:05:05Z</time>
      </trkpt>
      <trkpt lat="47.77367" lon="-2.62942">
        <ele>76.2</ele>
        <time>2024-09-15T09:05:06Z</time>
      </trkpt>
      <trkpt lat="47.77367" lon="-2.6294">
        <ele>76.2</ele>
        <time>2024-09-15T09:05:07Z</time>
      </trkpt>
      <trkpt lat="47.77367" lon="-2.62938">
        <ele>76</ele>
        <time>2024-09-15T09:05:08Z</time>
      </trkpt>
      <trkpt lat="47.77366" lon="-2.62935">
        <ele>76</ele>
        <time>2024-09-15T09:05:09Z</time>
      </trkpt>
      <trkpt lat="47.77365" lon="-2.62934">
        <ele>76</ele>
        <time>2024-09-15T09:05:10Z</time>
      </trkpt>
      <trkpt lat="47.77364" lon="-2.62934">
        <ele>76</ele>
        <time>2024-09-15T09:05:11Z</time>
      </trkpt>
      <trkpt lat="47.77363" lon="-2.62934">
        <ele>76</ele>
        <time>2024-09-15T09:05:12Z</time>
      </trkpt>
      <trkpt lat="47.77361" lon="-2.62934">
        <ele>76</ele>
        <time>2024-09-15T09:05:13Z</time>
      </trkpt>
      <trkpt lat="47.77353" lon="-2.62935">
        <ele>76</ele>
        <time>2024-09-15T09:05:16Z</time>
      </trkpt>
      <trkpt lat="47.77351" lon="-2.62936">
        <ele>76</ele>
        <time>2024-09-15T09:05:17Z</time>
      </trkpt>
      <trkpt lat="47.77349" lon="-2.62937">
        <ele>76</ele>
        <time>2024-09-15T09:05:18Z</time>
      </trkpt>
      <trkpt lat="47.77348" lon="-2.62937">
        <ele>76</ele>
        <time>2024-09-15T09:05:19Z</time>
      </trkpt>
      <trkpt lat="47.77347" lon="-2.62938">
        <ele>76</ele>
        <time>2024-09-15T09:05:20Z</time>
      </trkpt>
      <trkpt lat="47.77335" lon="-2.62941">
        <ele>75.6</ele>
        <time>2024-09-15T09:05:25Z</time>
      </trkpt>
      <trkpt lat="47.77334" lon="-2.62942">
        <ele>75.6</ele>
        <time>2024-09-15T09:05:26Z</time>
      </trkpt>
      <trkpt lat="47.77332" lon="-2.62942">
        <ele>75.6</ele>
        <time>2024-09-15T09:05:27Z</time>
      </trkpt>
      <trkpt lat="47.77324" lon="-2.62942">
        <ele>75.4</ele>
        <time>2024-09-15T09:05:30Z</time>
      </trkpt>
      <trkpt lat="47.77318" lon="-2.62946">
        <ele>75.4</ele>
        <time>2024-09-15T09:05:33Z</time>
      </trkpt>
      <trkpt lat="47.77316" lon="-2.62947">
        <ele>75.4</ele>
        <time>2024-09-15T09:05:34Z</time>
      </trkpt>
      <trkpt lat="47.77315" lon="-2.62947">
        <ele>75.4</ele>
        <time>2024-09-15T09:05:35Z</time>
      </trkpt>
      <trkpt lat="47.77301" lon="-2.6295">
        <ele>75</ele>
        <time>2024-09-15T09:05:39Z</time>
      </trkpt>
      <trkpt lat="47.77298" lon="-2.62951">
        <ele>75</ele>
        <time>2024-09-15T09:05:40Z</time>
      </trkpt>
      <trkpt lat="47.77291" lon="-2.62956">
        <ele>74.8</ele>
        <time>2024-09-15T09:05:43Z</time>
      </trkpt>
      <trkpt lat="47.77288" lon="-2.62958">
        <ele>74.6</ele>
        <time>2024-09-15T09:05:44Z</time>
      </trkpt>
      <trkpt lat="47.77286" lon="-2.6296">
        <ele>74.8</ele>
        <time>2024-09-15T09:05:45Z</time>
      </trkpt>
      <trkpt lat="47.77284" lon="-2.6296">
        <ele>75</ele>
        <time>2024-09-15T09:05:46Z</time>
      </trkpt>
      <trkpt lat="47.7728" lon="-2.6296">
        <ele>75</ele>
        <time>2024-09-15T09:05:47Z</time>
      </trkpt>
      <trkpt lat="47.77278" lon="-2.6296">
        <ele>75</ele>
        <time>2024-09-15T09:05:48Z</time>
      </trkpt>
      <trkpt lat="47.77276" lon="-2.6296">
        <ele>75</ele>
        <time>2024-09-15T09:05:49Z</time>
      </trkpt>
      <trkpt lat="47.77273" lon="-2.62961">
        <ele>75</ele>
        <time>2024-09-15T09:05:50Z</time>
      </trkpt>
      <trkpt lat="47.77269" lon="-2.62962">
        <ele>75</ele>
        <time>2024-09-15T09:05:52Z</time>
      </trkpt>
      <trkpt lat="47.77266" lon="-2.62963">
        <ele>75</ele>
        <time>2024-09-15T09:05:53Z</time>
      </trkpt>
      <trkpt lat="47.77263" lon="-2.62963">
        <ele>75</ele>
        <time>2024-09-15T09:05:54Z</time>
      </trkpt>
      <trkpt lat="47.7726" lon="-2.62964">
        <ele>75</ele>
        <time>2024-09-15T09:05:55Z</time>
      </trkpt>
      <trkpt lat="47.77256" lon="-2.62965">
        <ele>75</ele>
        <time>2024-09-15T09:05:56Z</time>
      </trkpt>
      <trkpt lat="47.77253" lon="-2.62968">
        <ele>75</ele>
        <time>2024-09-15T09:05:57Z</time>
      </trkpt>
      <trkpt lat="47.7725" lon="-2.6297">
        <ele>74.8</ele>
        <time>2024-09-15T09:05:59Z</time>
      </trkpt>
      <trkpt lat="47.77249" lon="-2.6297">
        <ele>74.6</ele>
        <time>2024-09-15T09:06:00Z</time>
      </trkpt>
      <trkpt lat="47.77246" lon="-2.62968">
        <ele>74.6</ele>
        <time>2024-09-15T09:06:01Z</time>
      </trkpt>
      <trkpt lat="47.77244" lon="-2.62967">
        <ele>74.6</ele>
        <time>2024-09-15T09:06:02Z</time>
      </trkpt>
      <trkpt lat="47.77241" lon="-2.62966">
        <ele>74.6</ele>
        <time>2024-09-15T09:06:03Z</time>
      </trkpt>
      <trkpt lat="47.77239" lon="-2.62965">
        <ele>74.6</ele>
        <time>2024-09-15T09:06:04Z</time>
      </trkpt>
      <trkpt lat="47.77235" lon="-2.62963">
        <ele>74.6</ele>
        <time>2024-09-15T09:06:06Z</time>
      </trkpt>
      <trkpt lat="47.77235" lon="-2.62962">
        <ele>74.4</ele>
        <time>2024-09-15T09:06:07Z</time>
      </trkpt>
      <trkpt lat="47.77234" lon="-2.6296">
        <ele>74.4</ele>
        <time>2024-09-15T09:06:08Z</time>
      </trkpt>
      <trkpt lat="47.77232" lon="-2.62955">
        <ele>74.4</ele>
        <time>2024-09-15T09:06:10Z</time>
      </trkpt>
      <trkpt lat="47.77232" lon="-2.62955">
        <ele>74.2</ele>
        <time>2024-09-15T09:06:11Z</time>
      </trkpt>
      <trkpt lat="47.77232" lon="-2.62955">
        <ele>74.2</ele>
        <time>2024-09-15T09:06:12Z</time>
      </trkpt>
      <trkpt lat="47.77232" lon="-2.62954">
        <ele>74.2</ele>
        <time>2024-09-15T09:06:13Z</time>
      </trkpt>
      <trkpt lat="47.77231" lon="-2.62952">
        <ele>74.2</ele>
        <time>2024-09-15T09:06:14Z</time>
      </trkpt>
      <trkpt lat="47.7723" lon="-2.6295">
        <ele>74.4</ele>
        <time>2024-09-15T09:06:15Z</time>
      </trkpt>
      <trkpt lat="47.7723" lon="-2.62948">
        <ele>74.4</ele>
        <time>2024-09-15T09:06:16Z</time>
      </trkpt>
      <trkpt lat="47.7723" lon="-2.62946">
        <ele>74.4</ele>
        <time>2024-09-15T09:06:17Z</time>
      </trkpt>
      <trkpt lat="47.7723" lon="-2.62944">
        <ele>74.6</ele>
        <time>2024-09-15T09:06:18Z</time>
      </trkpt>
      <trkpt lat="47.77229" lon="-2.62942">
        <ele>74.6</ele>
        <time>2024-09-15T09:06:19Z</time>
      </trkpt>
      <trkpt lat="47.77229" lon="-2.6294">
        <ele>74.8</ele>
        <time>2024-09-15T09:06:20Z</time>
      </trkpt>
      <trkpt lat="47.77227" lon="-2.62929">
        <ele>75</ele>
        <time>2024-09-15T09:06:24Z</time>
      </trkpt>
      <trkpt lat="47.77226" lon="-2.62923">
        <ele>75</ele>
        <time>2024-09-15T09:06:25Z</time>
      </trkpt>
      <trkpt lat="47.77226" lon="-2.62916">
        <ele>75</ele>
        <time>2024-09-15T09:06:27Z</time>
      </trkpt>
      <trkpt lat="47.77227" lon="-2.62913">
        <ele>75</ele>
        <time>2024-09-15T09:06:28Z</time>
      </trkpt>
      <trkpt lat="47.77228" lon="-2.6291">
        <ele>75.2</ele>
        <time>2024-09-15T09:06:29Z</time>
      </trkpt>
      <trkpt lat="47.77229" lon="-2.62907">
        <ele>75.2</ele>
        <time>2024-09-15T09:06:30Z</time>
      </trkpt>
      <trkpt lat="47.77228" lon="-2.62905">
        <ele>75.6</ele>
        <time>2024-09-15T09:06:31Z</time>
      </trkpt>
      <trkpt lat="47.77229" lon="-2.62902">
        <ele>75.8</ele>
        <time>2024-09-15T09:06:32Z</time>
      </trkpt>
      <trkpt lat="47.77229" lon="-2.629">
        <ele>75.8</ele>
        <time>2024-09-15T09:06:33Z</time>
      </trkpt>
      <trkpt lat="47.7723" lon="-2.62898">
        <ele>76</ele>
        <time>2024-09-15T09:06:34Z</time>
      </trkpt>
      <trkpt lat="47.7723" lon="-2.62896">
        <ele>76</ele>
        <time>2024-09-15T09:06:35Z</time>
      </trkpt>
      <trkpt lat="47.7723" lon="-2.62895">
        <ele>76</ele>
        <time>2024-09-15T09:06:36Z</time>
      </trkpt>
      <trkpt lat="47.7723" lon="-2.6289">
        <ele>76.4</ele>
        <time>2024-09-15T09:06:42Z</time>
      </trkpt>
      <trkpt lat="47.77231" lon="-2.62888">
        <ele>76.6</ele>
        <time>2024-09-15T09:06:43Z</time>
      </trkpt>
      <trkpt lat="47.77234" lon="-2.62884">
        <ele>76.6</ele>
        <time>2024-09-15T09:06:46Z</time>
      </trkpt>
      <trkpt lat="47.77235" lon="-2.62883">
        <ele>76.8</ele>
        <time>2024-09-15T09:06:47Z</time>
      </trkpt>
      <trkpt lat="47.77237" lon="-2.62881">
        <ele>76.8</ele>
        <time>2024-09-15T09:06:48Z</time>
      </trkpt>
      <trkpt lat="47.77238" lon="-2.6288">
        <ele>76.8</ele>
        <time>2024-09-15T09:06:49Z</time>
      </trkpt>
      <trkpt lat="47.7724" lon="-2.62878">
        <ele>77</ele>
        <time>2024-09-15T09:06:50Z</time>
      </trkpt>
      <trkpt lat="47.77242" lon="-2.62877">
        <ele>77</ele>
        <time>2024-09-15T09:06:51Z</time>
      </trkpt>
      <trkpt lat="47.77246" lon="-2.62877">
        <ele>77.2</ele>
        <time>2024-09-15T09:06:53Z</time>
      </trkpt>
      <trkpt lat="47.77247" lon="-2.62876">
        <ele>77.2</ele>
        <time>2024-09-15T09:06:54Z</time>
      </trkpt>
      <trkpt lat="47.7725" lon="-2.62875">
        <ele>77.2</ele>
        <time>2024-09-15T09:06:55Z</time>
      </trkpt>
      <trkpt lat="47.77254" lon="-2.62873">
        <ele>77.4</ele>
        <time>2024-09-15T09:06:57Z</time>
      </trkpt>
      <trkpt lat="47.77256" lon="-2.62871">
        <ele>77.4</ele>
        <time>2024-09-15T09:06:58Z</time>
      </trkpt>
      <trkpt lat="47.77259" lon="-2.62869">
        <ele>77.4</ele>
        <time>2024-09-15T09:06:59Z</time>
      </trkpt>
      <trkpt lat="47.77261" lon="-2.62866">
        <ele>77.6</ele>
        <time>2024-09-15T09:07:00Z</time>
      </trkpt>
      <trkpt lat="47.77262" lon="-2.62863">
        <ele>77.6</ele>
        <time>2024-09-15T09:07:01Z</time>
      </trkpt>
      <trkpt lat="47.77262" lon="-2.62859">
        <ele>77.8</ele>
        <time>2024-09-15T09:07:02Z</time>
      </trkpt>
      <trkpt lat="47.77262" lon="-2.62857">
        <ele>77.8</ele>
        <time>2024-09-15T09:07:03Z</time>
      </trkpt>
      <trkpt lat="47.77261" lon="-2.62855">
        <ele>78</ele>
        <time>2024-09-15T09:07:04Z</time>
      </trkpt>
      <trkpt lat="47.7726" lon="-2.62853">
        <ele>78.2</ele>
        <time>2024-09-15T09:07:05Z</time>
      </trkpt>
      <trkpt lat="47.7726" lon="-2.6285">
        <ele>78.4</ele>
        <time>2024-09-15T09:07:06Z</time>
      </trkpt>
      <trkpt lat="47.77262" lon="-2.62845">
        <ele>78.6</ele>
        <time>2024-09-15T09:07:08Z</time>
      </trkpt>
      <trkpt lat="47.77261" lon="-2.62843">
        <ele>78.6</ele>
        <time>2024-09-15T09:07:09Z</time>
      </trkpt>
      <trkpt lat="47.77261" lon="-2.6284">
        <ele>78.8</ele>
        <time>2024-09-15T09:07:10Z</time>
      </trkpt>
      <trkpt lat="47.77261" lon="-2.62838">
        <ele>79</ele>
        <time>2024-09-15T09:07:11Z</time>
      </trkpt>
      <trkpt lat="47.7726" lon="-2.62832">
        <ele>79.4</ele>
        <time>2024-09-15T09:07:14Z</time>
      </trkpt>
      <trkpt lat="47.7726" lon="-2.6283">
        <ele>79.6</ele>
        <time>2024-09-15T09:07:15Z</time>
      </trkpt>
      <trkpt lat="47.7726" lon="-2.62827">
        <ele>80</ele>
        <time>2024-09-15T09:07:16Z</time>
      </trkpt>
      <trkpt lat="47.7726" lon="-2.62825">
        <ele>80</ele>
        <time>2024-09-15T09:07:17Z</time>
      </trkpt>
      <trkpt lat="47.77259" lon="-2.62823">
        <ele>80.2</ele>
        <time>2024-09-15T09:07:18Z</time>
      </trkpt>
      <trkpt lat="47.77259" lon="-2.6282">
        <ele>80.4</ele>
        <time>2024-09-15T09:07:19Z</time>
      </trkpt>
      <trkpt lat="47.77259" lon="-2.62818">
        <ele>80.6</ele>
        <time>2024-09-15T09:07:20Z</time>
      </trkpt>
      <trkpt lat="47.77259" lon="-2.62816">
        <ele>80.8</ele>
        <time>2024-09-15T09:07:21Z</time>
      </trkpt>
      <trkpt lat="47.77259" lon="-2.62814">
        <ele>81</ele>
        <time>2024-09-15T09:07:22Z</time>
      </trkpt>
      <trkpt lat="47.77259" lon="-2.62813">
        <ele>81.2</ele>
        <time>2024-09-15T09:07:23Z</time>
      </trkpt>
      <trkpt lat="47.77259" lon="-2.6281">
        <ele>81.4</ele>
        <time>2024-09-15T09:07:24Z</time>
      </trkpt>
      <trkpt lat="47.77258" lon="-2.62808">
        <ele>81.4</ele>
        <time>2024-09-15T09:07:25Z</time>
      </trkpt>
      <trkpt lat="47.77258" lon="-2.62805">
        <ele>81.6</ele>
        <time>2024-09-15T09:07:26Z</time>
      </trkpt>
      <trkpt lat="47.77257" lon="-2.62803">
        <ele>81.8</ele>
        <time>2024-09-15T09:07:27Z</time>
      </trkpt>
      <trkpt lat="47.77257" lon="-2.62801">
        <ele>81.8</ele>
        <time>2024-09-15T09:07:28Z</time>
      </trkpt>
      <trkpt lat="47.77256" lon="-2.62798">
        <ele>82.2</ele>
        <time>2024-09-15T09:07:29Z</time>
      </trkpt>
      <trkpt lat="47.77256" lon="-2.62796">
        <ele>82.4</ele>
        <time>2024-09-15T09:07:30Z</time>
      </trkpt>
      <trkpt lat="47.77256" lon="-2.62794">
        <ele>82.8</ele>
        <time>2024-09-15T09:07:31Z</time>
      </trkpt>
      <trkpt lat="47.77256" lon="-2.62792">
        <ele>82.8</ele>
        <time>2024-09-15T09:07:32Z</time>
      </trkpt>
      <trkpt lat="47.77256" lon="-2.6279">
        <ele>83</ele>
        <time>2024-09-15T09:07:33Z</time>
      </trkpt>
      <trkpt lat="47.77256" lon="-2.62788">
        <ele>83.2</ele>
        <time>2024-09-15T09:07:34Z</time>
      </trkpt>
      <trkpt lat="47.77255" lon="-2.62786">
        <ele>83.4</ele>
        <time>2024-09-15T09:07:35Z</time>
      </trkpt>
      <trkpt lat="47.77254" lon="-2.62783">
        <ele>83.6</ele>
        <time>2024-09-15T09:07:36Z</time>
      </trkpt>
      <trkpt lat="47.77254" lon="-2.62781">
        <ele>83.6</ele>
        <time>2024-09-15T09:07:37Z</time>
      </trkpt>
      <trkpt lat="47.77253" lon="-2.62779">
        <ele>83.8</ele>
        <time>2024-09-15T09:07:38Z</time>
      </trkpt>
      <trkpt lat="47.77253" lon="-2.62777">
        <ele>84</ele>
        <time>2024-09-15T09:07:39Z</time>
      </trkpt>
      <trkpt lat="47.77253" lon="-2.62775">
        <ele>84.2</ele>
        <time>2024-09-15T09:07:40Z</time>
      </trkpt>
      <trkpt lat="47.77253" lon="-2.62773">
        <ele>84.2</ele>
        <time>2024-09-15T09:07:41Z</time>
      </trkpt>
      <trkpt lat="47.77253" lon="-2.62771">
        <ele>84.6</ele>
        <time>2024-09-15T09:07:42Z</time>
      </trkpt>
      <trkpt lat="47.77253" lon="-2.62769">
        <ele>84.6</ele>
        <time>2024-09-15T09:07:43Z</time>
      </trkpt>
      <trkpt lat="47.77252" lon="-2.62767">
        <ele>84.8</ele>
        <time>2024-09-15T09:07:44Z</time>
      </trkpt>
      <trkpt lat="47.77252" lon="-2.62765">
        <ele>85</ele>
        <time>2024-09-15T09:07:45Z</time>
      </trkpt>
      <trkpt lat="47.77252" lon="-2.62764">
        <ele>85</ele>
        <time>2024-09-15T09:07:46Z</time>
      </trkpt>
      <trkpt lat="47.77252" lon="-2.62762">
        <ele>85.2</ele>
        <time>2024-09-15T09:07:47Z</time>
      </trkpt>
      <trkpt lat="47.77252" lon="-2.62759">
        <ele>85.4</ele>
        <time>2024-09-15T09:07:48Z</time>
      </trkpt>
      <trkpt lat="47.77251" lon="-2.62757">
        <ele>85.4</ele>
        <time>2024-09-15T09:07:49Z</time>
      </trkpt>
      <trkpt lat="47.77251" lon="-2.62755">
        <ele>85.6</ele>
        <time>2024-09-15T09:07:50Z</time>
      </trkpt>
      <trkpt lat="47.77251" lon="-2.62752">
        <ele>85.8</ele>
        <time>2024-09-15T09:07:51Z</time>
      </trkpt>
      <trkpt lat="47.7725" lon="-2.6275">
        <ele>86</ele>
        <time>2024-09-15T09:07:52Z</time>
      </trkpt>
      <trkpt lat="47.77249" lon="-2.62748">
        <ele>86.2</ele>
        <time>2024-09-15T09:07:53Z</time>
      </trkpt>
      <trkpt lat="47.77249" lon="-2.62745">
        <ele>86.2</ele>
        <time>2024-09-15T09:07:54Z</time>
      </trkpt>
      <trkpt lat="47.77248" lon="-2.62743">
        <ele>86.4</ele>
        <time>2024-09-15T09:07:55Z</time>
      </trkpt>
      <trkpt lat="47.77248" lon="-2.62741">
        <ele>86.4</ele>
        <time>2024-09-15T09:07:56Z</time>
      </trkpt>
      <trkpt lat="47.77248" lon="-2.62738">
        <ele>86.6</ele>
        <time>2024-09-15T09:07:57Z</time>
      </trkpt>
      <trkpt lat="47.77248" lon="-2.62737">
        <ele>86.8</ele>
        <time>2024-09-15T09:07:58Z</time>
      </trkpt>
      <trkpt lat="47.77251" lon="-2.62732">
        <ele>88</ele>
        <time>2024-09-15T09:08:06Z</time>
      </trkpt>
      <trkpt lat="47.77253" lon="-2.6273">
        <ele>88</ele>
        <time>2024-09-15T09:08:07Z</time>
      </trkpt>
      <trkpt lat="47.77254" lon="-2.62729">
        <ele>88</ele>
        <time>2024-09-15T09:08:08Z</time>
      </trkpt>
      <trkpt lat="47.77255" lon="-2.62728">
        <ele>88.2</ele>
        <time>2024-09-15T09:08:09Z</time>
      </trkpt>
      <trkpt lat="47.77257" lon="-2.62726">
        <ele>88.2</ele>
        <time>2024-09-15T09:08:10Z</time>
      </trkpt>
      <trkpt lat="47.77258" lon="-2.62724">
        <ele>88.2</ele>
        <time>2024-09-15T09:08:11Z</time>
      </trkpt>
      <trkpt lat="47.77259" lon="-2.62722">
        <ele>88.2</ele>
        <time>2024-09-15T09:08:12Z</time>
      </trkpt>
      <trkpt lat="47.7726" lon="-2.62721">
        <ele>88.4</ele>
        <time>2024-09-15T09:08:13Z</time>
      </trkpt>
      <trkpt lat="47.77261" lon="-2.62719">
        <ele>88.6</ele>
        <time>2024-09-15T09:08:14Z</time>
      </trkpt>
      <trkpt lat="47.77262" lon="-2.62718">
        <ele>88.8</ele>
        <time>2024-09-15T09:08:15Z</time>
      </trkpt>
      <trkpt lat="47.77264" lon="-2.62717">
        <ele>88.8</ele>
        <time>2024-09-15T09:08:16Z</time>
      </trkpt>
      <trkpt lat="47.77266" lon="-2.62715">
        <ele>88.8</ele>
        <time>2024-09-15T09:08:17Z</time>
      </trkpt>
      <trkpt lat="47.77267" lon="-2.62714">
        <ele>89</ele>
        <time>2024-09-15T09:08:18Z</time>
      </trkpt>
      <trkpt lat="47.77269" lon="-2.62712">
        <ele>89</ele>
        <time>2024-09-15T09:08:19Z</time>
      </trkpt>
      <trkpt lat="47.7727" lon="-2.62711">
        <ele>89</ele>
        <time>2024-09-15T09:08:20Z</time>
      </trkpt>
      <trkpt lat="47.77271" lon="-2.6271">
        <ele>89.2</ele>
        <time>2024-09-15T09:08:21Z</time>
      </trkpt>
      <trkpt lat="47.77272" lon="-2.62709">
        <ele>89.2</ele>
        <time>2024-09-15T09:08:22Z</time>
      </trkpt>
      <trkpt lat="47.77274" lon="-2.62707">
        <ele>89.2</ele>
        <time>2024-09-15T09:08:23Z</time>
      </trkpt>
      <trkpt lat="47.77276" lon="-2.62704">
        <ele>89.4</ele>
        <time>2024-09-15T09:08:24Z</time>
      </trkpt>
      <trkpt lat="47.77277" lon="-2.62702">
        <ele>89.6</ele>
        <time>2024-09-15T09:08:25Z</time>
      </trkpt>
      <trkpt lat="47.77278" lon="-2.627">
        <ele>89.6</ele>
        <time>2024-09-15T09:08:26Z</time>
      </trkpt>
      <trkpt lat="47.7728" lon="-2.62698">
        <ele>89.6</ele>
        <time>2024-09-15T09:08:27Z</time>
      </trkpt>
      <trkpt lat="47.77281" lon="-2.62696">
        <ele>89.6</ele>
        <time>2024-09-15T09:08:28Z</time>
      </trkpt>
      <trkpt lat="47.77284" lon="-2.62692">
        <ele>89.8</ele>
        <time>2024-09-15T09:08:30Z</time>
      </trkpt>
      <trkpt lat="47.77285" lon="-2.62691">
        <ele>90</ele>
        <time>2024-09-15T09:08:31Z</time>
      </trkpt>
      <trkpt lat="47.77287" lon="-2.6269">
        <ele>90.2</ele>
        <time>2024-09-15T09:08:32Z</time>
      </trkpt>
      <trkpt lat="47.7729" lon="-2.62689">
        <ele>90.4</ele>
        <time>2024-09-15T09:08:34Z</time>
      </trkpt>
      <trkpt lat="47.77293" lon="-2.62686">
        <ele>90.6</ele>
        <time>2024-09-15T09:08:35Z</time>
      </trkpt>
      <trkpt lat="47.77297" lon="-2.62681">
        <ele>90.6</ele>
        <time>2024-09-15T09:08:37Z</time>
      </trkpt>
      <trkpt lat="47.77298" lon="-2.62679">
        <ele>90.6</ele>
        <time>2024-09-15T09:08:38Z</time>
      </trkpt>
      <trkpt lat="47.773" lon="-2.62677">
        <ele>90.8</ele>
        <time>2024-09-15T09:08:39Z</time>
      </trkpt>
      <trkpt lat="47.77305" lon="-2.62673">
        <ele>91</ele>
        <time>2024-09-15T09:08:43Z</time>
      </trkpt>
      <trkpt lat="47.77307" lon="-2.62672">
        <ele>91</ele>
        <time>2024-09-15T09:08:44Z</time>
      </trkpt>
      <trkpt lat="47.77308" lon="-2.62671">
        <ele>91.2</ele>
        <time>2024-09-15T09:08:45Z</time>
      </trkpt>
      <trkpt lat="47.77309" lon="-2.62669">
        <ele>91.2</ele>
        <time>2024-09-15T09:08:46Z</time>
      </trkpt>
      <trkpt lat="47.77312" lon="-2.62667">
        <ele>91.4</ele>
        <time>2024-09-15T09:08:48Z</time>
      </trkpt>
      <trkpt lat="47.77319" lon="-2.62662">
        <ele>91.8</ele>
        <time>2024-09-15T09:08:53Z</time>
      </trkpt>
      <trkpt lat="47.77327" lon="-2.62658">
        <ele>91.8</ele>
        <time>2024-09-15T09:08:57Z</time>
      </trkpt>
      <trkpt lat="47.77331" lon="-2.62656">
        <ele>91.8</ele>
        <time>2024-09-15T09:08:59Z</time>
      </trkpt>
      <trkpt lat="47.77333" lon="-2.62656">
        <ele>91.8</ele>
        <time>2024-09-15T09:09:00Z</time>
      </trkpt>
      <trkpt lat="47.77338" lon="-2.62655">
        <ele>91.6</ele>
        <time>2024-09-15T09:09:03Z</time>
      </trkpt>
      <trkpt lat="47.77339" lon="-2.62654">
        <ele>91.6</ele>
        <time>2024-09-15T09:09:04Z</time>
      </trkpt>
      <trkpt lat="47.77341" lon="-2.62654">
        <ele>91.6</ele>
        <time>2024-09-15T09:09:05Z</time>
      </trkpt>
      <trkpt lat="47.77343" lon="-2.62654">
        <ele>91.4</ele>
        <time>2024-09-15T09:09:06Z</time>
      </trkpt>
      <trkpt lat="47.77344" lon="-2.62653">
        <ele>91.4</ele>
        <time>2024-09-15T09:09:07Z</time>
      </trkpt>
      <trkpt lat="47.77352" lon="-2.62648">
        <ele>91.4</ele>
        <time>2024-09-15T09:09:11Z</time>
      </trkpt>
      <trkpt lat="47.77353" lon="-2.62647">
        <ele>91.4</ele>
        <time>2024-09-15T09:09:12Z</time>
      </trkpt>
      <trkpt lat="47.77356" lon="-2.62646">
        <ele>91.6</ele>
        <time>2024-09-15T09:09:14Z</time>
      </trkpt>
      <trkpt lat="47.77358" lon="-2.62645">
        <ele>91.6</ele>
        <time>2024-09-15T09:09:15Z</time>
      </trkpt>
      <trkpt lat="47.77361" lon="-2.62643">
        <ele>91.6</ele>
        <time>2024-09-15T09:09:16Z</time>
      </trkpt>
      <trkpt lat="47.77366" lon="-2.6264">
        <ele>91.8</ele>
        <time>2024-09-15T09:09:19Z</time>
      </trkpt>
      <trkpt lat="47.77382" lon="-2.62626">
        <ele>92</ele>
        <time>2024-09-15T09:09:27Z</time>
      </trkpt>
      <trkpt lat="47.77385" lon="-2.62625">
        <ele>92</ele>
        <time>2024-09-15T09:09:28Z</time>
      </trkpt>
      <trkpt lat="47.77389" lon="-2.62624">
        <ele>92.2</ele>
        <time>2024-09-15T09:09:30Z</time>
      </trkpt>
      <trkpt lat="47.77391" lon="-2.62623">
        <ele>92</ele>
        <time>2024-09-15T09:09:31Z</time>
      </trkpt>
      <trkpt lat="47.77395" lon="-2.62622">
        <ele>92</ele>
        <time>2024-09-15T09:09:33Z</time>
      </trkpt>
      <trkpt lat="47.77397" lon="-2.62622">
        <ele>92</ele>
        <time>2024-09-15T09:09:34Z</time>
      </trkpt>
      <trkpt lat="47.77399" lon="-2.62622">
        <ele>91.8</ele>
        <time>2024-09-15T09:09:36Z</time>
      </trkpt>
      <trkpt lat="47.77405" lon="-2.62622">
        <ele>91.4</ele>
        <time>2024-09-15T09:09:49Z</time>
      </trkpt>
      <trkpt lat="47.77408" lon="-2.62621">
        <ele>91.4</ele>
        <time>2024-09-15T09:09:51Z</time>
      </trkpt>
      <trkpt lat="47.77415" lon="-2.62618">
        <ele>91.2</ele>
        <time>2024-09-15T09:09:55Z</time>
      </trkpt>
      <trkpt lat="47.7742" lon="-2.62615">
        <ele>91.2</ele>
        <time>2024-09-15T09:09:57Z</time>
      </trkpt>
      <trkpt lat="47.77423" lon="-2.62614">
        <ele>91</ele>
        <time>2024-09-15T09:09:59Z</time>
      </trkpt>
      <trkpt lat="47.77425" lon="-2.62612">
        <ele>91</ele>
        <time>2024-09-15T09:10:00Z</time>
      </trkpt>
      <trkpt lat="47.77431" lon="-2.62606">
        <ele>91</ele>
        <time>2024-09-15T09:10:04Z</time>
      </trkpt>
      <trkpt lat="47.77433" lon="-2.62604">
        <ele>91</ele>
        <time>2024-09-15T09:10:05Z</time>
      </trkpt>
      <trkpt lat="47.77434" lon="-2.62603">
        <ele>91</ele>
        <time>2024-09-15T09:10:06Z</time>
      </trkpt>
      <trkpt lat="47.77435" lon="-2.626">
        <ele>91</ele>
        <time>2024-09-15T09:10:07Z</time>
      </trkpt>
      <trkpt lat="47.77437" lon="-2.62592">
        <ele>91.2</ele>
        <time>2024-09-15T09:10:10Z</time>
      </trkpt>
      <trkpt lat="47.77437" lon="-2.6259">
        <ele>91.4</ele>
        <time>2024-09-15T09:10:11Z</time>
      </trkpt>
      <trkpt lat="47.77437" lon="-2.62588">
        <ele>91.4</ele>
        <time>2024-09-15T09:10:12Z</time>
      </trkpt>
      <trkpt lat="47.77437" lon="-2.62586">
        <ele>91.8</ele>
        <time>2024-09-15T09:10:13Z</time>
      </trkpt>
      <trkpt lat="47.77437" lon="-2.62583">
        <ele>91.8</ele>
        <time>2024-09-15T09:10:14Z</time>
      </trkpt>
      <trkpt lat="47.77437" lon="-2.6258">
        <ele>92</ele>
        <time>2024-09-15T09:10:15Z</time>
      </trkpt>
      <trkpt lat="47.77435" lon="-2.62575">
        <ele>92.2</ele>
        <time>2024-09-15T09:10:17Z</time>
      </trkpt>
      <trkpt lat="47.77435" lon="-2.62573">
        <ele>92.4</ele>
        <time>2024-09-15T09:10:18Z</time>
      </trkpt>
      <trkpt lat="47.77434" lon="-2.62571">
        <ele>92.4</ele>
        <time>2024-09-15T09:10:19Z</time>
      </trkpt>
      <trkpt lat="47.77434" lon="-2.6257">
        <ele>92.6</ele>
        <time>2024-09-15T09:10:20Z</time>
      </trkpt>
      <trkpt lat="47.77433" lon="-2.62568">
        <ele>92.8</ele>
        <time>2024-09-15T09:10:21Z</time>
      </trkpt>
      <trkpt lat="47.77433" lon="-2.62564">
        <ele>92.8</ele>
        <time>2024-09-15T09:10:22Z</time>
      </trkpt>
      <trkpt lat="47.77434" lon="-2.6256">
        <ele>93.2</ele>
        <time>2024-09-15T09:10:24Z</time>
      </trkpt>
      <trkpt lat="47.77434" lon="-2.62558">
        <ele>93.2</ele>
        <time>2024-09-15T09:10:25Z</time>
      </trkpt>
      <trkpt lat="47.77433" lon="-2.62555">
        <ele>93.4</ele>
        <time>2024-09-15T09:10:26Z</time>
      </trkpt>
      <trkpt lat="47.77433" lon="-2.62553">
        <ele>93.4</ele>
        <time>2024-09-15T09:10:27Z</time>
      </trkpt>
      <trkpt lat="47.77434" lon="-2.62551">
        <ele>93.6</ele>
        <time>2024-09-15T09:10:28Z</time>
      </trkpt>
      <trkpt lat="47.77434" lon="-2.62549">
        <ele>93.4</ele>
        <time>2024-09-15T09:10:29Z</time>
      </trkpt>
      <trkpt lat="47.77435" lon="-2.62546">
        <ele>93.8</ele>
        <time>2024-09-15T09:10:30Z</time>
      </trkpt>
      <trkpt lat="47.77435" lon="-2.62544">
        <ele>93.8</ele>
        <time>2024-09-15T09:10:31Z</time>
      </trkpt>
      <trkpt lat="47.77436" lon="-2.62542">
        <ele>93.8</ele>
        <time>2024-09-15T09:10:32Z</time>
      </trkpt>
      <trkpt lat="47.77437" lon="-2.6254">
        <ele>94</ele>
        <time>2024-09-15T09:10:33Z</time>
      </trkpt>
      <trkpt lat="47.77438" lon="-2.62539">
        <ele>94.2</ele>
        <time>2024-09-15T09:10:34Z</time>
      </trkpt>
      <trkpt lat="47.7744" lon="-2.62535">
        <ele>94.4</ele>
        <time>2024-09-15T09:10:35Z</time>
      </trkpt>
      <trkpt lat="47.77443" lon="-2.62532">
        <ele>94.8</ele>
        <time>2024-09-15T09:10:37Z</time>
      </trkpt>
      <trkpt lat="47.77444" lon="-2.62531">
        <ele>95.2</ele>
        <time>2024-09-15T09:10:38Z</time>
      </trkpt>
      <trkpt lat="47.77445" lon="-2.62529">
        <ele>95.2</ele>
        <time>2024-09-15T09:10:39Z</time>
      </trkpt>
      <trkpt lat="47.77446" lon="-2.62527">
        <ele>95.6</ele>
        <time>2024-09-15T09:10:40Z</time>
      </trkpt>
      <trkpt lat="47.77447" lon="-2.62525">
        <ele>95.6</ele>
        <time>2024-09-15T09:10:41Z</time>
      </trkpt>
      <trkpt lat="47.77448" lon="-2.62523">
        <ele>95.8</ele>
        <time>2024-09-15T09:10:42Z</time>
      </trkpt>
      <trkpt lat="47.77448" lon="-2.62522">
        <ele>95.8</ele>
        <time>2024-09-15T09:10:43Z</time>
      </trkpt>
      <trkpt lat="47.77449" lon="-2.62521">
        <ele>96</ele>
        <time>2024-09-15T09:10:44Z</time>
      </trkpt>
      <trkpt lat="47.77451" lon="-2.62519">
        <ele>96</ele>
        <time>2024-09-15T09:10:45Z</time>
      </trkpt>
      <trkpt lat="47.77452" lon="-2.62518">
        <ele>96.4</ele>
        <time>2024-09-15T09:10:46Z</time>
      </trkpt>
      <trkpt lat="47.77453" lon="-2.62516">
        <ele>96.2</ele>
        <time>2024-09-15T09:10:47Z</time>
      </trkpt>
      <trkpt lat="47.77455" lon="-2.62514">
        <ele>96.6</ele>
        <time>2024-09-15T09:10:48Z</time>
      </trkpt>
      <trkpt lat="47.77456" lon="-2.62513">
        <ele>96.6</ele>
        <time>2024-09-15T09:10:49Z</time>
      </trkpt>
      <trkpt lat="47.77458" lon="-2.62512">
        <ele>96.6</ele>
        <time>2024-09-15T09:10:50Z</time>
      </trkpt>
      <trkpt lat="47.77459" lon="-2.62511">
        <ele>96.8</ele>
        <time>2024-09-15T09:10:51Z</time>
      </trkpt>
      <trkpt lat="47.7746" lon="-2.6251">
        <ele>96.8</ele>
        <time>2024-09-15T09:10:52Z</time>
      </trkpt>
      <trkpt lat="47.77461" lon="-2.62509">
        <ele>96.8</ele>
        <time>2024-09-15T09:10:53Z</time>
      </trkpt>
      <trkpt lat="47.77462" lon="-2.62507">
        <ele>96.8</ele>
        <time>2024-09-15T09:10:54Z</time>
      </trkpt>
      <trkpt lat="47.77463" lon="-2.62505">
        <ele>97</ele>
        <time>2024-09-15T09:10:55Z</time>
      </trkpt>
      <trkpt lat="47.77466" lon="-2.62503">
        <ele>97</ele>
        <time>2024-09-15T09:10:56Z</time>
      </trkpt>
      <trkpt lat="47.77468" lon="-2.62501">
        <ele>97.2</ele>
        <time>2024-09-15T09:10:57Z</time>
      </trkpt>
      <trkpt lat="47.77469" lon="-2.62499">
        <ele>97.4</ele>
        <time>2024-09-15T09:10:58Z</time>
      </trkpt>
      <trkpt lat="47.7747" lon="-2.62498">
        <ele>97.4</ele>
        <time>2024-09-15T09:10:59Z</time>
      </trkpt>
      <trkpt lat="47.77472" lon="-2.62495">
        <ele>97.6</ele>
        <time>2024-09-15T09:11:00Z</time>
      </trkpt>
      <trkpt lat="47.77473" lon="-2.62494">
        <ele>97.6</ele>
        <time>2024-09-15T09:11:01Z</time>
      </trkpt>
      <trkpt lat="47.77475" lon="-2.62492">
        <ele>97.8</ele>
        <time>2024-09-15T09:11:02Z</time>
      </trkpt>
      <trkpt lat="47.77476" lon="-2.62492">
        <ele>97.8</ele>
        <time>2024-09-15T09:11:03Z</time>
      </trkpt>
      <trkpt lat="47.77478" lon="-2.6249">
        <ele>98</ele>
        <time>2024-09-15T09:11:04Z</time>
      </trkpt>
      <trkpt lat="47.77479" lon="-2.62489">
        <ele>98</ele>
        <time>2024-09-15T09:11:05Z</time>
      </trkpt>
      <trkpt lat="47.7748" lon="-2.62489">
        <ele>98.4</ele>
        <time>2024-09-15T09:11:06Z</time>
      </trkpt>
      <trkpt lat="47.77481" lon="-2.62488">
        <ele>98.4</ele>
        <time>2024-09-15T09:11:07Z</time>
      </trkpt>
      <trkpt lat="47.77482" lon="-2.62487">
        <ele>98.8</ele>
        <time>2024-09-15T09:11:08Z</time>
      </trkpt>
      <trkpt lat="47.77482" lon="-2.62487">
        <ele>98.8</ele>
        <time>2024-09-15T09:11:09Z</time>
      </trkpt>
      <trkpt lat="47.77483" lon="-2.62486">
        <ele>99</ele>
        <time>2024-09-15T09:11:10Z</time>
      </trkpt>
      <trkpt lat="47.77484" lon="-2.62485">
        <ele>99</ele>
        <time>2024-09-15T09:11:11Z</time>
      </trkpt>
      <trkpt lat="47.77485" lon="-2.62484">
        <ele>99.2</ele>
        <time>2024-09-15T09:11:12Z</time>
      </trkpt>
      <trkpt lat="47.77486" lon="-2.62483">
        <ele>99.2</ele>
        <time>2024-09-15T09:11:13Z</time>
      </trkpt>
      <trkpt lat="47.77488" lon="-2.62482">
        <ele>99.4</ele>
        <time>2024-09-15T09:11:14Z</time>
      </trkpt>
      <trkpt lat="47.77489" lon="-2.62481">
        <ele>99.6</ele>
        <time>2024-09-15T09:11:15Z</time>
      </trkpt>
      <trkpt lat="47.77491" lon="-2.62479">
        <ele>99.6</ele>
        <time>2024-09-15T09:11:16Z</time>
      </trkpt>
      <trkpt lat="47.77492" lon="-2.62478">
        <ele>99.8</ele>
        <time>2024-09-15T09:11:17Z</time>
      </trkpt>
      <trkpt lat="47.77494" lon="-2.62477">
        <ele>99.8</ele>
        <time>2024-09-15T09:11:18Z</time>
      </trkpt>
      <trkpt lat="47.77495" lon="-2.62476">
        <ele>100</ele>
        <time>2024-09-15T09:11:19Z</time>
      </trkpt>
      <trkpt lat="47.77496" lon="-2.62476">
        <ele>100</ele>
        <time>2024-09-15T09:11:20Z</time>
      </trkpt>
      <trkpt lat="47.77498" lon="-2.62474">
        <ele>100</ele>
        <time>2024-09-15T09:11:21Z</time>
      </trkpt>
      <trkpt lat="47.77499" lon="-2.62473">
        <ele>100</ele>
        <time>2024-09-15T09:11:22Z</time>
      </trkpt>
      <trkpt lat="47.77501" lon="-2.62472">
        <ele>100</ele>
        <time>2024-09-15T09:11:23Z</time>
      </trkpt>
      <trkpt lat="47.77503" lon="-2.62471">
        <ele>100</ele>
        <time>2024-09-15T09:11:24Z</time>
      </trkpt>
      <trkpt lat="47.77505" lon="-2.6247">
        <ele>100.2</ele>
        <time>2024-09-15T09:11:25Z</time>
      </trkpt>
      <trkpt lat="47.77507" lon="-2.62469">
        <ele>100.2</ele>
        <time>2024-09-15T09:11:26Z</time>
      </trkpt>
      <trkpt lat="47.77509" lon="-2.62468">
        <ele>100.2</ele>
        <time>2024-09-15T09:11:27Z</time>
      </trkpt>
      <trkpt lat="47.7751" lon="-2.62467">
        <ele>100.4</ele>
        <time>2024-09-15T09:11:28Z</time>
      </trkpt>
      <trkpt lat="47.77511" lon="-2.62465">
        <ele>100.4</ele>
        <time>2024-09-15T09:11:29Z</time>
      </trkpt>
      <trkpt lat="47.77512" lon="-2.62463">
        <ele>100.4</ele>
        <time>2024-09-15T09:11:30Z</time>
      </trkpt>
      <trkpt lat="47.77513" lon="-2.62462">
        <ele>100.4</ele>
        <time>2024-09-15T09:11:31Z</time>
      </trkpt>
      <trkpt lat="47.77516" lon="-2.6246">
        <ele>100.4</ele>
        <time>2024-09-15T09:11:32Z</time>
      </trkpt>
      <trkpt lat="47.77521" lon="-2.62455">
        <ele>100.4</ele>
        <time>2024-09-15T09:11:34Z</time>
      </trkpt>
      <trkpt lat="47.77523" lon="-2.62454">
        <ele>100.6</ele>
        <time>2024-09-15T09:11:35Z</time>
      </trkpt>
      <trkpt lat="47.77527" lon="-2.62451">
        <ele>100.6</ele>
        <time>2024-09-15T09:11:38Z</time>
      </trkpt>
      <trkpt lat="47.77529" lon="-2.62448">
        <ele>100.8</ele>
        <time>2024-09-15T09:11:39Z</time>
      </trkpt>
      <trkpt lat="47.77535" lon="-2.62443">
        <ele>101</ele>
        <time>2024-09-15T09:11:42Z</time>
      </trkpt>
      <trkpt lat="47.77525" lon="-2.624">
        <ele>103</ele>
        <time>2024-09-15T09:16:17Z</time>
      </trkpt>
      <trkpt lat="47.77525" lon="-2.62399">
        <ele>103</ele>
        <time>2024-09-15T09:16:18Z</time>
      </trkpt>
      <trkpt lat="47.77524" lon="-2.62395">
        <ele>103.2</ele>
        <time>2024-09-15T09:16:26Z</time>
      </trkpt>
      <trkpt lat="47.77524" lon="-2.62391">
        <ele>103</ele>
        <time>2024-09-15T09:16:28Z</time>
      </trkpt>
      <trkpt lat="47.77524" lon="-2.62389">
        <ele>103</ele>
        <time>2024-09-15T09:16:29Z</time>
      </trkpt>
      <trkpt lat="47.77523" lon="-2.62387">
        <ele>103</ele>
        <time>2024-09-15T09:16:30Z</time>
      </trkpt>
      <trkpt lat="47.77522" lon="-2.62383">
        <ele>103.2</ele>
        <time>2024-09-15T09:16:32Z</time>
      </trkpt>
      <trkpt lat="47.7752" lon="-2.62372">
        <ele>103.8</ele>
        <time>2024-09-15T09:16:37Z</time>
      </trkpt>
      <trkpt lat="47.77519" lon="-2.6237">
        <ele>103.8</ele>
        <time>2024-09-15T09:16:38Z</time>
      </trkpt>
      <trkpt lat="47.77519" lon="-2.62367">
        <ele>104</ele>
        <time>2024-09-15T09:16:39Z</time>
      </trkpt>
      <trkpt lat="47.77518" lon="-2.62363">
        <ele>104</ele>
        <time>2024-09-15T09:16:41Z</time>
      </trkpt>
      <trkpt lat="47.77518" lon="-2.62362">
        <ele>104.2</ele>
        <time>2024-09-15T09:16:42Z</time>
      </trkpt>
      <trkpt lat="47.77517" lon="-2.62354">
        <ele>104.4</ele>
        <time>2024-09-15T09:16:46Z</time>
      </trkpt>
      <trkpt lat="47.77516" lon="-2.62352">
        <ele>104.4</ele>
        <time>2024-09-15T09:16:47Z</time>
      </trkpt>
      <trkpt lat="47.77516" lon="-2.6235">
        <ele>104.4</ele>
        <time>2024-09-15T09:16:48Z</time>
      </trkpt>
      <trkpt lat="47.77514" lon="-2.62344">
        <ele>104.6</ele>
        <time>2024-09-15T09:16:51Z</time>
      </trkpt>
      <trkpt lat="47.77514" lon="-2.62343">
        <ele>104.6</ele>
        <time>2024-09-15T09:16:52Z</time>
      </trkpt>
      <trkpt lat="47.77513" lon="-2.62342">
        <ele>104.8</ele>
        <time>2024-09-15T09:16:53Z</time>
      </trkpt>
      <trkpt lat="47.77512" lon="-2.6234">
        <ele>104.8</ele>
        <time>2024-09-15T09:16:54Z</time>
      </trkpt>
      <trkpt lat="47.77512" lon="-2.62339">
        <ele>104.8</ele>
        <time>2024-09-15T09:16:55Z</time>
      </trkpt>
      <trkpt lat="47.77512" lon="-2.62337">
        <ele>104.8</ele>
        <time>2024-09-15T09:16:56Z</time>
      </trkpt>
      <trkpt lat="47.77511" lon="-2.62336">
        <ele>104.8</ele>
        <time>2024-09-15T09:16:57Z</time>
      </trkpt>
      <trkpt lat="47.77511" lon="-2.62334">
        <ele>105</ele>
        <time>2024-09-15T09:16:58Z</time>
      </trkpt>
      <trkpt lat="47.77511" lon="-2.62334">
        <ele>105</ele>
        <time>2024-09-15T09:16:59Z</time>
      </trkpt>
      <trkpt lat="47.77511" lon="-2.62333">
        <ele>105</ele>
        <time>2024-09-15T09:18:00Z</time>
      </trkpt>
      <trkpt lat="47.7751" lon="-2.62332">
        <ele>105</ele>
        <time>2024-09-15T09:18:01Z</time>
      </trkpt>
      <trkpt lat="47.77509" lon="-2.6233">
        <ele>105.2</ele>
        <time>2024-09-15T09:18:02Z</time>
      </trkpt>
      <trkpt lat="47.77509" lon="-2.62327">
        <ele>105.2</ele>
        <time>2024-09-15T09:18:03Z</time>
      </trkpt>
      <trkpt lat="47.77508" lon="-2.62325">
        <ele>105.2</ele>
        <time>2024-09-15T09:18:04Z</time>
      </trkpt>
      <trkpt lat="47.77502" lon="-2.62303">
        <ele>105.2</ele>
        <time>2024-09-15T09:18:10Z</time>
      </trkpt>
      <trkpt lat="47.77502" lon="-2.62295">
        <ele>105.2</ele>
        <time>2024-09-15T09:18:12Z</time>
      </trkpt>
      <trkpt lat="47.77502" lon="-2.62292">
        <ele>105.4</ele>
        <time>2024-09-15T09:18:13Z</time>
      </trkpt>
      <trkpt lat="47.77502" lon="-2.62289">
        <ele>105.4</ele>
        <time>2024-09-15T09:18:14Z</time>
      </trkpt>
      <trkpt lat="47.77502" lon="-2.62286">
        <ele>105.4</ele>
        <time>2024-09-15T09:18:15Z</time>
      </trkpt>
      <trkpt lat="47.77502" lon="-2.62283">
        <ele>105.4</ele>
        <time>2024-09-15T09:18:16Z</time>
      </trkpt>
      <trkpt lat="47.77502" lon="-2.6228">
        <ele>105.6</ele>
        <time>2024-09-15T09:18:17Z</time>
      </trkpt>
      <trkpt lat="47.77502" lon="-2.62277">
        <ele>105.6</ele>
        <time>2024-09-15T09:18:18Z</time>
      </trkpt>
      <trkpt lat="47.77508" lon="-2.62254">
        <ele>105.6</ele>
        <time>2024-09-15T09:18:24Z</time>
      </trkpt>
      <trkpt lat="47.7752" lon="-2.62223">
        <ele>106</ele>
        <time>2024-09-15T09:18:32Z</time>
      </trkpt>
      <trkpt lat="47.77522" lon="-2.62219">
        <ele>106</ele>
        <time>2024-09-15T09:18:33Z</time>
      </trkpt>
      <trkpt lat="47.77526" lon="-2.62207">
        <ele>106.2</ele>
        <time>2024-09-15T09:18:36Z</time>
      </trkpt>
      <trkpt lat="47.77527" lon="-2.62203">
        <ele>106.4</ele>
        <time>2024-09-15T09:18:37Z</time>
      </trkpt>
      <trkpt lat="47.77528" lon="-2.62199">
        <ele>106.4</ele>
        <time>2024-09-15T09:18:38Z</time>
      </trkpt>
      <trkpt lat="47.77529" lon="-2.62195">
        <ele>106.6</ele>
        <time>2024-09-15T09:18:39Z</time>
      </trkpt>
      <trkpt lat="47.77528" lon="-2.62191">
        <ele>106.6</ele>
        <time>2024-09-15T09:18:40Z</time>
      </trkpt>
      <trkpt lat="47.77526" lon="-2.62188">
        <ele>106.6</ele>
        <time>2024-09-15T09:18:41Z</time>
      </trkpt>
      <trkpt lat="47.77513" lon="-2.62182">
        <ele>108.2</ele>
        <time>2024-09-15T09:19:36Z</time>
      </trkpt>
      <trkpt lat="47.77511" lon="-2.62181">
        <ele>108</ele>
        <time>2024-09-15T09:19:37Z</time>
      </trkpt>
      <trkpt lat="47.77508" lon="-2.62181">
        <ele>108</ele>
        <time>2024-09-15T09:19:38Z</time>
      </trkpt>
      <trkpt lat="47.77506" lon="-2.6218">
        <ele>108</ele>
        <time>2024-09-15T09:19:39Z</time>
      </trkpt>
      <trkpt lat="47.77504" lon="-2.62179">
        <ele>108</ele>
        <time>2024-09-15T09:19:40Z</time>
      </trkpt>
      <trkpt lat="47.77501" lon="-2.62179">
        <ele>108</ele>
        <time>2024-09-15T09:19:41Z</time>
      </trkpt>
      <trkpt lat="47.77499" lon="-2.62179">
        <ele>108.2</ele>
        <time>2024-09-15T09:19:42Z</time>
      </trkpt>
      <trkpt lat="47.77497" lon="-2.62179">
        <ele>108.2</ele>
        <time>2024-09-15T09:19:43Z</time>
      </trkpt>
      <trkpt lat="47.7748" lon="-2.62176">
        <ele>108.2</ele>
        <time>2024-09-15T09:19:49Z</time>
      </trkpt>
      <trkpt lat="47.7746" lon="-2.62179">
        <ele>107.8</ele>
        <time>2024-09-15T09:19:55Z</time>
      </trkpt>
      <trkpt lat="47.77457" lon="-2.62181">
        <ele>107.6</ele>
        <time>2024-09-15T09:19:56Z</time>
      </trkpt>
      <trkpt lat="47.77455" lon="-2.62183">
        <ele>107.4</ele>
        <time>2024-09-15T09:19:57Z</time>
      </trkpt>
      <trkpt lat="47.77442" lon="-2.62195">
        <ele>106.6</ele>
        <time>2024-09-15T09:20:02Z</time>
      </trkpt>
      <trkpt lat="47.7744" lon="-2.62197">
        <ele>106.6</ele>
        <time>2024-09-15T09:20:03Z</time>
      </trkpt>
      <trkpt lat="47.77434" lon="-2.62199">
        <ele>106.4</ele>
        <time>2024-09-15T09:20:05Z</time>
      </trkpt>
      <trkpt lat="47.77427" lon="-2.62198">
        <ele>106.2</ele>
        <time>2024-09-15T09:20:07Z</time>
      </trkpt>
      <trkpt lat="47.77424" lon="-2.62198">
        <ele>106.2</ele>
        <time>2024-09-15T09:20:08Z</time>
      </trkpt>
      <trkpt lat="47.77421" lon="-2.62198">
        <ele>106</ele>
        <time>2024-09-15T09:20:09Z</time>
      </trkpt>
      <trkpt lat="47.77419" lon="-2.62198">
        <ele>106</ele>
        <time>2024-09-15T09:20:10Z</time>
      </trkpt>
      <trkpt lat="47.77418" lon="-2.62198">
        <ele>106</ele>
        <time>2024-09-15T09:20:11Z</time>
      </trkpt>
      <trkpt lat="47.77416" lon="-2.62198">
        <ele>106</ele>
        <time>2024-09-15T09:20:12Z</time>
      </trkpt>
      <trkpt lat="47.77414" lon="-2.62198">
        <ele>106</ele>
        <time>2024-09-15T09:20:13Z</time>
      </trkpt>
      <trkpt lat="47.77398" lon="-2.622">
        <ele>106</ele>
        <time>2024-09-15T09:20:19Z</time>
      </trkpt>
      <trkpt lat="47.77386" lon="-2.62204">
        <ele>106</ele>
        <time>2024-09-15T09:20:23Z</time>
      </trkpt>
      <trkpt lat="47.7737" lon="-2.62206">
        <ele>106</ele>
        <time>2024-09-15T09:20:27Z</time>
      </trkpt>
      <trkpt lat="47.77359" lon="-2.62212">
        <ele>105.8</ele>
        <time>2024-09-15T09:20:30Z</time>
      </trkpt>
      <trkpt lat="47.77356" lon="-2.62213">
        <ele>106</ele>
        <time>2024-09-15T09:20:31Z</time>
      </trkpt>
      <trkpt lat="47.77355" lon="-2.62214">
        <ele>106</ele>
        <time>2024-09-15T09:20:32Z</time>
      </trkpt>
      <trkpt lat="47.77354" lon="-2.62215">
        <ele>106</ele>
        <time>2024-09-15T09:20:33Z</time>
      </trkpt>
      <trkpt lat="47.77352" lon="-2.62215">
        <ele>105.8</ele>
        <time>2024-09-15T09:20:38Z</time>
      </trkpt>
      <trkpt lat="47.77351" lon="-2.62217">
        <ele>105.6</ele>
        <time>2024-09-15T09:20:40Z</time>
      </trkpt>
      <trkpt lat="47.77349" lon="-2.62219">
        <ele>105.6</ele>
        <time>2024-09-15T09:20:41Z</time>
      </trkpt>
      <trkpt lat="47.77347" lon="-2.6222">
        <ele>105.6</ele>
        <time>2024-09-15T09:20:42Z</time>
      </trkpt>
      <trkpt lat="47.77344" lon="-2.62222">
        <ele>105.6</ele>
        <time>2024-09-15T09:20:43Z</time>
      </trkpt>
      <trkpt lat="47.77341" lon="-2.62224">
        <ele>105.6</ele>
        <time>2024-09-15T09:20:45Z</time>
      </trkpt>
      <trkpt lat="47.77321" lon="-2.62232">
        <ele>105.6</ele>
        <time>2024-09-15T09:20:53Z</time>
      </trkpt>
      <trkpt lat="47.77317" lon="-2.62233">
        <ele>105.8</ele>
        <time>2024-09-15T09:20:56Z</time>
      </trkpt>
      <trkpt lat="47.77308" lon="-2.62241">
        <ele>106</ele>
        <time>2024-09-15T09:22:32Z</time>
      </trkpt>
      <trkpt lat="47.77306" lon="-2.62241">
        <ele>106</ele>
        <time>2024-09-15T09:22:33Z</time>
      </trkpt>
      <trkpt lat="47.77299" lon="-2.62242">
        <ele>106</ele>
        <time>2024-09-15T09:22:36Z</time>
      </trkpt>
      <trkpt lat="47.77296" lon="-2.62241">
        <ele>106</ele>
        <time>2024-09-15T09:22:37Z</time>
      </trkpt>
      <trkpt lat="47.77294" lon="-2.62241">
        <ele>106</ele>
        <time>2024-09-15T09:22:38Z</time>
      </trkpt>
      <trkpt lat="47.77287" lon="-2.62239">
        <ele>106.4</ele>
        <time>2024-09-15T09:22:41Z</time>
      </trkpt>
      <trkpt lat="47.77285" lon="-2.62239">
        <ele>106.4</ele>
        <time>2024-09-15T09:22:42Z</time>
      </trkpt>
      <trkpt lat="47.77262" lon="-2.62243">
        <ele>106.6</ele>
        <time>2024-09-15T09:24:30Z</time>
      </trkpt>
      <trkpt lat="47.77262" lon="-2.62246">
        <ele>106.4</ele>
        <time>2024-09-15T09:24:31Z</time>
      </trkpt>
      <trkpt lat="47.77261" lon="-2.62251">
        <ele>106.4</ele>
        <time>2024-09-15T09:24:32Z</time>
      </trkpt>
      <trkpt lat="47.7726" lon="-2.62256">
        <ele>106.2</ele>
        <time>2024-09-15T09:24:33Z</time>
      </trkpt>
      <trkpt lat="47.77255" lon="-2.6227">
        <ele>106</ele>
        <time>2024-09-15T09:24:36Z</time>
      </trkpt>
      <trkpt lat="47.77253" lon="-2.62274">
        <ele>105.8</ele>
        <time>2024-09-15T09:24:37Z</time>
      </trkpt>
      <trkpt lat="47.77252" lon="-2.62277">
        <ele>105.8</ele>
        <time>2024-09-15T09:24:38Z</time>
      </trkpt>
      <trkpt lat="47.7725" lon="-2.6228">
        <ele>105.8</ele>
        <time>2024-09-15T09:24:39Z</time>
      </trkpt>
      <trkpt lat="47.77248" lon="-2.62283">
        <ele>105.6</ele>
        <time>2024-09-15T09:24:40Z</time>
      </trkpt>
      <trkpt lat="47.77239" lon="-2.62293">
        <ele>105.6</ele>
        <time>2024-09-15T09:24:44Z</time>
      </trkpt>
      <trkpt lat="47.77237" lon="-2.62294">
        <ele>105.4</ele>
        <time>2024-09-15T09:24:45Z</time>
      </trkpt>
      <trkpt lat="47.77234" lon="-2.62295">
        <ele>105.4</ele>
        <time>2024-09-15T09:24:46Z</time>
      </trkpt>
      <trkpt lat="47.77232" lon="-2.62296">
        <ele>105.2</ele>
        <time>2024-09-15T09:24:47Z</time>
      </trkpt>
      <trkpt lat="47.7723" lon="-2.62297">
        <ele>105.2</ele>
        <time>2024-09-15T09:24:48Z</time>
      </trkpt>
      <trkpt lat="47.77228" lon="-2.623">
        <ele>105.2</ele>
        <time>2024-09-15T09:24:49Z</time>
      </trkpt>
      <trkpt lat="47.77222" lon="-2.62308">
        <ele>105</ele>
        <time>2024-09-15T09:24:52Z</time>
      </trkpt>
      <trkpt lat="47.7722" lon="-2.62311">
        <ele>105</ele>
        <time>2024-09-15T09:24:53Z</time>
      </trkpt>
      <trkpt lat="47.77218" lon="-2.62314">
        <ele>105</ele>
        <time>2024-09-15T09:24:54Z</time>
      </trkpt>
      <trkpt lat="47.77216" lon="-2.62318">
        <ele>105</ele>
        <time>2024-09-15T09:24:55Z</time>
      </trkpt>
      <trkpt lat="47.77213" lon="-2.62322">
        <ele>105</ele>
        <time>2024-09-15T09:24:57Z</time>
      </trkpt>
      <trkpt lat="47.7721" lon="-2.62324">
        <ele>104.8</ele>
        <time>2024-09-15T09:24:58Z</time>
      </trkpt>
      <trkpt lat="47.77208" lon="-2.62325">
        <ele>104.4</ele>
        <time>2024-09-15T09:24:59Z</time>
      </trkpt>
      <trkpt lat="47.77193" lon="-2.62337">
        <ele>104.2</ele>
        <time>2024-09-15T09:25:05Z</time>
      </trkpt>
      <trkpt lat="47.77192" lon="-2.62337">
        <ele>104.2</ele>
        <time>2024-09-15T09:25:09Z</time>
      </trkpt>
      <trkpt lat="47.77192" lon="-2.62337">
        <ele>104.2</ele>
        <time>2024-09-15T09:25:10Z</time>
      </trkpt>
      <trkpt lat="47.77192" lon="-2.62335">
        <ele>104.2</ele>
        <time>2024-09-15T09:25:12Z</time>
      </trkpt>
      <trkpt lat="47.77189" lon="-2.62333">
        <ele>104.2</ele>
        <time>2024-09-15T09:25:16Z</time>
      </trkpt>
      <trkpt lat="47.77187" lon="-2.62332">
        <ele>104.2</ele>
        <time>2024-09-15T09:25:17Z</time>
      </trkpt>
      <trkpt lat="47.77181" lon="-2.62327">
        <ele>104</ele>
        <time>2024-09-15T09:25:21Z</time>
      </trkpt>
      <trkpt lat="47.77178" lon="-2.62324">
        <ele>104</ele>
        <time>2024-09-15T09:25:23Z</time>
      </trkpt>
      <trkpt lat="47.77174" lon="-2.62322">
        <ele>104</ele>
        <time>2024-09-15T09:25:25Z</time>
      </trkpt>
      <trkpt lat="47.77172" lon="-2.62322">
        <ele>104</ele>
        <time>2024-09-15T09:25:26Z</time>
      </trkpt>
      <trkpt lat="47.77169" lon="-2.62322">
        <ele>104</ele>
        <time>2024-09-15T09:25:27Z</time>
      </trkpt>
      <trkpt lat="47.77167" lon="-2.62323">
        <ele>104</ele>
        <time>2024-09-15T09:25:28Z</time>
      </trkpt>
      <trkpt lat="47.77164" lon="-2.62324">
        <ele>104</ele>
        <time>2024-09-15T09:25:29Z</time>
      </trkpt>
      <trkpt lat="47.77162" lon="-2.62326">
        <ele>104</ele>
        <time>2024-09-15T09:25:30Z</time>
      </trkpt>
      <trkpt lat="47.7716" lon="-2.62328">
        <ele>104</ele>
        <time>2024-09-15T09:25:31Z</time>
      </trkpt>
      <trkpt lat="47.77158" lon="-2.62329">
        <ele>104</ele>
        <time>2024-09-15T09:25:32Z</time>
      </trkpt>
      <trkpt lat="47.77155" lon="-2.6233">
        <ele>104</ele>
        <time>2024-09-15T09:25:33Z</time>
      </trkpt>
      <trkpt lat="47.7714" lon="-2.62341">
        <ele>103.8</ele>
        <time>2024-09-15T09:25:38Z</time>
      </trkpt>
      <trkpt lat="47.77133" lon="-2.62344">
        <ele>103.8</ele>
        <time>2024-09-15T09:25:40Z</time>
      </trkpt>
      <trkpt lat="47.7713" lon="-2.62345">
        <ele>103.8</ele>
        <time>2024-09-15T09:25:41Z</time>
      </trkpt>
      <trkpt lat="47.77128" lon="-2.62347">
        <ele>103.8</ele>
        <time>2024-09-15T09:25:42Z</time>
      </trkpt>
      <trkpt lat="47.77125" lon="-2.62349">
        <ele>103.8</ele>
        <time>2024-09-15T09:25:43Z</time>
      </trkpt>
      <trkpt lat="47.77123" lon="-2.6235">
        <ele>103.6</ele>
        <time>2024-09-15T09:25:44Z</time>
      </trkpt>
      <trkpt lat="47.77121" lon="-2.62352">
        <ele>103.4</ele>
        <time>2024-09-15T09:25:45Z</time>
      </trkpt>
      <trkpt lat="47.77101" lon="-2.62364">
        <ele>102.4</ele>
        <time>2024-09-15T09:25:50Z</time>
      </trkpt>
      <trkpt lat="47.77091" lon="-2.62368">
        <ele>102.2</ele>
        <time>2024-09-15T09:25:53Z</time>
      </trkpt>
      <trkpt lat="47.77085" lon="-2.62368">
        <ele>102.2</ele>
        <time>2024-09-15T09:25:55Z</time>
      </trkpt>
      <trkpt lat="47.77077" lon="-2.62371">
        <ele>101.8</ele>
        <time>2024-09-15T09:25:57Z</time>
      </trkpt>
      <trkpt lat="47.77069" lon="-2.62372">
        <ele>101.6</ele>
        <time>2024-09-15T09:25:59Z</time>
      </trkpt>
      <trkpt lat="47.77053" lon="-2.6238">
        <ele>101.2</ele>
        <time>2024-09-15T09:26:03Z</time>
      </trkpt>
      <trkpt lat="47.77031" lon="-2.62393">
        <ele>101</ele>
        <time>2024-09-15T09:26:07Z</time>
      </trkpt>
      <trkpt lat="47.77019" lon="-2.62399">
        <ele>100.4</ele>
        <time>2024-09-15T09:26:11Z</time>
      </trkpt>
      <trkpt lat="47.77012" lon="-2.62407">
        <ele>99.6</ele>
        <time>2024-09-15T09:26:16Z</time>
      </trkpt>
      <trkpt lat="47.77005" lon="-2.62406">
        <ele>99.6</ele>
        <time>2024-09-15T09:26:20Z</time>
      </trkpt>
      <trkpt lat="47.77003" lon="-2.624">
        <ele>99.4</ele>
        <time>2024-09-15T09:26:24Z</time>
      </trkpt>
      <trkpt lat="47.76998" lon="-2.62382">
        <ele>99</ele>
        <time>2024-09-15T09:26:30Z</time>
      </trkpt>
      <trkpt lat="47.76987" lon="-2.62359">
        <ele>98.6</ele>
        <time>2024-09-15T09:26:36Z</time>
      </trkpt>
      <trkpt lat="47.76985" lon="-2.62351">
        <ele>98.4</ele>
        <time>2024-09-15T09:26:38Z</time>
      </trkpt>
      <trkpt lat="47.76982" lon="-2.62343">
        <ele>98</ele>
        <time>2024-09-15T09:26:40Z</time>
      </trkpt>
      <trkpt lat="47.76979" lon="-2.62337">
        <ele>97.6</ele>
        <time>2024-09-15T09:26:42Z</time>
      </trkpt>
      <trkpt lat="47.76978" lon="-2.62334">
        <ele>97.4</ele>
        <time>2024-09-15T09:26:45Z</time>
      </trkpt>
      <trkpt lat="47.76977" lon="-2.62331">
        <ele>97.4</ele>
        <time>2024-09-15T09:26:47Z</time>
      </trkpt>
      <trkpt lat="47.76974" lon="-2.62327">
        <ele>97.2</ele>
        <time>2024-09-15T09:26:51Z</time>
      </trkpt>
      <trkpt lat="47.76973" lon="-2.62323">
        <ele>97.2</ele>
        <time>2024-09-15T09:26:53Z</time>
      </trkpt>
      <trkpt lat="47.76971" lon="-2.62319">
        <ele>97.2</ele>
        <time>2024-09-15T09:26:55Z</time>
      </trkpt>
      <trkpt lat="47.76965" lon="-2.62303">
        <ele>97.2</ele>
        <time>2024-09-15T09:26:59Z</time>
      </trkpt>
      <trkpt lat="47.76956" lon="-2.62281">
        <ele>97.4</ele>
        <time>2024-09-15T09:27:04Z</time>
      </trkpt>
      <trkpt lat="47.76955" lon="-2.62278">
        <ele>97.4</ele>
        <time>2024-09-15T09:27:05Z</time>
      </trkpt>
      <trkpt lat="47.76953" lon="-2.62273">
        <ele>97.6</ele>
        <time>2024-09-15T09:27:06Z</time>
      </trkpt>
      <trkpt lat="47.76951" lon="-2.62269">
        <ele>97.6</ele>
        <time>2024-09-15T09:27:07Z</time>
      </trkpt>
      <trkpt lat="47.7695" lon="-2.62266">
        <ele>98</ele>
        <time>2024-09-15T09:27:08Z</time>
      </trkpt>
      <trkpt lat="47.76947" lon="-2.62258">
        <ele>98.4</ele>
        <time>2024-09-15T09:27:10Z</time>
      </trkpt>
      <trkpt lat="47.76947" lon="-2.62255">
        <ele>98.4</ele>
        <time>2024-09-15T09:27:11Z</time>
      </trkpt>
      <trkpt lat="47.76946" lon="-2.62252">
        <ele>98.4</ele>
        <time>2024-09-15T09:27:12Z</time>
      </trkpt>
      <trkpt lat="47.76945" lon="-2.62248">
        <ele>98.6</ele>
        <time>2024-09-15T09:27:13Z</time>
      </trkpt>
      <trkpt lat="47.76943" lon="-2.62232">
        <ele>98.6</ele>
        <time>2024-09-15T09:27:16Z</time>
      </trkpt>
      <trkpt lat="47.76942" lon="-2.62228">
        <ele>98.8</ele>
        <time>2024-09-15T09:27:17Z</time>
      </trkpt>
      <trkpt lat="47.76941" lon="-2.62224">
        <ele>98.8</ele>
        <time>2024-09-15T09:27:18Z</time>
      </trkpt>
      <trkpt lat="47.7694" lon="-2.62221">
        <ele>99</ele>
        <time>2024-09-15T09:27:19Z</time>
      </trkpt>
      <trkpt lat="47.76939" lon="-2.62218">
        <ele>99</ele>
        <time>2024-09-15T09:27:20Z</time>
      </trkpt>
      <trkpt lat="47.76938" lon="-2.62215">
        <ele>99</ele>
        <time>2024-09-15T09:27:21Z</time>
      </trkpt>
      <trkpt lat="47.76937" lon="-2.62213">
        <ele>99.2</ele>
        <time>2024-09-15T09:27:22Z</time>
      </trkpt>
      <trkpt lat="47.76936" lon="-2.62209">
        <ele>99.2</ele>
        <time>2024-09-15T09:27:23Z</time>
      </trkpt>
      <trkpt lat="47.76935" lon="-2.62202">
        <ele>99.4</ele>
        <time>2024-09-15T09:27:25Z</time>
      </trkpt>
      <trkpt lat="47.76932" lon="-2.62193">
        <ele>99.6</ele>
        <time>2024-09-15T09:27:27Z</time>
      </trkpt>
      <trkpt lat="47.76932" lon="-2.62191">
        <ele>99.8</ele>
        <time>2024-09-15T09:27:28Z</time>
      </trkpt>
      <trkpt lat="47.76931" lon="-2.62179">
        <ele>100</ele>
        <time>2024-09-15T09:27:33Z</time>
      </trkpt>
      <trkpt lat="47.7693" lon="-2.62177">
        <ele>100</ele>
        <time>2024-09-15T09:27:34Z</time>
      </trkpt>
      <trkpt lat="47.76919" lon="-2.62133">
        <ele>100.4</ele>
        <time>2024-09-15T09:27:47Z</time>
      </trkpt>
      <trkpt lat="47.76901" lon="-2.62056">
        <ele>100.8</ele>
        <time>2024-09-15T09:28:04Z</time>
      </trkpt>
      <trkpt lat="47.76897" lon="-2.62043">
        <ele>100.8</ele>
        <time>2024-09-15T09:28:06Z</time>
      </trkpt>
      <trkpt lat="47.76891" lon="-2.62027">
        <ele>101</ele>
        <time>2024-09-15T09:28:09Z</time>
      </trkpt>
      <trkpt lat="47.76883" lon="-2.62">
        <ele>101.2</ele>
        <time>2024-09-15T09:28:13Z</time>
      </trkpt>
      <trkpt lat="47.76883" lon="-2.61985">
        <ele>101.2</ele>
        <time>2024-09-15T09:28:15Z</time>
      </trkpt>
      <trkpt lat="47.76883" lon="-2.61979">
        <ele>101</ele>
        <time>2024-09-15T09:28:16Z</time>
      </trkpt>
      <trkpt lat="47.76883" lon="-2.61974">
        <ele>100.8</ele>
        <time>2024-09-15T09:28:17Z</time>
      </trkpt>
      <trkpt lat="47.76882" lon="-2.61969">
        <ele>100.8</ele>
        <time>2024-09-15T09:28:18Z</time>
      </trkpt>
      <trkpt lat="47.76881" lon="-2.61965">
        <ele>100.2</ele>
        <time>2024-09-15T09:28:19Z</time>
      </trkpt>
      <trkpt lat="47.76879" lon="-2.61958">
        <ele>99.6</ele>
        <time>2024-09-15T09:28:20Z</time>
      </trkpt>
      <trkpt lat="47.76877" lon="-2.6195">
        <ele>99.4</ele>
        <time>2024-09-15T09:28:21Z</time>
      </trkpt>
      <trkpt lat="47.76875" lon="-2.61944">
        <ele>99.2</ele>
        <time>2024-09-15T09:28:22Z</time>
      </trkpt>
      <trkpt lat="47.76872" lon="-2.61939">
        <ele>99</ele>
        <time>2024-09-15T09:28:23Z</time>
      </trkpt>
      <trkpt lat="47.76867" lon="-2.61928">
        <ele>98.8</ele>
        <time>2024-09-15T09:28:24Z</time>
      </trkpt>
      <trkpt lat="47.76864" lon="-2.61924">
        <ele>98.8</ele>
        <time>2024-09-15T09:28:25Z</time>
      </trkpt>
      <trkpt lat="47.76861" lon="-2.61921">
        <ele>98.4</ele>
        <time>2024-09-15T09:28:26Z</time>
      </trkpt>
      <trkpt lat="47.76859" lon="-2.6192">
        <ele>98.4</ele>
        <time>2024-09-15T09:28:27Z</time>
      </trkpt>
      <trkpt lat="47.76857" lon="-2.61918">
        <ele>98.2</ele>
        <time>2024-09-15T09:28:28Z</time>
      </trkpt>
      <trkpt lat="47.76855" lon="-2.61915">
        <ele>97.8</ele>
        <time>2024-09-15T09:28:29Z</time>
      </trkpt>
      <trkpt lat="47.76854" lon="-2.61912">
        <ele>97.6</ele>
        <time>2024-09-15T09:28:30Z</time>
      </trkpt>
      <trkpt lat="47.76851" lon="-2.61901">
        <ele>97.4</ele>
        <time>2024-09-15T09:28:32Z</time>
      </trkpt>
      <trkpt lat="47.7685" lon="-2.61895">
        <ele>97.2</ele>
        <time>2024-09-15T09:28:33Z</time>
      </trkpt>
      <trkpt lat="47.7685" lon="-2.61889">
        <ele>97</ele>
        <time>2024-09-15T09:28:34Z</time>
      </trkpt>
      <trkpt lat="47.76849" lon="-2.61884">
        <ele>96.8</ele>
        <time>2024-09-15T09:28:35Z</time>
      </trkpt>
      <trkpt lat="47.76851" lon="-2.6188">
        <ele>96.8</ele>
        <time>2024-09-15T09:28:36Z</time>
      </trkpt>
      <trkpt lat="47.76853" lon="-2.61876">
        <ele>96.8</ele>
        <time>2024-09-15T09:28:37Z</time>
      </trkpt>
      <trkpt lat="47.76853" lon="-2.6187">
        <ele>96.6</ele>
        <time>2024-09-15T09:28:38Z</time>
      </trkpt>
      <trkpt lat="47.76853" lon="-2.61866">
        <ele>96.6</ele>
        <time>2024-09-15T09:28:39Z</time>
      </trkpt>
      <trkpt lat="47.76853" lon="-2.61861">
        <ele>96.6</ele>
        <time>2024-09-15T09:28:41Z</time>
      </trkpt>
      <trkpt lat="47.76851" lon="-2.61856">
        <ele>96.6</ele>
        <time>2024-09-15T09:28:42Z</time>
      </trkpt>
      <trkpt lat="47.76849" lon="-2.61851">
        <ele>96.6</ele>
        <time>2024-09-15T09:28:43Z</time>
      </trkpt>
      <trkpt lat="47.76849" lon="-2.61847">
        <ele>96.6</ele>
        <time>2024-09-15T09:28:44Z</time>
      </trkpt>
      <trkpt lat="47.76847" lon="-2.61837">
        <ele>96.6</ele>
        <time>2024-09-15T09:28:46Z</time>
      </trkpt>
      <trkpt lat="47.76846" lon="-2.61834">
        <ele>96.6</ele>
        <time>2024-09-15T09:28:47Z</time>
      </trkpt>
      <trkpt lat="47.76847" lon="-2.61832">
        <ele>96.6</ele>
        <time>2024-09-15T09:28:48Z</time>
      </trkpt>
      <trkpt lat="47.76845" lon="-2.61823">
        <ele>96.6</ele>
        <time>2024-09-15T09:28:50Z</time>
      </trkpt>
      <trkpt lat="47.76845" lon="-2.61816">
        <ele>96.6</ele>
        <time>2024-09-15T09:28:52Z</time>
      </trkpt>
      <trkpt lat="47.76845" lon="-2.61816">
        <ele>96.4</ele>
        <time>2024-09-15T09:28:53Z</time>
      </trkpt>
      <trkpt lat="47.76844" lon="-2.61815">
        <ele>96.4</ele>
        <time>2024-09-15T09:28:54Z</time>
      </trkpt>
      <trkpt lat="47.76844" lon="-2.61813">
        <ele>96.4</ele>
        <time>2024-09-15T09:28:55Z</time>
      </trkpt>
      <trkpt lat="47.76843" lon="-2.6181">
        <ele>96.2</ele>
        <time>2024-09-15T09:28:56Z</time>
      </trkpt>
      <trkpt lat="47.76842" lon="-2.61807">
        <ele>96.2</ele>
        <time>2024-09-15T09:28:57Z</time>
      </trkpt>
      <trkpt lat="47.76841" lon="-2.61803">
        <ele>96.2</ele>
        <time>2024-09-15T09:28:58Z</time>
      </trkpt>
      <trkpt lat="47.7684" lon="-2.618">
        <ele>96.2</ele>
        <time>2024-09-15T09:28:59Z</time>
      </trkpt>
      <trkpt lat="47.7684" lon="-2.61798">
        <ele>96.4</ele>
        <time>2024-09-15T09:29:00Z</time>
      </trkpt>
      <trkpt lat="47.7684" lon="-2.61795">
        <ele>96.6</ele>
        <time>2024-09-15T09:29:02Z</time>
      </trkpt>
      <trkpt lat="47.7684" lon="-2.61795">
        <ele>97</ele>
        <time>2024-09-15T09:29:04Z</time>
      </trkpt>
      <trkpt lat="47.76844" lon="-2.6179">
        <ele>97.2</ele>
        <time>2024-09-15T09:29:08Z</time>
      </trkpt>
      <trkpt lat="47.76845" lon="-2.61788">
        <ele>97.4</ele>
        <time>2024-09-15T09:29:09Z</time>
      </trkpt>
      <trkpt lat="47.76846" lon="-2.61786">
        <ele>97.4</ele>
        <time>2024-09-15T09:29:10Z</time>
      </trkpt>
      <trkpt lat="47.76847" lon="-2.61784">
        <ele>97.4</ele>
        <time>2024-09-15T09:29:11Z</time>
      </trkpt>
      <trkpt lat="47.76847" lon="-2.61782">
        <ele>97.4</ele>
        <time>2024-09-15T09:29:12Z</time>
      </trkpt>
      <trkpt lat="47.76846" lon="-2.6178">
        <ele>97.6</ele>
        <time>2024-09-15T09:29:13Z</time>
      </trkpt>
      <trkpt lat="47.76845" lon="-2.61777">
        <ele>97.6</ele>
        <time>2024-09-15T09:29:14Z</time>
      </trkpt>
      <trkpt lat="47.76843" lon="-2.61771">
        <ele>98</ele>
        <time>2024-09-15T09:29:16Z</time>
      </trkpt>
      <trkpt lat="47.76842" lon="-2.61767">
        <ele>98.2</ele>
        <time>2024-09-15T09:29:17Z</time>
      </trkpt>
      <trkpt lat="47.76841" lon="-2.61763">
        <ele>98.2</ele>
        <time>2024-09-15T09:29:18Z</time>
      </trkpt>
      <trkpt lat="47.76841" lon="-2.61759">
        <ele>98.2</ele>
        <time>2024-09-15T09:29:19Z</time>
      </trkpt>
      <trkpt lat="47.76836" lon="-2.61744">
        <ele>98.2</ele>
        <time>2024-09-15T09:29:23Z</time>
      </trkpt>
      <trkpt lat="47.76833" lon="-2.61738">
        <ele>98.4</ele>
        <time>2024-09-15T09:29:25Z</time>
      </trkpt>
      <trkpt lat="47.76832" lon="-2.61736">
        <ele>98.4</ele>
        <time>2024-09-15T09:29:26Z</time>
      </trkpt>
      <trkpt lat="47.76831" lon="-2.61733">
        <ele>98.4</ele>
        <time>2024-09-15T09:29:27Z</time>
      </trkpt>
      <trkpt lat="47.76829" lon="-2.61727">
        <ele>98.4</ele>
        <time>2024-09-15T09:29:29Z</time>
      </trkpt>
      <trkpt lat="47.76824" lon="-2.61712">
        <ele>98.6</ele>
        <time>2024-09-15T09:29:33Z</time>
      </trkpt>
      <trkpt lat="47.76823" lon="-2.61708">
        <ele>98.6</ele>
        <time>2024-09-15T09:29:34Z</time>
      </trkpt>
      <trkpt lat="47.76817" lon="-2.61692">
        <ele>98.6</ele>
        <time>2024-09-15T09:29:39Z</time>
      </trkpt>
      <trkpt lat="47.76815" lon="-2.61693">
        <ele>98.6</ele>
        <time>2024-09-15T09:29:49Z</time>
      </trkpt>
      <trkpt lat="47.76813" lon="-2.61692">
        <ele>98.6</ele>
        <time>2024-09-15T09:29:50Z</time>
      </trkpt>
      <trkpt lat="47.76812" lon="-2.61692">
        <ele>98.6</ele>
        <time>2024-09-15T09:29:51Z</time>
      </trkpt>
      <trkpt lat="47.76804" lon="-2.61684">
        <ele>98.4</ele>
        <time>2024-09-15T09:29:55Z</time>
      </trkpt>
      <trkpt lat="47.76791" lon="-2.61681">
        <ele>97.6</ele>
        <time>2024-09-15T09:30:00Z</time>
      </trkpt>
      <trkpt lat="47.76788" lon="-2.61681">
        <ele>97.4</ele>
        <time>2024-09-15T09:30:01Z</time>
      </trkpt>
      <trkpt lat="47.76784" lon="-2.61681">
        <ele>97.4</ele>
        <time>2024-09-15T09:30:02Z</time>
      </trkpt>
      <trkpt lat="47.76773" lon="-2.61679">
        <ele>97.2</ele>
        <time>2024-09-15T09:30:04Z</time>
      </trkpt>
      <trkpt lat="47.76767" lon="-2.61679">
        <ele>97</ele>
        <time>2024-09-15T09:30:05Z</time>
      </trkpt>
      <trkpt lat="47.76749" lon="-2.61677">
        <ele>96.2</ele>
        <time>2024-09-15T09:30:08Z</time>
      </trkpt>
      <trkpt lat="47.76739" lon="-2.61676">
        <ele>95.6</ele>
        <time>2024-09-15T09:30:10Z</time>
      </trkpt>
      <trkpt lat="47.76732" lon="-2.61675">
        <ele>94.8</ele>
        <time>2024-09-15T09:30:11Z</time>
      </trkpt>
      <trkpt lat="47.76717" lon="-2.61673">
        <ele>93.6</ele>
        <time>2024-09-15T09:30:13Z</time>
      </trkpt>
      <trkpt lat="47.7671" lon="-2.61672">
        <ele>93.4</ele>
        <time>2024-09-15T09:30:14Z</time>
      </trkpt>
      <trkpt lat="47.76705" lon="-2.61673">
        <ele>93.2</ele>
        <time>2024-09-15T09:30:15Z</time>
      </trkpt>
      <trkpt lat="47.76699" lon="-2.61672">
        <ele>93</ele>
        <time>2024-09-15T09:30:16Z</time>
      </trkpt>
      <trkpt lat="47.76693" lon="-2.61671">
        <ele>92.8</ele>
        <time>2024-09-15T09:30:17Z</time>
      </trkpt>
      <trkpt lat="47.76688" lon="-2.6167">
        <ele>92.6</ele>
        <time>2024-09-15T09:30:18Z</time>
      </trkpt>
      <trkpt lat="47.76685" lon="-2.6167">
        <ele>92.2</ele>
        <time>2024-09-15T09:30:19Z</time>
      </trkpt>
      <trkpt lat="47.76682" lon="-2.6167">
        <ele>91.2</ele>
        <time>2024-09-15T09:30:20Z</time>
      </trkpt>
      <trkpt lat="47.76679" lon="-2.6167">
        <ele>90.8</ele>
        <time>2024-09-15T09:30:21Z</time>
      </trkpt>
      <trkpt lat="47.76676" lon="-2.6167">
        <ele>90.4</ele>
        <time>2024-09-15T09:30:22Z</time>
      </trkpt>
      <trkpt lat="47.76674" lon="-2.6167">
        <ele>90.2</ele>
        <time>2024-09-15T09:30:23Z</time>
      </trkpt>
      <trkpt lat="47.76673" lon="-2.6167">
        <ele>90</ele>
        <time>2024-09-15T09:30:24Z</time>
      </trkpt>
      <trkpt lat="47.76671" lon="-2.61669">
        <ele>90</ele>
        <time>2024-09-15T09:30:25Z</time>
      </trkpt>
      <trkpt lat="47.76671" lon="-2.61669">
        <ele>90</ele>
        <time>2024-09-15T09:30:26Z</time>
      </trkpt>
      <trkpt lat="47.76664" lon="-2.61669">
        <ele>90</ele>
        <time>2024-09-15T09:30:39Z</time>
      </trkpt>
      <trkpt lat="47.76661" lon="-2.61668">
        <ele>90</ele>
        <time>2024-09-15T09:30:41Z</time>
      </trkpt>
      <trkpt lat="47.76643" lon="-2.61665">
        <ele>90.8</ele>
        <time>2024-09-15T09:30:49Z</time>
      </trkpt>
      <trkpt lat="47.76641" lon="-2.61665">
        <ele>91</ele>
        <time>2024-09-15T09:30:50Z</time>
      </trkpt>
      <trkpt lat="47.76638" lon="-2.61665">
        <ele>91</ele>
        <time>2024-09-15T09:30:51Z</time>
      </trkpt>
      <trkpt lat="47.76634" lon="-2.61664">
        <ele>91.6</ele>
        <time>2024-09-15T09:30:53Z</time>
      </trkpt>
      <trkpt lat="47.76633" lon="-2.61665">
        <ele>91.6</ele>
        <time>2024-09-15T09:30:54Z</time>
      </trkpt>
      <trkpt lat="47.76631" lon="-2.61665">
        <ele>91.8</ele>
        <time>2024-09-15T09:30:55Z</time>
      </trkpt>
      <trkpt lat="47.76629" lon="-2.61665">
        <ele>91.8</ele>
        <time>2024-09-15T09:30:56Z</time>
      </trkpt>
      <trkpt lat="47.76627" lon="-2.61664">
        <ele>92</ele>
        <time>2024-09-15T09:30:57Z</time>
      </trkpt>
      <trkpt lat="47.76624" lon="-2.61663">
        <ele>92.2</ele>
        <time>2024-09-15T09:30:58Z</time>
      </trkpt>
      <trkpt lat="47.76622" lon="-2.61661">
        <ele>92.4</ele>
        <time>2024-09-15T09:30:59Z</time>
      </trkpt>
      <trkpt lat="47.7662" lon="-2.61659">
        <ele>92.6</ele>
        <time>2024-09-15T09:31:00Z</time>
      </trkpt>
      <trkpt lat="47.76617" lon="-2.61658">
        <ele>92.6</ele>
        <time>2024-09-15T09:31:01Z</time>
      </trkpt>
      <trkpt lat="47.76611" lon="-2.61651">
        <ele>93</ele>
        <time>2024-09-15T09:31:04Z</time>
      </trkpt>
      <trkpt lat="47.7661" lon="-2.61648">
        <ele>93</ele>
        <time>2024-09-15T09:31:05Z</time>
      </trkpt>
      <trkpt lat="47.76607" lon="-2.61642">
        <ele>93.2</ele>
        <time>2024-09-15T09:31:07Z</time>
      </trkpt>
      <trkpt lat="47.76606" lon="-2.61638">
        <ele>93.4</ele>
        <time>2024-09-15T09:31:08Z</time>
      </trkpt>
      <trkpt lat="47.76606" lon="-2.61635">
        <ele>93.4</ele>
        <time>2024-09-15T09:31:09Z</time>
      </trkpt>
      <trkpt lat="47.76605" lon="-2.61633">
        <ele>93.6</ele>
        <time>2024-09-15T09:31:10Z</time>
      </trkpt>
      <trkpt lat="47.76603" lon="-2.6163">
        <ele>93.8</ele>
        <time>2024-09-15T09:31:11Z</time>
      </trkpt>
      <trkpt lat="47.76603" lon="-2.61627">
        <ele>94</ele>
        <time>2024-09-15T09:31:12Z</time>
      </trkpt>
      <trkpt lat="47.76603" lon="-2.61624">
        <ele>94</ele>
        <time>2024-09-15T09:31:13Z</time>
      </trkpt>
      <trkpt lat="47.76603" lon="-2.61621">
        <ele>94</ele>
        <time>2024-09-15T09:31:14Z</time>
      </trkpt>
      <trkpt lat="47.76602" lon="-2.61618">
        <ele>94.2</ele>
        <time>2024-09-15T09:31:15Z</time>
      </trkpt>
      <trkpt lat="47.76602" lon="-2.61615">
        <ele>94.2</ele>
        <time>2024-09-15T09:31:16Z</time>
      </trkpt>
      <trkpt lat="47.76603" lon="-2.61612">
        <ele>94.4</ele>
        <time>2024-09-15T09:31:17Z</time>
      </trkpt>
      <trkpt lat="47.76603" lon="-2.61609">
        <ele>94.4</ele>
        <time>2024-09-15T09:31:18Z</time>
      </trkpt>
      <trkpt lat="47.76603" lon="-2.61606">
        <ele>94.4</ele>
        <time>2024-09-15T09:31:19Z</time>
      </trkpt>
      <trkpt lat="47.76604" lon="-2.61603">
        <ele>94.6</ele>
        <time>2024-09-15T09:31:20Z</time>
      </trkpt>
      <trkpt lat="47.76604" lon="-2.61599">
        <ele>94.6</ele>
        <time>2024-09-15T09:31:21Z</time>
      </trkpt>
      <trkpt lat="47.76605" lon="-2.61596">
        <ele>94.8</ele>
        <time>2024-09-15T09:31:22Z</time>
      </trkpt>
      <trkpt lat="47.76605" lon="-2.61593">
        <ele>94.8</ele>
        <time>2024-09-15T09:31:23Z</time>
      </trkpt>
      <trkpt lat="47.76606" lon="-2.61591">
        <ele>95</ele>
        <time>2024-09-15T09:31:24Z</time>
      </trkpt>
      <trkpt lat="47.76607" lon="-2.61589">
        <ele>95</ele>
        <time>2024-09-15T09:31:25Z</time>
      </trkpt>
      <trkpt lat="47.76607" lon="-2.61586">
        <ele>95.2</ele>
        <time>2024-09-15T09:31:26Z</time>
      </trkpt>
      <trkpt lat="47.76608" lon="-2.61583">
        <ele>95.4</ele>
        <time>2024-09-15T09:31:27Z</time>
      </trkpt>
      <trkpt lat="47.76608" lon="-2.6158">
        <ele>95.6</ele>
        <time>2024-09-15T09:31:28Z</time>
      </trkpt>
      <trkpt lat="47.76608" lon="-2.61578">
        <ele>95.6</ele>
        <time>2024-09-15T09:31:29Z</time>
      </trkpt>
      <trkpt lat="47.76609" lon="-2.61576">
        <ele>95.8</ele>
        <time>2024-09-15T09:31:30Z</time>
      </trkpt>
      <trkpt lat="47.76609" lon="-2.61573">
        <ele>95.8</ele>
        <time>2024-09-15T09:31:31Z</time>
      </trkpt>
      <trkpt lat="47.7661" lon="-2.6157">
        <ele>96</ele>
        <time>2024-09-15T09:31:32Z</time>
      </trkpt>
      <trkpt lat="47.7661" lon="-2.61567">
        <ele>96.2</ele>
        <time>2024-09-15T09:31:33Z</time>
      </trkpt>
      <trkpt lat="47.76611" lon="-2.61565">
        <ele>96.2</ele>
        <time>2024-09-15T09:31:34Z</time>
      </trkpt>
      <trkpt lat="47.76611" lon="-2.61562">
        <ele>96.4</ele>
        <time>2024-09-15T09:31:35Z</time>
      </trkpt>
      <trkpt lat="47.76612" lon="-2.6156">
        <ele>96.4</ele>
        <time>2024-09-15T09:31:36Z</time>
      </trkpt>
      <trkpt lat="47.76612" lon="-2.61558">
        <ele>96.4</ele>
        <time>2024-09-15T09:31:37Z</time>
      </trkpt>
      <trkpt lat="47.76614" lon="-2.61555">
        <ele>96.4</ele>
        <time>2024-09-15T09:31:38Z</time>
      </trkpt>
      <trkpt lat="47.76615" lon="-2.61552">
        <ele>96.6</ele>
        <time>2024-09-15T09:31:39Z</time>
      </trkpt>
      <trkpt lat="47.76616" lon="-2.6155">
        <ele>96.8</ele>
        <time>2024-09-15T09:31:40Z</time>
      </trkpt>
      <trkpt lat="47.76617" lon="-2.61549">
        <ele>96.8</ele>
        <time>2024-09-15T09:31:41Z</time>
      </trkpt>
      <trkpt lat="47.76618" lon="-2.61547">
        <ele>97</ele>
        <time>2024-09-15T09:31:42Z</time>
      </trkpt>
      <trkpt lat="47.7662" lon="-2.61545">
        <ele>97</ele>
        <time>2024-09-15T09:31:43Z</time>
      </trkpt>
      <trkpt lat="47.76622" lon="-2.61544">
        <ele>97.2</ele>
        <time>2024-09-15T09:31:44Z</time>
      </trkpt>
      <trkpt lat="47.76624" lon="-2.61542">
        <ele>97.4</ele>
        <time>2024-09-15T09:31:45Z</time>
      </trkpt>
      <trkpt lat="47.76626" lon="-2.61541">
        <ele>97.6</ele>
        <time>2024-09-15T09:31:46Z</time>
      </trkpt>
      <trkpt lat="47.76628" lon="-2.61539">
        <ele>97.6</ele>
        <time>2024-09-15T09:31:47Z</time>
      </trkpt>
      <trkpt lat="47.7663" lon="-2.61537">
        <ele>97.6</ele>
        <time>2024-09-15T09:31:48Z</time>
      </trkpt>
      <trkpt lat="47.76633" lon="-2.61535">
        <ele>97.6</ele>
        <time>2024-09-15T09:31:49Z</time>
      </trkpt>
      <trkpt lat="47.76635" lon="-2.61534">
        <ele>97.6</ele>
        <time>2024-09-15T09:31:50Z</time>
      </trkpt>
      <trkpt lat="47.76639" lon="-2.61531">
        <ele>97.6</ele>
        <time>2024-09-15T09:31:51Z</time>
      </trkpt>
      <trkpt lat="47.76643" lon="-2.61527">
        <ele>97.6</ele>
        <time>2024-09-15T09:31:52Z</time>
      </trkpt>
      <trkpt lat="47.76647" lon="-2.61523">
        <ele>97.6</ele>
        <time>2024-09-15T09:31:53Z</time>
      </trkpt>
      <trkpt lat="47.76651" lon="-2.61519">
        <ele>97.4</ele>
        <time>2024-09-15T09:31:54Z</time>
      </trkpt>
      <trkpt lat="47.76654" lon="-2.61515">
        <ele>97.2</ele>
        <time>2024-09-15T09:31:55Z</time>
      </trkpt>
      <trkpt lat="47.76666" lon="-2.615">
        <ele>97</ele>
        <time>2024-09-15T09:31:59Z</time>
      </trkpt>
      <trkpt lat="47.76672" lon="-2.61492">
        <ele>97</ele>
        <time>2024-09-15T09:32:01Z</time>
      </trkpt>
      <trkpt lat="47.76674" lon="-2.61487">
        <ele>97</ele>
        <time>2024-09-15T09:32:02Z</time>
      </trkpt>
      <trkpt lat="47.76677" lon="-2.61481">
        <ele>97</ele>
        <time>2024-09-15T09:32:03Z</time>
      </trkpt>
      <trkpt lat="47.7668" lon="-2.61475">
        <ele>97</ele>
        <time>2024-09-15T09:32:04Z</time>
      </trkpt>
      <trkpt lat="47.76683" lon="-2.61471">
        <ele>97</ele>
        <time>2024-09-15T09:32:05Z</time>
      </trkpt>
      <trkpt lat="47.76685" lon="-2.61468">
        <ele>97</ele>
        <time>2024-09-15T09:32:06Z</time>
      </trkpt>
      <trkpt lat="47.76687" lon="-2.61463">
        <ele>97</ele>
        <time>2024-09-15T09:32:07Z</time>
      </trkpt>
      <trkpt lat="47.76691" lon="-2.61458">
        <ele>97</ele>
        <time>2024-09-15T09:32:08Z</time>
      </trkpt>
      <trkpt lat="47.76696" lon="-2.61452">
        <ele>97</ele>
        <time>2024-09-15T09:32:09Z</time>
      </trkpt>
      <trkpt lat="47.76699" lon="-2.61448">
        <ele>97</ele>
        <time>2024-09-15T09:32:10Z</time>
      </trkpt>
      <trkpt lat="47.76701" lon="-2.61444">
        <ele>97.2</ele>
        <time>2024-09-15T09:32:11Z</time>
      </trkpt>
      <trkpt lat="47.76702" lon="-2.61441">
        <ele>97.2</ele>
        <time>2024-09-15T09:32:12Z</time>
      </trkpt>
      <trkpt lat="47.76704" lon="-2.61437">
        <ele>97.6</ele>
        <time>2024-09-15T09:32:13Z</time>
      </trkpt>
      <trkpt lat="47.76704" lon="-2.61429">
        <ele>98</ele>
        <time>2024-09-15T09:32:15Z</time>
      </trkpt>
      <trkpt lat="47.76706" lon="-2.61424">
        <ele>98.2</ele>
        <time>2024-09-15T09:32:16Z</time>
      </trkpt>
      <trkpt lat="47.76706" lon="-2.61419">
        <ele>98.4</ele>
        <time>2024-09-15T09:32:17Z</time>
      </trkpt>
      <trkpt lat="47.76705" lon="-2.61416">
        <ele>98.6</ele>
        <time>2024-09-15T09:32:18Z</time>
      </trkpt>
      <trkpt lat="47.76705" lon="-2.61413">
        <ele>98.8</ele>
        <time>2024-09-15T09:32:19Z</time>
      </trkpt>
      <trkpt lat="47.76705" lon="-2.61409">
        <ele>99</ele>
        <time>2024-09-15T09:32:20Z</time>
      </trkpt>
      <trkpt lat="47.76704" lon="-2.61406">
        <ele>99</ele>
        <time>2024-09-15T09:32:21Z</time>
      </trkpt>
      <trkpt lat="47.76701" lon="-2.61403">
        <ele>99.2</ele>
        <time>2024-09-15T09:32:22Z</time>
      </trkpt>
      <trkpt lat="47.76702" lon="-2.614">
        <ele>99.2</ele>
        <time>2024-09-15T09:32:23Z</time>
      </trkpt>
      <trkpt lat="47.76702" lon="-2.61397">
        <ele>99.4</ele>
        <time>2024-09-15T09:32:24Z</time>
      </trkpt>
      <trkpt lat="47.76702" lon="-2.61391">
        <ele>99.8</ele>
        <time>2024-09-15T09:32:26Z</time>
      </trkpt>
      <trkpt lat="47.76702" lon="-2.61388">
        <ele>99.8</ele>
        <time>2024-09-15T09:32:27Z</time>
      </trkpt>
      <trkpt lat="47.76702" lon="-2.61384">
        <ele>100.4</ele>
        <time>2024-09-15T09:32:29Z</time>
      </trkpt>
      <trkpt lat="47.76701" lon="-2.61383">
        <ele>100.4</ele>
        <time>2024-09-15T09:32:30Z</time>
      </trkpt>
      <trkpt lat="47.76701" lon="-2.6138">
        <ele>100.6</ele>
        <time>2024-09-15T09:32:31Z</time>
      </trkpt>
      <trkpt lat="47.76701" lon="-2.61377">
        <ele>100.6</ele>
        <time>2024-09-15T09:32:32Z</time>
      </trkpt>
      <trkpt lat="47.76703" lon="-2.61375">
        <ele>100.8</ele>
        <time>2024-09-15T09:32:33Z</time>
      </trkpt>
      <trkpt lat="47.76704" lon="-2.61372">
        <ele>101</ele>
        <time>2024-09-15T09:32:34Z</time>
      </trkpt>
      <trkpt lat="47.76703" lon="-2.6137">
        <ele>101.2</ele>
        <time>2024-09-15T09:32:35Z</time>
      </trkpt>
      <trkpt lat="47.76702" lon="-2.61368">
        <ele>101.4</ele>
        <time>2024-09-15T09:32:36Z</time>
      </trkpt>
      <trkpt lat="47.76701" lon="-2.61364">
        <ele>101.6</ele>
        <time>2024-09-15T09:32:37Z</time>
      </trkpt>
      <trkpt lat="47.767" lon="-2.61362">
        <ele>101.8</ele>
        <time>2024-09-15T09:32:38Z</time>
      </trkpt>
      <trkpt lat="47.76698" lon="-2.61361">
        <ele>102</ele>
        <time>2024-09-15T09:32:39Z</time>
      </trkpt>
      <trkpt lat="47.76696" lon="-2.61358">
        <ele>102</ele>
        <time>2024-09-15T09:32:40Z</time>
      </trkpt>
      <trkpt lat="47.76695" lon="-2.61355">
        <ele>102.2</ele>
        <time>2024-09-15T09:32:41Z</time>
      </trkpt>
      <trkpt lat="47.76694" lon="-2.61352">
        <ele>102.4</ele>
        <time>2024-09-15T09:32:42Z</time>
      </trkpt>
      <trkpt lat="47.76692" lon="-2.61349">
        <ele>102.4</ele>
        <time>2024-09-15T09:32:43Z</time>
      </trkpt>
      <trkpt lat="47.76691" lon="-2.61347">
        <ele>102.6</ele>
        <time>2024-09-15T09:32:44Z</time>
      </trkpt>
      <trkpt lat="47.7669" lon="-2.61343">
        <ele>102.8</ele>
        <time>2024-09-15T09:32:45Z</time>
      </trkpt>
      <trkpt lat="47.76691" lon="-2.61339">
        <ele>103</ele>
        <time>2024-09-15T09:32:46Z</time>
      </trkpt>
      <trkpt lat="47.76692" lon="-2.61335">
        <ele>103</ele>
        <time>2024-09-15T09:32:47Z</time>
      </trkpt>
      <trkpt lat="47.76692" lon="-2.61332">
        <ele>103.2</ele>
        <time>2024-09-15T09:32:48Z</time>
      </trkpt>
      <trkpt lat="47.76691" lon="-2.61329">
        <ele>103.4</ele>
        <time>2024-09-15T09:32:49Z</time>
      </trkpt>
      <trkpt lat="47.76692" lon="-2.61324">
        <ele>103.4</ele>
        <time>2024-09-15T09:32:50Z</time>
      </trkpt>
      <trkpt lat="47.76692" lon="-2.61321">
        <ele>103.6</ele>
        <time>2024-09-15T09:32:51Z</time>
      </trkpt>
      <trkpt lat="47.76692" lon="-2.61317">
        <ele>103.8</ele>
        <time>2024-09-15T09:32:52Z</time>
      </trkpt>
      <trkpt lat="47.76691" lon="-2.61313">
        <ele>103.8</ele>
        <time>2024-09-15T09:32:53Z</time>
      </trkpt>
      <trkpt lat="47.76692" lon="-2.61309">
        <ele>104</ele>
        <time>2024-09-15T09:32:54Z</time>
      </trkpt>
      <trkpt lat="47.76691" lon="-2.61305">
        <ele>104.2</ele>
        <time>2024-09-15T09:32:55Z</time>
      </trkpt>
      <trkpt lat="47.76689" lon="-2.61301">
        <ele>104.2</ele>
        <time>2024-09-15T09:32:56Z</time>
      </trkpt>
      <trkpt lat="47.76689" lon="-2.61296">
        <ele>104.4</ele>
        <time>2024-09-15T09:32:57Z</time>
      </trkpt>
      <trkpt lat="47.76689" lon="-2.61292">
        <ele>104.4</ele>
        <time>2024-09-15T09:32:58Z</time>
      </trkpt>
      <trkpt lat="47.7669" lon="-2.61289">
        <ele>104.6</ele>
        <time>2024-09-15T09:32:59Z</time>
      </trkpt>
      <trkpt lat="47.76691" lon="-2.61286">
        <ele>104.6</ele>
        <time>2024-09-15T09:33:00Z</time>
      </trkpt>
      <trkpt lat="47.76692" lon="-2.61283">
        <ele>104.6</ele>
        <time>2024-09-15T09:33:01Z</time>
      </trkpt>
      <trkpt lat="47.76692" lon="-2.6128">
        <ele>104.8</ele>
        <time>2024-09-15T09:33:02Z</time>
      </trkpt>
      <trkpt lat="47.76691" lon="-2.61278">
        <ele>104.8</ele>
        <time>2024-09-15T09:33:03Z</time>
      </trkpt>
      <trkpt lat="47.76691" lon="-2.61275">
        <ele>105</ele>
        <time>2024-09-15T09:33:04Z</time>
      </trkpt>
      <trkpt lat="47.76691" lon="-2.61272">
        <ele>105</ele>
        <time>2024-09-15T09:33:05Z</time>
      </trkpt>
      <trkpt lat="47.76691" lon="-2.61269">
        <ele>105.2</ele>
        <time>2024-09-15T09:33:06Z</time>
      </trkpt>
      <trkpt lat="47.76691" lon="-2.61267">
        <ele>105.2</ele>
        <time>2024-09-15T09:33:07Z</time>
      </trkpt>
      <trkpt lat="47.76692" lon="-2.61264">
        <ele>105.4</ele>
        <time>2024-09-15T09:33:08Z</time>
      </trkpt>
      <trkpt lat="47.76691" lon="-2.61261">
        <ele>105.4</ele>
        <time>2024-09-15T09:33:09Z</time>
      </trkpt>
      <trkpt lat="47.76691" lon="-2.61258">
        <ele>105.4</ele>
        <time>2024-09-15T09:33:10Z</time>
      </trkpt>
      <trkpt lat="47.76691" lon="-2.61255">
        <ele>105.6</ele>
        <time>2024-09-15T09:33:11Z</time>
      </trkpt>
      <trkpt lat="47.76691" lon="-2.61253">
        <ele>105.6</ele>
        <time>2024-09-15T09:33:12Z</time>
      </trkpt>
      <trkpt lat="47.76691" lon="-2.6125">
        <ele>105.8</ele>
        <time>2024-09-15T09:33:13Z</time>
      </trkpt>
      <trkpt lat="47.76691" lon="-2.61246">
        <ele>106</ele>
        <time>2024-09-15T09:33:14Z</time>
      </trkpt>
      <trkpt lat="47.76691" lon="-2.61242">
        <ele>106.2</ele>
        <time>2024-09-15T09:33:15Z</time>
      </trkpt>
      <trkpt lat="47.76691" lon="-2.61238">
        <ele>106.4</ele>
        <time>2024-09-15T09:33:16Z</time>
      </trkpt>
      <trkpt lat="47.76691" lon="-2.61235">
        <ele>106.4</ele>
        <time>2024-09-15T09:33:17Z</time>
      </trkpt>
      <trkpt lat="47.76691" lon="-2.6123">
        <ele>106.6</ele>
        <time>2024-09-15T09:33:18Z</time>
      </trkpt>
      <trkpt lat="47.76691" lon="-2.61226">
        <ele>106.6</ele>
        <time>2024-09-15T09:33:19Z</time>
      </trkpt>
      <trkpt lat="47.76691" lon="-2.61222">
        <ele>107</ele>
        <time>2024-09-15T09:33:20Z</time>
      </trkpt>
      <trkpt lat="47.76691" lon="-2.61217">
        <ele>107.2</ele>
        <time>2024-09-15T09:33:21Z</time>
      </trkpt>
      <trkpt lat="47.76691" lon="-2.61213">
        <ele>107.2</ele>
        <time>2024-09-15T09:33:22Z</time>
      </trkpt>
      <trkpt lat="47.76691" lon="-2.61208">
        <ele>107.4</ele>
        <time>2024-09-15T09:33:23Z</time>
      </trkpt>
      <trkpt lat="47.7669" lon="-2.61204">
        <ele>107.4</ele>
        <time>2024-09-15T09:33:24Z</time>
      </trkpt>
      <trkpt lat="47.76689" lon="-2.61199">
        <ele>107.4</ele>
        <time>2024-09-15T09:33:25Z</time>
      </trkpt>
      <trkpt lat="47.76689" lon="-2.61194">
        <ele>107.4</ele>
        <time>2024-09-15T09:33:26Z</time>
      </trkpt>
      <trkpt lat="47.76688" lon="-2.6119">
        <ele>107.4</ele>
        <time>2024-09-15T09:33:27Z</time>
      </trkpt>
      <trkpt lat="47.76688" lon="-2.61185">
        <ele>107.4</ele>
        <time>2024-09-15T09:33:28Z</time>
      </trkpt>
      <trkpt lat="47.76688" lon="-2.61181">
        <ele>107.4</ele>
        <time>2024-09-15T09:33:29Z</time>
      </trkpt>
      <trkpt lat="47.76688" lon="-2.61176">
        <ele>107.4</ele>
        <time>2024-09-15T09:33:30Z</time>
      </trkpt>
      <trkpt lat="47.76687" lon="-2.61172">
        <ele>107.4</ele>
        <time>2024-09-15T09:33:31Z</time>
      </trkpt>
      <trkpt lat="47.76688" lon="-2.61167">
        <ele>107.4</ele>
        <time>2024-09-15T09:33:32Z</time>
      </trkpt>
      <trkpt lat="47.76689" lon="-2.61163">
        <ele>107.4</ele>
        <time>2024-09-15T09:33:33Z</time>
      </trkpt>
      <trkpt lat="47.7669" lon="-2.6116">
        <ele>107.4</ele>
        <time>2024-09-15T09:33:34Z</time>
      </trkpt>
      <trkpt lat="47.76691" lon="-2.61157">
        <ele>107.4</ele>
        <time>2024-09-15T09:33:35Z</time>
      </trkpt>
      <trkpt lat="47.76692" lon="-2.61155">
        <ele>107.4</ele>
        <time>2024-09-15T09:33:36Z</time>
      </trkpt>
      <trkpt lat="47.76693" lon="-2.61154">
        <ele>107.6</ele>
        <time>2024-09-15T09:33:37Z</time>
      </trkpt>
      <trkpt lat="47.76694" lon="-2.61152">
        <ele>107.6</ele>
        <time>2024-09-15T09:33:38Z</time>
      </trkpt>
      <trkpt lat="47.76694" lon="-2.61151">
        <ele>107.6</ele>
        <time>2024-09-15T09:33:39Z</time>
      </trkpt>
      <trkpt lat="47.76695" lon="-2.61148">
        <ele>107.8</ele>
        <time>2024-09-15T09:33:40Z</time>
      </trkpt>
      <trkpt lat="47.76695" lon="-2.61145">
        <ele>107.8</ele>
        <time>2024-09-15T09:33:41Z</time>
      </trkpt>
      <trkpt lat="47.76696" lon="-2.61142">
        <ele>107.8</ele>
        <time>2024-09-15T09:33:42Z</time>
      </trkpt>
      <trkpt lat="47.76696" lon="-2.6114">
        <ele>108</ele>
        <time>2024-09-15T09:33:43Z</time>
      </trkpt>
      <trkpt lat="47.76697" lon="-2.61138">
        <ele>108</ele>
        <time>2024-09-15T09:33:44Z</time>
      </trkpt>
      <trkpt lat="47.76697" lon="-2.61136">
        <ele>108</ele>
        <time>2024-09-15T09:33:45Z</time>
      </trkpt>
      <trkpt lat="47.76698" lon="-2.61135">
        <ele>108</ele>
        <time>2024-09-15T09:33:46Z</time>
      </trkpt>
      <trkpt lat="47.76698" lon="-2.61135">
        <ele>108</ele>
        <time>2024-09-15T09:33:47Z</time>
      </trkpt>
      <trkpt lat="47.767" lon="-2.61134">
        <ele>107</ele>
        <time>2024-09-15T09:36:02Z</time>
      </trkpt>
      <trkpt lat="47.76701" lon="-2.61134">
        <ele>107</ele>
        <time>2024-09-15T09:36:03Z</time>
      </trkpt>
      <trkpt lat="47.76703" lon="-2.61133">
        <ele>107</ele>
        <time>2024-09-15T09:36:04Z</time>
      </trkpt>
      <trkpt lat="47.76705" lon="-2.61133">
        <ele>107.2</ele>
        <time>2024-09-15T09:36:05Z</time>
      </trkpt>
      <trkpt lat="47.76708" lon="-2.61133">
        <ele>107.2</ele>
        <time>2024-09-15T09:36:07Z</time>
      </trkpt>
      <trkpt lat="47.7671" lon="-2.61133">
        <ele>107.2</ele>
        <time>2024-09-15T09:36:08Z</time>
      </trkpt>
      <trkpt lat="47.76725" lon="-2.61136">
        <ele>107.4</ele>
        <time>2024-09-15T09:36:12Z</time>
      </trkpt>
      <trkpt lat="47.76742" lon="-2.61141">
        <ele>107.4</ele>
        <time>2024-09-15T09:36:16Z</time>
      </trkpt>
      <trkpt lat="47.76745" lon="-2.61142">
        <ele>107.4</ele>
        <time>2024-09-15T09:36:17Z</time>
      </trkpt>
      <trkpt lat="47.76749" lon="-2.61143">
        <ele>107.6</ele>
        <time>2024-09-15T09:36:18Z</time>
      </trkpt>
      <trkpt lat="47.76752" lon="-2.61144">
        <ele>107.8</ele>
        <time>2024-09-15T09:36:19Z</time>
      </trkpt>
      <trkpt lat="47.76756" lon="-2.61144">
        <ele>107.8</ele>
        <time>2024-09-15T09:36:20Z</time>
      </trkpt>
      <trkpt lat="47.76759" lon="-2.61144">
        <ele>108</ele>
        <time>2024-09-15T09:36:21Z</time>
      </trkpt>
      <trkpt lat="47.76763" lon="-2.61144">
        <ele>108</ele>
        <time>2024-09-15T09:36:22Z</time>
      </trkpt>
      <trkpt lat="47.76778" lon="-2.61149">
        <ele>108</ele>
        <time>2024-09-15T09:36:26Z</time>
      </trkpt>
      <trkpt lat="47.76805" lon="-2.61155">
        <ele>108.2</ele>
        <time>2024-09-15T09:36:33Z</time>
      </trkpt>
      <trkpt lat="47.76809" lon="-2.61155">
        <ele>108.2</ele>
        <time>2024-09-15T09:36:34Z</time>
      </trkpt>
      <trkpt lat="47.76827" lon="-2.61152">
        <ele>108.2</ele>
        <time>2024-09-15T09:36:39Z</time>
      </trkpt>
      <trkpt lat="47.76831" lon="-2.61151">
        <ele>108.4</ele>
        <time>2024-09-15T09:36:40Z</time>
      </trkpt>
      <trkpt lat="47.76838" lon="-2.6115">
        <ele>108.4</ele>
        <time>2024-09-15T09:36:42Z</time>
      </trkpt>
      <trkpt lat="47.76846" lon="-2.61149">
        <ele>108.6</ele>
        <time>2024-09-15T09:36:44Z</time>
      </trkpt>
      <trkpt lat="47.7685" lon="-2.61148">
        <ele>108.8</ele>
        <time>2024-09-15T09:36:45Z</time>
      </trkpt>
      <trkpt lat="47.76853" lon="-2.61147">
        <ele>108.8</ele>
        <time>2024-09-15T09:36:46Z</time>
      </trkpt>
      <trkpt lat="47.76857" lon="-2.61146">
        <ele>109</ele>
        <time>2024-09-15T09:36:47Z</time>
      </trkpt>
      <trkpt lat="47.7686" lon="-2.61146">
        <ele>109</ele>
        <time>2024-09-15T09:36:48Z</time>
      </trkpt>
      <trkpt lat="47.76863" lon="-2.61145">
        <ele>109</ele>
        <time>2024-09-15T09:36:49Z</time>
      </trkpt>
      <trkpt lat="47.76866" lon="-2.61144">
        <ele>109</ele>
        <time>2024-09-15T09:36:50Z</time>
      </trkpt>
      <trkpt lat="47.76869" lon="-2.61142">
        <ele>109</ele>
        <time>2024-09-15T09:36:51Z</time>
      </trkpt>
      <trkpt lat="47.76872" lon="-2.61141">
        <ele>109</ele>
        <time>2024-09-15T09:36:52Z</time>
      </trkpt>
      <trkpt lat="47.76893" lon="-2.61144">
        <ele>109.4</ele>
        <time>2024-09-15T09:36:58Z</time>
      </trkpt>
      <trkpt lat="47.76897" lon="-2.61146">
        <ele>109.6</ele>
        <time>2024-09-15T09:36:59Z</time>
      </trkpt>
      <trkpt lat="47.76922" lon="-2.61151">
        <ele>109.8</ele>
        <time>2024-09-15T09:37:05Z</time>
      </trkpt>
      <trkpt lat="47.76926" lon="-2.61152">
        <ele>110</ele>
        <time>2024-09-15T09:37:06Z</time>
      </trkpt>
      <trkpt lat="47.76944" lon="-2.61149">
        <ele>110.6</ele>
        <time>2024-09-15T09:37:28Z</time>
      </trkpt>
      <trkpt lat="47.76944" lon="-2.61149">
        <ele>110.8</ele>
        <time>2024-09-15T09:37:29Z</time>
      </trkpt>
      <trkpt lat="47.76944" lon="-2.61149">
        <ele>110.6</ele>
        <time>2024-09-15T09:37:30Z</time>
      </trkpt>
      <trkpt lat="47.76946" lon="-2.61149">
        <ele>110.8</ele>
        <time>2024-09-15T09:37:31Z</time>
      </trkpt>
      <trkpt lat="47.76947" lon="-2.61149">
        <ele>110.8</ele>
        <time>2024-09-15T09:37:32Z</time>
      </trkpt>
      <trkpt lat="47.76948" lon="-2.61148">
        <ele>110.8</ele>
        <time>2024-09-15T09:37:33Z</time>
      </trkpt>
      <trkpt lat="47.7695" lon="-2.61146">
        <ele>110.8</ele>
        <time>2024-09-15T09:37:34Z</time>
      </trkpt>
      <trkpt lat="47.76951" lon="-2.61143">
        <ele>110.8</ele>
        <time>2024-09-15T09:37:35Z</time>
      </trkpt>
      <trkpt lat="47.76953" lon="-2.61142">
        <ele>111</ele>
        <time>2024-09-15T09:37:36Z</time>
      </trkpt>
      <trkpt lat="47.76953" lon="-2.6114">
        <ele>111</ele>
        <time>2024-09-15T09:37:37Z</time>
      </trkpt>
      <trkpt lat="47.76954" lon="-2.61139">
        <ele>111.2</ele>
        <time>2024-09-15T09:37:38Z</time>
      </trkpt>
      <trkpt lat="47.76954" lon="-2.61137">
        <ele>111.2</ele>
        <time>2024-09-15T09:37:39Z</time>
      </trkpt>
      <trkpt lat="47.76954" lon="-2.61136">
        <ele>111.2</ele>
        <time>2024-09-15T09:37:40Z</time>
      </trkpt>
      <trkpt lat="47.76954" lon="-2.61134">
        <ele>111.2</ele>
        <time>2024-09-15T09:37:41Z</time>
      </trkpt>
      <trkpt lat="47.76954" lon="-2.61132">
        <ele>111.2</ele>
        <time>2024-09-15T09:37:42Z</time>
      </trkpt>
      <trkpt lat="47.76955" lon="-2.6113">
        <ele>111.4</ele>
        <time>2024-09-15T09:37:43Z</time>
      </trkpt>
      <trkpt lat="47.76956" lon="-2.61128">
        <ele>111.4</ele>
        <time>2024-09-15T09:37:44Z</time>
      </trkpt>
      <trkpt lat="47.76957" lon="-2.61125">
        <ele>111.4</ele>
        <time>2024-09-15T09:37:45Z</time>
      </trkpt>
      <trkpt lat="47.76958" lon="-2.61122">
        <ele>111.4</ele>
        <time>2024-09-15T09:37:46Z</time>
      </trkpt>
      <trkpt lat="47.76959" lon="-2.6112">
        <ele>111.6</ele>
        <time>2024-09-15T09:37:47Z</time>
      </trkpt>
      <trkpt lat="47.76959" lon="-2.61118">
        <ele>111.6</ele>
        <time>2024-09-15T09:37:48Z</time>
      </trkpt>
      <trkpt lat="47.7696" lon="-2.61116">
        <ele>111.8</ele>
        <time>2024-09-15T09:37:49Z</time>
      </trkpt>
      <trkpt lat="47.76961" lon="-2.61114">
        <ele>112</ele>
        <time>2024-09-15T09:37:50Z</time>
      </trkpt>
      <trkpt lat="47.76964" lon="-2.61108">
        <ele>112.4</ele>
        <time>2024-09-15T09:37:52Z</time>
      </trkpt>
      <trkpt lat="47.76966" lon="-2.61106">
        <ele>112.4</ele>
        <time>2024-09-15T09:37:53Z</time>
      </trkpt>
      <trkpt lat="47.76967" lon="-2.61103">
        <ele>112.6</ele>
        <time>2024-09-15T09:37:54Z</time>
      </trkpt>
      <trkpt lat="47.76969" lon="-2.61101">
        <ele>112.6</ele>
        <time>2024-09-15T09:37:55Z</time>
      </trkpt>
      <trkpt lat="47.7697" lon="-2.61099">
        <ele>112.6</ele>
        <time>2024-09-15T09:37:56Z</time>
      </trkpt>
      <trkpt lat="47.76972" lon="-2.61097">
        <ele>112.6</ele>
        <time>2024-09-15T09:37:57Z</time>
      </trkpt>
      <trkpt lat="47.76973" lon="-2.61095">
        <ele>112.8</ele>
        <time>2024-09-15T09:37:58Z</time>
      </trkpt>
      <trkpt lat="47.76976" lon="-2.61092">
        <ele>112.8</ele>
        <time>2024-09-15T09:37:59Z</time>
      </trkpt>
      <trkpt lat="47.76979" lon="-2.61086">
        <ele>112.8</ele>
        <time>2024-09-15T09:38:00Z</time>
      </trkpt>
      <trkpt lat="47.76982" lon="-2.61082">
        <ele>112.8</ele>
        <time>2024-09-15T09:38:01Z</time>
      </trkpt>
      <trkpt lat="47.76991" lon="-2.61076">
        <ele>113.2</ele>
        <time>2024-09-15T09:38:04Z</time>
      </trkpt>
      <trkpt lat="47.76991" lon="-2.61075">
        <ele>113.2</ele>
        <time>2024-09-15T09:38:05Z</time>
      </trkpt>
      <trkpt lat="47.7699" lon="-2.61073">
        <ele>113.2</ele>
        <time>2024-09-15T09:38:06Z</time>
      </trkpt>
      <trkpt lat="47.76988" lon="-2.61067">
        <ele>113.6</ele>
        <time>2024-09-15T09:38:09Z</time>
      </trkpt>
      <trkpt lat="47.76988" lon="-2.61066">
        <ele>113.8</ele>
        <time>2024-09-15T09:38:10Z</time>
      </trkpt>
      <trkpt lat="47.76988" lon="-2.61066">
        <ele>114</ele>
        <time>2024-09-15T09:38:11Z</time>
      </trkpt>
      <trkpt lat="47.76989" lon="-2.61065">
        <ele>114</ele>
        <time>2024-09-15T09:38:12Z</time>
      </trkpt>
      <trkpt lat="47.76992" lon="-2.61063">
        <ele>114.2</ele>
        <time>2024-09-15T09:38:14Z</time>
      </trkpt>
      <trkpt lat="47.76994" lon="-2.61063">
        <ele>114.4</ele>
        <time>2024-09-15T09:38:15Z</time>
      </trkpt>
      <trkpt lat="47.76996" lon="-2.61064">
        <ele>114.6</ele>
        <time>2024-09-15T09:38:17Z</time>
      </trkpt>
      <trkpt lat="47.76998" lon="-2.61064">
        <ele>114.6</ele>
        <time>2024-09-15T09:38:18Z</time>
      </trkpt>
      <trkpt lat="47.76999" lon="-2.61063">
        <ele>114.8</ele>
        <time>2024-09-15T09:38:19Z</time>
      </trkpt>
      <trkpt lat="47.77" lon="-2.61063">
        <ele>114.8</ele>
        <time>2024-09-15T09:38:20Z</time>
      </trkpt>
      <trkpt lat="47.77002" lon="-2.61064">
        <ele>114.8</ele>
        <time>2024-09-15T09:38:22Z</time>
      </trkpt>
      <trkpt lat="47.77006" lon="-2.61064">
        <ele>114.8</ele>
        <time>2024-09-15T09:38:24Z</time>
      </trkpt>
      <trkpt lat="47.7701" lon="-2.61064">
        <ele>115</ele>
        <time>2024-09-15T09:38:26Z</time>
      </trkpt>
      <trkpt lat="47.77013" lon="-2.61063">
        <ele>115</ele>
        <time>2024-09-15T09:38:27Z</time>
      </trkpt>
      <trkpt lat="47.77014" lon="-2.61063">
        <ele>115</ele>
        <time>2024-09-15T09:38:28Z</time>
      </trkpt>
      <trkpt lat="47.77024" lon="-2.61064">
        <ele>115</ele>
        <time>2024-09-15T09:38:31Z</time>
      </trkpt>
      <trkpt lat="47.7703" lon="-2.61064">
        <ele>115.2</ele>
        <time>2024-09-15T09:38:32Z</time>
      </trkpt>
      <trkpt lat="47.77032" lon="-2.61066">
        <ele>115.4</ele>
        <time>2024-09-15T09:38:33Z</time>
      </trkpt>
      <trkpt lat="47.77035" lon="-2.61066">
        <ele>115.6</ele>
        <time>2024-09-15T09:38:34Z</time>
      </trkpt>
      <trkpt lat="47.77036" lon="-2.61066">
        <ele>115.8</ele>
        <time>2024-09-15T09:38:35Z</time>
      </trkpt>
      <trkpt lat="47.77038" lon="-2.61065">
        <ele>116</ele>
        <time>2024-09-15T09:38:36Z</time>
      </trkpt>
      <trkpt lat="47.7704" lon="-2.61066">
        <ele>116</ele>
        <time>2024-09-15T09:38:37Z</time>
      </trkpt>
      <trkpt lat="47.77042" lon="-2.61067">
        <ele>116.2</ele>
        <time>2024-09-15T09:38:38Z</time>
      </trkpt>
      <trkpt lat="47.77044" lon="-2.61067">
        <ele>116.4</ele>
        <time>2024-09-15T09:38:39Z</time>
      </trkpt>
      <trkpt lat="47.77047" lon="-2.61068">
        <ele>116.4</ele>
        <time>2024-09-15T09:38:40Z</time>
      </trkpt>
      <trkpt lat="47.7705" lon="-2.6107">
        <ele>116.4</ele>
        <time>2024-09-15T09:38:41Z</time>
      </trkpt>
      <trkpt lat="47.77053" lon="-2.61071">
        <ele>116.6</ele>
        <time>2024-09-15T09:38:42Z</time>
      </trkpt>
      <trkpt lat="47.77054" lon="-2.61073">
        <ele>116.6</ele>
        <time>2024-09-15T09:38:43Z</time>
      </trkpt>
      <trkpt lat="47.77057" lon="-2.61075">
        <ele>116.8</ele>
        <time>2024-09-15T09:38:44Z</time>
      </trkpt>
      <trkpt lat="47.77062" lon="-2.61079">
        <ele>117</ele>
        <time>2024-09-15T09:38:45Z</time>
      </trkpt>
      <trkpt lat="47.77069" lon="-2.61089">
        <ele>117.2</ele>
        <time>2024-09-15T09:38:49Z</time>
      </trkpt>
      <trkpt lat="47.77071" lon="-2.61091">
        <ele>117.2</ele>
        <time>2024-09-15T09:38:50Z</time>
      </trkpt>
      <trkpt lat="47.77076" lon="-2.61091">
        <ele>117.4</ele>
        <time>2024-09-15T09:38:52Z</time>
      </trkpt>
      <trkpt lat="47.77078" lon="-2.6109">
        <ele>117.4</ele>
        <time>2024-09-15T09:38:53Z</time>
      </trkpt>
      <trkpt lat="47.77081" lon="-2.6109">
        <ele>117.6</ele>
        <time>2024-09-15T09:38:54Z</time>
      </trkpt>
      <trkpt lat="47.77087" lon="-2.61087">
        <ele>117.6</ele>
        <time>2024-09-15T09:38:56Z</time>
      </trkpt>
      <trkpt lat="47.77091" lon="-2.61087">
        <ele>117.6</ele>
        <time>2024-09-15T09:38:57Z</time>
      </trkpt>
      <trkpt lat="47.77108" lon="-2.61079">
        <ele>118</ele>
        <time>2024-09-15T09:39:03Z</time>
      </trkpt>
      <trkpt lat="47.77115" lon="-2.61074">
        <ele>118.2</ele>
        <time>2024-09-15T09:39:06Z</time>
      </trkpt>
      <trkpt lat="47.77116" lon="-2.61074">
        <ele>118.2</ele>
        <time>2024-09-15T09:39:07Z</time>
      </trkpt>
      <trkpt lat="47.77118" lon="-2.61073">
        <ele>118.2</ele>
        <time>2024-09-15T09:39:08Z</time>
      </trkpt>
      <trkpt lat="47.7712" lon="-2.61072">
        <ele>118.2</ele>
        <time>2024-09-15T09:39:09Z</time>
      </trkpt>
      <trkpt lat="47.77121" lon="-2.61072">
        <ele>118.2</ele>
        <time>2024-09-15T09:39:10Z</time>
      </trkpt>
      <trkpt lat="47.77122" lon="-2.61071">
        <ele>118.2</ele>
        <time>2024-09-15T09:39:11Z</time>
      </trkpt>
      <trkpt lat="47.77123" lon="-2.6107">
        <ele>118.4</ele>
        <time>2024-09-15T09:39:12Z</time>
      </trkpt>
      <trkpt lat="47.77124" lon="-2.6107">
        <ele>118.4</ele>
        <time>2024-09-15T09:39:13Z</time>
      </trkpt>
      <trkpt lat="47.77125" lon="-2.61069">
        <ele>118.4</ele>
        <time>2024-09-15T09:39:14Z</time>
      </trkpt>
      <trkpt lat="47.77127" lon="-2.61068">
        <ele>118.4</ele>
        <time>2024-09-15T09:39:15Z</time>
      </trkpt>
      <trkpt lat="47.77128" lon="-2.61068">
        <ele>118.4</ele>
        <time>2024-09-15T09:39:16Z</time>
      </trkpt>
      <trkpt lat="47.77132" lon="-2.61067">
        <ele>118.6</ele>
        <time>2024-09-15T09:39:19Z</time>
      </trkpt>
      <trkpt lat="47.77134" lon="-2.61066">
        <ele>118.6</ele>
        <time>2024-09-15T09:39:20Z</time>
      </trkpt>
      <trkpt lat="47.77135" lon="-2.61066">
        <ele>118.6</ele>
        <time>2024-09-15T09:39:21Z</time>
      </trkpt>
      <trkpt lat="47.77137" lon="-2.61065">
        <ele>118.6</ele>
        <time>2024-09-15T09:39:22Z</time>
      </trkpt>
      <trkpt lat="47.77151" lon="-2.61057">
        <ele>118.8</ele>
        <time>2024-09-15T09:39:27Z</time>
      </trkpt>
      <trkpt lat="47.77164" lon="-2.6105">
        <ele>118.8</ele>
        <time>2024-09-15T09:39:32Z</time>
      </trkpt>
      <trkpt lat="47.77171" lon="-2.61047">
        <ele>119</ele>
        <time>2024-09-15T09:39:34Z</time>
      </trkpt>
      <trkpt lat="47.77174" lon="-2.61044">
        <ele>119</ele>
        <time>2024-09-15T09:39:35Z</time>
      </trkpt>
      <trkpt lat="47.77177" lon="-2.61042">
        <ele>119</ele>
        <time>2024-09-15T09:39:36Z</time>
      </trkpt>
      <trkpt lat="47.7718" lon="-2.61039">
        <ele>119</ele>
        <time>2024-09-15T09:39:37Z</time>
      </trkpt>
      <trkpt lat="47.77182" lon="-2.61036">
        <ele>119</ele>
        <time>2024-09-15T09:39:38Z</time>
      </trkpt>
      <trkpt lat="47.77188" lon="-2.61032">
        <ele>119</ele>
        <time>2024-09-15T09:39:40Z</time>
      </trkpt>
      <trkpt lat="47.7719" lon="-2.6103">
        <ele>119</ele>
        <time>2024-09-15T09:39:41Z</time>
      </trkpt>
      <trkpt lat="47.77189" lon="-2.61028">
        <ele>119.2</ele>
        <time>2024-09-15T09:39:42Z</time>
      </trkpt>
      <trkpt lat="47.77189" lon="-2.61026">
        <ele>119.2</ele>
        <time>2024-09-15T09:39:43Z</time>
      </trkpt>
      <trkpt lat="47.7719" lon="-2.61023">
        <ele>119.2</ele>
        <time>2024-09-15T09:39:44Z</time>
      </trkpt>
      <trkpt lat="47.77191" lon="-2.6102">
        <ele>119.2</ele>
        <time>2024-09-15T09:39:45Z</time>
      </trkpt>
      <trkpt lat="47.77192" lon="-2.61019">
        <ele>119.2</ele>
        <time>2024-09-15T09:39:46Z</time>
      </trkpt>
      <trkpt lat="47.77194" lon="-2.61017">
        <ele>119.2</ele>
        <time>2024-09-15T09:39:47Z</time>
      </trkpt>
      <trkpt lat="47.77196" lon="-2.61015">
        <ele>119.2</ele>
        <time>2024-09-15T09:39:48Z</time>
      </trkpt>
      <trkpt lat="47.77197" lon="-2.61013">
        <ele>119.2</ele>
        <time>2024-09-15T09:39:49Z</time>
      </trkpt>
      <trkpt lat="47.77198" lon="-2.61009">
        <ele>119.2</ele>
        <time>2024-09-15T09:39:50Z</time>
      </trkpt>
      <trkpt lat="47.77199" lon="-2.61006">
        <ele>119.2</ele>
        <time>2024-09-15T09:39:51Z</time>
      </trkpt>
      <trkpt lat="47.77199" lon="-2.61003">
        <ele>119.2</ele>
        <time>2024-09-15T09:39:52Z</time>
      </trkpt>
      <trkpt lat="47.772" lon="-2.60999">
        <ele>119.2</ele>
        <time>2024-09-15T09:39:53Z</time>
      </trkpt>
      <trkpt lat="47.77202" lon="-2.60996">
        <ele>119.4</ele>
        <time>2024-09-15T09:39:54Z</time>
      </trkpt>
      <trkpt lat="47.77205" lon="-2.60994">
        <ele>119.4</ele>
        <time>2024-09-15T09:39:55Z</time>
      </trkpt>
      <trkpt lat="47.77207" lon="-2.60993">
        <ele>119.4</ele>
        <time>2024-09-15T09:39:56Z</time>
      </trkpt>
      <trkpt lat="47.77209" lon="-2.60991">
        <ele>119.4</ele>
        <time>2024-09-15T09:39:57Z</time>
      </trkpt>
      <trkpt lat="47.7721" lon="-2.60989">
        <ele>119.4</ele>
        <time>2024-09-15T09:39:58Z</time>
      </trkpt>
      <trkpt lat="47.77212" lon="-2.60985">
        <ele>119.4</ele>
        <time>2024-09-15T09:39:59Z</time>
      </trkpt>
      <trkpt lat="47.77214" lon="-2.60979">
        <ele>119.4</ele>
        <time>2024-09-15T09:40:00Z</time>
      </trkpt>
      <trkpt lat="47.77215" lon="-2.60974">
        <ele>119.4</ele>
        <time>2024-09-15T09:40:01Z</time>
      </trkpt>
      <trkpt lat="47.77217" lon="-2.6097">
        <ele>119.4</ele>
        <time>2024-09-15T09:40:02Z</time>
      </trkpt>
      <trkpt lat="47.7722" lon="-2.60966">
        <ele>119.4</ele>
        <time>2024-09-15T09:40:03Z</time>
      </trkpt>
      <trkpt lat="47.77222" lon="-2.60958">
        <ele>119.4</ele>
        <time>2024-09-15T09:40:05Z</time>
      </trkpt>
      <trkpt lat="47.77222" lon="-2.60949">
        <ele>119.4</ele>
        <time>2024-09-15T09:40:07Z</time>
      </trkpt>
      <trkpt lat="47.77224" lon="-2.60941">
        <ele>119.4</ele>
        <time>2024-09-15T09:40:08Z</time>
      </trkpt>
      <trkpt lat="47.77227" lon="-2.60934">
        <ele>119.2</ele>
        <time>2024-09-15T09:40:09Z</time>
      </trkpt>
      <trkpt lat="47.77231" lon="-2.6093">
        <ele>119.2</ele>
        <time>2024-09-15T09:40:10Z</time>
      </trkpt>
      <trkpt lat="47.77234" lon="-2.60929">
        <ele>119</ele>
        <time>2024-09-15T09:40:11Z</time>
      </trkpt>
      <trkpt lat="47.77238" lon="-2.60928">
        <ele>118.8</ele>
        <time>2024-09-15T09:40:12Z</time>
      </trkpt>
      <trkpt lat="47.77241" lon="-2.60928">
        <ele>118.8</ele>
        <time>2024-09-15T09:40:13Z</time>
      </trkpt>
      <trkpt lat="47.77244" lon="-2.60928">
        <ele>118.6</ele>
        <time>2024-09-15T09:40:14Z</time>
      </trkpt>
      <trkpt lat="47.77247" lon="-2.6093">
        <ele>118.6</ele>
        <time>2024-09-15T09:40:15Z</time>
      </trkpt>
      <trkpt lat="47.77249" lon="-2.6093">
        <ele>118.4</ele>
        <time>2024-09-15T09:40:16Z</time>
      </trkpt>
      <trkpt lat="47.77249" lon="-2.60929">
        <ele>118.4</ele>
        <time>2024-09-15T09:40:17Z</time>
      </trkpt>
      <trkpt lat="47.77249" lon="-2.60929">
        <ele>117.8</ele>
        <time>2024-09-15T09:40:30Z</time>
      </trkpt>
      <trkpt lat="47.77249" lon="-2.60929">
        <ele>117.8</ele>
        <time>2024-09-15T09:40:33Z</time>
      </trkpt>
      <trkpt lat="47.77249" lon="-2.60929">
        <ele>117.8</ele>
        <time>2024-09-15T09:40:34Z</time>
      </trkpt>
      <trkpt lat="47.77249" lon="-2.60929">
        <ele>117.8</ele>
        <time>2024-09-15T09:40:35Z</time>
      </trkpt>
      <trkpt lat="47.77249" lon="-2.60929">
        <ele>117.8</ele>
        <time>2024-09-15T09:40:36Z</time>
      </trkpt>
      <trkpt lat="47.77249" lon="-2.60929">
        <ele>117.8</ele>
        <time>2024-09-15T09:40:37Z</time>
      </trkpt>
      <trkpt lat="47.77249" lon="-2.60929">
        <ele>118</ele>
        <time>2024-09-15T09:40:42Z</time>
      </trkpt>
      <trkpt lat="47.77253" lon="-2.60928">
        <ele>117.8</ele>
        <time>2024-09-15T09:40:46Z</time>
      </trkpt>
      <trkpt lat="47.77255" lon="-2.60928">
        <ele>117.8</ele>
        <time>2024-09-15T09:40:47Z</time>
      </trkpt>
      <trkpt lat="47.77268" lon="-2.60923">
        <ele>117.6</ele>
        <time>2024-09-15T09:40:53Z</time>
      </trkpt>
      <trkpt lat="47.77285" lon="-2.60918">
        <ele>117.6</ele>
        <time>2024-09-15T09:40:58Z</time>
      </trkpt>
      <trkpt lat="47.77291" lon="-2.60916">
        <ele>117.6</ele>
        <time>2024-09-15T09:41:00Z</time>
      </trkpt>
      <trkpt lat="47.77295" lon="-2.60916">
        <ele>117.4</ele>
        <time>2024-09-15T09:41:01Z</time>
      </trkpt>
      <trkpt lat="47.77298" lon="-2.60914">
        <ele>117.6</ele>
        <time>2024-09-15T09:41:02Z</time>
      </trkpt>
      <trkpt lat="47.77303" lon="-2.60914">
        <ele>117.4</ele>
        <time>2024-09-15T09:41:03Z</time>
      </trkpt>
      <trkpt lat="47.77307" lon="-2.60913">
        <ele>117.4</ele>
        <time>2024-09-15T09:41:04Z</time>
      </trkpt>
      <trkpt lat="47.77308" lon="-2.60912">
        <ele>117.2</ele>
        <time>2024-09-15T09:41:05Z</time>
      </trkpt>
      <trkpt lat="47.77311" lon="-2.6091">
        <ele>117.2</ele>
        <time>2024-09-15T09:41:06Z</time>
      </trkpt>
      <trkpt lat="47.77312" lon="-2.60908">
        <ele>117</ele>
        <time>2024-09-15T09:41:07Z</time>
      </trkpt>
      <trkpt lat="47.77314" lon="-2.60906">
        <ele>117</ele>
        <time>2024-09-15T09:41:08Z</time>
      </trkpt>
      <trkpt lat="47.77316" lon="-2.60904">
        <ele>116.8</ele>
        <time>2024-09-15T09:41:09Z</time>
      </trkpt>
      <trkpt lat="47.77317" lon="-2.609">
        <ele>116.8</ele>
        <time>2024-09-15T09:41:10Z</time>
      </trkpt>
      <trkpt lat="47.77324" lon="-2.6089">
        <ele>116.8</ele>
        <time>2024-09-15T09:41:13Z</time>
      </trkpt>
      <trkpt lat="47.77326" lon="-2.60885">
        <ele>116.6</ele>
        <time>2024-09-15T09:41:14Z</time>
      </trkpt>
      <trkpt lat="47.77326" lon="-2.60878">
        <ele>116.6</ele>
        <time>2024-09-15T09:41:16Z</time>
      </trkpt>
      <trkpt lat="47.77327" lon="-2.60873">
        <ele>116.6</ele>
        <time>2024-09-15T09:41:17Z</time>
      </trkpt>
      <trkpt lat="47.77328" lon="-2.60868">
        <ele>116.8</ele>
        <time>2024-09-15T09:41:18Z</time>
      </trkpt>
      <trkpt lat="47.77328" lon="-2.60862">
        <ele>116.8</ele>
        <time>2024-09-15T09:41:19Z</time>
      </trkpt>
      <trkpt lat="47.77327" lon="-2.60857">
        <ele>116.8</ele>
        <time>2024-09-15T09:41:20Z</time>
      </trkpt>
      <trkpt lat="47.77327" lon="-2.60853">
        <ele>116.6</ele>
        <time>2024-09-15T09:41:21Z</time>
      </trkpt>
      <trkpt lat="47.77326" lon="-2.60847">
        <ele>116.6</ele>
        <time>2024-09-15T09:41:22Z</time>
      </trkpt>
      <trkpt lat="47.77325" lon="-2.60843">
        <ele>116.4</ele>
        <time>2024-09-15T09:41:23Z</time>
      </trkpt>
      <trkpt lat="47.77326" lon="-2.6084">
        <ele>116.4</ele>
        <time>2024-09-15T09:41:24Z</time>
      </trkpt>
      <trkpt lat="47.77327" lon="-2.60835">
        <ele>116.2</ele>
        <time>2024-09-15T09:41:25Z</time>
      </trkpt>
      <trkpt lat="47.77327" lon="-2.60832">
        <ele>116.4</ele>
        <time>2024-09-15T09:41:26Z</time>
      </trkpt>
      <trkpt lat="47.77324" lon="-2.60824">
        <ele>116.6</ele>
        <time>2024-09-15T09:41:28Z</time>
      </trkpt>
      <trkpt lat="47.77323" lon="-2.6082">
        <ele>116.6</ele>
        <time>2024-09-15T09:41:29Z</time>
      </trkpt>
      <trkpt lat="47.77321" lon="-2.60815">
        <ele>116.2</ele>
        <time>2024-09-15T09:41:30Z</time>
      </trkpt>
      <trkpt lat="47.77319" lon="-2.6081">
        <ele>116.2</ele>
        <time>2024-09-15T09:41:31Z</time>
      </trkpt>
      <trkpt lat="47.77316" lon="-2.60805">
        <ele>116</ele>
        <time>2024-09-15T09:41:32Z</time>
      </trkpt>
      <trkpt lat="47.77313" lon="-2.60793">
        <ele>115.8</ele>
        <time>2024-09-15T09:41:35Z</time>
      </trkpt>
      <trkpt lat="47.77311" lon="-2.6079">
        <ele>115.8</ele>
        <time>2024-09-15T09:41:36Z</time>
      </trkpt>
      <trkpt lat="47.77309" lon="-2.60787">
        <ele>115.8</ele>
        <time>2024-09-15T09:41:37Z</time>
      </trkpt>
      <trkpt lat="47.77308" lon="-2.60783">
        <ele>115.6</ele>
        <time>2024-09-15T09:41:38Z</time>
      </trkpt>
      <trkpt lat="47.77307" lon="-2.60777">
        <ele>115.6</ele>
        <time>2024-09-15T09:41:39Z</time>
      </trkpt>
      <trkpt lat="47.77306" lon="-2.60771">
        <ele>115.4</ele>
        <time>2024-09-15T09:41:40Z</time>
      </trkpt>
      <trkpt lat="47.77305" lon="-2.60765">
        <ele>115.4</ele>
        <time>2024-09-15T09:41:41Z</time>
      </trkpt>
      <trkpt lat="47.77307" lon="-2.60757">
        <ele>115.4</ele>
        <time>2024-09-15T09:41:42Z</time>
      </trkpt>
      <trkpt lat="47.77309" lon="-2.60753">
        <ele>115.4</ele>
        <time>2024-09-15T09:41:43Z</time>
      </trkpt>
      <trkpt lat="47.77311" lon="-2.6075">
        <ele>115.2</ele>
        <time>2024-09-15T09:41:44Z</time>
      </trkpt>
      <trkpt lat="47.77315" lon="-2.60745">
        <ele>115.4</ele>
        <time>2024-09-15T09:41:45Z</time>
      </trkpt>
      <trkpt lat="47.7732" lon="-2.60736">
        <ele>115.4</ele>
        <time>2024-09-15T09:41:47Z</time>
      </trkpt>
      <trkpt lat="47.77322" lon="-2.6073">
        <ele>115.2</ele>
        <time>2024-09-15T09:41:48Z</time>
      </trkpt>
      <trkpt lat="47.77325" lon="-2.60725">
        <ele>115.4</ele>
        <time>2024-09-15T09:41:50Z</time>
      </trkpt>
      <trkpt lat="47.77326" lon="-2.60723">
        <ele>115.4</ele>
        <time>2024-09-15T09:41:51Z</time>
      </trkpt>
      <trkpt lat="47.77328" lon="-2.6072">
        <ele>115.4</ele>
        <time>2024-09-15T09:41:52Z</time>
      </trkpt>
      <trkpt lat="47.77333" lon="-2.60713">
        <ele>115.4</ele>
        <time>2024-09-15T09:41:54Z</time>
      </trkpt>
      <trkpt lat="47.77334" lon="-2.6071">
        <ele>115.4</ele>
        <time>2024-09-15T09:41:55Z</time>
      </trkpt>
      <trkpt lat="47.77335" lon="-2.60705">
        <ele>115.4</ele>
        <time>2024-09-15T09:41:56Z</time>
      </trkpt>
      <trkpt lat="47.77334" lon="-2.60702">
        <ele>115.4</ele>
        <time>2024-09-15T09:41:57Z</time>
      </trkpt>
      <trkpt lat="47.77335" lon="-2.60698">
        <ele>115.4</ele>
        <time>2024-09-15T09:41:58Z</time>
      </trkpt>
      <trkpt lat="47.77336" lon="-2.60691">
        <ele>115.4</ele>
        <time>2024-09-15T09:42:00Z</time>
      </trkpt>
      <trkpt lat="47.77333" lon="-2.60687">
        <ele>115.2</ele>
        <time>2024-09-15T09:42:13Z</time>
      </trkpt>
      <trkpt lat="47.7733" lon="-2.60685">
        <ele>115.2</ele>
        <time>2024-09-15T09:42:15Z</time>
      </trkpt>
      <trkpt lat="47.77329" lon="-2.60684">
        <ele>115.2</ele>
        <time>2024-09-15T09:42:16Z</time>
      </trkpt>
      <trkpt lat="47.77327" lon="-2.60683">
        <ele>115.2</ele>
        <time>2024-09-15T09:42:17Z</time>
      </trkpt>
      <trkpt lat="47.77324" lon="-2.60681">
        <ele>115</ele>
        <time>2024-09-15T09:42:19Z</time>
      </trkpt>
      <trkpt lat="47.77324" lon="-2.60681">
        <ele>115</ele>
        <time>2024-09-15T09:42:20Z</time>
      </trkpt>
      <trkpt lat="47.77324" lon="-2.60681">
        <ele>115</ele>
        <time>2024-09-15T09:42:21Z</time>
      </trkpt>
      <trkpt lat="47.77324" lon="-2.6068">
        <ele>114.8</ele>
        <time>2024-09-15T09:42:22Z</time>
      </trkpt>
      <trkpt lat="47.77325" lon="-2.60677">
        <ele>114.8</ele>
        <time>2024-09-15T09:42:24Z</time>
      </trkpt>
      <trkpt lat="47.77329" lon="-2.60674">
        <ele>114.8</ele>
        <time>2024-09-15T09:42:27Z</time>
      </trkpt>
      <trkpt lat="47.77329" lon="-2.60668">
        <ele>114.8</ele>
        <time>2024-09-15T09:42:29Z</time>
      </trkpt>
      <trkpt lat="47.77328" lon="-2.60665">
        <ele>114.8</ele>
        <time>2024-09-15T09:42:30Z</time>
      </trkpt>
      <trkpt lat="47.77327" lon="-2.60663">
        <ele>114.8</ele>
        <time>2024-09-15T09:42:31Z</time>
      </trkpt>
      <trkpt lat="47.77326" lon="-2.6066">
        <ele>114.8</ele>
        <time>2024-09-15T09:42:32Z</time>
      </trkpt>
      <trkpt lat="47.77327" lon="-2.60657">
        <ele>114.8</ele>
        <time>2024-09-15T09:42:33Z</time>
      </trkpt>
      <trkpt lat="47.77328" lon="-2.60655">
        <ele>114.8</ele>
        <time>2024-09-15T09:42:34Z</time>
      </trkpt>
      <trkpt lat="47.77331" lon="-2.60653">
        <ele>114.8</ele>
        <time>2024-09-15T09:42:36Z</time>
      </trkpt>
      <trkpt lat="47.77333" lon="-2.60653">
        <ele>114.8</ele>
        <time>2024-09-15T09:42:38Z</time>
      </trkpt>
      <trkpt lat="47.77333" lon="-2.60653">
        <ele>114.8</ele>
        <time>2024-09-15T09:42:39Z</time>
      </trkpt>
      <trkpt lat="47.77333" lon="-2.60653">
        <ele>114.8</ele>
        <time>2024-09-15T09:42:40Z</time>
      </trkpt>
      <trkpt lat="47.77333" lon="-2.60653">
        <ele>115</ele>
        <time>2024-09-15T09:42:41Z</time>
      </trkpt>
      <trkpt lat="47.77334" lon="-2.6065">
        <ele>115</ele>
        <time>2024-09-15T09:42:43Z</time>
      </trkpt>
      <trkpt lat="47.77333" lon="-2.60648">
        <ele>115</ele>
        <time>2024-09-15T09:42:44Z</time>
      </trkpt>
      <trkpt lat="47.77332" lon="-2.60646">
        <ele>115</ele>
        <time>2024-09-15T09:42:45Z</time>
      </trkpt>
      <trkpt lat="47.77332" lon="-2.60645">
        <ele>115</ele>
        <time>2024-09-15T09:42:46Z</time>
      </trkpt>
      <trkpt lat="47.77332" lon="-2.60645">
        <ele>114.8</ele>
        <time>2024-09-15T09:42:47Z</time>
      </trkpt>
      <trkpt lat="47.77332" lon="-2.60644">
        <ele>114.8</ele>
        <time>2024-09-15T09:42:48Z</time>
      </trkpt>
      <trkpt lat="47.77333" lon="-2.60643">
        <ele>114.8</ele>
        <time>2024-09-15T09:42:49Z</time>
      </trkpt>
      <trkpt lat="47.77334" lon="-2.60643">
        <ele>114.8</ele>
        <time>2024-09-15T09:42:50Z</time>
      </trkpt>
      <trkpt lat="47.77336" lon="-2.60643">
        <ele>114.8</ele>
        <time>2024-09-15T09:42:51Z</time>
      </trkpt>
      <trkpt lat="47.77338" lon="-2.60642">
        <ele>114.8</ele>
        <time>2024-09-15T09:42:52Z</time>
      </trkpt>
      <trkpt lat="47.7734" lon="-2.60643">
        <ele>114.8</ele>
        <time>2024-09-15T09:42:53Z</time>
      </trkpt>
      <trkpt lat="47.77341" lon="-2.60643">
        <ele>114.8</ele>
        <time>2024-09-15T09:42:54Z</time>
      </trkpt>
      <trkpt lat="47.77343" lon="-2.60643">
        <ele>114.8</ele>
        <time>2024-09-15T09:42:55Z</time>
      </trkpt>
      <trkpt lat="47.77345" lon="-2.60642">
        <ele>114.8</ele>
        <time>2024-09-15T09:42:56Z</time>
      </trkpt>
      <trkpt lat="47.7735" lon="-2.60644">
        <ele>114.8</ele>
        <time>2024-09-15T09:42:59Z</time>
      </trkpt>
      <trkpt lat="47.77352" lon="-2.60644">
        <ele>115</ele>
        <time>2024-09-15T09:43:00Z</time>
      </trkpt>
      <trkpt lat="47.77354" lon="-2.60642">
        <ele>115</ele>
        <time>2024-09-15T09:43:01Z</time>
      </trkpt>
      <trkpt lat="47.77355" lon="-2.60641">
        <ele>115</ele>
        <time>2024-09-15T09:43:02Z</time>
      </trkpt>
      <trkpt lat="47.77356" lon="-2.60638">
        <ele>115</ele>
        <time>2024-09-15T09:43:03Z</time>
      </trkpt>
      <trkpt lat="47.77353" lon="-2.60631">
        <ele>115</ele>
        <time>2024-09-15T09:43:07Z</time>
      </trkpt>
      <trkpt lat="47.77352" lon="-2.60629">
        <ele>115.2</ele>
        <time>2024-09-15T09:43:08Z</time>
      </trkpt>
      <trkpt lat="47.77349" lon="-2.60622">
        <ele>115</ele>
        <time>2024-09-15T09:43:11Z</time>
      </trkpt>
      <trkpt lat="47.77348" lon="-2.6062">
        <ele>115</ele>
        <time>2024-09-15T09:43:12Z</time>
      </trkpt>
      <trkpt lat="47.77347" lon="-2.60616">
        <ele>115</ele>
        <time>2024-09-15T09:43:13Z</time>
      </trkpt>
      <trkpt lat="47.77347" lon="-2.60614">
        <ele>115</ele>
        <time>2024-09-15T09:43:14Z</time>
      </trkpt>
      <trkpt lat="47.77348" lon="-2.60611">
        <ele>115</ele>
        <time>2024-09-15T09:43:15Z</time>
      </trkpt>
      <trkpt lat="47.77348" lon="-2.60611">
        <ele>114.8</ele>
        <time>2024-09-15T09:43:16Z</time>
      </trkpt>
      <trkpt lat="47.77349" lon="-2.6061">
        <ele>114.8</ele>
        <time>2024-09-15T09:43:17Z</time>
      </trkpt>
      <trkpt lat="47.77351" lon="-2.60611">
        <ele>114.8</ele>
        <time>2024-09-15T09:43:19Z</time>
      </trkpt>
      <trkpt lat="47.77353" lon="-2.60612">
        <ele>114.8</ele>
        <time>2024-09-15T09:43:20Z</time>
      </trkpt>
      <trkpt lat="47.77355" lon="-2.60614">
        <ele>114.8</ele>
        <time>2024-09-15T09:43:22Z</time>
      </trkpt>
      <trkpt lat="47.77356" lon="-2.60616">
        <ele>114.8</ele>
        <time>2024-09-15T09:43:23Z</time>
      </trkpt>
      <trkpt lat="47.77357" lon="-2.60617">
        <ele>114.8</ele>
        <time>2024-09-15T09:43:24Z</time>
      </trkpt>
      <trkpt lat="47.77357" lon="-2.60619">
        <ele>114.8</ele>
        <time>2024-09-15T09:43:25Z</time>
      </trkpt>
      <trkpt lat="47.77357" lon="-2.6062">
        <ele>114.8</ele>
        <time>2024-09-15T09:43:26Z</time>
      </trkpt>
      <trkpt lat="47.77357" lon="-2.6062">
        <ele>114.8</ele>
        <time>2024-09-15T09:43:27Z</time>
      </trkpt>
      <trkpt lat="47.77358" lon="-2.6062">
        <ele>114.8</ele>
        <time>2024-09-15T09:43:28Z</time>
      </trkpt>
      <trkpt lat="47.77359" lon="-2.60618">
        <ele>114.8</ele>
        <time>2024-09-15T09:43:30Z</time>
      </trkpt>
      <trkpt lat="47.7736" lon="-2.60618">
        <ele>114.8</ele>
        <time>2024-09-15T09:43:31Z</time>
      </trkpt>
      <trkpt lat="47.77362" lon="-2.6062">
        <ele>114.8</ele>
        <time>2024-09-15T09:43:34Z</time>
      </trkpt>
      <trkpt lat="47.77363" lon="-2.60618">
        <ele>115</ele>
        <time>2024-09-15T09:43:44Z</time>
      </trkpt>
      <trkpt lat="47.77363" lon="-2.60617">
        <ele>115</ele>
        <time>2024-09-15T09:43:46Z</time>
      </trkpt>
      <trkpt lat="47.77363" lon="-2.60614">
        <ele>115</ele>
        <time>2024-09-15T09:43:48Z</time>
      </trkpt>
      <trkpt lat="47.77363" lon="-2.60612">
        <ele>115</ele>
        <time>2024-09-15T09:43:49Z</time>
      </trkpt>
      <trkpt lat="47.77363" lon="-2.60607">
        <ele>115</ele>
        <time>2024-09-15T09:43:51Z</time>
      </trkpt>
      <trkpt lat="47.77363" lon="-2.60604">
        <ele>115</ele>
        <time>2024-09-15T09:43:52Z</time>
      </trkpt>
      <trkpt lat="47.77362" lon="-2.60602">
        <ele>115</ele>
        <time>2024-09-15T09:43:53Z</time>
      </trkpt>
      <trkpt lat="47.77361" lon="-2.60602">
        <ele>115</ele>
        <time>2024-09-15T09:43:54Z</time>
      </trkpt>
      <trkpt lat="47.7736" lon="-2.60601">
        <ele>115</ele>
        <time>2024-09-15T09:43:55Z</time>
      </trkpt>
      <trkpt lat="47.77358" lon="-2.60599">
        <ele>115</ele>
        <time>2024-09-15T09:43:56Z</time>
      </trkpt>
      <trkpt lat="47.77358" lon="-2.60598">
        <ele>115</ele>
        <time>2024-09-15T09:43:57Z</time>
      </trkpt>
      <trkpt lat="47.77358" lon="-2.60596">
        <ele>114.8</ele>
        <time>2024-09-15T09:43:58Z</time>
      </trkpt>
      <trkpt lat="47.77359" lon="-2.60593">
        <ele>114.8</ele>
        <time>2024-09-15T09:43:59Z</time>
      </trkpt>
      <trkpt lat="47.7736" lon="-2.60591">
        <ele>114.8</ele>
        <time>2024-09-15T09:44:00Z</time>
      </trkpt>
      <trkpt lat="47.77361" lon="-2.6059">
        <ele>114.8</ele>
        <time>2024-09-15T09:44:01Z</time>
      </trkpt>
      <trkpt lat="47.77363" lon="-2.60589">
        <ele>114.8</ele>
        <time>2024-09-15T09:44:02Z</time>
      </trkpt>
      <trkpt lat="47.7737" lon="-2.60591">
        <ele>114.6</ele>
        <time>2024-09-15T09:44:05Z</time>
      </trkpt>
      <trkpt lat="47.77372" lon="-2.6059">
        <ele>114.6</ele>
        <time>2024-09-15T09:44:06Z</time>
      </trkpt>
      <trkpt lat="47.77373" lon="-2.6059">
        <ele>114.6</ele>
        <time>2024-09-15T09:44:07Z</time>
      </trkpt>
      <trkpt lat="47.77373" lon="-2.6059">
        <ele>114.6</ele>
        <time>2024-09-15T09:44:08Z</time>
      </trkpt>
      <trkpt lat="47.77375" lon="-2.60594">
        <ele>114.4</ele>
        <time>2024-09-15T09:44:10Z</time>
      </trkpt>
      <trkpt lat="47.77375" lon="-2.60595">
        <ele>114.4</ele>
        <time>2024-09-15T09:44:11Z</time>
      </trkpt>
      <trkpt lat="47.77376" lon="-2.60595">
        <ele>114.4</ele>
        <time>2024-09-15T09:44:12Z</time>
      </trkpt>
      <trkpt lat="47.77377" lon="-2.60595">
        <ele>114.4</ele>
        <time>2024-09-15T09:44:13Z</time>
      </trkpt>
      <trkpt lat="47.7738" lon="-2.60596">
        <ele>114.2</ele>
        <time>2024-09-15T09:44:15Z</time>
      </trkpt>
      <trkpt lat="47.77382" lon="-2.60596">
        <ele>114.2</ele>
        <time>2024-09-15T09:44:16Z</time>
      </trkpt>
      <trkpt lat="47.77384" lon="-2.60597">
        <ele>114.2</ele>
        <time>2024-09-15T09:44:17Z</time>
      </trkpt>
      <trkpt lat="47.77387" lon="-2.606">
        <ele>114.2</ele>
        <time>2024-09-15T09:44:19Z</time>
      </trkpt>
      <trkpt lat="47.77393" lon="-2.60602">
        <ele>114.2</ele>
        <time>2024-09-15T09:44:22Z</time>
      </trkpt>
      <trkpt lat="47.77394" lon="-2.606">
        <ele>114.4</ele>
        <time>2024-09-15T09:44:24Z</time>
      </trkpt>
      <trkpt lat="47.77396" lon="-2.60596">
        <ele>114.4</ele>
        <time>2024-09-15T09:44:26Z</time>
      </trkpt>
      <trkpt lat="47.77396" lon="-2.60594">
        <ele>114.4</ele>
        <time>2024-09-15T09:44:27Z</time>
      </trkpt>
      <trkpt lat="47.77396" lon="-2.60591">
        <ele>114.2</ele>
        <time>2024-09-15T09:44:28Z</time>
      </trkpt>
      <trkpt lat="47.77396" lon="-2.60588">
        <ele>114.4</ele>
        <time>2024-09-15T09:44:29Z</time>
      </trkpt>
      <trkpt lat="47.77394" lon="-2.60585">
        <ele>114.4</ele>
        <time>2024-09-15T09:44:30Z</time>
      </trkpt>
      <trkpt lat="47.77394" lon="-2.60582">
        <ele>114.4</ele>
        <time>2024-09-15T09:44:31Z</time>
      </trkpt>
      <trkpt lat="47.77393" lon="-2.6058">
        <ele>114.2</ele>
        <time>2024-09-15T09:44:32Z</time>
      </trkpt>
      <trkpt lat="47.77393" lon="-2.60578">
        <ele>114.2</ele>
        <time>2024-09-15T09:44:33Z</time>
      </trkpt>
      <trkpt lat="47.77392" lon="-2.60576">
        <ele>114.2</ele>
        <time>2024-09-15T09:44:34Z</time>
      </trkpt>
      <trkpt lat="47.77392" lon="-2.60575">
        <ele>114</ele>
        <time>2024-09-15T09:44:35Z</time>
      </trkpt>
      <trkpt lat="47.77393" lon="-2.60572">
        <ele>113.8</ele>
        <time>2024-09-15T09:44:36Z</time>
      </trkpt>
      <trkpt lat="47.77391" lon="-2.60571">
        <ele>113.8</ele>
        <time>2024-09-15T09:44:37Z</time>
      </trkpt>
      <trkpt lat="47.77388" lon="-2.60568">
        <ele>113.8</ele>
        <time>2024-09-15T09:44:38Z</time>
      </trkpt>
      <trkpt lat="47.77386" lon="-2.60568">
        <ele>113.8</ele>
        <time>2024-09-15T09:44:39Z</time>
      </trkpt>
      <trkpt lat="47.77385" lon="-2.60569">
        <ele>113.8</ele>
        <time>2024-09-15T09:44:40Z</time>
      </trkpt>
      <trkpt lat="47.77383" lon="-2.60569">
        <ele>113.8</ele>
        <time>2024-09-15T09:44:41Z</time>
      </trkpt>
      <trkpt lat="47.77382" lon="-2.6057">
        <ele>113.6</ele>
        <time>2024-09-15T09:44:42Z</time>
      </trkpt>
      <trkpt lat="47.77381" lon="-2.6057">
        <ele>113.8</ele>
        <time>2024-09-15T09:44:43Z</time>
      </trkpt>
      <trkpt lat="47.77378" lon="-2.6057">
        <ele>113.8</ele>
        <time>2024-09-15T09:44:45Z</time>
      </trkpt>
      <trkpt lat="47.77375" lon="-2.60566">
        <ele>113.8</ele>
        <time>2024-09-15T09:44:46Z</time>
      </trkpt>
      <trkpt lat="47.77374" lon="-2.60562">
        <ele>113.8</ele>
        <time>2024-09-15T09:44:47Z</time>
      </trkpt>
      <trkpt lat="47.77374" lon="-2.60562">
        <ele>114</ele>
        <time>2024-09-15T09:44:48Z</time>
      </trkpt>
      <trkpt lat="47.77373" lon="-2.60561">
        <ele>113.8</ele>
        <time>2024-09-15T09:44:49Z</time>
      </trkpt>
      <trkpt lat="47.77374" lon="-2.60561">
        <ele>113.8</ele>
        <time>2024-09-15T09:44:51Z</time>
      </trkpt>
      <trkpt lat="47.77376" lon="-2.6056">
        <ele>113.8</ele>
        <time>2024-09-15T09:44:53Z</time>
      </trkpt>
      <trkpt lat="47.77376" lon="-2.60553">
        <ele>114</ele>
        <time>2024-09-15T09:44:56Z</time>
      </trkpt>
      <trkpt lat="47.77376" lon="-2.60551">
        <ele>114</ele>
        <time>2024-09-15T09:44:57Z</time>
      </trkpt>
      <trkpt lat="47.77375" lon="-2.60546">
        <ele>114</ele>
        <time>2024-09-15T09:44:59Z</time>
      </trkpt>
      <trkpt lat="47.77374" lon="-2.60543">
        <ele>114.2</ele>
        <time>2024-09-15T09:45:00Z</time>
      </trkpt>
      <trkpt lat="47.77374" lon="-2.60538">
        <ele>114.2</ele>
        <time>2024-09-15T09:45:02Z</time>
      </trkpt>
      <trkpt lat="47.77374" lon="-2.60536">
        <ele>114.2</ele>
        <time>2024-09-15T09:45:03Z</time>
      </trkpt>
      <trkpt lat="47.77374" lon="-2.60534">
        <ele>114.2</ele>
        <time>2024-09-15T09:45:04Z</time>
      </trkpt>
      <trkpt lat="47.77375" lon="-2.60531">
        <ele>114</ele>
        <time>2024-09-15T09:45:05Z</time>
      </trkpt>
      <trkpt lat="47.77377" lon="-2.60528">
        <ele>114</ele>
        <time>2024-09-15T09:45:06Z</time>
      </trkpt>
      <trkpt lat="47.77378" lon="-2.60525">
        <ele>114</ele>
        <time>2024-09-15T09:45:07Z</time>
      </trkpt>
      <trkpt lat="47.77381" lon="-2.60523">
        <ele>113.8</ele>
        <time>2024-09-15T09:45:08Z</time>
      </trkpt>
      <trkpt lat="47.77383" lon="-2.6052">
        <ele>113.8</ele>
        <time>2024-09-15T09:45:09Z</time>
      </trkpt>
      <trkpt lat="47.77384" lon="-2.60517">
        <ele>113.8</ele>
        <time>2024-09-15T09:45:10Z</time>
      </trkpt>
      <trkpt lat="47.77385" lon="-2.60513">
        <ele>113.6</ele>
        <time>2024-09-15T09:45:11Z</time>
      </trkpt>
      <trkpt lat="47.77385" lon="-2.60511">
        <ele>113.6</ele>
        <time>2024-09-15T09:45:12Z</time>
      </trkpt>
      <trkpt lat="47.77386" lon="-2.60508">
        <ele>113.6</ele>
        <time>2024-09-15T09:45:13Z</time>
      </trkpt>
      <trkpt lat="47.77385" lon="-2.60505">
        <ele>113.6</ele>
        <time>2024-09-15T09:45:14Z</time>
      </trkpt>
      <trkpt lat="47.77384" lon="-2.60501">
        <ele>113.4</ele>
        <time>2024-09-15T09:45:15Z</time>
      </trkpt>
      <trkpt lat="47.77382" lon="-2.60498">
        <ele>113.4</ele>
        <time>2024-09-15T09:45:16Z</time>
      </trkpt>
      <trkpt lat="47.7738" lon="-2.60495">
        <ele>113.2</ele>
        <time>2024-09-15T09:45:17Z</time>
      </trkpt>
      <trkpt lat="47.77379" lon="-2.60492">
        <ele>113.2</ele>
        <time>2024-09-15T09:45:18Z</time>
      </trkpt>
      <trkpt lat="47.77376" lon="-2.60487">
        <ele>113.2</ele>
        <time>2024-09-15T09:45:19Z</time>
      </trkpt>
      <trkpt lat="47.77365" lon="-2.60477">
        <ele>113.2</ele>
        <time>2024-09-15T09:45:22Z</time>
      </trkpt>
      <trkpt lat="47.77359" lon="-2.60459">
        <ele>113</ele>
        <time>2024-09-15T09:45:27Z</time>
      </trkpt>
      <trkpt lat="47.77358" lon="-2.60455">
        <ele>113</ele>
        <time>2024-09-15T09:45:28Z</time>
      </trkpt>
      <trkpt lat="47.77351" lon="-2.6044">
        <ele>113.2</ele>
        <time>2024-09-15T09:45:32Z</time>
      </trkpt>
      <trkpt lat="47.7735" lon="-2.60435">
        <ele>113</ele>
        <time>2024-09-15T09:45:33Z</time>
      </trkpt>
      <trkpt lat="47.77348" lon="-2.6043">
        <ele>113</ele>
        <time>2024-09-15T09:45:34Z</time>
      </trkpt>
      <trkpt lat="47.77342" lon="-2.60421">
        <ele>113</ele>
        <time>2024-09-15T09:45:36Z</time>
      </trkpt>
      <trkpt lat="47.77339" lon="-2.60417">
        <ele>113</ele>
        <time>2024-09-15T09:45:37Z</time>
      </trkpt>
      <trkpt lat="47.77337" lon="-2.60413">
        <ele>113.2</ele>
        <time>2024-09-15T09:45:38Z</time>
      </trkpt>
      <trkpt lat="47.77333" lon="-2.60405">
        <ele>113.2</ele>
        <time>2024-09-15T09:45:39Z</time>
      </trkpt>
      <trkpt lat="47.7733" lon="-2.60398">
        <ele>113.2</ele>
        <time>2024-09-15T09:45:40Z</time>
      </trkpt>
      <trkpt lat="47.77324" lon="-2.60392">
        <ele>113.2</ele>
        <time>2024-09-15T09:45:41Z</time>
      </trkpt>
      <trkpt lat="47.7732" lon="-2.60387">
        <ele>113.2</ele>
        <time>2024-09-15T09:45:42Z</time>
      </trkpt>
      <trkpt lat="47.77314" lon="-2.60378">
        <ele>113</ele>
        <time>2024-09-15T09:45:44Z</time>
      </trkpt>
      <trkpt lat="47.77309" lon="-2.60371">
        <ele>113.2</ele>
        <time>2024-09-15T09:45:46Z</time>
      </trkpt>
      <trkpt lat="47.77307" lon="-2.60368">
        <ele>113</ele>
        <time>2024-09-15T09:45:47Z</time>
      </trkpt>
      <trkpt lat="47.77305" lon="-2.60365">
        <ele>113</ele>
        <time>2024-09-15T09:45:48Z</time>
      </trkpt>
      <trkpt lat="47.77303" lon="-2.60362">
        <ele>113</ele>
        <time>2024-09-15T09:45:49Z</time>
      </trkpt>
      <trkpt lat="47.77302" lon="-2.6036">
        <ele>113</ele>
        <time>2024-09-15T09:45:50Z</time>
      </trkpt>
      <trkpt lat="47.773" lon="-2.60357">
        <ele>113</ele>
        <time>2024-09-15T09:45:51Z</time>
      </trkpt>
      <trkpt lat="47.77292" lon="-2.60338">
        <ele>113</ele>
        <time>2024-09-15T09:45:55Z</time>
      </trkpt>
      <trkpt lat="47.7729" lon="-2.60334">
        <ele>113</ele>
        <time>2024-09-15T09:45:56Z</time>
      </trkpt>
      <trkpt lat="47.77281" lon="-2.60322">
        <ele>113</ele>
        <time>2024-09-15T09:45:59Z</time>
      </trkpt>
      <trkpt lat="47.77274" lon="-2.60316">
        <ele>113</ele>
        <time>2024-09-15T09:46:00Z</time>
      </trkpt>
      <trkpt lat="47.77271" lon="-2.60313">
        <ele>113</ele>
        <time>2024-09-15T09:46:01Z</time>
      </trkpt>
      <trkpt lat="47.77266" lon="-2.60305">
        <ele>113</ele>
        <time>2024-09-15T09:46:02Z</time>
      </trkpt>
      <trkpt lat="47.7726" lon="-2.60297">
        <ele>113</ele>
        <time>2024-09-15T09:46:04Z</time>
      </trkpt>
      <trkpt lat="47.77256" lon="-2.6029">
        <ele>113</ele>
        <time>2024-09-15T09:46:06Z</time>
      </trkpt>
      <trkpt lat="47.77253" lon="-2.60286">
        <ele>112.6</ele>
        <time>2024-09-15T09:46:07Z</time>
      </trkpt>
      <trkpt lat="47.77249" lon="-2.60282">
        <ele>112.8</ele>
        <time>2024-09-15T09:46:08Z</time>
      </trkpt>
      <trkpt lat="47.77247" lon="-2.60278">
        <ele>112.6</ele>
        <time>2024-09-15T09:46:09Z</time>
      </trkpt>
      <trkpt lat="47.77243" lon="-2.60273">
        <ele>112.4</ele>
        <time>2024-09-15T09:46:10Z</time>
      </trkpt>
      <trkpt lat="47.7724" lon="-2.60267">
        <ele>112.4</ele>
        <time>2024-09-15T09:46:11Z</time>
      </trkpt>
      <trkpt lat="47.77237" lon="-2.60264">
        <ele>112</ele>
        <time>2024-09-15T09:46:12Z</time>
      </trkpt>
      <trkpt lat="47.77236" lon="-2.60261">
        <ele>112</ele>
        <time>2024-09-15T09:46:13Z</time>
      </trkpt>
      <trkpt lat="47.77233" lon="-2.60259">
        <ele>111.8</ele>
        <time>2024-09-15T09:46:14Z</time>
      </trkpt>
      <trkpt lat="47.7723" lon="-2.60257">
        <ele>111.8</ele>
        <time>2024-09-15T09:46:15Z</time>
      </trkpt>
      <trkpt lat="47.77226" lon="-2.60254">
        <ele>111.8</ele>
        <time>2024-09-15T09:46:16Z</time>
      </trkpt>
      <trkpt lat="47.77223" lon="-2.60251">
        <ele>111.8</ele>
        <time>2024-09-15T09:46:17Z</time>
      </trkpt>
      <trkpt lat="47.77221" lon="-2.60248">
        <ele>111.8</ele>
        <time>2024-09-15T09:46:18Z</time>
      </trkpt>
      <trkpt lat="47.77218" lon="-2.60244">
        <ele>111.8</ele>
        <time>2024-09-15T09:46:19Z</time>
      </trkpt>
      <trkpt lat="47.77216" lon="-2.60242">
        <ele>111.6</ele>
        <time>2024-09-15T09:46:20Z</time>
      </trkpt>
      <trkpt lat="47.77213" lon="-2.6024">
        <ele>111.4</ele>
        <time>2024-09-15T09:46:21Z</time>
      </trkpt>
      <trkpt lat="47.77211" lon="-2.60238">
        <ele>111.4</ele>
        <time>2024-09-15T09:46:22Z</time>
      </trkpt>
      <trkpt lat="47.772" lon="-2.60227">
        <ele>111.2</ele>
        <time>2024-09-15T09:46:25Z</time>
      </trkpt>
      <trkpt lat="47.77192" lon="-2.60223">
        <ele>111</ele>
        <time>2024-09-15T09:46:27Z</time>
      </trkpt>
      <trkpt lat="47.77184" lon="-2.60216">
        <ele>111</ele>
        <time>2024-09-15T09:46:29Z</time>
      </trkpt>
      <trkpt lat="47.77171" lon="-2.60204">
        <ele>110.8</ele>
        <time>2024-09-15T09:46:32Z</time>
      </trkpt>
      <trkpt lat="47.77161" lon="-2.60198">
        <ele>110.4</ele>
        <time>2024-09-15T09:46:34Z</time>
      </trkpt>
      <trkpt lat="47.77154" lon="-2.60193">
        <ele>110.4</ele>
        <time>2024-09-15T09:46:35Z</time>
      </trkpt>
      <trkpt lat="47.77147" lon="-2.60187">
        <ele>110.2</ele>
        <time>2024-09-15T09:46:36Z</time>
      </trkpt>
      <trkpt lat="47.77141" lon="-2.60182">
        <ele>110.2</ele>
        <time>2024-09-15T09:46:37Z</time>
      </trkpt>
      <trkpt lat="47.77136" lon="-2.60176">
        <ele>110</ele>
        <time>2024-09-15T09:46:38Z</time>
      </trkpt>
      <trkpt lat="47.77131" lon="-2.6017">
        <ele>109.8</ele>
        <time>2024-09-15T09:46:39Z</time>
      </trkpt>
      <trkpt lat="47.77128" lon="-2.60165">
        <ele>109.6</ele>
        <time>2024-09-15T09:46:40Z</time>
      </trkpt>
      <trkpt lat="47.77123" lon="-2.60159">
        <ele>109.6</ele>
        <time>2024-09-15T09:46:41Z</time>
      </trkpt>
      <trkpt lat="47.77122" lon="-2.60158">
        <ele>109.4</ele>
        <time>2024-09-15T09:46:42Z</time>
      </trkpt>
      <trkpt lat="47.77122" lon="-2.60158">
        <ele>109.4</ele>
        <time>2024-09-15T09:46:43Z</time>
      </trkpt>
      <trkpt lat="47.77122" lon="-2.60157">
        <ele>108.6</ele>
        <time>2024-09-15T09:47:05Z</time>
      </trkpt>
      <trkpt lat="47.77119" lon="-2.60153">
        <ele>108.6</ele>
        <time>2024-09-15T09:47:09Z</time>
      </trkpt>
      <trkpt lat="47.77117" lon="-2.60152">
        <ele>108.6</ele>
        <time>2024-09-15T09:47:10Z</time>
      </trkpt>
      <trkpt lat="47.77115" lon="-2.60151">
        <ele>108.6</ele>
        <time>2024-09-15T09:47:11Z</time>
      </trkpt>
      <trkpt lat="47.77114" lon="-2.6015">
        <ele>108.6</ele>
        <time>2024-09-15T09:47:12Z</time>
      </trkpt>
      <trkpt lat="47.77113" lon="-2.60148">
        <ele>108.6</ele>
        <time>2024-09-15T09:47:13Z</time>
      </trkpt>
      <trkpt lat="47.77112" lon="-2.60145">
        <ele>108.6</ele>
        <time>2024-09-15T09:47:14Z</time>
      </trkpt>
      <trkpt lat="47.77111" lon="-2.60142">
        <ele>108.6</ele>
        <time>2024-09-15T09:47:15Z</time>
      </trkpt>
      <trkpt lat="47.7711" lon="-2.60139">
        <ele>108.4</ele>
        <time>2024-09-15T09:47:16Z</time>
      </trkpt>
      <trkpt lat="47.77109" lon="-2.60135">
        <ele>108.4</ele>
        <time>2024-09-15T09:47:17Z</time>
      </trkpt>
      <trkpt lat="47.77107" lon="-2.60127">
        <ele>108.2</ele>
        <time>2024-09-15T09:47:19Z</time>
      </trkpt>
      <trkpt lat="47.77105" lon="-2.6012">
        <ele>108.2</ele>
        <time>2024-09-15T09:47:21Z</time>
      </trkpt>
      <trkpt lat="47.77104" lon="-2.60112">
        <ele>108.2</ele>
        <time>2024-09-15T09:47:23Z</time>
      </trkpt>
      <trkpt lat="47.77103" lon="-2.60101">
        <ele>108.2</ele>
        <time>2024-09-15T09:47:25Z</time>
      </trkpt>
      <trkpt lat="47.77102" lon="-2.60094">
        <ele>108</ele>
        <time>2024-09-15T09:47:26Z</time>
      </trkpt>
      <trkpt lat="47.77101" lon="-2.60087">
        <ele>108</ele>
        <time>2024-09-15T09:47:27Z</time>
      </trkpt>
      <trkpt lat="47.77099" lon="-2.60074">
        <ele>108</ele>
        <time>2024-09-15T09:47:29Z</time>
      </trkpt>
      <trkpt lat="47.77095" lon="-2.60058">
        <ele>107.8</ele>
        <time>2024-09-15T09:47:31Z</time>
      </trkpt>
      <trkpt lat="47.77094" lon="-2.6005">
        <ele>107.6</ele>
        <time>2024-09-15T09:47:32Z</time>
      </trkpt>
      <trkpt lat="47.77095" lon="-2.60045">
        <ele>107.4</ele>
        <time>2024-09-15T09:47:33Z</time>
      </trkpt>
      <trkpt lat="47.77095" lon="-2.60037">
        <ele>107.4</ele>
        <time>2024-09-15T09:47:34Z</time>
      </trkpt>
      <trkpt lat="47.77095" lon="-2.60032">
        <ele>107</ele>
        <time>2024-09-15T09:47:35Z</time>
      </trkpt>
      <trkpt lat="47.77091" lon="-2.60006">
        <ele>106.8</ele>
        <time>2024-09-15T09:47:37Z</time>
      </trkpt>
      <trkpt lat="47.7709" lon="-2.59993">
        <ele>106.6</ele>
        <time>2024-09-15T09:47:38Z</time>
      </trkpt>
      <trkpt lat="47.7709" lon="-2.59982">
        <ele>106.6</ele>
        <time>2024-09-15T09:47:39Z</time>
      </trkpt>
      <trkpt lat="47.77088" lon="-2.5996">
        <ele>106.4</ele>
        <time>2024-09-15T09:47:41Z</time>
      </trkpt>
      <trkpt lat="47.77086" lon="-2.59936">
        <ele>106</ele>
        <time>2024-09-15T09:47:43Z</time>
      </trkpt>
      <trkpt lat="47.77085" lon="-2.59925">
        <ele>106</ele>
        <time>2024-09-15T09:47:44Z</time>
      </trkpt>
      <trkpt lat="47.77085" lon="-2.59915">
        <ele>105.8</ele>
        <time>2024-09-15T09:47:45Z</time>
      </trkpt>
      <trkpt lat="47.77083" lon="-2.59906">
        <ele>105.4</ele>
        <time>2024-09-15T09:47:46Z</time>
      </trkpt>
      <trkpt lat="47.77082" lon="-2.59893">
        <ele>105.2</ele>
        <time>2024-09-15T09:47:47Z</time>
      </trkpt>
      <trkpt lat="47.77081" lon="-2.5988">
        <ele>105</ele>
        <time>2024-09-15T09:47:48Z</time>
      </trkpt>
      <trkpt lat="47.77081" lon="-2.59872">
        <ele>104.8</ele>
        <time>2024-09-15T09:47:49Z</time>
      </trkpt>
      <trkpt lat="47.7708" lon="-2.59864">
        <ele>104.8</ele>
        <time>2024-09-15T09:47:50Z</time>
      </trkpt>
      <trkpt lat="47.77077" lon="-2.59855">
        <ele>104.8</ele>
        <time>2024-09-15T09:47:51Z</time>
      </trkpt>
      <trkpt lat="47.77076" lon="-2.59847">
        <ele>104.6</ele>
        <time>2024-09-15T09:47:52Z</time>
      </trkpt>
      <trkpt lat="47.77075" lon="-2.59838">
        <ele>104.4</ele>
        <time>2024-09-15T09:47:53Z</time>
      </trkpt>
      <trkpt lat="47.77075" lon="-2.59817">
        <ele>104.2</ele>
        <time>2024-09-15T09:47:55Z</time>
      </trkpt>
      <trkpt lat="47.77075" lon="-2.5981">
        <ele>104</ele>
        <time>2024-09-15T09:47:56Z</time>
      </trkpt>
      <trkpt lat="47.77074" lon="-2.59802">
        <ele>104</ele>
        <time>2024-09-15T09:47:57Z</time>
      </trkpt>
      <trkpt lat="47.77074" lon="-2.59796">
        <ele>104</ele>
        <time>2024-09-15T09:47:58Z</time>
      </trkpt>
      <trkpt lat="47.77073" lon="-2.59791">
        <ele>103.8</ele>
        <time>2024-09-15T09:47:59Z</time>
      </trkpt>
      <trkpt lat="47.77073" lon="-2.59787">
        <ele>103.6</ele>
        <time>2024-09-15T09:48:00Z</time>
      </trkpt>
      <trkpt lat="47.7706" lon="-2.59707">
        <ele>101.4</ele>
        <time>2024-09-15T09:50:09Z</time>
      </trkpt>
      <trkpt lat="47.77061" lon="-2.59703">
        <ele>101.4</ele>
        <time>2024-09-15T09:50:10Z</time>
      </trkpt>
      <trkpt lat="47.77062" lon="-2.597">
        <ele>101.4</ele>
        <time>2024-09-15T09:50:11Z</time>
      </trkpt>
      <trkpt lat="47.77063" lon="-2.59698">
        <ele>101.4</ele>
        <time>2024-09-15T09:50:12Z</time>
      </trkpt>
      <trkpt lat="47.77063" lon="-2.59697">
        <ele>101.2</ele>
        <time>2024-09-15T09:50:13Z</time>
      </trkpt>
      <trkpt lat="47.77065" lon="-2.59692">
        <ele>101</ele>
        <time>2024-09-15T09:50:15Z</time>
      </trkpt>
      <trkpt lat="47.77068" lon="-2.59685">
        <ele>100.8</ele>
        <time>2024-09-15T09:50:17Z</time>
      </trkpt>
      <trkpt lat="47.77069" lon="-2.59682">
        <ele>100.6</ele>
        <time>2024-09-15T09:50:18Z</time>
      </trkpt>
      <trkpt lat="47.77069" lon="-2.59682">
        <ele>100.6</ele>
        <time>2024-09-15T09:50:19Z</time>
      </trkpt>
      <trkpt lat="47.77069" lon="-2.59682">
        <ele>100.4</ele>
        <time>2024-09-15T09:50:20Z</time>
      </trkpt>
      <trkpt lat="47.77069" lon="-2.59682">
        <ele>100.4</ele>
        <time>2024-09-15T09:50:21Z</time>
      </trkpt>
      <trkpt lat="47.7707" lon="-2.59679">
        <ele>99.6</ele>
        <time>2024-09-15T09:50:35Z</time>
      </trkpt>
      <trkpt lat="47.77071" lon="-2.59677">
        <ele>99.6</ele>
        <time>2024-09-15T09:50:36Z</time>
      </trkpt>
      <trkpt lat="47.77073" lon="-2.59674">
        <ele>99.6</ele>
        <time>2024-09-15T09:50:37Z</time>
      </trkpt>
      <trkpt lat="47.77077" lon="-2.5967">
        <ele>99.6</ele>
        <time>2024-09-15T09:50:39Z</time>
      </trkpt>
      <trkpt lat="47.7708" lon="-2.59667">
        <ele>99.6</ele>
        <time>2024-09-15T09:50:40Z</time>
      </trkpt>
      <trkpt lat="47.77088" lon="-2.59659">
        <ele>99.4</ele>
        <time>2024-09-15T09:50:43Z</time>
      </trkpt>
      <trkpt lat="47.77094" lon="-2.5965">
        <ele>99.2</ele>
        <time>2024-09-15T09:50:45Z</time>
      </trkpt>
      <trkpt lat="47.771" lon="-2.59639">
        <ele>99</ele>
        <time>2024-09-15T09:50:47Z</time>
      </trkpt>
      <trkpt lat="47.77103" lon="-2.59633">
        <ele>99</ele>
        <time>2024-09-15T09:50:48Z</time>
      </trkpt>
      <trkpt lat="47.77105" lon="-2.59627">
        <ele>98.8</ele>
        <time>2024-09-15T09:50:49Z</time>
      </trkpt>
      <trkpt lat="47.77109" lon="-2.59621">
        <ele>98.6</ele>
        <time>2024-09-15T09:50:50Z</time>
      </trkpt>
      <trkpt lat="47.77113" lon="-2.59613">
        <ele>98.2</ele>
        <time>2024-09-15T09:50:51Z</time>
      </trkpt>
      <trkpt lat="47.77117" lon="-2.5961">
        <ele>98</ele>
        <time>2024-09-15T09:50:52Z</time>
      </trkpt>
      <trkpt lat="47.77121" lon="-2.59605">
        <ele>97.4</ele>
        <time>2024-09-15T09:50:53Z</time>
      </trkpt>
      <trkpt lat="47.77125" lon="-2.59603">
        <ele>97.2</ele>
        <time>2024-09-15T09:50:54Z</time>
      </trkpt>
      <trkpt lat="47.77128" lon="-2.59603">
        <ele>96.8</ele>
        <time>2024-09-15T09:50:55Z</time>
      </trkpt>
      <trkpt lat="47.77131" lon="-2.59602">
        <ele>96.6</ele>
        <time>2024-09-15T09:50:56Z</time>
      </trkpt>
      <trkpt lat="47.77133" lon="-2.59601">
        <ele>96.2</ele>
        <time>2024-09-15T09:50:57Z</time>
      </trkpt>
      <trkpt lat="47.77135" lon="-2.596">
        <ele>96</ele>
        <time>2024-09-15T09:50:58Z</time>
      </trkpt>
      <trkpt lat="47.77138" lon="-2.59598">
        <ele>95.8</ele>
        <time>2024-09-15T09:50:59Z</time>
      </trkpt>
      <trkpt lat="47.77138" lon="-2.59598">
        <ele>95.6</ele>
        <time>2024-09-15T09:51:00Z</time>
      </trkpt>
      <trkpt lat="47.77138" lon="-2.59598">
        <ele>95.6</ele>
        <time>2024-09-15T09:51:01Z</time>
      </trkpt>
      <trkpt lat="47.77139" lon="-2.59599">
        <ele>95.6</ele>
        <time>2024-09-15T09:51:02Z</time>
      </trkpt>
      <trkpt lat="47.77141" lon="-2.59598">
        <ele>95.6</ele>
        <time>2024-09-15T09:51:03Z</time>
      </trkpt>
      <trkpt lat="47.77142" lon="-2.59598">
        <ele>95.6</ele>
        <time>2024-09-15T09:51:04Z</time>
      </trkpt>
      <trkpt lat="47.77144" lon="-2.59599">
        <ele>95.6</ele>
        <time>2024-09-15T09:51:05Z</time>
      </trkpt>
      <trkpt lat="47.77152" lon="-2.596">
        <ele>95.8</ele>
        <time>2024-09-15T09:51:08Z</time>
      </trkpt>
      <trkpt lat="47.77154" lon="-2.59601">
        <ele>95.8</ele>
        <time>2024-09-15T09:51:09Z</time>
      </trkpt>
      <trkpt lat="47.77156" lon="-2.596">
        <ele>96.4</ele>
        <time>2024-09-15T09:51:10Z</time>
      </trkpt>
      <trkpt lat="47.77157" lon="-2.59599">
        <ele>96.6</ele>
        <time>2024-09-15T09:51:11Z</time>
      </trkpt>
      <trkpt lat="47.77159" lon="-2.59598">
        <ele>96.8</ele>
        <time>2024-09-15T09:51:12Z</time>
      </trkpt>
      <trkpt lat="47.7716" lon="-2.59596">
        <ele>97.2</ele>
        <time>2024-09-15T09:51:13Z</time>
      </trkpt>
      <trkpt lat="47.77163" lon="-2.59596">
        <ele>97.4</ele>
        <time>2024-09-15T09:51:14Z</time>
      </trkpt>
      <trkpt lat="47.77165" lon="-2.59596">
        <ele>97.6</ele>
        <time>2024-09-15T09:51:15Z</time>
      </trkpt>
      <trkpt lat="47.77168" lon="-2.59596">
        <ele>97.8</ele>
        <time>2024-09-15T09:51:16Z</time>
      </trkpt>
      <trkpt lat="47.7717" lon="-2.59596">
        <ele>98.2</ele>
        <time>2024-09-15T09:51:17Z</time>
      </trkpt>
      <trkpt lat="47.77172" lon="-2.59596">
        <ele>98.2</ele>
        <time>2024-09-15T09:51:18Z</time>
      </trkpt>
      <trkpt lat="47.77188" lon="-2.59596">
        <ele>99</ele>
        <time>2024-09-15T09:51:24Z</time>
      </trkpt>
      <trkpt lat="47.7719" lon="-2.59597">
        <ele>99</ele>
        <time>2024-09-15T09:51:25Z</time>
      </trkpt>
      <trkpt lat="47.77193" lon="-2.59597">
        <ele>99.2</ele>
        <time>2024-09-15T09:51:26Z</time>
      </trkpt>
      <trkpt lat="47.77195" lon="-2.59596">
        <ele>99.2</ele>
        <time>2024-09-15T09:51:27Z</time>
      </trkpt>
      <trkpt lat="47.77201" lon="-2.59596">
        <ele>99.4</ele>
        <time>2024-09-15T09:51:29Z</time>
      </trkpt>
      <trkpt lat="47.77203" lon="-2.59593">
        <ele>99.4</ele>
        <time>2024-09-15T09:51:30Z</time>
      </trkpt>
      <trkpt lat="47.77206" lon="-2.59591">
        <ele>99.4</ele>
        <time>2024-09-15T09:51:31Z</time>
      </trkpt>
      <trkpt lat="47.77208" lon="-2.59589">
        <ele>99.6</ele>
        <time>2024-09-15T09:51:32Z</time>
      </trkpt>
      <trkpt lat="47.7721" lon="-2.59586">
        <ele>99.6</ele>
        <time>2024-09-15T09:51:33Z</time>
      </trkpt>
      <trkpt lat="47.77214" lon="-2.59583">
        <ele>99.8</ele>
        <time>2024-09-15T09:51:34Z</time>
      </trkpt>
      <trkpt lat="47.77216" lon="-2.59579">
        <ele>99.8</ele>
        <time>2024-09-15T09:51:35Z</time>
      </trkpt>
      <trkpt lat="47.77218" lon="-2.59576">
        <ele>99.8</ele>
        <time>2024-09-15T09:51:36Z</time>
      </trkpt>
      <trkpt lat="47.7722" lon="-2.59574">
        <ele>99.8</ele>
        <time>2024-09-15T09:51:37Z</time>
      </trkpt>
      <trkpt lat="47.77221" lon="-2.59573">
        <ele>99.8</ele>
        <time>2024-09-15T09:51:38Z</time>
      </trkpt>
      <trkpt lat="47.77221" lon="-2.59573">
        <ele>99.8</ele>
        <time>2024-09-15T09:51:44Z</time>
      </trkpt>
      <trkpt lat="47.77222" lon="-2.59573">
        <ele>99.8</ele>
        <time>2024-09-15T09:51:46Z</time>
      </trkpt>
      <trkpt lat="47.77223" lon="-2.59573">
        <ele>99.8</ele>
        <time>2024-09-15T09:51:54Z</time>
      </trkpt>
      <trkpt lat="47.77226" lon="-2.59576">
        <ele>99.8</ele>
        <time>2024-09-15T09:51:57Z</time>
      </trkpt>
      <trkpt lat="47.77229" lon="-2.59575">
        <ele>99.8</ele>
        <time>2024-09-15T09:51:59Z</time>
      </trkpt>
      <trkpt lat="47.77231" lon="-2.59576">
        <ele>99.8</ele>
        <time>2024-09-15T09:52:00Z</time>
      </trkpt>
      <trkpt lat="47.77232" lon="-2.59577">
        <ele>99.8</ele>
        <time>2024-09-15T09:52:01Z</time>
      </trkpt>
      <trkpt lat="47.77234" lon="-2.59579">
        <ele>99.8</ele>
        <time>2024-09-15T09:52:02Z</time>
      </trkpt>
      <trkpt lat="47.77236" lon="-2.59582">
        <ele>99.8</ele>
        <time>2024-09-15T09:52:03Z</time>
      </trkpt>
      <trkpt lat="47.77238" lon="-2.59585">
        <ele>99.8</ele>
        <time>2024-09-15T09:52:04Z</time>
      </trkpt>
      <trkpt lat="47.77242" lon="-2.59588">
        <ele>99.8</ele>
        <time>2024-09-15T09:52:05Z</time>
      </trkpt>
      <trkpt lat="47.77245" lon="-2.59591">
        <ele>99.8</ele>
        <time>2024-09-15T09:52:06Z</time>
      </trkpt>
      <trkpt lat="47.77252" lon="-2.59595">
        <ele>100</ele>
        <time>2024-09-15T09:52:08Z</time>
      </trkpt>
      <trkpt lat="47.77255" lon="-2.59595">
        <ele>100</ele>
        <time>2024-09-15T09:52:09Z</time>
      </trkpt>
      <trkpt lat="47.77257" lon="-2.59595">
        <ele>100</ele>
        <time>2024-09-15T09:52:10Z</time>
      </trkpt>
      <trkpt lat="47.77261" lon="-2.59596">
        <ele>100</ele>
        <time>2024-09-15T09:52:11Z</time>
      </trkpt>
      <trkpt lat="47.77264" lon="-2.59596">
        <ele>100</ele>
        <time>2024-09-15T09:52:12Z</time>
      </trkpt>
      <trkpt lat="47.77267" lon="-2.59596">
        <ele>100.2</ele>
        <time>2024-09-15T09:52:13Z</time>
      </trkpt>
      <trkpt lat="47.77269" lon="-2.59594">
        <ele>100.2</ele>
        <time>2024-09-15T09:52:14Z</time>
      </trkpt>
      <trkpt lat="47.77271" lon="-2.59591">
        <ele>100.2</ele>
        <time>2024-09-15T09:52:15Z</time>
      </trkpt>
      <trkpt lat="47.77271" lon="-2.59589">
        <ele>100.2</ele>
        <time>2024-09-15T09:52:16Z</time>
      </trkpt>
      <trkpt lat="47.77273" lon="-2.59586">
        <ele>100.2</ele>
        <time>2024-09-15T09:52:17Z</time>
      </trkpt>
      <trkpt lat="47.77275" lon="-2.59583">
        <ele>100.2</ele>
        <time>2024-09-15T09:52:18Z</time>
      </trkpt>
      <trkpt lat="47.77278" lon="-2.59582">
        <ele>100</ele>
        <time>2024-09-15T09:52:19Z</time>
      </trkpt>
      <trkpt lat="47.7728" lon="-2.59582">
        <ele>100</ele>
        <time>2024-09-15T09:52:20Z</time>
      </trkpt>
      <trkpt lat="47.77283" lon="-2.59582">
        <ele>99.8</ele>
        <time>2024-09-15T09:52:21Z</time>
      </trkpt>
      <trkpt lat="47.77286" lon="-2.59582">
        <ele>99.6</ele>
        <time>2024-09-15T09:52:22Z</time>
      </trkpt>
      <trkpt lat="47.7729" lon="-2.59581">
        <ele>99.6</ele>
        <time>2024-09-15T09:52:23Z</time>
      </trkpt>
      <trkpt lat="47.77302" lon="-2.5958">
        <ele>99.4</ele>
        <time>2024-09-15T09:52:27Z</time>
      </trkpt>
      <trkpt lat="47.77306" lon="-2.5958">
        <ele>99.4</ele>
        <time>2024-09-15T09:52:28Z</time>
      </trkpt>
      <trkpt lat="47.77315" lon="-2.59582">
        <ele>99.4</ele>
        <time>2024-09-15T09:52:30Z</time>
      </trkpt>
      <trkpt lat="47.77322" lon="-2.5958">
        <ele>99.4</ele>
        <time>2024-09-15T09:52:32Z</time>
      </trkpt>
      <trkpt lat="47.77325" lon="-2.59582">
        <ele>99.4</ele>
        <time>2024-09-15T09:52:33Z</time>
      </trkpt>
      <trkpt lat="47.77337" lon="-2.59583">
        <ele>99.2</ele>
        <time>2024-09-15T09:52:36Z</time>
      </trkpt>
      <trkpt lat="47.77342" lon="-2.59585">
        <ele>99.4</ele>
        <time>2024-09-15T09:52:37Z</time>
      </trkpt>
      <trkpt lat="47.77347" lon="-2.59584">
        <ele>99.4</ele>
        <time>2024-09-15T09:52:39Z</time>
      </trkpt>
      <trkpt lat="47.77351" lon="-2.59586">
        <ele>99.4</ele>
        <time>2024-09-15T09:52:40Z</time>
      </trkpt>
      <trkpt lat="47.77354" lon="-2.5959">
        <ele>99.4</ele>
        <time>2024-09-15T09:52:41Z</time>
      </trkpt>
      <trkpt lat="47.77357" lon="-2.59593">
        <ele>99.2</ele>
        <time>2024-09-15T09:52:42Z</time>
      </trkpt>
      <trkpt lat="47.77361" lon="-2.59599">
        <ele>99.2</ele>
        <time>2024-09-15T09:52:43Z</time>
      </trkpt>
      <trkpt lat="47.77365" lon="-2.59605">
        <ele>99.2</ele>
        <time>2024-09-15T09:52:44Z</time>
      </trkpt>
      <trkpt lat="47.77365" lon="-2.5961">
        <ele>99.2</ele>
        <time>2024-09-15T09:52:45Z</time>
      </trkpt>
      <trkpt lat="47.77364" lon="-2.59615">
        <ele>99.2</ele>
        <time>2024-09-15T09:52:46Z</time>
      </trkpt>
      <trkpt lat="47.77363" lon="-2.59619">
        <ele>99.2</ele>
        <time>2024-09-15T09:52:47Z</time>
      </trkpt>
      <trkpt lat="47.77362" lon="-2.59624">
        <ele>99.2</ele>
        <time>2024-09-15T09:52:48Z</time>
      </trkpt>
      <trkpt lat="47.77361" lon="-2.59635">
        <ele>99.2</ele>
        <time>2024-09-15T09:52:50Z</time>
      </trkpt>
      <trkpt lat="47.77361" lon="-2.5964">
        <ele>99.2</ele>
        <time>2024-09-15T09:52:51Z</time>
      </trkpt>
      <trkpt lat="47.77361" lon="-2.59647">
        <ele>99.2</ele>
        <time>2024-09-15T09:52:52Z</time>
      </trkpt>
      <trkpt lat="47.77361" lon="-2.59653">
        <ele>99.2</ele>
        <time>2024-09-15T09:52:53Z</time>
      </trkpt>
      <trkpt lat="47.7736" lon="-2.59658">
        <ele>99.2</ele>
        <time>2024-09-15T09:52:54Z</time>
      </trkpt>
      <trkpt lat="47.77358" lon="-2.59663">
        <ele>99.4</ele>
        <time>2024-09-15T09:52:56Z</time>
      </trkpt>
      <trkpt lat="47.77354" lon="-2.59667">
        <ele>99.4</ele>
        <time>2024-09-15T09:52:58Z</time>
      </trkpt>
      <trkpt lat="47.7735" lon="-2.59668">
        <ele>99.6</ele>
        <time>2024-09-15T09:52:59Z</time>
      </trkpt>
      <trkpt lat="47.77347" lon="-2.59669">
        <ele>99.6</ele>
        <time>2024-09-15T09:53:00Z</time>
      </trkpt>
      <trkpt lat="47.77341" lon="-2.59663">
        <ele>99.8</ele>
        <time>2024-09-15T09:53:02Z</time>
      </trkpt>
      <trkpt lat="47.77337" lon="-2.59658">
        <ele>99.8</ele>
        <time>2024-09-15T09:53:04Z</time>
      </trkpt>
      <trkpt lat="47.77334" lon="-2.59657">
        <ele>99.8</ele>
        <time>2024-09-15T09:53:05Z</time>
      </trkpt>
      <trkpt lat="47.77332" lon="-2.59658">
        <ele>99.8</ele>
        <time>2024-09-15T09:53:06Z</time>
      </trkpt>
      <trkpt lat="47.77328" lon="-2.59657">
        <ele>99.8</ele>
        <time>2024-09-15T09:53:07Z</time>
      </trkpt>
      <trkpt lat="47.77323" lon="-2.59657">
        <ele>100</ele>
        <time>2024-09-15T09:53:08Z</time>
      </trkpt>
      <trkpt lat="47.77319" lon="-2.59657">
        <ele>100</ele>
        <time>2024-09-15T09:53:09Z</time>
      </trkpt>
      <trkpt lat="47.77313" lon="-2.59659">
        <ele>100.2</ele>
        <time>2024-09-15T09:53:11Z</time>
      </trkpt>
      <trkpt lat="47.77312" lon="-2.5966">
        <ele>100.2</ele>
        <time>2024-09-15T09:53:12Z</time>
      </trkpt>
      <trkpt lat="47.77309" lon="-2.59663">
        <ele>100.4</ele>
        <time>2024-09-15T09:53:13Z</time>
      </trkpt>
      <trkpt lat="47.77307" lon="-2.59664">
        <ele>100.2</ele>
        <time>2024-09-15T09:53:14Z</time>
      </trkpt>
      <trkpt lat="47.77303" lon="-2.59668">
        <ele>100.4</ele>
        <time>2024-09-15T09:53:15Z</time>
      </trkpt>
      <trkpt lat="47.77284" lon="-2.59681">
        <ele>100.6</ele>
        <time>2024-09-15T09:53:20Z</time>
      </trkpt>
      <trkpt lat="47.77275" lon="-2.59685">
        <ele>100.8</ele>
        <time>2024-09-15T09:53:22Z</time>
      </trkpt>
      <trkpt lat="47.77267" lon="-2.59693">
        <ele>101</ele>
        <time>2024-09-15T09:53:25Z</time>
      </trkpt>
      <trkpt lat="47.77259" lon="-2.59697">
        <ele>101.2</ele>
        <time>2024-09-15T09:53:27Z</time>
      </trkpt>
      <trkpt lat="47.77253" lon="-2.59696">
        <ele>101.2</ele>
        <time>2024-09-15T09:53:28Z</time>
      </trkpt>
      <trkpt lat="47.77247" lon="-2.59694">
        <ele>101.2</ele>
        <time>2024-09-15T09:53:29Z</time>
      </trkpt>
      <trkpt lat="47.77244" lon="-2.59691">
        <ele>101.2</ele>
        <time>2024-09-15T09:53:30Z</time>
      </trkpt>
      <trkpt lat="47.77242" lon="-2.5969">
        <ele>101.2</ele>
        <time>2024-09-15T09:53:31Z</time>
      </trkpt>
      <trkpt lat="47.77238" lon="-2.5969">
        <ele>101.2</ele>
        <time>2024-09-15T09:53:32Z</time>
      </trkpt>
      <trkpt lat="47.77236" lon="-2.59691">
        <ele>101.2</ele>
        <time>2024-09-15T09:53:33Z</time>
      </trkpt>
      <trkpt lat="47.77232" lon="-2.59694">
        <ele>101</ele>
        <time>2024-09-15T09:53:34Z</time>
      </trkpt>
      <trkpt lat="47.77231" lon="-2.59699">
        <ele>101</ele>
        <time>2024-09-15T09:53:35Z</time>
      </trkpt>
      <trkpt lat="47.77233" lon="-2.59708">
        <ele>101</ele>
        <time>2024-09-15T09:53:37Z</time>
      </trkpt>
      <trkpt lat="47.77244" lon="-2.59723">
        <ele>101</ele>
        <time>2024-09-15T09:53:40Z</time>
      </trkpt>
      <trkpt lat="47.77245" lon="-2.59728">
        <ele>101</ele>
        <time>2024-09-15T09:53:41Z</time>
      </trkpt>
      <trkpt lat="47.77246" lon="-2.59733">
        <ele>100.8</ele>
        <time>2024-09-15T09:53:42Z</time>
      </trkpt>
      <trkpt lat="47.77246" lon="-2.59737">
        <ele>100.8</ele>
        <time>2024-09-15T09:53:43Z</time>
      </trkpt>
      <trkpt lat="47.77245" lon="-2.59741">
        <ele>100.8</ele>
        <time>2024-09-15T09:53:44Z</time>
      </trkpt>
      <trkpt lat="47.77245" lon="-2.59746">
        <ele>100.8</ele>
        <time>2024-09-15T09:53:45Z</time>
      </trkpt>
      <trkpt lat="47.77246" lon="-2.59752">
        <ele>101</ele>
        <time>2024-09-15T09:53:46Z</time>
      </trkpt>
      <trkpt lat="47.7725" lon="-2.59763">
        <ele>101.2</ele>
        <time>2024-09-15T09:53:48Z</time>
      </trkpt>
      <trkpt lat="47.77251" lon="-2.59767">
        <ele>101.2</ele>
        <time>2024-09-15T09:53:49Z</time>
      </trkpt>
      <trkpt lat="47.77252" lon="-2.5977">
        <ele>101.4</ele>
        <time>2024-09-15T09:53:50Z</time>
      </trkpt>
      <trkpt lat="47.77252" lon="-2.59773">
        <ele>101.4</ele>
        <time>2024-09-15T09:53:51Z</time>
      </trkpt>
      <trkpt lat="47.77255" lon="-2.59778">
        <ele>101.6</ele>
        <time>2024-09-15T09:53:52Z</time>
      </trkpt>
      <trkpt lat="47.77257" lon="-2.59783">
        <ele>101.6</ele>
        <time>2024-09-15T09:53:53Z</time>
      </trkpt>
      <trkpt lat="47.77259" lon="-2.59792">
        <ele>101.8</ele>
        <time>2024-09-15T09:53:55Z</time>
      </trkpt>
      <trkpt lat="47.77262" lon="-2.59799">
        <ele>101.8</ele>
        <time>2024-09-15T09:53:56Z</time>
      </trkpt>
      <trkpt lat="47.77266" lon="-2.59805">
        <ele>102</ele>
        <time>2024-09-15T09:53:57Z</time>
      </trkpt>
      <trkpt lat="47.7727" lon="-2.59811">
        <ele>102</ele>
        <time>2024-09-15T09:53:58Z</time>
      </trkpt>
      <trkpt lat="47.77274" lon="-2.59817">
        <ele>102.2</ele>
        <time>2024-09-15T09:53:59Z</time>
      </trkpt>
      <trkpt lat="47.77275" lon="-2.59821">
        <ele>102.2</ele>
        <time>2024-09-15T09:54:00Z</time>
      </trkpt>
      <trkpt lat="47.77275" lon="-2.59825">
        <ele>102.6</ele>
        <time>2024-09-15T09:54:01Z</time>
      </trkpt>
      <trkpt lat="47.77276" lon="-2.59828">
        <ele>102.6</ele>
        <time>2024-09-15T09:54:02Z</time>
      </trkpt>
      <trkpt lat="47.77278" lon="-2.59833">
        <ele>102.8</ele>
        <time>2024-09-15T09:54:03Z</time>
      </trkpt>
      <trkpt lat="47.77279" lon="-2.59837">
        <ele>102.8</ele>
        <time>2024-09-15T09:54:04Z</time>
      </trkpt>
      <trkpt lat="47.77283" lon="-2.59847">
        <ele>103</ele>
        <time>2024-09-15T09:54:06Z</time>
      </trkpt>
      <trkpt lat="47.77285" lon="-2.59853">
        <ele>103.2</ele>
        <time>2024-09-15T09:54:07Z</time>
      </trkpt>
      <trkpt lat="47.77286" lon="-2.59857">
        <ele>103.4</ele>
        <time>2024-09-15T09:54:08Z</time>
      </trkpt>
      <trkpt lat="47.77285" lon="-2.59864">
        <ele>103.6</ele>
        <time>2024-09-15T09:54:09Z</time>
      </trkpt>
      <trkpt lat="47.77284" lon="-2.59869">
        <ele>103.8</ele>
        <time>2024-09-15T09:54:10Z</time>
      </trkpt>
      <trkpt lat="47.77286" lon="-2.59875">
        <ele>103.8</ele>
        <time>2024-09-15T09:54:11Z</time>
      </trkpt>
      <trkpt lat="47.77288" lon="-2.59881">
        <ele>104</ele>
        <time>2024-09-15T09:54:12Z</time>
      </trkpt>
      <trkpt lat="47.77288" lon="-2.59886">
        <ele>104.2</ele>
        <time>2024-09-15T09:54:13Z</time>
      </trkpt>
      <trkpt lat="47.77291" lon="-2.5989">
        <ele>104.2</ele>
        <time>2024-09-15T09:54:14Z</time>
      </trkpt>
      <trkpt lat="47.77291" lon="-2.59893">
        <ele>104.4</ele>
        <time>2024-09-15T09:54:15Z</time>
      </trkpt>
      <trkpt lat="47.7729" lon="-2.59895">
        <ele>104.4</ele>
        <time>2024-09-15T09:54:16Z</time>
      </trkpt>
      <trkpt lat="47.77291" lon="-2.59899">
        <ele>104.6</ele>
        <time>2024-09-15T09:54:17Z</time>
      </trkpt>
      <trkpt lat="47.7729" lon="-2.59903">
        <ele>104.6</ele>
        <time>2024-09-15T09:54:18Z</time>
      </trkpt>
      <trkpt lat="47.77291" lon="-2.59907">
        <ele>104.8</ele>
        <time>2024-09-15T09:54:19Z</time>
      </trkpt>
      <trkpt lat="47.7729" lon="-2.5991">
        <ele>104.8</ele>
        <time>2024-09-15T09:54:20Z</time>
      </trkpt>
      <trkpt lat="47.7729" lon="-2.59915">
        <ele>105</ele>
        <time>2024-09-15T09:54:21Z</time>
      </trkpt>
      <trkpt lat="47.77288" lon="-2.59919">
        <ele>105.2</ele>
        <time>2024-09-15T09:54:22Z</time>
      </trkpt>
      <trkpt lat="47.77289" lon="-2.59923">
        <ele>105.2</ele>
        <time>2024-09-15T09:54:23Z</time>
      </trkpt>
      <trkpt lat="47.77289" lon="-2.59929">
        <ele>105.4</ele>
        <time>2024-09-15T09:54:24Z</time>
      </trkpt>
      <trkpt lat="47.7729" lon="-2.59935">
        <ele>105.4</ele>
        <time>2024-09-15T09:54:25Z</time>
      </trkpt>
      <trkpt lat="47.77289" lon="-2.5994">
        <ele>105.6</ele>
        <time>2024-09-15T09:54:26Z</time>
      </trkpt>
      <trkpt lat="47.77288" lon="-2.59945">
        <ele>105.6</ele>
        <time>2024-09-15T09:54:27Z</time>
      </trkpt>
      <trkpt lat="47.77288" lon="-2.59951">
        <ele>105.8</ele>
        <time>2024-09-15T09:54:28Z</time>
      </trkpt>
      <trkpt lat="47.77289" lon="-2.59957">
        <ele>105.8</ele>
        <time>2024-09-15T09:54:29Z</time>
      </trkpt>
      <trkpt lat="47.77287" lon="-2.59962">
        <ele>105.8</ele>
        <time>2024-09-15T09:54:30Z</time>
      </trkpt>
      <trkpt lat="47.77285" lon="-2.59964">
        <ele>105.8</ele>
        <time>2024-09-15T09:54:31Z</time>
      </trkpt>
      <trkpt lat="47.77284" lon="-2.59968">
        <ele>106</ele>
        <time>2024-09-15T09:54:32Z</time>
      </trkpt>
      <trkpt lat="47.77283" lon="-2.59971">
        <ele>106</ele>
        <time>2024-09-15T09:54:33Z</time>
      </trkpt>
      <trkpt lat="47.77282" lon="-2.59973">
        <ele>106</ele>
        <time>2024-09-15T09:54:34Z</time>
      </trkpt>
      <trkpt lat="47.77283" lon="-2.59977">
        <ele>106</ele>
        <time>2024-09-15T09:54:35Z</time>
      </trkpt>
      <trkpt lat="47.77283" lon="-2.59981">
        <ele>106.2</ele>
        <time>2024-09-15T09:54:36Z</time>
      </trkpt>
      <trkpt lat="47.77285" lon="-2.59986">
        <ele>106.4</ele>
        <time>2024-09-15T09:54:37Z</time>
      </trkpt>
      <trkpt lat="47.77286" lon="-2.59989">
        <ele>106.4</ele>
        <time>2024-09-15T09:54:38Z</time>
      </trkpt>
      <trkpt lat="47.77287" lon="-2.59996">
        <ele>106.6</ele>
        <time>2024-09-15T09:54:40Z</time>
      </trkpt>
      <trkpt lat="47.7729" lon="-2.59998">
        <ele>106.8</ele>
        <time>2024-09-15T09:54:41Z</time>
      </trkpt>
      <trkpt lat="47.77292" lon="-2.60001">
        <ele>107</ele>
        <time>2024-09-15T09:54:42Z</time>
      </trkpt>
      <trkpt lat="47.77293" lon="-2.60002">
        <ele>107.4</ele>
        <time>2024-09-15T09:54:50Z</time>
      </trkpt>
      <trkpt lat="47.77299" lon="-2.60004">
        <ele>107.4</ele>
        <time>2024-09-15T09:54:54Z</time>
      </trkpt>
      <trkpt lat="47.77301" lon="-2.60004">
        <ele>107.6</ele>
        <time>2024-09-15T09:54:55Z</time>
      </trkpt>
      <trkpt lat="47.77308" lon="-2.60003">
        <ele>107.6</ele>
        <time>2024-09-15T09:54:58Z</time>
      </trkpt>
      <trkpt lat="47.77309" lon="-2.60002">
        <ele>107.6</ele>
        <time>2024-09-15T09:54:59Z</time>
      </trkpt>
      <trkpt lat="47.77312" lon="-2.60001">
        <ele>107.6</ele>
        <time>2024-09-15T09:55:00Z</time>
      </trkpt>
      <trkpt lat="47.77318" lon="-2.60001">
        <ele>107.6</ele>
        <time>2024-09-15T09:55:02Z</time>
      </trkpt>
      <trkpt lat="47.77324" lon="-2.60001">
        <ele>107.6</ele>
        <time>2024-09-15T09:55:04Z</time>
      </trkpt>
      <trkpt lat="47.77347" lon="-2.59999">
        <ele>107.2</ele>
        <time>2024-09-15T09:55:09Z</time>
      </trkpt>
      <trkpt lat="47.77352" lon="-2.59997">
        <ele>107.2</ele>
        <time>2024-09-15T09:55:10Z</time>
      </trkpt>
      <trkpt lat="47.77373" lon="-2.59997">
        <ele>107.2</ele>
        <time>2024-09-15T09:55:13Z</time>
      </trkpt>
      <trkpt lat="47.7739" lon="-2.59995">
        <ele>106.8</ele>
        <time>2024-09-15T09:55:16Z</time>
      </trkpt>
      <trkpt lat="47.77397" lon="-2.59994">
        <ele>106.6</ele>
        <time>2024-09-15T09:55:17Z</time>
      </trkpt>
      <trkpt lat="47.77404" lon="-2.59994">
        <ele>106.4</ele>
        <time>2024-09-15T09:55:18Z</time>
      </trkpt>
      <trkpt lat="47.7741" lon="-2.59993">
        <ele>106.2</ele>
        <time>2024-09-15T09:55:19Z</time>
      </trkpt>
      <trkpt lat="47.77414" lon="-2.59992">
        <ele>106.2</ele>
        <time>2024-09-15T09:55:20Z</time>
      </trkpt>
      <trkpt lat="47.77419" lon="-2.59992">
        <ele>106</ele>
        <time>2024-09-15T09:55:21Z</time>
      </trkpt>
      <trkpt lat="47.77425" lon="-2.59992">
        <ele>106</ele>
        <time>2024-09-15T09:55:22Z</time>
      </trkpt>
      <trkpt lat="47.77431" lon="-2.59992">
        <ele>106</ele>
        <time>2024-09-15T09:55:23Z</time>
      </trkpt>
      <trkpt lat="47.77435" lon="-2.59991">
        <ele>105.8</ele>
        <time>2024-09-15T09:55:24Z</time>
      </trkpt>
      <trkpt lat="47.7744" lon="-2.5999">
        <ele>105.8</ele>
        <time>2024-09-15T09:55:25Z</time>
      </trkpt>
      <trkpt lat="47.77444" lon="-2.59988">
        <ele>105.6</ele>
        <time>2024-09-15T09:55:26Z</time>
      </trkpt>
      <trkpt lat="47.77453" lon="-2.59985">
        <ele>105.6</ele>
        <time>2024-09-15T09:55:28Z</time>
      </trkpt>
      <trkpt lat="47.77462" lon="-2.59992">
        <ele>105.4</ele>
        <time>2024-09-15T09:55:30Z</time>
      </trkpt>
      <trkpt lat="47.77466" lon="-2.59996">
        <ele>105.4</ele>
        <time>2024-09-15T09:55:31Z</time>
      </trkpt>
      <trkpt lat="47.77469" lon="-2.59999">
        <ele>105.4</ele>
        <time>2024-09-15T09:55:32Z</time>
      </trkpt>
      <trkpt lat="47.77474" lon="-2.60002">
        <ele>105.4</ele>
        <time>2024-09-15T09:55:33Z</time>
      </trkpt>
      <trkpt lat="47.77481" lon="-2.60006">
        <ele>105.4</ele>
        <time>2024-09-15T09:55:34Z</time>
      </trkpt>
      <trkpt lat="47.77495" lon="-2.60009">
        <ele>105.4</ele>
        <time>2024-09-15T09:55:36Z</time>
      </trkpt>
      <trkpt lat="47.77501" lon="-2.60006">
        <ele>105.4</ele>
        <time>2024-09-15T09:55:37Z</time>
      </trkpt>
      <trkpt lat="47.77505" lon="-2.60002">
        <ele>105.4</ele>
        <time>2024-09-15T09:55:38Z</time>
      </trkpt>
      <trkpt lat="47.77511" lon="-2.6">
        <ele>105.4</ele>
        <time>2024-09-15T09:55:39Z</time>
      </trkpt>
      <trkpt lat="47.77518" lon="-2.6">
        <ele>105.4</ele>
        <time>2024-09-15T09:55:40Z</time>
      </trkpt>
      <trkpt lat="47.77526" lon="-2.6">
        <ele>105.4</ele>
        <time>2024-09-15T09:55:41Z</time>
      </trkpt>
      <trkpt lat="47.77532" lon="-2.6">
        <ele>105.2</ele>
        <time>2024-09-15T09:55:42Z</time>
      </trkpt>
      <trkpt lat="47.77537" lon="-2.6">
        <ele>105.2</ele>
        <time>2024-09-15T09:55:43Z</time>
      </trkpt>
      <trkpt lat="47.77542" lon="-2.6">
        <ele>105</ele>
        <time>2024-09-15T09:55:44Z</time>
      </trkpt>
      <trkpt lat="47.77547" lon="-2.60001">
        <ele>105</ele>
        <time>2024-09-15T09:55:45Z</time>
      </trkpt>
      <trkpt lat="47.77551" lon="-2.59999">
        <ele>105</ele>
        <time>2024-09-15T09:55:46Z</time>
      </trkpt>
      <trkpt lat="47.77554" lon="-2.59998">
        <ele>105</ele>
        <time>2024-09-15T09:55:47Z</time>
      </trkpt>
      <trkpt lat="47.77559" lon="-2.59997">
        <ele>105</ele>
        <time>2024-09-15T09:55:48Z</time>
      </trkpt>
      <trkpt lat="47.77564" lon="-2.59998">
        <ele>105</ele>
        <time>2024-09-15T09:55:49Z</time>
      </trkpt>
      <trkpt lat="47.77568" lon="-2.59999">
        <ele>105</ele>
        <time>2024-09-15T09:55:50Z</time>
      </trkpt>
      <trkpt lat="47.77572" lon="-2.59998">
        <ele>105</ele>
        <time>2024-09-15T09:55:51Z</time>
      </trkpt>
      <trkpt lat="47.77578" lon="-2.6">
        <ele>105</ele>
        <time>2024-09-15T09:55:52Z</time>
      </trkpt>
      <trkpt lat="47.77594" lon="-2.60003">
        <ele>105.2</ele>
        <time>2024-09-15T09:55:54Z</time>
      </trkpt>
      <trkpt lat="47.77598" lon="-2.60002">
        <ele>105.2</ele>
        <time>2024-09-15T09:55:55Z</time>
      </trkpt>
      <trkpt lat="47.77601" lon="-2.60001">
        <ele>105.4</ele>
        <time>2024-09-15T09:55:56Z</time>
      </trkpt>
      <trkpt lat="47.77605" lon="-2.60003">
        <ele>105.4</ele>
        <time>2024-09-15T09:55:57Z</time>
      </trkpt>
      <trkpt lat="47.7761" lon="-2.60003">
        <ele>105.4</ele>
        <time>2024-09-15T09:55:58Z</time>
      </trkpt>
      <trkpt lat="47.77617" lon="-2.60004">
        <ele>105.4</ele>
        <time>2024-09-15T09:55:59Z</time>
      </trkpt>
      <trkpt lat="47.77621" lon="-2.60005">
        <ele>105.4</ele>
        <time>2024-09-15T09:56:00Z</time>
      </trkpt>
      <trkpt lat="47.77625" lon="-2.6001">
        <ele>105.4</ele>
        <time>2024-09-15T09:56:01Z</time>
      </trkpt>
      <trkpt lat="47.77633" lon="-2.60014">
        <ele>105.6</ele>
        <time>2024-09-15T09:56:03Z</time>
      </trkpt>
      <trkpt lat="47.77636" lon="-2.60015">
        <ele>105.6</ele>
        <time>2024-09-15T09:56:04Z</time>
      </trkpt>
      <trkpt lat="47.77643" lon="-2.60019">
        <ele>105.8</ele>
        <time>2024-09-15T09:56:06Z</time>
      </trkpt>
      <trkpt lat="47.77652" lon="-2.60019">
        <ele>105.8</ele>
        <time>2024-09-15T09:56:08Z</time>
      </trkpt>
      <trkpt lat="47.77654" lon="-2.60016">
        <ele>105.8</ele>
        <time>2024-09-15T09:56:09Z</time>
      </trkpt>
      <trkpt lat="47.77657" lon="-2.60011">
        <ele>105.8</ele>
        <time>2024-09-15T09:56:10Z</time>
      </trkpt>
      <trkpt lat="47.77664" lon="-2.59999">
        <ele>105.6</ele>
        <time>2024-09-15T09:56:12Z</time>
      </trkpt>
      <trkpt lat="47.77681" lon="-2.59982">
        <ele>105.4</ele>
        <time>2024-09-15T09:56:15Z</time>
      </trkpt>
      <trkpt lat="47.77685" lon="-2.59976">
        <ele>105.4</ele>
        <time>2024-09-15T09:56:16Z</time>
      </trkpt>
      <trkpt lat="47.77689" lon="-2.59971">
        <ele>105.2</ele>
        <time>2024-09-15T09:56:17Z</time>
      </trkpt>
      <trkpt lat="47.77693" lon="-2.59966">
        <ele>105.2</ele>
        <time>2024-09-15T09:56:18Z</time>
      </trkpt>
      <trkpt lat="47.77697" lon="-2.59961">
        <ele>105</ele>
        <time>2024-09-15T09:56:19Z</time>
      </trkpt>
      <trkpt lat="47.77703" lon="-2.59953">
        <ele>105</ele>
        <time>2024-09-15T09:56:20Z</time>
      </trkpt>
      <trkpt lat="47.7771" lon="-2.59942">
        <ele>104.8</ele>
        <time>2024-09-15T09:56:22Z</time>
      </trkpt>
      <trkpt lat="47.77714" lon="-2.59935">
        <ele>104.8</ele>
        <time>2024-09-15T09:56:23Z</time>
      </trkpt>
      <trkpt lat="47.77719" lon="-2.59929">
        <ele>104.4</ele>
        <time>2024-09-15T09:56:24Z</time>
      </trkpt>
      <trkpt lat="47.77727" lon="-2.59917">
        <ele>104</ele>
        <time>2024-09-15T09:56:26Z</time>
      </trkpt>
      <trkpt lat="47.77731" lon="-2.59909">
        <ele>104</ele>
        <time>2024-09-15T09:56:27Z</time>
      </trkpt>
      <trkpt lat="47.77741" lon="-2.59895">
        <ele>103.8</ele>
        <time>2024-09-15T09:56:29Z</time>
      </trkpt>
      <trkpt lat="47.77746" lon="-2.59888">
        <ele>103.8</ele>
        <time>2024-09-15T09:56:30Z</time>
      </trkpt>
      <trkpt lat="47.77751" lon="-2.59882">
        <ele>103.6</ele>
        <time>2024-09-15T09:56:31Z</time>
      </trkpt>
      <trkpt lat="47.77754" lon="-2.59877">
        <ele>103.6</ele>
        <time>2024-09-15T09:56:32Z</time>
      </trkpt>
      <trkpt lat="47.77757" lon="-2.59872">
        <ele>103.6</ele>
        <time>2024-09-15T09:56:33Z</time>
      </trkpt>
      <trkpt lat="47.77761" lon="-2.59865">
        <ele>103.6</ele>
        <time>2024-09-15T09:56:34Z</time>
      </trkpt>
      <trkpt lat="47.7778" lon="-2.59848">
        <ele>103.4</ele>
        <time>2024-09-15T09:56:38Z</time>
      </trkpt>
      <trkpt lat="47.77785" lon="-2.5984">
        <ele>103.4</ele>
        <time>2024-09-15T09:56:39Z</time>
      </trkpt>
      <trkpt lat="47.7779" lon="-2.5983">
        <ele>103.4</ele>
        <time>2024-09-15T09:56:40Z</time>
      </trkpt>
      <trkpt lat="47.77793" lon="-2.59822">
        <ele>103.2</ele>
        <time>2024-09-15T09:56:41Z</time>
      </trkpt>
      <trkpt lat="47.77797" lon="-2.59814">
        <ele>103.2</ele>
        <time>2024-09-15T09:56:42Z</time>
      </trkpt>
      <trkpt lat="47.77798" lon="-2.59808">
        <ele>103.2</ele>
        <time>2024-09-15T09:56:43Z</time>
      </trkpt>
      <trkpt lat="47.77804" lon="-2.59797">
        <ele>103.2</ele>
        <time>2024-09-15T09:56:45Z</time>
      </trkpt>
      <trkpt lat="47.77805" lon="-2.59792">
        <ele>103</ele>
        <time>2024-09-15T09:56:46Z</time>
      </trkpt>
      <trkpt lat="47.77808" lon="-2.59786">
        <ele>103</ele>
        <time>2024-09-15T09:56:47Z</time>
      </trkpt>
      <trkpt lat="47.77819" lon="-2.59762">
        <ele>102.8</ele>
        <time>2024-09-15T09:56:50Z</time>
      </trkpt>
      <trkpt lat="47.77822" lon="-2.59758">
        <ele>102.8</ele>
        <time>2024-09-15T09:56:51Z</time>
      </trkpt>
      <trkpt lat="47.77825" lon="-2.59754">
        <ele>102.8</ele>
        <time>2024-09-15T09:56:52Z</time>
      </trkpt>
      <trkpt lat="47.77829" lon="-2.59749">
        <ele>102.6</ele>
        <time>2024-09-15T09:56:53Z</time>
      </trkpt>
      <trkpt lat="47.77834" lon="-2.5974">
        <ele>102.6</ele>
        <time>2024-09-15T09:56:54Z</time>
      </trkpt>
      <trkpt lat="47.77839" lon="-2.59736">
        <ele>102.4</ele>
        <time>2024-09-15T09:56:55Z</time>
      </trkpt>
      <trkpt lat="47.77844" lon="-2.59733">
        <ele>102.4</ele>
        <time>2024-09-15T09:56:56Z</time>
      </trkpt>
      <trkpt lat="47.7785" lon="-2.5973">
        <ele>102.2</ele>
        <time>2024-09-15T09:56:57Z</time>
      </trkpt>
      <trkpt lat="47.77854" lon="-2.59725">
        <ele>102.2</ele>
        <time>2024-09-15T09:56:58Z</time>
      </trkpt>
      <trkpt lat="47.77859" lon="-2.5972">
        <ele>102.2</ele>
        <time>2024-09-15T09:56:59Z</time>
      </trkpt>
      <trkpt lat="47.7786" lon="-2.59718">
        <ele>102.2</ele>
        <time>2024-09-15T09:57:01Z</time>
      </trkpt>
      <trkpt lat="47.77862" lon="-2.59716">
        <ele>102</ele>
        <time>2024-09-15T09:57:02Z</time>
      </trkpt>
      <trkpt lat="47.77864" lon="-2.59716">
        <ele>102</ele>
        <time>2024-09-15T09:57:03Z</time>
      </trkpt>
      <trkpt lat="47.77864" lon="-2.59715">
        <ele>102</ele>
        <time>2024-09-15T09:57:04Z</time>
      </trkpt>
      <trkpt lat="47.77865" lon="-2.59715">
        <ele>101.8</ele>
        <time>2024-09-15T09:57:06Z</time>
      </trkpt>
      <trkpt lat="47.77865" lon="-2.59715">
        <ele>101.8</ele>
        <time>2024-09-15T09:57:07Z</time>
      </trkpt>
      <trkpt lat="47.77866" lon="-2.59713">
        <ele>101.8</ele>
        <time>2024-09-15T09:57:08Z</time>
      </trkpt>
      <trkpt lat="47.77867" lon="-2.59712">
        <ele>101.8</ele>
        <time>2024-09-15T09:57:09Z</time>
      </trkpt>
      <trkpt lat="47.77867" lon="-2.59712">
        <ele>101.6</ele>
        <time>2024-09-15T09:57:10Z</time>
      </trkpt>
      <trkpt lat="47.77867" lon="-2.59712">
        <ele>101.6</ele>
        <time>2024-09-15T09:57:11Z</time>
      </trkpt>
      <trkpt lat="47.77867" lon="-2.59712">
        <ele>101.6</ele>
        <time>2024-09-15T09:57:12Z</time>
      </trkpt>
      <trkpt lat="47.77867" lon="-2.59712">
        <ele>101.6</ele>
        <time>2024-09-15T09:57:13Z</time>
      </trkpt>
      <trkpt lat="47.7787" lon="-2.59708">
        <ele>101.6</ele>
        <time>2024-09-15T09:57:15Z</time>
      </trkpt>
      <trkpt lat="47.77875" lon="-2.59703">
        <ele>101.4</ele>
        <time>2024-09-15T09:57:17Z</time>
      </trkpt>
      <trkpt lat="47.7788" lon="-2.59699">
        <ele>101.4</ele>
        <time>2024-09-15T09:57:18Z</time>
      </trkpt>
      <trkpt lat="47.77884" lon="-2.59694">
        <ele>101.4</ele>
        <time>2024-09-15T09:57:19Z</time>
      </trkpt>
      <trkpt lat="47.77893" lon="-2.59679">
        <ele>101.4</ele>
        <time>2024-09-15T09:57:22Z</time>
      </trkpt>
      <trkpt lat="47.77899" lon="-2.59672">
        <ele>101.4</ele>
        <time>2024-09-15T09:57:24Z</time>
      </trkpt>
      <trkpt lat="47.77902" lon="-2.59666">
        <ele>101.4</ele>
        <time>2024-09-15T09:57:25Z</time>
      </trkpt>
      <trkpt lat="47.77906" lon="-2.5966">
        <ele>101.4</ele>
        <time>2024-09-15T09:57:26Z</time>
      </trkpt>
      <trkpt lat="47.7791" lon="-2.59654">
        <ele>101.4</ele>
        <time>2024-09-15T09:57:27Z</time>
      </trkpt>
      <trkpt lat="47.77918" lon="-2.59643">
        <ele>101.4</ele>
        <time>2024-09-15T09:57:29Z</time>
      </trkpt>
      <trkpt lat="47.77924" lon="-2.59636">
        <ele>101.4</ele>
        <time>2024-09-15T09:57:30Z</time>
      </trkpt>
      <trkpt lat="47.7793" lon="-2.59629">
        <ele>101.4</ele>
        <time>2024-09-15T09:57:31Z</time>
      </trkpt>
      <trkpt lat="47.77937" lon="-2.59622">
        <ele>101.4</ele>
        <time>2024-09-15T09:57:32Z</time>
      </trkpt>
      <trkpt lat="47.7794" lon="-2.59618">
        <ele>101.4</ele>
        <time>2024-09-15T09:57:33Z</time>
      </trkpt>
      <trkpt lat="47.77941" lon="-2.59615">
        <ele>101.4</ele>
        <time>2024-09-15T09:57:34Z</time>
      </trkpt>
      <trkpt lat="47.77943" lon="-2.59611">
        <ele>101.4</ele>
        <time>2024-09-15T09:57:35Z</time>
      </trkpt>
      <trkpt lat="47.77946" lon="-2.59606">
        <ele>101.4</ele>
        <time>2024-09-15T09:57:36Z</time>
      </trkpt>
      <trkpt lat="47.77957" lon="-2.5959">
        <ele>101.4</ele>
        <time>2024-09-15T09:57:39Z</time>
      </trkpt>
      <trkpt lat="47.77958" lon="-2.59583">
        <ele>101.4</ele>
        <time>2024-09-15T09:57:40Z</time>
      </trkpt>
      <trkpt lat="47.77961" lon="-2.59575">
        <ele>101.4</ele>
        <time>2024-09-15T09:57:42Z</time>
      </trkpt>
      <trkpt lat="47.77968" lon="-2.59558">
        <ele>101.6</ele>
        <time>2024-09-15T09:57:45Z</time>
      </trkpt>
      <trkpt lat="47.77971" lon="-2.5955">
        <ele>101.6</ele>
        <time>2024-09-15T09:57:46Z</time>
      </trkpt>
      <trkpt lat="47.77973" lon="-2.59547">
        <ele>101.6</ele>
        <time>2024-09-15T09:57:47Z</time>
      </trkpt>
      <trkpt lat="47.77975" lon="-2.59544">
        <ele>101.6</ele>
        <time>2024-09-15T09:57:48Z</time>
      </trkpt>
      <trkpt lat="47.77976" lon="-2.59542">
        <ele>101.6</ele>
        <time>2024-09-15T09:57:49Z</time>
      </trkpt>
      <trkpt lat="47.77977" lon="-2.59541">
        <ele>101.6</ele>
        <time>2024-09-15T09:57:50Z</time>
      </trkpt>
      <trkpt lat="47.77978" lon="-2.59539">
        <ele>101.6</ele>
        <time>2024-09-15T09:57:51Z</time>
      </trkpt>
      <trkpt lat="47.77978" lon="-2.59538">
        <ele>101.6</ele>
        <time>2024-09-15T09:57:52Z</time>
      </trkpt>
      <trkpt lat="47.77979" lon="-2.59538">
        <ele>101.6</ele>
        <time>2024-09-15T09:57:53Z</time>
      </trkpt>
      <trkpt lat="47.7798" lon="-2.59536">
        <ele>101.8</ele>
        <time>2024-09-15T09:57:54Z</time>
      </trkpt>
      <trkpt lat="47.77981" lon="-2.59533">
        <ele>101.8</ele>
        <time>2024-09-15T09:57:55Z</time>
      </trkpt>
      <trkpt lat="47.77983" lon="-2.5953">
        <ele>101.8</ele>
        <time>2024-09-15T09:57:56Z</time>
      </trkpt>
      <trkpt lat="47.77985" lon="-2.59528">
        <ele>102</ele>
        <time>2024-09-15T09:57:57Z</time>
      </trkpt>
      <trkpt lat="47.77987" lon="-2.59525">
        <ele>102</ele>
        <time>2024-09-15T09:57:58Z</time>
      </trkpt>
      <trkpt lat="47.7799" lon="-2.59523">
        <ele>102</ele>
        <time>2024-09-15T09:57:59Z</time>
      </trkpt>
      <trkpt lat="47.77997" lon="-2.59513">
        <ele>102</ele>
        <time>2024-09-15T09:58:02Z</time>
      </trkpt>
      <trkpt lat="47.78" lon="-2.59507">
        <ele>102</ele>
        <time>2024-09-15T09:58:04Z</time>
      </trkpt>
      <trkpt lat="47.78001" lon="-2.59504">
        <ele>102</ele>
        <time>2024-09-15T09:58:05Z</time>
      </trkpt>
      <trkpt lat="47.78002" lon="-2.59502">
        <ele>102.2</ele>
        <time>2024-09-15T09:58:06Z</time>
      </trkpt>
      <trkpt lat="47.78002" lon="-2.59501">
        <ele>102.2</ele>
        <time>2024-09-15T09:58:07Z</time>
      </trkpt>
      <trkpt lat="47.78003" lon="-2.59501">
        <ele>102.2</ele>
        <time>2024-09-15T09:58:08Z</time>
      </trkpt>
      <trkpt lat="47.78003" lon="-2.59501">
        <ele>102.2</ele>
        <time>2024-09-15T09:58:09Z</time>
      </trkpt>
      <trkpt lat="47.78003" lon="-2.59501">
        <ele>102.2</ele>
        <time>2024-09-15T09:58:10Z</time>
      </trkpt>
      <trkpt lat="47.78003" lon="-2.59501">
        <ele>102.2</ele>
        <time>2024-09-15T09:58:11Z</time>
      </trkpt>
      <trkpt lat="47.78003" lon="-2.59502">
        <ele>102.2</ele>
        <time>2024-09-15T09:58:12Z</time>
      </trkpt>
      <trkpt lat="47.78005" lon="-2.59502">
        <ele>102.4</ele>
        <time>2024-09-15T09:58:15Z</time>
      </trkpt>
      <trkpt lat="47.78006" lon="-2.59501">
        <ele>102.4</ele>
        <time>2024-09-15T09:58:16Z</time>
      </trkpt>
      <trkpt lat="47.78006" lon="-2.59498">
        <ele>102.6</ele>
        <time>2024-09-15T09:58:17Z</time>
      </trkpt>
      <trkpt lat="47.78007" lon="-2.59498">
        <ele>102.6</ele>
        <time>2024-09-15T09:58:18Z</time>
      </trkpt>
      <trkpt lat="47.78007" lon="-2.59497">
        <ele>102.6</ele>
        <time>2024-09-15T09:58:19Z</time>
      </trkpt>
      <trkpt lat="47.78008" lon="-2.59489">
        <ele>102.8</ele>
        <time>2024-09-15T09:58:23Z</time>
      </trkpt>
      <trkpt lat="47.78012" lon="-2.59484">
        <ele>102.8</ele>
        <time>2024-09-15T09:58:26Z</time>
      </trkpt>
      <trkpt lat="47.78015" lon="-2.59481">
        <ele>102.8</ele>
        <time>2024-09-15T09:58:27Z</time>
      </trkpt>
      <trkpt lat="47.78018" lon="-2.59474">
        <ele>102.8</ele>
        <time>2024-09-15T09:58:28Z</time>
      </trkpt>
      <trkpt lat="47.78029" lon="-2.59463">
        <ele>102.6</ele>
        <time>2024-09-15T09:58:31Z</time>
      </trkpt>
      <trkpt lat="47.78031" lon="-2.59463">
        <ele>102.6</ele>
        <time>2024-09-15T09:58:32Z</time>
      </trkpt>
      <trkpt lat="47.78036" lon="-2.59462">
        <ele>102.6</ele>
        <time>2024-09-15T09:58:34Z</time>
      </trkpt>
      <trkpt lat="47.78039" lon="-2.59463">
        <ele>102.6</ele>
        <time>2024-09-15T09:58:35Z</time>
      </trkpt>
      <trkpt lat="47.78042" lon="-2.59466">
        <ele>102.8</ele>
        <time>2024-09-15T09:58:36Z</time>
      </trkpt>
      <trkpt lat="47.78045" lon="-2.59468">
        <ele>102.8</ele>
        <time>2024-09-15T09:58:37Z</time>
      </trkpt>
      <trkpt lat="47.78046" lon="-2.59471">
        <ele>102.8</ele>
        <time>2024-09-15T09:58:38Z</time>
      </trkpt>
      <trkpt lat="47.78047" lon="-2.59475">
        <ele>103</ele>
        <time>2024-09-15T09:58:39Z</time>
      </trkpt>
      <trkpt lat="47.78047" lon="-2.59481">
        <ele>103</ele>
        <time>2024-09-15T09:58:41Z</time>
      </trkpt>
      <trkpt lat="47.78048" lon="-2.59487">
        <ele>103</ele>
        <time>2024-09-15T09:58:42Z</time>
      </trkpt>
      <trkpt lat="47.78049" lon="-2.59498">
        <ele>103</ele>
        <time>2024-09-15T09:58:44Z</time>
      </trkpt>
      <trkpt lat="47.78049" lon="-2.59502">
        <ele>103.2</ele>
        <time>2024-09-15T09:58:45Z</time>
      </trkpt>
      <trkpt lat="47.7805" lon="-2.59506">
        <ele>103.2</ele>
        <time>2024-09-15T09:58:46Z</time>
      </trkpt>
      <trkpt lat="47.78049" lon="-2.5951">
        <ele>103.2</ele>
        <time>2024-09-15T09:58:47Z</time>
      </trkpt>
      <trkpt lat="47.78049" lon="-2.59519">
        <ele>103</ele>
        <time>2024-09-15T09:58:49Z</time>
      </trkpt>
      <trkpt lat="47.78047" lon="-2.59525">
        <ele>103</ele>
        <time>2024-09-15T09:58:50Z</time>
      </trkpt>
      <trkpt lat="47.78045" lon="-2.59533">
        <ele>103</ele>
        <time>2024-09-15T09:58:51Z</time>
      </trkpt>
      <trkpt lat="47.78044" lon="-2.59539">
        <ele>102.8</ele>
        <time>2024-09-15T09:58:52Z</time>
      </trkpt>
      <trkpt lat="47.78044" lon="-2.59545">
        <ele>102.6</ele>
        <time>2024-09-15T09:58:53Z</time>
      </trkpt>
      <trkpt lat="47.78046" lon="-2.59551">
        <ele>102.4</ele>
        <time>2024-09-15T09:58:54Z</time>
      </trkpt>
      <trkpt lat="47.78049" lon="-2.59565">
        <ele>102.2</ele>
        <time>2024-09-15T09:58:56Z</time>
      </trkpt>
      <trkpt lat="47.78049" lon="-2.59572">
        <ele>102</ele>
        <time>2024-09-15T09:58:57Z</time>
      </trkpt>
      <trkpt lat="47.7805" lon="-2.59579">
        <ele>102</ele>
        <time>2024-09-15T09:58:58Z</time>
      </trkpt>
      <trkpt lat="47.78052" lon="-2.59586">
        <ele>102</ele>
        <time>2024-09-15T09:58:59Z</time>
      </trkpt>
      <trkpt lat="47.78054" lon="-2.59592">
        <ele>101.8</ele>
        <time>2024-09-15T09:59:00Z</time>
      </trkpt>
      <trkpt lat="47.78055" lon="-2.59597">
        <ele>101.8</ele>
        <time>2024-09-15T09:59:01Z</time>
      </trkpt>
      <trkpt lat="47.78058" lon="-2.59602">
        <ele>101.6</ele>
        <time>2024-09-15T09:59:02Z</time>
      </trkpt>
      <trkpt lat="47.78059" lon="-2.59608">
        <ele>101.6</ele>
        <time>2024-09-15T09:59:03Z</time>
      </trkpt>
      <trkpt lat="47.78058" lon="-2.59614">
        <ele>101.4</ele>
        <time>2024-09-15T09:59:04Z</time>
      </trkpt>
      <trkpt lat="47.78061" lon="-2.5962">
        <ele>101.2</ele>
        <time>2024-09-15T09:59:05Z</time>
      </trkpt>
      <trkpt lat="47.78063" lon="-2.59626">
        <ele>101</ele>
        <time>2024-09-15T09:59:06Z</time>
      </trkpt>
      <trkpt lat="47.78065" lon="-2.5963">
        <ele>100.8</ele>
        <time>2024-09-15T09:59:07Z</time>
      </trkpt>
      <trkpt lat="47.78067" lon="-2.59632">
        <ele>100.8</ele>
        <time>2024-09-15T09:59:08Z</time>
      </trkpt>
      <trkpt lat="47.7807" lon="-2.59634">
        <ele>100.8</ele>
        <time>2024-09-15T09:59:09Z</time>
      </trkpt>
      <trkpt lat="47.78073" lon="-2.59637">
        <ele>100.6</ele>
        <time>2024-09-15T09:59:10Z</time>
      </trkpt>
      <trkpt lat="47.78079" lon="-2.59644">
        <ele>100.6</ele>
        <time>2024-09-15T09:59:12Z</time>
      </trkpt>
      <trkpt lat="47.78086" lon="-2.59651">
        <ele>100.4</ele>
        <time>2024-09-15T09:59:14Z</time>
      </trkpt>
      <trkpt lat="47.78089" lon="-2.59654">
        <ele>100.2</ele>
        <time>2024-09-15T09:59:15Z</time>
      </trkpt>
      <trkpt lat="47.78093" lon="-2.59657">
        <ele>100.2</ele>
        <time>2024-09-15T09:59:16Z</time>
      </trkpt>
      <trkpt lat="47.78098" lon="-2.59663">
        <ele>100</ele>
        <time>2024-09-15T09:59:18Z</time>
      </trkpt>
      <trkpt lat="47.781" lon="-2.59664">
        <ele>100</ele>
        <time>2024-09-15T09:59:19Z</time>
      </trkpt>
      <trkpt lat="47.78102" lon="-2.59667">
        <ele>99.8</ele>
        <time>2024-09-15T09:59:20Z</time>
      </trkpt>
      <trkpt lat="47.78103" lon="-2.5967">
        <ele>99.4</ele>
        <time>2024-09-15T09:59:21Z</time>
      </trkpt>
      <trkpt lat="47.78102" lon="-2.5967">
        <ele>99.2</ele>
        <time>2024-09-15T09:59:22Z</time>
      </trkpt>
      <trkpt lat="47.78102" lon="-2.59671">
        <ele>99</ele>
        <time>2024-09-15T09:59:23Z</time>
      </trkpt>
      <trkpt lat="47.78102" lon="-2.59671">
        <ele>98.8</ele>
        <time>2024-09-15T09:59:24Z</time>
      </trkpt>
      <trkpt lat="47.78104" lon="-2.5967">
        <ele>98.4</ele>
        <time>2024-09-15T09:59:30Z</time>
      </trkpt>
      <trkpt lat="47.78105" lon="-2.59669">
        <ele>98.4</ele>
        <time>2024-09-15T09:59:31Z</time>
      </trkpt>
      <trkpt lat="47.7811" lon="-2.59666">
        <ele>98.2</ele>
        <time>2024-09-15T09:59:33Z</time>
      </trkpt>
      <trkpt lat="47.78115" lon="-2.59663">
        <ele>98.2</ele>
        <time>2024-09-15T09:59:35Z</time>
      </trkpt>
      <trkpt lat="47.78124" lon="-2.59656">
        <ele>98.2</ele>
        <time>2024-09-15T09:59:38Z</time>
      </trkpt>
      <trkpt lat="47.78136" lon="-2.59647">
        <ele>98</ele>
        <time>2024-09-15T09:59:42Z</time>
      </trkpt>
      <trkpt lat="47.78139" lon="-2.59644">
        <ele>98</ele>
        <time>2024-09-15T09:59:43Z</time>
      </trkpt>
      <trkpt lat="47.78142" lon="-2.59641">
        <ele>98</ele>
        <time>2024-09-15T09:59:44Z</time>
      </trkpt>
      <trkpt lat="47.78145" lon="-2.59638">
        <ele>98</ele>
        <time>2024-09-15T09:59:45Z</time>
      </trkpt>
      <trkpt lat="47.78154" lon="-2.59628">
        <ele>97.4</ele>
        <time>2024-09-15T09:59:48Z</time>
      </trkpt>
      <trkpt lat="47.78157" lon="-2.59626">
        <ele>97.4</ele>
        <time>2024-09-15T09:59:49Z</time>
      </trkpt>
      <trkpt lat="47.78166" lon="-2.59618">
        <ele>97.2</ele>
        <time>2024-09-15T09:59:52Z</time>
      </trkpt>
      <trkpt lat="47.78175" lon="-2.5961">
        <ele>97</ele>
        <time>2024-09-15T09:59:55Z</time>
      </trkpt>
      <trkpt lat="47.78186" lon="-2.596">
        <ele>96.8</ele>
        <time>2024-09-15T09:59:58Z</time>
      </trkpt>
      <trkpt lat="47.78188" lon="-2.59596">
        <ele>96.8</ele>
        <time>2024-09-15T09:59:59Z</time>
      </trkpt>
      <trkpt lat="47.7819" lon="-2.59594">
        <ele>96.8</ele>
        <time>2024-09-15T10:00:00Z</time>
      </trkpt>
      <trkpt lat="47.78192" lon="-2.59591">
        <ele>96.8</ele>
        <time>2024-09-15T10:00:01Z</time>
      </trkpt>
      <trkpt lat="47.78194" lon="-2.59589">
        <ele>96.8</ele>
        <time>2024-09-15T10:00:02Z</time>
      </trkpt>
      <trkpt lat="47.782" lon="-2.59579">
        <ele>96.6</ele>
        <time>2024-09-15T10:00:05Z</time>
      </trkpt>
      <trkpt lat="47.78201" lon="-2.59579">
        <ele>96.6</ele>
        <time>2024-09-15T10:00:06Z</time>
      </trkpt>
      <trkpt lat="47.78202" lon="-2.59579">
        <ele>96.6</ele>
        <time>2024-09-15T10:00:07Z</time>
      </trkpt>
      <trkpt lat="47.78203" lon="-2.59578">
        <ele>96.6</ele>
        <time>2024-09-15T10:00:08Z</time>
      </trkpt>
      <trkpt lat="47.78203" lon="-2.59577">
        <ele>96.6</ele>
        <time>2024-09-15T10:00:09Z</time>
      </trkpt>
      <trkpt lat="47.78203" lon="-2.59577">
        <ele>96.8</ele>
        <time>2024-09-15T10:00:10Z</time>
      </trkpt>
      <trkpt lat="47.78203" lon="-2.59576">
        <ele>96.8</ele>
        <time>2024-09-15T10:00:11Z</time>
      </trkpt>
      <trkpt lat="47.78204" lon="-2.59575">
        <ele>96.6</ele>
        <time>2024-09-15T10:00:15Z</time>
      </trkpt>
      <trkpt lat="47.78209" lon="-2.59572">
        <ele>96.6</ele>
        <time>2024-09-15T10:00:19Z</time>
      </trkpt>
      <trkpt lat="47.78212" lon="-2.59572">
        <ele>96.8</ele>
        <time>2024-09-15T10:00:20Z</time>
      </trkpt>
      <trkpt lat="47.78215" lon="-2.5957">
        <ele>96.6</ele>
        <time>2024-09-15T10:00:21Z</time>
      </trkpt>
      <trkpt lat="47.78218" lon="-2.59569">
        <ele>96.6</ele>
        <time>2024-09-15T10:00:22Z</time>
      </trkpt>
      <trkpt lat="47.78221" lon="-2.59568">
        <ele>96.6</ele>
        <time>2024-09-15T10:00:23Z</time>
      </trkpt>
      <trkpt lat="47.78224" lon="-2.59569">
        <ele>96.6</ele>
        <time>2024-09-15T10:00:24Z</time>
      </trkpt>
      <trkpt lat="47.78234" lon="-2.59578">
        <ele>96.2</ele>
        <time>2024-09-15T10:00:27Z</time>
      </trkpt>
      <trkpt lat="47.7824" lon="-2.59583">
        <ele>95.6</ele>
        <time>2024-09-15T10:00:28Z</time>
      </trkpt>
      <trkpt lat="47.78244" lon="-2.5959">
        <ele>95.4</ele>
        <time>2024-09-15T10:00:29Z</time>
      </trkpt>
      <trkpt lat="47.7825" lon="-2.59608">
        <ele>94.8</ele>
        <time>2024-09-15T10:00:31Z</time>
      </trkpt>
      <trkpt lat="47.78253" lon="-2.59617">
        <ele>94.4</ele>
        <time>2024-09-15T10:00:32Z</time>
      </trkpt>
      <trkpt lat="47.78257" lon="-2.59624">
        <ele>94.2</ele>
        <time>2024-09-15T10:00:33Z</time>
      </trkpt>
      <trkpt lat="47.78261" lon="-2.5963">
        <ele>94</ele>
        <time>2024-09-15T10:00:34Z</time>
      </trkpt>
      <trkpt lat="47.78267" lon="-2.59633">
        <ele>94</ele>
        <time>2024-09-15T10:00:35Z</time>
      </trkpt>
      <trkpt lat="47.78271" lon="-2.59634">
        <ele>93.8</ele>
        <time>2024-09-15T10:00:36Z</time>
      </trkpt>
      <trkpt lat="47.78276" lon="-2.59633">
        <ele>93.4</ele>
        <time>2024-09-15T10:00:37Z</time>
      </trkpt>
      <trkpt lat="47.78282" lon="-2.5963">
        <ele>93.4</ele>
        <time>2024-09-15T10:00:38Z</time>
      </trkpt>
      <trkpt lat="47.78289" lon="-2.59628">
        <ele>93.2</ele>
        <time>2024-09-15T10:00:39Z</time>
      </trkpt>
      <trkpt lat="47.78293" lon="-2.59626">
        <ele>93.2</ele>
        <time>2024-09-15T10:00:40Z</time>
      </trkpt>
      <trkpt lat="47.78299" lon="-2.59623">
        <ele>93</ele>
        <time>2024-09-15T10:00:41Z</time>
      </trkpt>
      <trkpt lat="47.78313" lon="-2.5962">
        <ele>93</ele>
        <time>2024-09-15T10:00:44Z</time>
      </trkpt>
      <trkpt lat="47.78319" lon="-2.59619">
        <ele>93</ele>
        <time>2024-09-15T10:00:45Z</time>
      </trkpt>
      <trkpt lat="47.78325" lon="-2.59617">
        <ele>93</ele>
        <time>2024-09-15T10:00:46Z</time>
      </trkpt>
      <trkpt lat="47.7833" lon="-2.59615">
        <ele>93</ele>
        <time>2024-09-15T10:00:47Z</time>
      </trkpt>
      <trkpt lat="47.78333" lon="-2.59612">
        <ele>93</ele>
        <time>2024-09-15T10:00:48Z</time>
      </trkpt>
      <trkpt lat="47.78337" lon="-2.5961">
        <ele>93</ele>
        <time>2024-09-15T10:00:49Z</time>
      </trkpt>
      <trkpt lat="47.78342" lon="-2.59608">
        <ele>93</ele>
        <time>2024-09-15T10:00:50Z</time>
      </trkpt>
      <trkpt lat="47.78347" lon="-2.59606">
        <ele>92.8</ele>
        <time>2024-09-15T10:00:51Z</time>
      </trkpt>
      <trkpt lat="47.78376" lon="-2.59596">
        <ele>93</ele>
        <time>2024-09-15T10:00:58Z</time>
      </trkpt>
      <trkpt lat="47.78384" lon="-2.59595">
        <ele>93</ele>
        <time>2024-09-15T10:01:00Z</time>
      </trkpt>
      <trkpt lat="47.78393" lon="-2.59592">
        <ele>93</ele>
        <time>2024-09-15T10:01:02Z</time>
      </trkpt>
      <trkpt lat="47.78402" lon="-2.59588">
        <ele>93.2</ele>
        <time>2024-09-15T10:01:04Z</time>
      </trkpt>
      <trkpt lat="47.78405" lon="-2.59585">
        <ele>93</ele>
        <time>2024-09-15T10:01:05Z</time>
      </trkpt>
      <trkpt lat="47.78408" lon="-2.5958">
        <ele>93</ele>
        <time>2024-09-15T10:01:06Z</time>
      </trkpt>
      <trkpt lat="47.78409" lon="-2.59576">
        <ele>93</ele>
        <time>2024-09-15T10:01:07Z</time>
      </trkpt>
      <trkpt lat="47.78411" lon="-2.5957">
        <ele>93</ele>
        <time>2024-09-15T10:01:08Z</time>
      </trkpt>
      <trkpt lat="47.78413" lon="-2.59564">
        <ele>93</ele>
        <time>2024-09-15T10:01:09Z</time>
      </trkpt>
      <trkpt lat="47.78415" lon="-2.59558">
        <ele>93</ele>
        <time>2024-09-15T10:01:10Z</time>
      </trkpt>
      <trkpt lat="47.78418" lon="-2.59546">
        <ele>92.8</ele>
        <time>2024-09-15T10:01:12Z</time>
      </trkpt>
      <trkpt lat="47.7842" lon="-2.5954">
        <ele>92.8</ele>
        <time>2024-09-15T10:01:13Z</time>
      </trkpt>
      <trkpt lat="47.78422" lon="-2.59534">
        <ele>92.8</ele>
        <time>2024-09-15T10:01:14Z</time>
      </trkpt>
      <trkpt lat="47.78424" lon="-2.59528">
        <ele>92.8</ele>
        <time>2024-09-15T10:01:15Z</time>
      </trkpt>
      <trkpt lat="47.78424" lon="-2.59522">
        <ele>92.8</ele>
        <time>2024-09-15T10:01:16Z</time>
      </trkpt>
      <trkpt lat="47.78424" lon="-2.59517">
        <ele>92.6</ele>
        <time>2024-09-15T10:01:17Z</time>
      </trkpt>
      <trkpt lat="47.78424" lon="-2.59504">
        <ele>92.6</ele>
        <time>2024-09-15T10:01:19Z</time>
      </trkpt>
      <trkpt lat="47.78423" lon="-2.59484">
        <ele>92.6</ele>
        <time>2024-09-15T10:01:22Z</time>
      </trkpt>
      <trkpt lat="47.78423" lon="-2.59478">
        <ele>92.8</ele>
        <time>2024-09-15T10:01:23Z</time>
      </trkpt>
      <trkpt lat="47.78422" lon="-2.59447">
        <ele>92.8</ele>
        <time>2024-09-15T10:01:28Z</time>
      </trkpt>
      <trkpt lat="47.78422" lon="-2.59435">
        <ele>92.8</ele>
        <time>2024-09-15T10:01:30Z</time>
      </trkpt>
      <trkpt lat="47.78422" lon="-2.59422">
        <ele>92.8</ele>
        <time>2024-09-15T10:01:32Z</time>
      </trkpt>
      <trkpt lat="47.78422" lon="-2.59408">
        <ele>92.8</ele>
        <time>2024-09-15T10:01:34Z</time>
      </trkpt>
      <trkpt lat="47.78423" lon="-2.59402">
        <ele>92.8</ele>
        <time>2024-09-15T10:01:35Z</time>
      </trkpt>
      <trkpt lat="47.78424" lon="-2.59397">
        <ele>92.6</ele>
        <time>2024-09-15T10:01:36Z</time>
      </trkpt>
      <trkpt lat="47.78425" lon="-2.59383">
        <ele>92.6</ele>
        <time>2024-09-15T10:01:38Z</time>
      </trkpt>
      <trkpt lat="47.78426" lon="-2.59377">
        <ele>92.4</ele>
        <time>2024-09-15T10:01:39Z</time>
      </trkpt>
      <trkpt lat="47.78428" lon="-2.59372">
        <ele>92.4</ele>
        <time>2024-09-15T10:01:40Z</time>
      </trkpt>
      <trkpt lat="47.78428" lon="-2.59366">
        <ele>92</ele>
        <time>2024-09-15T10:01:41Z</time>
      </trkpt>
      <trkpt lat="47.78429" lon="-2.59361">
        <ele>91.8</ele>
        <time>2024-09-15T10:01:42Z</time>
      </trkpt>
      <trkpt lat="47.78429" lon="-2.59355">
        <ele>91.6</ele>
        <time>2024-09-15T10:01:43Z</time>
      </trkpt>
      <trkpt lat="47.78429" lon="-2.59348">
        <ele>91.4</ele>
        <time>2024-09-15T10:01:44Z</time>
      </trkpt>
      <trkpt lat="47.78428" lon="-2.59341">
        <ele>91.4</ele>
        <time>2024-09-15T10:01:45Z</time>
      </trkpt>
      <trkpt lat="47.78429" lon="-2.59334">
        <ele>91.4</ele>
        <time>2024-09-15T10:01:46Z</time>
      </trkpt>
      <trkpt lat="47.7843" lon="-2.59329">
        <ele>91.2</ele>
        <time>2024-09-15T10:01:47Z</time>
      </trkpt>
      <trkpt lat="47.78432" lon="-2.59324">
        <ele>91</ele>
        <time>2024-09-15T10:01:48Z</time>
      </trkpt>
      <trkpt lat="47.78434" lon="-2.59318">
        <ele>90.8</ele>
        <time>2024-09-15T10:01:49Z</time>
      </trkpt>
      <trkpt lat="47.78435" lon="-2.59315">
        <ele>90.8</ele>
        <time>2024-09-15T10:01:50Z</time>
      </trkpt>
      <trkpt lat="47.78436" lon="-2.59313">
        <ele>90.6</ele>
        <time>2024-09-15T10:01:51Z</time>
      </trkpt>
      <trkpt lat="47.78437" lon="-2.59311">
        <ele>90.6</ele>
        <time>2024-09-15T10:01:52Z</time>
      </trkpt>
      <trkpt lat="47.78437" lon="-2.5931">
        <ele>90.6</ele>
        <time>2024-09-15T10:01:53Z</time>
      </trkpt>
      <trkpt lat="47.78437" lon="-2.5931">
        <ele>90.6</ele>
        <time>2024-09-15T10:01:54Z</time>
      </trkpt>
      <trkpt lat="47.78437" lon="-2.59309">
        <ele>90.6</ele>
        <time>2024-09-15T10:05:15Z</time>
      </trkpt>
      <trkpt lat="47.78438" lon="-2.59304">
        <ele>90.6</ele>
        <time>2024-09-15T10:05:18Z</time>
      </trkpt>
      <trkpt lat="47.78442" lon="-2.59288">
        <ele>90.6</ele>
        <time>2024-09-15T10:05:23Z</time>
      </trkpt>
      <trkpt lat="47.78443" lon="-2.59285">
        <ele>90.6</ele>
        <time>2024-09-15T10:05:24Z</time>
      </trkpt>
      <trkpt lat="47.78444" lon="-2.59282">
        <ele>90.6</ele>
        <time>2024-09-15T10:05:25Z</time>
      </trkpt>
      <trkpt lat="47.78447" lon="-2.59274">
        <ele>90.6</ele>
        <time>2024-09-15T10:05:27Z</time>
      </trkpt>
      <trkpt lat="47.78448" lon="-2.5927">
        <ele>90.6</ele>
        <time>2024-09-15T10:05:28Z</time>
      </trkpt>
      <trkpt lat="47.78456" lon="-2.59252">
        <ele>90.6</ele>
        <time>2024-09-15T10:05:33Z</time>
      </trkpt>
      <trkpt lat="47.78458" lon="-2.59249">
        <ele>90.6</ele>
        <time>2024-09-15T10:05:34Z</time>
      </trkpt>
      <trkpt lat="47.7846" lon="-2.59247">
        <ele>90.6</ele>
        <time>2024-09-15T10:05:35Z</time>
      </trkpt>
      <trkpt lat="47.78469" lon="-2.59239">
        <ele>90.6</ele>
        <time>2024-09-15T10:05:39Z</time>
      </trkpt>
      <trkpt lat="47.78473" lon="-2.59239">
        <ele>90.8</ele>
        <time>2024-09-15T10:05:41Z</time>
      </trkpt>
      <trkpt lat="47.78475" lon="-2.59242">
        <ele>90.8</ele>
        <time>2024-09-15T10:05:42Z</time>
      </trkpt>
      <trkpt lat="47.78475" lon="-2.59245">
        <ele>90.8</ele>
        <time>2024-09-15T10:05:43Z</time>
      </trkpt>
      <trkpt lat="47.78478" lon="-2.59255">
        <ele>91.2</ele>
        <time>2024-09-15T10:05:46Z</time>
      </trkpt>
      <trkpt lat="47.78478" lon="-2.59259">
        <ele>91.4</ele>
        <time>2024-09-15T10:05:47Z</time>
      </trkpt>
      <trkpt lat="47.78481" lon="-2.59271">
        <ele>91.6</ele>
        <time>2024-09-15T10:05:50Z</time>
      </trkpt>
      <trkpt lat="47.78482" lon="-2.59276">
        <ele>91.8</ele>
        <time>2024-09-15T10:05:51Z</time>
      </trkpt>
      <trkpt lat="47.78483" lon="-2.5928">
        <ele>91.8</ele>
        <time>2024-09-15T10:05:52Z</time>
      </trkpt>
      <trkpt lat="47.78484" lon="-2.59283">
        <ele>92</ele>
        <time>2024-09-15T10:05:53Z</time>
      </trkpt>
      <trkpt lat="47.78486" lon="-2.59294">
        <ele>92.2</ele>
        <time>2024-09-15T10:05:56Z</time>
      </trkpt>
      <trkpt lat="47.78489" lon="-2.59314">
        <ele>92.6</ele>
        <time>2024-09-15T10:06:01Z</time>
      </trkpt>
      <trkpt lat="47.78491" lon="-2.59319">
        <ele>92.8</ele>
        <time>2024-09-15T10:06:02Z</time>
      </trkpt>
      <trkpt lat="47.78491" lon="-2.59322">
        <ele>92.8</ele>
        <time>2024-09-15T10:06:03Z</time>
      </trkpt>
      <trkpt lat="47.78492" lon="-2.59325">
        <ele>93</ele>
        <time>2024-09-15T10:06:04Z</time>
      </trkpt>
      <trkpt lat="47.78493" lon="-2.59328">
        <ele>93</ele>
        <time>2024-09-15T10:06:05Z</time>
      </trkpt>
      <trkpt lat="47.78496" lon="-2.59341">
        <ele>93.6</ele>
        <time>2024-09-15T10:06:09Z</time>
      </trkpt>
      <trkpt lat="47.78498" lon="-2.59346">
        <ele>93.6</ele>
        <time>2024-09-15T10:06:10Z</time>
      </trkpt>
      <trkpt lat="47.78499" lon="-2.59349">
        <ele>93.8</ele>
        <time>2024-09-15T10:06:11Z</time>
      </trkpt>
      <trkpt lat="47.78501" lon="-2.59353">
        <ele>93.8</ele>
        <time>2024-09-15T10:06:12Z</time>
      </trkpt>
      <trkpt lat="47.78503" lon="-2.5936">
        <ele>94</ele>
        <time>2024-09-15T10:06:14Z</time>
      </trkpt>
      <trkpt lat="47.78505" lon="-2.59364">
        <ele>94</ele>
        <time>2024-09-15T10:06:15Z</time>
      </trkpt>
      <trkpt lat="47.78507" lon="-2.59367">
        <ele>94.2</ele>
        <time>2024-09-15T10:06:16Z</time>
      </trkpt>
      <trkpt lat="47.7851" lon="-2.59375">
        <ele>95</ele>
        <time>2024-09-15T10:06:18Z</time>
      </trkpt>
      <trkpt lat="47.78515" lon="-2.59383">
        <ele>95.2</ele>
        <time>2024-09-15T10:06:20Z</time>
      </trkpt>
      <trkpt lat="47.78517" lon="-2.59386">
        <ele>95.4</ele>
        <time>2024-09-15T10:06:21Z</time>
      </trkpt>
      <trkpt lat="47.78519" lon="-2.59388">
        <ele>95.4</ele>
        <time>2024-09-15T10:06:22Z</time>
      </trkpt>
      <trkpt lat="47.7852" lon="-2.59392">
        <ele>95.6</ele>
        <time>2024-09-15T10:06:23Z</time>
      </trkpt>
      <trkpt lat="47.78523" lon="-2.59396">
        <ele>95.6</ele>
        <time>2024-09-15T10:06:24Z</time>
      </trkpt>
      <trkpt lat="47.78527" lon="-2.59402">
        <ele>95.6</ele>
        <time>2024-09-15T10:06:25Z</time>
      </trkpt>
      <trkpt lat="47.78529" lon="-2.59404">
        <ele>95.8</ele>
        <time>2024-09-15T10:06:26Z</time>
      </trkpt>
      <trkpt lat="47.7853" lon="-2.59407">
        <ele>95.8</ele>
        <time>2024-09-15T10:06:27Z</time>
      </trkpt>
      <trkpt lat="47.78532" lon="-2.59411">
        <ele>96</ele>
        <time>2024-09-15T10:06:28Z</time>
      </trkpt>
      <trkpt lat="47.78535" lon="-2.59414">
        <ele>96</ele>
        <time>2024-09-15T10:06:29Z</time>
      </trkpt>
      <trkpt lat="47.78538" lon="-2.59419">
        <ele>96</ele>
        <time>2024-09-15T10:06:30Z</time>
      </trkpt>
      <trkpt lat="47.78541" lon="-2.59422">
        <ele>96.4</ele>
        <time>2024-09-15T10:06:31Z</time>
      </trkpt>
      <trkpt lat="47.78545" lon="-2.59426">
        <ele>96.4</ele>
        <time>2024-09-15T10:06:32Z</time>
      </trkpt>
      <trkpt lat="47.78547" lon="-2.5943">
        <ele>96.8</ele>
        <time>2024-09-15T10:06:33Z</time>
      </trkpt>
      <trkpt lat="47.7855" lon="-2.59433">
        <ele>97</ele>
        <time>2024-09-15T10:06:34Z</time>
      </trkpt>
      <trkpt lat="47.78552" lon="-2.59437">
        <ele>97.2</ele>
        <time>2024-09-15T10:06:35Z</time>
      </trkpt>
      <trkpt lat="47.78556" lon="-2.5944">
        <ele>97.4</ele>
        <time>2024-09-15T10:06:36Z</time>
      </trkpt>
      <trkpt lat="47.78559" lon="-2.59444">
        <ele>97.4</ele>
        <time>2024-09-15T10:06:37Z</time>
      </trkpt>
      <trkpt lat="47.78561" lon="-2.59447">
        <ele>97.8</ele>
        <time>2024-09-15T10:06:38Z</time>
      </trkpt>
      <trkpt lat="47.78563" lon="-2.59451">
        <ele>97.8</ele>
        <time>2024-09-15T10:06:39Z</time>
      </trkpt>
      <trkpt lat="47.78565" lon="-2.59454">
        <ele>98.2</ele>
        <time>2024-09-15T10:06:40Z</time>
      </trkpt>
      <trkpt lat="47.78567" lon="-2.59457">
        <ele>98.2</ele>
        <time>2024-09-15T10:06:41Z</time>
      </trkpt>
      <trkpt lat="47.78569" lon="-2.5946">
        <ele>98.4</ele>
        <time>2024-09-15T10:06:42Z</time>
      </trkpt>
      <trkpt lat="47.78571" lon="-2.59462">
        <ele>98.6</ele>
        <time>2024-09-15T10:06:43Z</time>
      </trkpt>
      <trkpt lat="47.78573" lon="-2.59464">
        <ele>98.8</ele>
        <time>2024-09-15T10:06:44Z</time>
      </trkpt>
      <trkpt lat="47.78576" lon="-2.59465">
        <ele>98.8</ele>
        <time>2024-09-15T10:06:45Z</time>
      </trkpt>
      <trkpt lat="47.78579" lon="-2.59465">
        <ele>98.8</ele>
        <time>2024-09-15T10:06:46Z</time>
      </trkpt>
      <trkpt lat="47.78582" lon="-2.59464">
        <ele>99</ele>
        <time>2024-09-15T10:06:47Z</time>
      </trkpt>
      <trkpt lat="47.78586" lon="-2.59462">
        <ele>99</ele>
        <time>2024-09-15T10:06:48Z</time>
      </trkpt>
      <trkpt lat="47.78589" lon="-2.5946">
        <ele>99</ele>
        <time>2024-09-15T10:06:49Z</time>
      </trkpt>
      <trkpt lat="47.78593" lon="-2.59459">
        <ele>99</ele>
        <time>2024-09-15T10:06:50Z</time>
      </trkpt>
      <trkpt lat="47.78596" lon="-2.59457">
        <ele>99</ele>
        <time>2024-09-15T10:06:51Z</time>
      </trkpt>
      <trkpt lat="47.786" lon="-2.59454">
        <ele>99</ele>
        <time>2024-09-15T10:06:52Z</time>
      </trkpt>
      <trkpt lat="47.78605" lon="-2.59453">
        <ele>99</ele>
        <time>2024-09-15T10:06:53Z</time>
      </trkpt>
      <trkpt lat="47.78609" lon="-2.59451">
        <ele>99</ele>
        <time>2024-09-15T10:06:54Z</time>
      </trkpt>
      <trkpt lat="47.78613" lon="-2.59449">
        <ele>99</ele>
        <time>2024-09-15T10:06:55Z</time>
      </trkpt>
      <trkpt lat="47.78617" lon="-2.59447">
        <ele>98.8</ele>
        <time>2024-09-15T10:06:56Z</time>
      </trkpt>
      <trkpt lat="47.78622" lon="-2.59444">
        <ele>98.8</ele>
        <time>2024-09-15T10:06:57Z</time>
      </trkpt>
      <trkpt lat="47.78626" lon="-2.59441">
        <ele>98.8</ele>
        <time>2024-09-15T10:06:58Z</time>
      </trkpt>
      <trkpt lat="47.78631" lon="-2.59438">
        <ele>98.8</ele>
        <time>2024-09-15T10:06:59Z</time>
      </trkpt>
      <trkpt lat="47.78636" lon="-2.59434">
        <ele>98.8</ele>
        <time>2024-09-15T10:07:00Z</time>
      </trkpt>
      <trkpt lat="47.78646" lon="-2.59426">
        <ele>98.8</ele>
        <time>2024-09-15T10:07:02Z</time>
      </trkpt>
      <trkpt lat="47.78654" lon="-2.59417">
        <ele>98.6</ele>
        <time>2024-09-15T10:07:04Z</time>
      </trkpt>
      <trkpt lat="47.78668" lon="-2.594">
        <ele>97.8</ele>
        <time>2024-09-15T10:07:07Z</time>
      </trkpt>
      <trkpt lat="47.78679" lon="-2.59387">
        <ele>97.6</ele>
        <time>2024-09-15T10:07:09Z</time>
      </trkpt>
      <trkpt lat="47.78685" lon="-2.59381">
        <ele>97.4</ele>
        <time>2024-09-15T10:07:10Z</time>
      </trkpt>
      <trkpt lat="47.78711" lon="-2.59352">
        <ele>96</ele>
        <time>2024-09-15T10:07:14Z</time>
      </trkpt>
      <trkpt lat="47.78717" lon="-2.59345">
        <ele>95.8</ele>
        <time>2024-09-15T10:07:15Z</time>
      </trkpt>
      <trkpt lat="47.78724" lon="-2.59337">
        <ele>95</ele>
        <time>2024-09-15T10:07:16Z</time>
      </trkpt>
      <trkpt lat="47.78746" lon="-2.59311">
        <ele>93.8</ele>
        <time>2024-09-15T10:07:19Z</time>
      </trkpt>
      <trkpt lat="47.7876" lon="-2.59297">
        <ele>92.8</ele>
        <time>2024-09-15T10:07:21Z</time>
      </trkpt>
      <trkpt lat="47.78766" lon="-2.5929">
        <ele>92.2</ele>
        <time>2024-09-15T10:07:22Z</time>
      </trkpt>
      <trkpt lat="47.78773" lon="-2.59285">
        <ele>91.4</ele>
        <time>2024-09-15T10:07:23Z</time>
      </trkpt>
      <trkpt lat="47.78788" lon="-2.59274">
        <ele>90.4</ele>
        <time>2024-09-15T10:07:25Z</time>
      </trkpt>
      <trkpt lat="47.78796" lon="-2.59268">
        <ele>90</ele>
        <time>2024-09-15T10:07:26Z</time>
      </trkpt>
      <trkpt lat="47.78804" lon="-2.59263">
        <ele>89.6</ele>
        <time>2024-09-15T10:07:27Z</time>
      </trkpt>
      <trkpt lat="47.78812" lon="-2.59259">
        <ele>89.4</ele>
        <time>2024-09-15T10:07:28Z</time>
      </trkpt>
      <trkpt lat="47.78819" lon="-2.59255">
        <ele>88.8</ele>
        <time>2024-09-15T10:07:29Z</time>
      </trkpt>
      <trkpt lat="47.78826" lon="-2.59251">
        <ele>88.6</ele>
        <time>2024-09-15T10:07:30Z</time>
      </trkpt>
      <trkpt lat="47.78832" lon="-2.59248">
        <ele>88</ele>
        <time>2024-09-15T10:07:31Z</time>
      </trkpt>
      <trkpt lat="47.78836" lon="-2.59245">
        <ele>87.2</ele>
        <time>2024-09-15T10:07:32Z</time>
      </trkpt>
      <trkpt lat="47.7884" lon="-2.59242">
        <ele>86.6</ele>
        <time>2024-09-15T10:07:33Z</time>
      </trkpt>
      <trkpt lat="47.78842" lon="-2.59239">
        <ele>85.6</ele>
        <time>2024-09-15T10:07:34Z</time>
      </trkpt>
      <trkpt lat="47.78844" lon="-2.59237">
        <ele>85.2</ele>
        <time>2024-09-15T10:07:35Z</time>
      </trkpt>
      <trkpt lat="47.78846" lon="-2.59236">
        <ele>84.4</ele>
        <time>2024-09-15T10:07:36Z</time>
      </trkpt>
      <trkpt lat="47.78847" lon="-2.59236">
        <ele>84</ele>
        <time>2024-09-15T10:07:37Z</time>
      </trkpt>
      <trkpt lat="47.78849" lon="-2.59235">
        <ele>83.2</ele>
        <time>2024-09-15T10:07:38Z</time>
      </trkpt>
      <trkpt lat="47.7885" lon="-2.59233">
        <ele>82.8</ele>
        <time>2024-09-15T10:07:39Z</time>
      </trkpt>
      <trkpt lat="47.78852" lon="-2.59232">
        <ele>82.6</ele>
        <time>2024-09-15T10:07:40Z</time>
      </trkpt>
      <trkpt lat="47.7886" lon="-2.59228">
        <ele>82.2</ele>
        <time>2024-09-15T10:07:42Z</time>
      </trkpt>
      <trkpt lat="47.78863" lon="-2.59225">
        <ele>82</ele>
        <time>2024-09-15T10:07:43Z</time>
      </trkpt>
      <trkpt lat="47.78871" lon="-2.59216">
        <ele>81.8</ele>
        <time>2024-09-15T10:07:46Z</time>
      </trkpt>
      <trkpt lat="47.78875" lon="-2.59214">
        <ele>81.6</ele>
        <time>2024-09-15T10:07:47Z</time>
      </trkpt>
      <trkpt lat="47.78878" lon="-2.59214">
        <ele>81.6</ele>
        <time>2024-09-15T10:07:48Z</time>
      </trkpt>
      <trkpt lat="47.78879" lon="-2.59214">
        <ele>81.4</ele>
        <time>2024-09-15T10:07:49Z</time>
      </trkpt>
      <trkpt lat="47.78879" lon="-2.59214">
        <ele>81.4</ele>
        <time>2024-09-15T10:07:50Z</time>
      </trkpt>
      <trkpt lat="47.78882" lon="-2.59216">
        <ele>81.4</ele>
        <time>2024-09-15T10:07:56Z</time>
      </trkpt>
      <trkpt lat="47.78886" lon="-2.59225">
        <ele>81.4</ele>
        <time>2024-09-15T10:07:58Z</time>
      </trkpt>
      <trkpt lat="47.78887" lon="-2.59231">
        <ele>81.4</ele>
        <time>2024-09-15T10:07:59Z</time>
      </trkpt>
      <trkpt lat="47.78889" lon="-2.59243">
        <ele>81.4</ele>
        <time>2024-09-15T10:08:01Z</time>
      </trkpt>
      <trkpt lat="47.78891" lon="-2.59249">
        <ele>81.4</ele>
        <time>2024-09-15T10:08:02Z</time>
      </trkpt>
      <trkpt lat="47.78894" lon="-2.59261">
        <ele>81.4</ele>
        <time>2024-09-15T10:08:04Z</time>
      </trkpt>
      <trkpt lat="47.78903" lon="-2.5929">
        <ele>82</ele>
        <time>2024-09-15T10:08:09Z</time>
      </trkpt>
      <trkpt lat="47.78905" lon="-2.59295">
        <ele>82.2</ele>
        <time>2024-09-15T10:08:10Z</time>
      </trkpt>
      <trkpt lat="47.78916" lon="-2.59317">
        <ele>82.6</ele>
        <time>2024-09-15T10:08:14Z</time>
      </trkpt>
      <trkpt lat="47.78926" lon="-2.59332">
        <ele>82.8</ele>
        <time>2024-09-15T10:08:17Z</time>
      </trkpt>
      <trkpt lat="47.78932" lon="-2.59341">
        <ele>83</ele>
        <time>2024-09-15T10:08:19Z</time>
      </trkpt>
      <trkpt lat="47.78941" lon="-2.59351">
        <ele>83</ele>
        <time>2024-09-15T10:08:21Z</time>
      </trkpt>
      <trkpt lat="47.78947" lon="-2.59356">
        <ele>83</ele>
        <time>2024-09-15T10:08:22Z</time>
      </trkpt>
      <trkpt lat="47.78959" lon="-2.59367">
        <ele>82.8</ele>
        <time>2024-09-15T10:08:24Z</time>
      </trkpt>
      <trkpt lat="47.7897" lon="-2.59379">
        <ele>82.6</ele>
        <time>2024-09-15T10:08:26Z</time>
      </trkpt>
      <trkpt lat="47.78989" lon="-2.59406">
        <ele>82</ele>
        <time>2024-09-15T10:08:30Z</time>
      </trkpt>
      <trkpt lat="47.78995" lon="-2.59414">
        <ele>81.8</ele>
        <time>2024-09-15T10:08:31Z</time>
      </trkpt>
      <trkpt lat="47.79022" lon="-2.5946">
        <ele>80.8</ele>
        <time>2024-09-15T10:08:36Z</time>
      </trkpt>
      <trkpt lat="47.79034" lon="-2.5948">
        <ele>80.2</ele>
        <time>2024-09-15T10:08:38Z</time>
      </trkpt>
      <trkpt lat="47.79039" lon="-2.59488">
        <ele>79.8</ele>
        <time>2024-09-15T10:08:39Z</time>
      </trkpt>
      <trkpt lat="47.79044" lon="-2.59496">
        <ele>79.6</ele>
        <time>2024-09-15T10:08:40Z</time>
      </trkpt>
      <trkpt lat="47.79058" lon="-2.59509">
        <ele>79.2</ele>
        <time>2024-09-15T10:08:42Z</time>
      </trkpt>
      <trkpt lat="47.79065" lon="-2.59511">
        <ele>78.8</ele>
        <time>2024-09-15T10:08:43Z</time>
      </trkpt>
      <trkpt lat="47.79074" lon="-2.59514">
        <ele>78.8</ele>
        <time>2024-09-15T10:08:44Z</time>
      </trkpt>
      <trkpt lat="47.79083" lon="-2.59517">
        <ele>78.6</ele>
        <time>2024-09-15T10:08:45Z</time>
      </trkpt>
      <trkpt lat="47.79091" lon="-2.59519">
        <ele>78.4</ele>
        <time>2024-09-15T10:08:46Z</time>
      </trkpt>
      <trkpt lat="47.79106" lon="-2.59522">
        <ele>78</ele>
        <time>2024-09-15T10:08:48Z</time>
      </trkpt>
      <trkpt lat="47.79112" lon="-2.59523">
        <ele>77.8</ele>
        <time>2024-09-15T10:08:49Z</time>
      </trkpt>
      <trkpt lat="47.79117" lon="-2.59523">
        <ele>77.4</ele>
        <time>2024-09-15T10:08:50Z</time>
      </trkpt>
      <trkpt lat="47.79125" lon="-2.59527">
        <ele>77.2</ele>
        <time>2024-09-15T10:08:51Z</time>
      </trkpt>
      <trkpt lat="47.79133" lon="-2.59529">
        <ele>77</ele>
        <time>2024-09-15T10:08:52Z</time>
      </trkpt>
      <trkpt lat="47.7914" lon="-2.59529">
        <ele>76.8</ele>
        <time>2024-09-15T10:08:53Z</time>
      </trkpt>
      <trkpt lat="47.79145" lon="-2.59527">
        <ele>76.6</ele>
        <time>2024-09-15T10:08:54Z</time>
      </trkpt>
      <trkpt lat="47.7915" lon="-2.59527">
        <ele>76.6</ele>
        <time>2024-09-15T10:08:55Z</time>
      </trkpt>
      <trkpt lat="47.79155" lon="-2.59527">
        <ele>76.4</ele>
        <time>2024-09-15T10:08:56Z</time>
      </trkpt>
      <trkpt lat="47.79161" lon="-2.5953">
        <ele>76.2</ele>
        <time>2024-09-15T10:08:57Z</time>
      </trkpt>
      <trkpt lat="47.79167" lon="-2.59533">
        <ele>76</ele>
        <time>2024-09-15T10:08:58Z</time>
      </trkpt>
      <trkpt lat="47.79174" lon="-2.59537">
        <ele>75.8</ele>
        <time>2024-09-15T10:08:59Z</time>
      </trkpt>
      <trkpt lat="47.7918" lon="-2.59541">
        <ele>75.8</ele>
        <time>2024-09-15T10:09:00Z</time>
      </trkpt>
      <trkpt lat="47.79185" lon="-2.59544">
        <ele>75.6</ele>
        <time>2024-09-15T10:09:01Z</time>
      </trkpt>
      <trkpt lat="47.79189" lon="-2.59547">
        <ele>75.4</ele>
        <time>2024-09-15T10:09:02Z</time>
      </trkpt>
      <trkpt lat="47.79194" lon="-2.59549">
        <ele>75.2</ele>
        <time>2024-09-15T10:09:03Z</time>
      </trkpt>
      <trkpt lat="47.79198" lon="-2.59552">
        <ele>75</ele>
        <time>2024-09-15T10:09:04Z</time>
      </trkpt>
      <trkpt lat="47.79203" lon="-2.59555">
        <ele>75</ele>
        <time>2024-09-15T10:09:05Z</time>
      </trkpt>
      <trkpt lat="47.79207" lon="-2.59558">
        <ele>74.8</ele>
        <time>2024-09-15T10:09:06Z</time>
      </trkpt>
      <trkpt lat="47.79211" lon="-2.59562">
        <ele>74.8</ele>
        <time>2024-09-15T10:09:07Z</time>
      </trkpt>
      <trkpt lat="47.79216" lon="-2.59564">
        <ele>74.8</ele>
        <time>2024-09-15T10:09:08Z</time>
      </trkpt>
      <trkpt lat="47.79219" lon="-2.59568">
        <ele>74.6</ele>
        <time>2024-09-15T10:09:09Z</time>
      </trkpt>
      <trkpt lat="47.79225" lon="-2.59578">
        <ele>74.2</ele>
        <time>2024-09-15T10:09:11Z</time>
      </trkpt>
      <trkpt lat="47.79227" lon="-2.59586">
        <ele>74</ele>
        <time>2024-09-15T10:09:12Z</time>
      </trkpt>
      <trkpt lat="47.79227" lon="-2.59594">
        <ele>74</ele>
        <time>2024-09-15T10:09:13Z</time>
      </trkpt>
      <trkpt lat="47.79227" lon="-2.59602">
        <ele>74</ele>
        <time>2024-09-15T10:09:14Z</time>
      </trkpt>
      <trkpt lat="47.79226" lon="-2.59608">
        <ele>73.8</ele>
        <time>2024-09-15T10:09:15Z</time>
      </trkpt>
      <trkpt lat="47.79225" lon="-2.59613">
        <ele>73.8</ele>
        <time>2024-09-15T10:09:16Z</time>
      </trkpt>
      <trkpt lat="47.79223" lon="-2.59615">
        <ele>73.6</ele>
        <time>2024-09-15T10:09:17Z</time>
      </trkpt>
      <trkpt lat="47.79222" lon="-2.59615">
        <ele>73.6</ele>
        <time>2024-09-15T10:09:18Z</time>
      </trkpt>
      <trkpt lat="47.79221" lon="-2.59616">
        <ele>73.4</ele>
        <time>2024-09-15T10:09:19Z</time>
      </trkpt>
      <trkpt lat="47.79221" lon="-2.59616">
        <ele>73.4</ele>
        <time>2024-09-15T10:09:20Z</time>
      </trkpt>
      <trkpt lat="47.79384" lon="-2.5995">
        <ele>55.4</ele>
        <time>2024-09-15T10:12:00Z</time>
      </trkpt>
      <trkpt lat="47.79385" lon="-2.59953">
        <ele>88.8</ele>
        <time>2024-09-15T10:12:01Z</time>
      </trkpt>
      <trkpt lat="47.79386" lon="-2.59957">
        <ele>88.8</ele>
        <time>2024-09-15T10:12:02Z</time>
      </trkpt>
      <trkpt lat="47.7939" lon="-2.59967">
        <ele>88.8</ele>
        <time>2024-09-15T10:12:04Z</time>
      </trkpt>
      <trkpt lat="47.79396" lon="-2.59982">
        <ele>88.8</ele>
        <time>2024-09-15T10:12:06Z</time>
      </trkpt>
      <trkpt lat="47.79403" lon="-2.59994">
        <ele>88</ele>
        <time>2024-09-15T10:12:08Z</time>
      </trkpt>
      <trkpt lat="47.79407" lon="-2.6">
        <ele>87.8</ele>
        <time>2024-09-15T10:12:09Z</time>
      </trkpt>
      <trkpt lat="47.7941" lon="-2.60007">
        <ele>87.4</ele>
        <time>2024-09-15T10:12:10Z</time>
      </trkpt>
      <trkpt lat="47.79412" lon="-2.60015">
        <ele>87.2</ele>
        <time>2024-09-15T10:12:11Z</time>
      </trkpt>
      <trkpt lat="47.79413" lon="-2.60021">
        <ele>87.2</ele>
        <time>2024-09-15T10:12:12Z</time>
      </trkpt>
      <trkpt lat="47.79411" lon="-2.60029">
        <ele>87</ele>
        <time>2024-09-15T10:12:13Z</time>
      </trkpt>
      <trkpt lat="47.7941" lon="-2.60037">
        <ele>86.8</ele>
        <time>2024-09-15T10:12:14Z</time>
      </trkpt>
      <trkpt lat="47.79408" lon="-2.60044">
        <ele>86.8</ele>
        <time>2024-09-15T10:12:15Z</time>
      </trkpt>
      <trkpt lat="47.79407" lon="-2.60049">
        <ele>86.6</ele>
        <time>2024-09-15T10:12:16Z</time>
      </trkpt>
      <trkpt lat="47.79409" lon="-2.60054">
        <ele>86.4</ele>
        <time>2024-09-15T10:12:17Z</time>
      </trkpt>
      <trkpt lat="47.79412" lon="-2.60059">
        <ele>85.6</ele>
        <time>2024-09-15T10:12:18Z</time>
      </trkpt>
      <trkpt lat="47.79414" lon="-2.60064">
        <ele>85.2</ele>
        <time>2024-09-15T10:12:19Z</time>
      </trkpt>
      <trkpt lat="47.79415" lon="-2.6007">
        <ele>85</ele>
        <time>2024-09-15T10:12:20Z</time>
      </trkpt>
      <trkpt lat="47.79417" lon="-2.60077">
        <ele>84.8</ele>
        <time>2024-09-15T10:12:21Z</time>
      </trkpt>
      <trkpt lat="47.79421" lon="-2.60085">
        <ele>84.4</ele>
        <time>2024-09-15T10:12:22Z</time>
      </trkpt>
      <trkpt lat="47.79425" lon="-2.60094">
        <ele>84.2</ele>
        <time>2024-09-15T10:12:23Z</time>
      </trkpt>
      <trkpt lat="47.79429" lon="-2.60104">
        <ele>84</ele>
        <time>2024-09-15T10:12:24Z</time>
      </trkpt>
      <trkpt lat="47.79433" lon="-2.60116">
        <ele>83.6</ele>
        <time>2024-09-15T10:12:25Z</time>
      </trkpt>
      <trkpt lat="47.79446" lon="-2.60139">
        <ele>82.2</ele>
        <time>2024-09-15T10:12:27Z</time>
      </trkpt>
      <trkpt lat="47.79459" lon="-2.60157">
        <ele>81.2</ele>
        <time>2024-09-15T10:12:29Z</time>
      </trkpt>
      <trkpt lat="47.79465" lon="-2.60166">
        <ele>80</ele>
        <time>2024-09-15T10:12:30Z</time>
      </trkpt>
      <trkpt lat="47.79471" lon="-2.60174">
        <ele>79.6</ele>
        <time>2024-09-15T10:12:31Z</time>
      </trkpt>
      <trkpt lat="47.79477" lon="-2.6018">
        <ele>79.2</ele>
        <time>2024-09-15T10:12:32Z</time>
      </trkpt>
      <trkpt lat="47.79483" lon="-2.60186">
        <ele>78.6</ele>
        <time>2024-09-15T10:12:33Z</time>
      </trkpt>
      <trkpt lat="47.79487" lon="-2.6019">
        <ele>77.8</ele>
        <time>2024-09-15T10:12:34Z</time>
      </trkpt>
      <trkpt lat="47.79492" lon="-2.60193">
        <ele>77.6</ele>
        <time>2024-09-15T10:12:35Z</time>
      </trkpt>
      <trkpt lat="47.79495" lon="-2.60195">
        <ele>76.8</ele>
        <time>2024-09-15T10:12:36Z</time>
      </trkpt>
      <trkpt lat="47.79498" lon="-2.60196">
        <ele>76.2</ele>
        <time>2024-09-15T10:12:37Z</time>
      </trkpt>
      <trkpt lat="47.79499" lon="-2.60197">
        <ele>75.8</ele>
        <time>2024-09-15T10:12:38Z</time>
      </trkpt>
      <trkpt lat="47.795" lon="-2.60197">
        <ele>75.6</ele>
        <time>2024-09-15T10:12:39Z</time>
      </trkpt>
      <trkpt lat="47.79501" lon="-2.60197">
        <ele>75.6</ele>
        <time>2024-09-15T10:12:40Z</time>
      </trkpt>
      <trkpt lat="47.79502" lon="-2.60197">
        <ele>75.4</ele>
        <time>2024-09-15T10:12:41Z</time>
      </trkpt>
      <trkpt lat="47.79504" lon="-2.60196">
        <ele>75.4</ele>
        <time>2024-09-15T10:12:42Z</time>
      </trkpt>
      <trkpt lat="47.79506" lon="-2.60194">
        <ele>75.4</ele>
        <time>2024-09-15T10:12:43Z</time>
      </trkpt>
      <trkpt lat="47.79509" lon="-2.60192">
        <ele>75.4</ele>
        <time>2024-09-15T10:12:44Z</time>
      </trkpt>
      <trkpt lat="47.79511" lon="-2.6019">
        <ele>75.4</ele>
        <time>2024-09-15T10:12:45Z</time>
      </trkpt>
      <trkpt lat="47.79517" lon="-2.60179">
        <ele>75.4</ele>
        <time>2024-09-15T10:12:48Z</time>
      </trkpt>
      <trkpt lat="47.79519" lon="-2.60175">
        <ele>75.4</ele>
        <time>2024-09-15T10:12:49Z</time>
      </trkpt>
      <trkpt lat="47.79522" lon="-2.60172">
        <ele>75.8</ele>
        <time>2024-09-15T10:12:50Z</time>
      </trkpt>
      <trkpt lat="47.79525" lon="-2.60171">
        <ele>75.8</ele>
        <time>2024-09-15T10:12:51Z</time>
      </trkpt>
      <trkpt lat="47.79528" lon="-2.60171">
        <ele>75.8</ele>
        <time>2024-09-15T10:12:52Z</time>
      </trkpt>
      <trkpt lat="47.79531" lon="-2.60171">
        <ele>76</ele>
        <time>2024-09-15T10:12:53Z</time>
      </trkpt>
      <trkpt lat="47.79534" lon="-2.60171">
        <ele>76</ele>
        <time>2024-09-15T10:12:54Z</time>
      </trkpt>
      <trkpt lat="47.79536" lon="-2.60173">
        <ele>76.2</ele>
        <time>2024-09-15T10:12:55Z</time>
      </trkpt>
      <trkpt lat="47.7954" lon="-2.60174">
        <ele>76.4</ele>
        <time>2024-09-15T10:12:56Z</time>
      </trkpt>
      <trkpt lat="47.79543" lon="-2.60176">
        <ele>76.6</ele>
        <time>2024-09-15T10:12:57Z</time>
      </trkpt>
      <trkpt lat="47.79552" lon="-2.60179">
        <ele>77.6</ele>
        <time>2024-09-15T10:13:01Z</time>
      </trkpt>
      <trkpt lat="47.79556" lon="-2.60181">
        <ele>78</ele>
        <time>2024-09-15T10:13:03Z</time>
      </trkpt>
      <trkpt lat="47.79557" lon="-2.60183">
        <ele>78.2</ele>
        <time>2024-09-15T10:13:04Z</time>
      </trkpt>
      <trkpt lat="47.79561" lon="-2.60185">
        <ele>78.6</ele>
        <time>2024-09-15T10:13:05Z</time>
      </trkpt>
      <trkpt lat="47.79562" lon="-2.60187">
        <ele>79</ele>
        <time>2024-09-15T10:13:06Z</time>
      </trkpt>
      <trkpt lat="47.79565" lon="-2.6019">
        <ele>79.2</ele>
        <time>2024-09-15T10:13:07Z</time>
      </trkpt>
      <trkpt lat="47.79573" lon="-2.60196">
        <ele>80.6</ele>
        <time>2024-09-15T10:13:10Z</time>
      </trkpt>
      <trkpt lat="47.79575" lon="-2.60199">
        <ele>80.8</ele>
        <time>2024-09-15T10:13:11Z</time>
      </trkpt>
      <trkpt lat="47.79577" lon="-2.60202">
        <ele>81</ele>
        <time>2024-09-15T10:13:12Z</time>
      </trkpt>
      <trkpt lat="47.79578" lon="-2.60203">
        <ele>81.2</ele>
        <time>2024-09-15T10:13:13Z</time>
      </trkpt>
      <trkpt lat="47.79579" lon="-2.60207">
        <ele>81.2</ele>
        <time>2024-09-15T10:13:14Z</time>
      </trkpt>
      <trkpt lat="47.79583" lon="-2.6021">
        <ele>81.4</ele>
        <time>2024-09-15T10:13:15Z</time>
      </trkpt>
      <trkpt lat="47.79584" lon="-2.60212">
        <ele>81.4</ele>
        <time>2024-09-15T10:13:16Z</time>
      </trkpt>
      <trkpt lat="47.79582" lon="-2.60212">
        <ele>82</ele>
        <time>2024-09-15T10:13:17Z</time>
      </trkpt>
      <trkpt lat="47.79583" lon="-2.60214">
        <ele>82</ele>
        <time>2024-09-15T10:13:18Z</time>
      </trkpt>
      <trkpt lat="47.79584" lon="-2.60217">
        <ele>82.2</ele>
        <time>2024-09-15T10:13:19Z</time>
      </trkpt>
      <trkpt lat="47.79584" lon="-2.6022">
        <ele>82.6</ele>
        <time>2024-09-15T10:13:20Z</time>
      </trkpt>
      <trkpt lat="47.79585" lon="-2.60222">
        <ele>82.8</ele>
        <time>2024-09-15T10:13:21Z</time>
      </trkpt>
      <trkpt lat="47.79587" lon="-2.60224">
        <ele>83</ele>
        <time>2024-09-15T10:13:22Z</time>
      </trkpt>
      <trkpt lat="47.79588" lon="-2.60226">
        <ele>83.2</ele>
        <time>2024-09-15T10:13:23Z</time>
      </trkpt>
      <trkpt lat="47.79589" lon="-2.60227">
        <ele>83.6</ele>
        <time>2024-09-15T10:13:24Z</time>
      </trkpt>
      <trkpt lat="47.7959" lon="-2.60229">
        <ele>83.6</ele>
        <time>2024-09-15T10:13:25Z</time>
      </trkpt>
      <trkpt lat="47.79591" lon="-2.6023">
        <ele>84.2</ele>
        <time>2024-09-15T10:13:26Z</time>
      </trkpt>
      <trkpt lat="47.79593" lon="-2.60232">
        <ele>84.4</ele>
        <time>2024-09-15T10:13:27Z</time>
      </trkpt>
      <trkpt lat="47.79594" lon="-2.60234">
        <ele>84.6</ele>
        <time>2024-09-15T10:13:28Z</time>
      </trkpt>
      <trkpt lat="47.79596" lon="-2.60235">
        <ele>84.8</ele>
        <time>2024-09-15T10:13:29Z</time>
      </trkpt>
      <trkpt lat="47.79597" lon="-2.60236">
        <ele>85.4</ele>
        <time>2024-09-15T10:13:30Z</time>
      </trkpt>
      <trkpt lat="47.79598" lon="-2.60237">
        <ele>85.6</ele>
        <time>2024-09-15T10:13:31Z</time>
      </trkpt>
      <trkpt lat="47.79598" lon="-2.60237">
        <ele>85.8</ele>
        <time>2024-09-15T10:13:32Z</time>
      </trkpt>
      <trkpt lat="47.79598" lon="-2.60237">
        <ele>85.8</ele>
        <time>2024-09-15T10:13:33Z</time>
      </trkpt>
      <trkpt lat="47.79599" lon="-2.60237">
        <ele>86</ele>
        <time>2024-09-15T10:13:34Z</time>
      </trkpt>
      <trkpt lat="47.79601" lon="-2.60238">
        <ele>86.2</ele>
        <time>2024-09-15T10:13:35Z</time>
      </trkpt>
      <trkpt lat="47.79602" lon="-2.60238">
        <ele>86.2</ele>
        <time>2024-09-15T10:13:36Z</time>
      </trkpt>
      <trkpt lat="47.79604" lon="-2.60239">
        <ele>86.4</ele>
        <time>2024-09-15T10:13:37Z</time>
      </trkpt>
      <trkpt lat="47.79606" lon="-2.6024">
        <ele>86.6</ele>
        <time>2024-09-15T10:13:38Z</time>
      </trkpt>
      <trkpt lat="47.79608" lon="-2.60241">
        <ele>87</ele>
        <time>2024-09-15T10:13:39Z</time>
      </trkpt>
      <trkpt lat="47.7961" lon="-2.60241">
        <ele>87</ele>
        <time>2024-09-15T10:13:40Z</time>
      </trkpt>
      <trkpt lat="47.79612" lon="-2.60241">
        <ele>87.2</ele>
        <time>2024-09-15T10:13:41Z</time>
      </trkpt>
      <trkpt lat="47.79613" lon="-2.6024">
        <ele>87.2</ele>
        <time>2024-09-15T10:13:42Z</time>
      </trkpt>
      <trkpt lat="47.79614" lon="-2.6024">
        <ele>87.6</ele>
        <time>2024-09-15T10:13:43Z</time>
      </trkpt>
      <trkpt lat="47.79617" lon="-2.60241">
        <ele>87.8</ele>
        <time>2024-09-15T10:13:44Z</time>
      </trkpt>
      <trkpt lat="47.7962" lon="-2.60242">
        <ele>87.8</ele>
        <time>2024-09-15T10:13:45Z</time>
      </trkpt>
      <trkpt lat="47.79622" lon="-2.60243">
        <ele>87.8</ele>
        <time>2024-09-15T10:13:46Z</time>
      </trkpt>
      <trkpt lat="47.79624" lon="-2.60244">
        <ele>88</ele>
        <time>2024-09-15T10:13:47Z</time>
      </trkpt>
      <trkpt lat="47.79626" lon="-2.60245">
        <ele>88.2</ele>
        <time>2024-09-15T10:13:48Z</time>
      </trkpt>
      <trkpt lat="47.79627" lon="-2.60246">
        <ele>88.2</ele>
        <time>2024-09-15T10:13:49Z</time>
      </trkpt>
      <trkpt lat="47.79628" lon="-2.60246">
        <ele>88.4</ele>
        <time>2024-09-15T10:13:50Z</time>
      </trkpt>
      <trkpt lat="47.79628" lon="-2.60246">
        <ele>88.4</ele>
        <time>2024-09-15T10:13:51Z</time>
      </trkpt>
      <trkpt lat="47.7963" lon="-2.60246">
        <ele>88.6</ele>
        <time>2024-09-15T10:13:52Z</time>
      </trkpt>
      <trkpt lat="47.79631" lon="-2.60247">
        <ele>88.8</ele>
        <time>2024-09-15T10:13:53Z</time>
      </trkpt>
      <trkpt lat="47.79633" lon="-2.60248">
        <ele>88.8</ele>
        <time>2024-09-15T10:13:54Z</time>
      </trkpt>
      <trkpt lat="47.79636" lon="-2.60249">
        <ele>89</ele>
        <time>2024-09-15T10:13:55Z</time>
      </trkpt>
      <trkpt lat="47.79638" lon="-2.6025">
        <ele>89</ele>
        <time>2024-09-15T10:13:56Z</time>
      </trkpt>
      <trkpt lat="47.7964" lon="-2.60251">
        <ele>89.4</ele>
        <time>2024-09-15T10:13:57Z</time>
      </trkpt>
      <trkpt lat="47.79642" lon="-2.60252">
        <ele>89.4</ele>
        <time>2024-09-15T10:13:58Z</time>
      </trkpt>
      <trkpt lat="47.79644" lon="-2.60253">
        <ele>89.6</ele>
        <time>2024-09-15T10:13:59Z</time>
      </trkpt>
      <trkpt lat="47.79646" lon="-2.60253">
        <ele>89.8</ele>
        <time>2024-09-15T10:14:00Z</time>
      </trkpt>
      <trkpt lat="47.79648" lon="-2.60254">
        <ele>89.8</ele>
        <time>2024-09-15T10:14:01Z</time>
      </trkpt>
      <trkpt lat="47.7965" lon="-2.60255">
        <ele>90</ele>
        <time>2024-09-15T10:14:02Z</time>
      </trkpt>
      <trkpt lat="47.79652" lon="-2.60255">
        <ele>90</ele>
        <time>2024-09-15T10:14:03Z</time>
      </trkpt>
      <trkpt lat="47.79654" lon="-2.60255">
        <ele>90.2</ele>
        <time>2024-09-15T10:14:04Z</time>
      </trkpt>
      <trkpt lat="47.79655" lon="-2.60255">
        <ele>90.4</ele>
        <time>2024-09-15T10:14:05Z</time>
      </trkpt>
      <trkpt lat="47.79658" lon="-2.60256">
        <ele>90.6</ele>
        <time>2024-09-15T10:14:06Z</time>
      </trkpt>
      <trkpt lat="47.79659" lon="-2.60256">
        <ele>90.8</ele>
        <time>2024-09-15T10:14:07Z</time>
      </trkpt>
      <trkpt lat="47.79661" lon="-2.60256">
        <ele>90.8</ele>
        <time>2024-09-15T10:14:08Z</time>
      </trkpt>
      <trkpt lat="47.79663" lon="-2.60257">
        <ele>90.8</ele>
        <time>2024-09-15T10:14:09Z</time>
      </trkpt>
      <trkpt lat="47.79665" lon="-2.60257">
        <ele>91.2</ele>
        <time>2024-09-15T10:14:10Z</time>
      </trkpt>
      <trkpt lat="47.79667" lon="-2.60257">
        <ele>91.2</ele>
        <time>2024-09-15T10:14:11Z</time>
      </trkpt>
      <trkpt lat="47.79669" lon="-2.60256">
        <ele>91.6</ele>
        <time>2024-09-15T10:14:12Z</time>
      </trkpt>
      <trkpt lat="47.79672" lon="-2.60259">
        <ele>91.8</ele>
        <time>2024-09-15T10:14:13Z</time>
      </trkpt>
      <trkpt lat="47.79676" lon="-2.60261">
        <ele>91.8</ele>
        <time>2024-09-15T10:14:14Z</time>
      </trkpt>
      <trkpt lat="47.7968" lon="-2.60263">
        <ele>92</ele>
        <time>2024-09-15T10:14:15Z</time>
      </trkpt>
      <trkpt lat="47.79682" lon="-2.60263">
        <ele>92</ele>
        <time>2024-09-15T10:14:16Z</time>
      </trkpt>
      <trkpt lat="47.79685" lon="-2.60264">
        <ele>92.2</ele>
        <time>2024-09-15T10:14:17Z</time>
      </trkpt>
      <trkpt lat="47.79687" lon="-2.60265">
        <ele>92.2</ele>
        <time>2024-09-15T10:14:18Z</time>
      </trkpt>
      <trkpt lat="47.79691" lon="-2.60266">
        <ele>92.4</ele>
        <time>2024-09-15T10:14:19Z</time>
      </trkpt>
      <trkpt lat="47.79693" lon="-2.60266">
        <ele>92.4</ele>
        <time>2024-09-15T10:14:20Z</time>
      </trkpt>
      <trkpt lat="47.79695" lon="-2.60265">
        <ele>92.6</ele>
        <time>2024-09-15T10:14:21Z</time>
      </trkpt>
      <trkpt lat="47.79696" lon="-2.60263">
        <ele>92.6</ele>
        <time>2024-09-15T10:14:22Z</time>
      </trkpt>
      <trkpt lat="47.79697" lon="-2.60263">
        <ele>92.6</ele>
        <time>2024-09-15T10:14:23Z</time>
      </trkpt>
      <trkpt lat="47.797" lon="-2.60265">
        <ele>92.8</ele>
        <time>2024-09-15T10:14:24Z</time>
      </trkpt>
      <trkpt lat="47.79703" lon="-2.60266">
        <ele>92.8</ele>
        <time>2024-09-15T10:14:25Z</time>
      </trkpt>
      <trkpt lat="47.79706" lon="-2.60268">
        <ele>92.8</ele>
        <time>2024-09-15T10:14:26Z</time>
      </trkpt>
      <trkpt lat="47.79708" lon="-2.60269">
        <ele>92.8</ele>
        <time>2024-09-15T10:14:27Z</time>
      </trkpt>
      <trkpt lat="47.79711" lon="-2.6027">
        <ele>93</ele>
        <time>2024-09-15T10:14:28Z</time>
      </trkpt>
      <trkpt lat="47.79714" lon="-2.60271">
        <ele>93</ele>
        <time>2024-09-15T10:14:29Z</time>
      </trkpt>
      <trkpt lat="47.79717" lon="-2.60272">
        <ele>93</ele>
        <time>2024-09-15T10:14:30Z</time>
      </trkpt>
      <trkpt lat="47.79719" lon="-2.60273">
        <ele>93.2</ele>
        <time>2024-09-15T10:14:31Z</time>
      </trkpt>
      <trkpt lat="47.79721" lon="-2.60274">
        <ele>93.2</ele>
        <time>2024-09-15T10:14:32Z</time>
      </trkpt>
      <trkpt lat="47.79726" lon="-2.60275">
        <ele>93.4</ele>
        <time>2024-09-15T10:14:34Z</time>
      </trkpt>
      <trkpt lat="47.79731" lon="-2.60277">
        <ele>93.6</ele>
        <time>2024-09-15T10:14:36Z</time>
      </trkpt>
      <trkpt lat="47.79735" lon="-2.60278">
        <ele>93.6</ele>
        <time>2024-09-15T10:14:37Z</time>
      </trkpt>
      <trkpt lat="47.79746" lon="-2.60282">
        <ele>93.8</ele>
        <time>2024-09-15T10:14:41Z</time>
      </trkpt>
      <trkpt lat="47.79754" lon="-2.60285">
        <ele>94</ele>
        <time>2024-09-15T10:14:44Z</time>
      </trkpt>
      <trkpt lat="47.79764" lon="-2.60289">
        <ele>94.4</ele>
        <time>2024-09-15T10:14:48Z</time>
      </trkpt>
      <trkpt lat="47.79767" lon="-2.6029">
        <ele>94.4</ele>
        <time>2024-09-15T10:14:49Z</time>
      </trkpt>
      <trkpt lat="47.79769" lon="-2.60292">
        <ele>94.6</ele>
        <time>2024-09-15T10:14:50Z</time>
      </trkpt>
      <trkpt lat="47.79777" lon="-2.60294">
        <ele>94.6</ele>
        <time>2024-09-15T10:14:53Z</time>
      </trkpt>
      <trkpt lat="47.79786" lon="-2.60298">
        <ele>94.8</ele>
        <time>2024-09-15T10:14:56Z</time>
      </trkpt>
      <trkpt lat="47.79789" lon="-2.60299">
        <ele>94.8</ele>
        <time>2024-09-15T10:14:57Z</time>
      </trkpt>
      <trkpt lat="47.79809" lon="-2.60305">
        <ele>95</ele>
        <time>2024-09-15T10:15:04Z</time>
      </trkpt>
      <trkpt lat="47.79811" lon="-2.60306">
        <ele>95</ele>
        <time>2024-09-15T10:15:05Z</time>
      </trkpt>
      <trkpt lat="47.79814" lon="-2.60306">
        <ele>95</ele>
        <time>2024-09-15T10:15:06Z</time>
      </trkpt>
      <trkpt lat="47.79816" lon="-2.60307">
        <ele>95</ele>
        <time>2024-09-15T10:15:07Z</time>
      </trkpt>
      <trkpt lat="47.79818" lon="-2.6031">
        <ele>95.2</ele>
        <time>2024-09-15T10:15:08Z</time>
      </trkpt>
      <trkpt lat="47.79819" lon="-2.60312">
        <ele>95.4</ele>
        <time>2024-09-15T10:15:09Z</time>
      </trkpt>
      <trkpt lat="47.79819" lon="-2.60313">
        <ele>95.2</ele>
        <time>2024-09-15T10:15:10Z</time>
      </trkpt>
      <trkpt lat="47.79819" lon="-2.60317">
        <ele>95.4</ele>
        <time>2024-09-15T10:15:12Z</time>
      </trkpt>
      <trkpt lat="47.79821" lon="-2.60321">
        <ele>95.4</ele>
        <time>2024-09-15T10:15:13Z</time>
      </trkpt>
      <trkpt lat="47.79822" lon="-2.60326">
        <ele>95.4</ele>
        <time>2024-09-15T10:15:14Z</time>
      </trkpt>
      <trkpt lat="47.79826" lon="-2.60332">
        <ele>95.4</ele>
        <time>2024-09-15T10:15:15Z</time>
      </trkpt>
      <trkpt lat="47.79827" lon="-2.60336">
        <ele>95.4</ele>
        <time>2024-09-15T10:15:16Z</time>
      </trkpt>
      <trkpt lat="47.79827" lon="-2.60342">
        <ele>95.4</ele>
        <time>2024-09-15T10:15:17Z</time>
      </trkpt>
      <trkpt lat="47.79827" lon="-2.60347">
        <ele>95.4</ele>
        <time>2024-09-15T10:15:18Z</time>
      </trkpt>
      <trkpt lat="47.79828" lon="-2.60358">
        <ele>95.4</ele>
        <time>2024-09-15T10:15:20Z</time>
      </trkpt>
      <trkpt lat="47.79829" lon="-2.60371">
        <ele>95.6</ele>
        <time>2024-09-15T10:15:22Z</time>
      </trkpt>
      <trkpt lat="47.79824" lon="-2.60386">
        <ele>96</ele>
        <time>2024-09-15T10:15:24Z</time>
      </trkpt>
      <trkpt lat="47.79823" lon="-2.6039">
        <ele>96.2</ele>
        <time>2024-09-15T10:15:25Z</time>
      </trkpt>
      <trkpt lat="47.79822" lon="-2.60393">
        <ele>96.4</ele>
        <time>2024-09-15T10:15:26Z</time>
      </trkpt>
      <trkpt lat="47.79822" lon="-2.60397">
        <ele>96.6</ele>
        <time>2024-09-15T10:15:27Z</time>
      </trkpt>
      <trkpt lat="47.79824" lon="-2.60403">
        <ele>96.8</ele>
        <time>2024-09-15T10:15:28Z</time>
      </trkpt>
      <trkpt lat="47.79824" lon="-2.60407">
        <ele>96.8</ele>
        <time>2024-09-15T10:15:29Z</time>
      </trkpt>
      <trkpt lat="47.79823" lon="-2.60411">
        <ele>97</ele>
        <time>2024-09-15T10:15:30Z</time>
      </trkpt>
      <trkpt lat="47.79821" lon="-2.60416">
        <ele>97</ele>
        <time>2024-09-15T10:15:31Z</time>
      </trkpt>
      <trkpt lat="47.7982" lon="-2.60422">
        <ele>97</ele>
        <time>2024-09-15T10:15:32Z</time>
      </trkpt>
      <trkpt lat="47.79819" lon="-2.60428">
        <ele>97.4</ele>
        <time>2024-09-15T10:15:33Z</time>
      </trkpt>
      <trkpt lat="47.7982" lon="-2.60437">
        <ele>97.6</ele>
        <time>2024-09-15T10:15:34Z</time>
      </trkpt>
      <trkpt lat="47.79821" lon="-2.60446">
        <ele>97.8</ele>
        <time>2024-09-15T10:15:35Z</time>
      </trkpt>
      <trkpt lat="47.79818" lon="-2.6045">
        <ele>98</ele>
        <time>2024-09-15T10:15:36Z</time>
      </trkpt>
      <trkpt lat="47.79819" lon="-2.60454">
        <ele>98</ele>
        <time>2024-09-15T10:15:37Z</time>
      </trkpt>
      <trkpt lat="47.79819" lon="-2.60458">
        <ele>98.2</ele>
        <time>2024-09-15T10:15:38Z</time>
      </trkpt>
      <trkpt lat="47.79818" lon="-2.60463">
        <ele>98.4</ele>
        <time>2024-09-15T10:15:39Z</time>
      </trkpt>
      <trkpt lat="47.79815" lon="-2.6047">
        <ele>98.4</ele>
        <time>2024-09-15T10:15:41Z</time>
      </trkpt>
      <trkpt lat="47.79816" lon="-2.60473">
        <ele>98.6</ele>
        <time>2024-09-15T10:15:42Z</time>
      </trkpt>
      <trkpt lat="47.79817" lon="-2.60475">
        <ele>98.8</ele>
        <time>2024-09-15T10:15:43Z</time>
      </trkpt>
      <trkpt lat="47.79817" lon="-2.60479">
        <ele>98.8</ele>
        <time>2024-09-15T10:15:44Z</time>
      </trkpt>
      <trkpt lat="47.79816" lon="-2.60486">
        <ele>98.8</ele>
        <time>2024-09-15T10:15:45Z</time>
      </trkpt>
      <trkpt lat="47.79817" lon="-2.60493">
        <ele>99</ele>
        <time>2024-09-15T10:15:46Z</time>
      </trkpt>
      <trkpt lat="47.79816" lon="-2.60498">
        <ele>99</ele>
        <time>2024-09-15T10:15:47Z</time>
      </trkpt>
      <trkpt lat="47.79816" lon="-2.60504">
        <ele>99.2</ele>
        <time>2024-09-15T10:15:48Z</time>
      </trkpt>
      <trkpt lat="47.79818" lon="-2.60508">
        <ele>99.2</ele>
        <time>2024-09-15T10:15:49Z</time>
      </trkpt>
      <trkpt lat="47.79821" lon="-2.60515">
        <ele>99.4</ele>
        <time>2024-09-15T10:15:50Z</time>
      </trkpt>
      <trkpt lat="47.79822" lon="-2.6052">
        <ele>99.6</ele>
        <time>2024-09-15T10:15:51Z</time>
      </trkpt>
      <trkpt lat="47.79822" lon="-2.60523">
        <ele>100</ele>
        <time>2024-09-15T10:15:52Z</time>
      </trkpt>
      <trkpt lat="47.79823" lon="-2.60526">
        <ele>100.2</ele>
        <time>2024-09-15T10:15:53Z</time>
      </trkpt>
      <trkpt lat="47.79823" lon="-2.60527">
        <ele>100.4</ele>
        <time>2024-09-15T10:15:54Z</time>
      </trkpt>
      <trkpt lat="47.79823" lon="-2.6053">
        <ele>100.4</ele>
        <time>2024-09-15T10:15:55Z</time>
      </trkpt>
      <trkpt lat="47.79821" lon="-2.60534">
        <ele>100.4</ele>
        <time>2024-09-15T10:15:56Z</time>
      </trkpt>
      <trkpt lat="47.79819" lon="-2.6054">
        <ele>100.6</ele>
        <time>2024-09-15T10:15:57Z</time>
      </trkpt>
      <trkpt lat="47.79817" lon="-2.60544">
        <ele>100.8</ele>
        <time>2024-09-15T10:15:58Z</time>
      </trkpt>
      <trkpt lat="47.79815" lon="-2.60547">
        <ele>100.8</ele>
        <time>2024-09-15T10:15:59Z</time>
      </trkpt>
      <trkpt lat="47.79814" lon="-2.60549">
        <ele>101</ele>
        <time>2024-09-15T10:16:00Z</time>
      </trkpt>
      <trkpt lat="47.79813" lon="-2.6055">
        <ele>101.2</ele>
        <time>2024-09-15T10:16:01Z</time>
      </trkpt>
      <trkpt lat="47.79813" lon="-2.60553">
        <ele>101.4</ele>
        <time>2024-09-15T10:16:02Z</time>
      </trkpt>
      <trkpt lat="47.79816" lon="-2.60557">
        <ele>101.6</ele>
        <time>2024-09-15T10:16:03Z</time>
      </trkpt>
      <trkpt lat="47.79815" lon="-2.6056">
        <ele>102</ele>
        <time>2024-09-15T10:16:04Z</time>
      </trkpt>
      <trkpt lat="47.79811" lon="-2.60565">
        <ele>102</ele>
        <time>2024-09-15T10:16:05Z</time>
      </trkpt>
      <trkpt lat="47.7981" lon="-2.60571">
        <ele>102</ele>
        <time>2024-09-15T10:16:06Z</time>
      </trkpt>
      <trkpt lat="47.79808" lon="-2.60579">
        <ele>102</ele>
        <time>2024-09-15T10:16:07Z</time>
      </trkpt>
      <trkpt lat="47.79805" lon="-2.60586">
        <ele>102</ele>
        <time>2024-09-15T10:16:08Z</time>
      </trkpt>
      <trkpt lat="47.79803" lon="-2.60591">
        <ele>102.2</ele>
        <time>2024-09-15T10:16:09Z</time>
      </trkpt>
      <trkpt lat="47.79801" lon="-2.60593">
        <ele>102.4</ele>
        <time>2024-09-15T10:16:10Z</time>
      </trkpt>
      <trkpt lat="47.79801" lon="-2.60595">
        <ele>102.4</ele>
        <time>2024-09-15T10:16:11Z</time>
      </trkpt>
      <trkpt lat="47.79802" lon="-2.60597">
        <ele>102.6</ele>
        <time>2024-09-15T10:16:12Z</time>
      </trkpt>
      <trkpt lat="47.79802" lon="-2.60599">
        <ele>102.8</ele>
        <time>2024-09-15T10:16:13Z</time>
      </trkpt>
      <trkpt lat="47.79803" lon="-2.60601">
        <ele>102.8</ele>
        <time>2024-09-15T10:16:14Z</time>
      </trkpt>
      <trkpt lat="47.79802" lon="-2.60604">
        <ele>103</ele>
        <time>2024-09-15T10:16:15Z</time>
      </trkpt>
      <trkpt lat="47.79802" lon="-2.60606">
        <ele>103</ele>
        <time>2024-09-15T10:16:16Z</time>
      </trkpt>
      <trkpt lat="47.79802" lon="-2.60609">
        <ele>103</ele>
        <time>2024-09-15T10:16:17Z</time>
      </trkpt>
      <trkpt lat="47.79802" lon="-2.60612">
        <ele>103</ele>
        <time>2024-09-15T10:16:18Z</time>
      </trkpt>
      <trkpt lat="47.79801" lon="-2.60615">
        <ele>103</ele>
        <time>2024-09-15T10:16:19Z</time>
      </trkpt>
      <trkpt lat="47.79801" lon="-2.60618">
        <ele>103</ele>
        <time>2024-09-15T10:16:20Z</time>
      </trkpt>
      <trkpt lat="47.79801" lon="-2.6062">
        <ele>103.2</ele>
        <time>2024-09-15T10:16:21Z</time>
      </trkpt>
      <trkpt lat="47.79801" lon="-2.60626">
        <ele>103.2</ele>
        <time>2024-09-15T10:16:22Z</time>
      </trkpt>
      <trkpt lat="47.798" lon="-2.60631">
        <ele>103.4</ele>
        <time>2024-09-15T10:16:23Z</time>
      </trkpt>
      <trkpt lat="47.79798" lon="-2.60636">
        <ele>103.6</ele>
        <time>2024-09-15T10:16:24Z</time>
      </trkpt>
      <trkpt lat="47.79798" lon="-2.60639">
        <ele>103.8</ele>
        <time>2024-09-15T10:16:25Z</time>
      </trkpt>
      <trkpt lat="47.79797" lon="-2.60641">
        <ele>104</ele>
        <time>2024-09-15T10:16:26Z</time>
      </trkpt>
      <trkpt lat="47.79797" lon="-2.60645">
        <ele>104.2</ele>
        <time>2024-09-15T10:16:27Z</time>
      </trkpt>
      <trkpt lat="47.79797" lon="-2.60648">
        <ele>104.4</ele>
        <time>2024-09-15T10:16:28Z</time>
      </trkpt>
      <trkpt lat="47.79795" lon="-2.60655">
        <ele>104.4</ele>
        <time>2024-09-15T10:16:30Z</time>
      </trkpt>
      <trkpt lat="47.79794" lon="-2.60662">
        <ele>104.6</ele>
        <time>2024-09-15T10:16:31Z</time>
      </trkpt>
      <trkpt lat="47.79794" lon="-2.60671">
        <ele>104.4</ele>
        <time>2024-09-15T10:16:32Z</time>
      </trkpt>
      <trkpt lat="47.79795" lon="-2.60678">
        <ele>104.4</ele>
        <time>2024-09-15T10:16:33Z</time>
      </trkpt>
      <trkpt lat="47.79793" lon="-2.60683">
        <ele>104.4</ele>
        <time>2024-09-15T10:16:34Z</time>
      </trkpt>
      <trkpt lat="47.79792" lon="-2.60692">
        <ele>104.6</ele>
        <time>2024-09-15T10:16:36Z</time>
      </trkpt>
      <trkpt lat="47.79791" lon="-2.60694">
        <ele>104.6</ele>
        <time>2024-09-15T10:16:37Z</time>
      </trkpt>
      <trkpt lat="47.7979" lon="-2.60701">
        <ele>104.6</ele>
        <time>2024-09-15T10:16:38Z</time>
      </trkpt>
      <trkpt lat="47.79787" lon="-2.60714">
        <ele>104.6</ele>
        <time>2024-09-15T10:16:41Z</time>
      </trkpt>
      <trkpt lat="47.79789" lon="-2.60719">
        <ele>104.8</ele>
        <time>2024-09-15T10:16:42Z</time>
      </trkpt>
      <trkpt lat="47.79791" lon="-2.60724">
        <ele>105</ele>
        <time>2024-09-15T10:16:43Z</time>
      </trkpt>
      <trkpt lat="47.79792" lon="-2.60732">
        <ele>105</ele>
        <time>2024-09-15T10:16:44Z</time>
      </trkpt>
      <trkpt lat="47.79794" lon="-2.6074">
        <ele>105</ele>
        <time>2024-09-15T10:16:45Z</time>
      </trkpt>
      <trkpt lat="47.79795" lon="-2.60746">
        <ele>105</ele>
        <time>2024-09-15T10:16:46Z</time>
      </trkpt>
      <trkpt lat="47.79795" lon="-2.60763">
        <ele>105.2</ele>
        <time>2024-09-15T10:16:49Z</time>
      </trkpt>
      <trkpt lat="47.79793" lon="-2.60765">
        <ele>105.2</ele>
        <time>2024-09-15T10:16:50Z</time>
      </trkpt>
      <trkpt lat="47.79788" lon="-2.60767">
        <ele>105.2</ele>
        <time>2024-09-15T10:16:51Z</time>
      </trkpt>
      <trkpt lat="47.79783" lon="-2.60773">
        <ele>105.2</ele>
        <time>2024-09-15T10:16:53Z</time>
      </trkpt>
      <trkpt lat="47.7978" lon="-2.60775">
        <ele>105.2</ele>
        <time>2024-09-15T10:16:54Z</time>
      </trkpt>
      <trkpt lat="47.79778" lon="-2.60776">
        <ele>105.2</ele>
        <time>2024-09-15T10:16:55Z</time>
      </trkpt>
      <trkpt lat="47.79774" lon="-2.60777">
        <ele>105.2</ele>
        <time>2024-09-15T10:16:56Z</time>
      </trkpt>
      <trkpt lat="47.7977" lon="-2.6078">
        <ele>105.4</ele>
        <time>2024-09-15T10:16:57Z</time>
      </trkpt>
      <trkpt lat="47.79769" lon="-2.60783">
        <ele>105.2</ele>
        <time>2024-09-15T10:16:58Z</time>
      </trkpt>
      <trkpt lat="47.79772" lon="-2.60789">
        <ele>105.4</ele>
        <time>2024-09-15T10:16:59Z</time>
      </trkpt>
      <trkpt lat="47.79774" lon="-2.60793">
        <ele>105.2</ele>
        <time>2024-09-15T10:17:00Z</time>
      </trkpt>
      <trkpt lat="47.79775" lon="-2.60796">
        <ele>105.4</ele>
        <time>2024-09-15T10:17:01Z</time>
      </trkpt>
      <trkpt lat="47.79784" lon="-2.60806">
        <ele>105.4</ele>
        <time>2024-09-15T10:17:04Z</time>
      </trkpt>
      <trkpt lat="47.79789" lon="-2.60816">
        <ele>105.4</ele>
        <time>2024-09-15T10:17:06Z</time>
      </trkpt>
      <trkpt lat="47.79792" lon="-2.60826">
        <ele>105.2</ele>
        <time>2024-09-15T10:17:08Z</time>
      </trkpt>
      <trkpt lat="47.79797" lon="-2.60832">
        <ele>105.2</ele>
        <time>2024-09-15T10:17:10Z</time>
      </trkpt>
      <trkpt lat="47.79799" lon="-2.60839">
        <ele>105</ele>
        <time>2024-09-15T10:17:11Z</time>
      </trkpt>
      <trkpt lat="47.79803" lon="-2.60844">
        <ele>105</ele>
        <time>2024-09-15T10:17:12Z</time>
      </trkpt>
      <trkpt lat="47.79806" lon="-2.60851">
        <ele>104.8</ele>
        <time>2024-09-15T10:17:13Z</time>
      </trkpt>
      <trkpt lat="47.79806" lon="-2.60857">
        <ele>104.8</ele>
        <time>2024-09-15T10:17:14Z</time>
      </trkpt>
      <trkpt lat="47.79805" lon="-2.60863">
        <ele>104.8</ele>
        <time>2024-09-15T10:17:15Z</time>
      </trkpt>
      <trkpt lat="47.79806" lon="-2.60869">
        <ele>104.4</ele>
        <time>2024-09-15T10:17:16Z</time>
      </trkpt>
      <trkpt lat="47.7981" lon="-2.60873">
        <ele>104.2</ele>
        <time>2024-09-15T10:17:17Z</time>
      </trkpt>
      <trkpt lat="47.79814" lon="-2.60876">
        <ele>104</ele>
        <time>2024-09-15T10:17:18Z</time>
      </trkpt>
      <trkpt lat="47.79816" lon="-2.60877">
        <ele>103.6</ele>
        <time>2024-09-15T10:17:19Z</time>
      </trkpt>
      <trkpt lat="47.79818" lon="-2.60876">
        <ele>103.6</ele>
        <time>2024-09-15T10:17:20Z</time>
      </trkpt>
      <trkpt lat="47.79821" lon="-2.60876">
        <ele>103.4</ele>
        <time>2024-09-15T10:17:21Z</time>
      </trkpt>
      <trkpt lat="47.79824" lon="-2.60876">
        <ele>103.4</ele>
        <time>2024-09-15T10:17:22Z</time>
      </trkpt>
      <trkpt lat="47.79839" lon="-2.60877">
        <ele>103.4</ele>
        <time>2024-09-15T10:17:26Z</time>
      </trkpt>
      <trkpt lat="47.79842" lon="-2.60877">
        <ele>103.4</ele>
        <time>2024-09-15T10:17:27Z</time>
      </trkpt>
      <trkpt lat="47.79845" lon="-2.60878">
        <ele>103.4</ele>
        <time>2024-09-15T10:17:28Z</time>
      </trkpt>
      <trkpt lat="47.79852" lon="-2.60878">
        <ele>103.4</ele>
        <time>2024-09-15T10:17:30Z</time>
      </trkpt>
      <trkpt lat="47.79855" lon="-2.60875">
        <ele>103.4</ele>
        <time>2024-09-15T10:17:31Z</time>
      </trkpt>
      <trkpt lat="47.79859" lon="-2.60874">
        <ele>103.4</ele>
        <time>2024-09-15T10:17:32Z</time>
      </trkpt>
      <trkpt lat="47.79866" lon="-2.60871">
        <ele>103.2</ele>
        <time>2024-09-15T10:17:34Z</time>
      </trkpt>
      <trkpt lat="47.79872" lon="-2.6087">
        <ele>103</ele>
        <time>2024-09-15T10:17:36Z</time>
      </trkpt>
      <trkpt lat="47.79876" lon="-2.60865">
        <ele>102.8</ele>
        <time>2024-09-15T10:17:37Z</time>
      </trkpt>
      <trkpt lat="47.79879" lon="-2.60861">
        <ele>102.6</ele>
        <time>2024-09-15T10:17:38Z</time>
      </trkpt>
      <trkpt lat="47.79881" lon="-2.60859">
        <ele>102.6</ele>
        <time>2024-09-15T10:17:39Z</time>
      </trkpt>
      <trkpt lat="47.79881" lon="-2.60856">
        <ele>102.6</ele>
        <time>2024-09-15T10:17:40Z</time>
      </trkpt>
      <trkpt lat="47.79882" lon="-2.60854">
        <ele>102.6</ele>
        <time>2024-09-15T10:17:41Z</time>
      </trkpt>
      <trkpt lat="47.79882" lon="-2.60851">
        <ele>102.6</ele>
        <time>2024-09-15T10:17:42Z</time>
      </trkpt>
      <trkpt lat="47.79888" lon="-2.60844">
        <ele>102.6</ele>
        <time>2024-09-15T10:17:44Z</time>
      </trkpt>
      <trkpt lat="47.79891" lon="-2.60841">
        <ele>102.6</ele>
        <time>2024-09-15T10:17:45Z</time>
      </trkpt>
      <trkpt lat="47.79892" lon="-2.60836">
        <ele>102.6</ele>
        <time>2024-09-15T10:17:46Z</time>
      </trkpt>
      <trkpt lat="47.79896" lon="-2.60831">
        <ele>102.6</ele>
        <time>2024-09-15T10:17:47Z</time>
      </trkpt>
      <trkpt lat="47.79905" lon="-2.60826">
        <ele>102.6</ele>
        <time>2024-09-15T10:17:50Z</time>
      </trkpt>
      <trkpt lat="47.79908" lon="-2.60822">
        <ele>102.6</ele>
        <time>2024-09-15T10:17:51Z</time>
      </trkpt>
      <trkpt lat="47.79914" lon="-2.60821">
        <ele>102.6</ele>
        <time>2024-09-15T10:17:52Z</time>
      </trkpt>
      <trkpt lat="47.79918" lon="-2.60821">
        <ele>102.6</ele>
        <time>2024-09-15T10:17:53Z</time>
      </trkpt>
      <trkpt lat="47.79921" lon="-2.60818">
        <ele>102.6</ele>
        <time>2024-09-15T10:17:54Z</time>
      </trkpt>
      <trkpt lat="47.79922" lon="-2.60814">
        <ele>102.6</ele>
        <time>2024-09-15T10:17:55Z</time>
      </trkpt>
      <trkpt lat="47.79925" lon="-2.60809">
        <ele>102.6</ele>
        <time>2024-09-15T10:17:56Z</time>
      </trkpt>
      <trkpt lat="47.79927" lon="-2.60806">
        <ele>102.4</ele>
        <time>2024-09-15T10:17:57Z</time>
      </trkpt>
      <trkpt lat="47.79932" lon="-2.60803">
        <ele>102.4</ele>
        <time>2024-09-15T10:17:58Z</time>
      </trkpt>
      <trkpt lat="47.79934" lon="-2.60801">
        <ele>102.4</ele>
        <time>2024-09-15T10:17:59Z</time>
      </trkpt>
      <trkpt lat="47.79936" lon="-2.60801">
        <ele>102.4</ele>
        <time>2024-09-15T10:18:00Z</time>
      </trkpt>
      <trkpt lat="47.79939" lon="-2.60801">
        <ele>102.6</ele>
        <time>2024-09-15T10:18:01Z</time>
      </trkpt>
      <trkpt lat="47.79943" lon="-2.60803">
        <ele>102.6</ele>
        <time>2024-09-15T10:18:02Z</time>
      </trkpt>
      <trkpt lat="47.79947" lon="-2.60801">
        <ele>102.2</ele>
        <time>2024-09-15T10:18:03Z</time>
      </trkpt>
      <trkpt lat="47.79948" lon="-2.60801">
        <ele>102.2</ele>
        <time>2024-09-15T10:18:04Z</time>
      </trkpt>
      <trkpt lat="47.79952" lon="-2.60805">
        <ele>102.4</ele>
        <time>2024-09-15T10:18:06Z</time>
      </trkpt>
      <trkpt lat="47.79955" lon="-2.60809">
        <ele>102.6</ele>
        <time>2024-09-15T10:18:07Z</time>
      </trkpt>
      <trkpt lat="47.79957" lon="-2.60813">
        <ele>102.6</ele>
        <time>2024-09-15T10:18:08Z</time>
      </trkpt>
      <trkpt lat="47.7996" lon="-2.60818">
        <ele>102.6</ele>
        <time>2024-09-15T10:18:09Z</time>
      </trkpt>
      <trkpt lat="47.79963" lon="-2.6082">
        <ele>102.6</ele>
        <time>2024-09-15T10:18:10Z</time>
      </trkpt>
      <trkpt lat="47.79967" lon="-2.60819">
        <ele>102.6</ele>
        <time>2024-09-15T10:18:11Z</time>
      </trkpt>
      <trkpt lat="47.79968" lon="-2.60817">
        <ele>102.6</ele>
        <time>2024-09-15T10:18:12Z</time>
      </trkpt>
      <trkpt lat="47.79967" lon="-2.60814">
        <ele>102.6</ele>
        <time>2024-09-15T10:18:13Z</time>
      </trkpt>
      <trkpt lat="47.79968" lon="-2.60809">
        <ele>103</ele>
        <time>2024-09-15T10:18:14Z</time>
      </trkpt>
      <trkpt lat="47.79969" lon="-2.60806">
        <ele>103</ele>
        <time>2024-09-15T10:18:15Z</time>
      </trkpt>
      <trkpt lat="47.79972" lon="-2.60805">
        <ele>103</ele>
        <time>2024-09-15T10:18:16Z</time>
      </trkpt>
      <trkpt lat="47.79975" lon="-2.60804">
        <ele>103</ele>
        <time>2024-09-15T10:18:17Z</time>
      </trkpt>
      <trkpt lat="47.79979" lon="-2.60802">
        <ele>103</ele>
        <time>2024-09-15T10:18:18Z</time>
      </trkpt>
      <trkpt lat="47.79984" lon="-2.60803">
        <ele>103</ele>
        <time>2024-09-15T10:18:19Z</time>
      </trkpt>
      <trkpt lat="47.79988" lon="-2.60804">
        <ele>103</ele>
        <time>2024-09-15T10:18:20Z</time>
      </trkpt>
      <trkpt lat="47.79992" lon="-2.60804">
        <ele>103</ele>
        <time>2024-09-15T10:18:21Z</time>
      </trkpt>
      <trkpt lat="47.79995" lon="-2.60804">
        <ele>103</ele>
        <time>2024-09-15T10:18:22Z</time>
      </trkpt>
      <trkpt lat="47.80001" lon="-2.60805">
        <ele>103</ele>
        <time>2024-09-15T10:18:24Z</time>
      </trkpt>
      <trkpt lat="47.80001" lon="-2.60805">
        <ele>103</ele>
        <time>2024-09-15T10:18:25Z</time>
      </trkpt>
      <trkpt lat="47.80001" lon="-2.60805">
        <ele>103</ele>
        <time>2024-09-15T10:18:26Z</time>
      </trkpt>
      <trkpt lat="47.80003" lon="-2.60806">
        <ele>103</ele>
        <time>2024-09-15T10:18:27Z</time>
      </trkpt>
      <trkpt lat="47.80005" lon="-2.60806">
        <ele>103</ele>
        <time>2024-09-15T10:18:28Z</time>
      </trkpt>
      <trkpt lat="47.80006" lon="-2.60806">
        <ele>103</ele>
        <time>2024-09-15T10:18:29Z</time>
      </trkpt>
      <trkpt lat="47.80008" lon="-2.60806">
        <ele>103</ele>
        <time>2024-09-15T10:18:30Z</time>
      </trkpt>
      <trkpt lat="47.8001" lon="-2.60807">
        <ele>103</ele>
        <time>2024-09-15T10:18:31Z</time>
      </trkpt>
      <trkpt lat="47.80012" lon="-2.60808">
        <ele>103</ele>
        <time>2024-09-15T10:18:32Z</time>
      </trkpt>
      <trkpt lat="47.80015" lon="-2.60807">
        <ele>103</ele>
        <time>2024-09-15T10:18:33Z</time>
      </trkpt>
      <trkpt lat="47.80021" lon="-2.60808">
        <ele>103</ele>
        <time>2024-09-15T10:18:35Z</time>
      </trkpt>
      <trkpt lat="47.8003" lon="-2.6081">
        <ele>103</ele>
        <time>2024-09-15T10:18:37Z</time>
      </trkpt>
      <trkpt lat="47.80033" lon="-2.60813">
        <ele>103.2</ele>
        <time>2024-09-15T10:18:38Z</time>
      </trkpt>
      <trkpt lat="47.80036" lon="-2.60816">
        <ele>103.6</ele>
        <time>2024-09-15T10:18:39Z</time>
      </trkpt>
      <trkpt lat="47.80038" lon="-2.60819">
        <ele>103.6</ele>
        <time>2024-09-15T10:18:40Z</time>
      </trkpt>
      <trkpt lat="47.8004" lon="-2.60822">
        <ele>103.6</ele>
        <time>2024-09-15T10:18:41Z</time>
      </trkpt>
      <trkpt lat="47.80042" lon="-2.60824">
        <ele>103.6</ele>
        <time>2024-09-15T10:18:42Z</time>
      </trkpt>
      <trkpt lat="47.80043" lon="-2.60827">
        <ele>103.8</ele>
        <time>2024-09-15T10:18:43Z</time>
      </trkpt>
      <trkpt lat="47.80048" lon="-2.60835">
        <ele>104</ele>
        <time>2024-09-15T10:18:46Z</time>
      </trkpt>
      <trkpt lat="47.8005" lon="-2.60838">
        <ele>104.4</ele>
        <time>2024-09-15T10:18:47Z</time>
      </trkpt>
      <trkpt lat="47.80052" lon="-2.60841">
        <ele>104.6</ele>
        <time>2024-09-15T10:18:48Z</time>
      </trkpt>
      <trkpt lat="47.8006" lon="-2.60861">
        <ele>105</ele>
        <time>2024-09-15T10:18:52Z</time>
      </trkpt>
      <trkpt lat="47.80056" lon="-2.60864">
        <ele>105.2</ele>
        <time>2024-09-15T10:18:53Z</time>
      </trkpt>
      <trkpt lat="47.8005" lon="-2.60875">
        <ele>105.2</ele>
        <time>2024-09-15T10:18:56Z</time>
      </trkpt>
      <trkpt lat="47.80047" lon="-2.60879">
        <ele>105.4</ele>
        <time>2024-09-15T10:18:57Z</time>
      </trkpt>
      <trkpt lat="47.80045" lon="-2.60884">
        <ele>105.4</ele>
        <time>2024-09-15T10:18:58Z</time>
      </trkpt>
      <trkpt lat="47.80042" lon="-2.60887">
        <ele>105.4</ele>
        <time>2024-09-15T10:18:59Z</time>
      </trkpt>
      <trkpt lat="47.80038" lon="-2.60891">
        <ele>105.4</ele>
        <time>2024-09-15T10:19:00Z</time>
      </trkpt>
      <trkpt lat="47.8003" lon="-2.60906">
        <ele>105.4</ele>
        <time>2024-09-15T10:19:03Z</time>
      </trkpt>
      <trkpt lat="47.80026" lon="-2.60916">
        <ele>105.4</ele>
        <time>2024-09-15T10:19:05Z</time>
      </trkpt>
      <trkpt lat="47.80022" lon="-2.60921">
        <ele>105.4</ele>
        <time>2024-09-15T10:19:06Z</time>
      </trkpt>
      <trkpt lat="47.80013" lon="-2.60938">
        <ele>105.6</ele>
        <time>2024-09-15T10:19:09Z</time>
      </trkpt>
      <trkpt lat="47.80004" lon="-2.6095">
        <ele>105.4</ele>
        <time>2024-09-15T10:19:11Z</time>
      </trkpt>
      <trkpt lat="47.80001" lon="-2.60954">
        <ele>105.4</ele>
        <time>2024-09-15T10:19:12Z</time>
      </trkpt>
      <trkpt lat="47.79999" lon="-2.60958">
        <ele>105.4</ele>
        <time>2024-09-15T10:19:13Z</time>
      </trkpt>
      <trkpt lat="47.79993" lon="-2.6097">
        <ele>105.2</ele>
        <time>2024-09-15T10:19:15Z</time>
      </trkpt>
      <trkpt lat="47.79983" lon="-2.60984">
        <ele>105</ele>
        <time>2024-09-15T10:19:17Z</time>
      </trkpt>
      <trkpt lat="47.79973" lon="-2.61001">
        <ele>104.6</ele>
        <time>2024-09-15T10:19:20Z</time>
      </trkpt>
      <trkpt lat="47.79959" lon="-2.61017">
        <ele>104.4</ele>
        <time>2024-09-15T10:19:22Z</time>
      </trkpt>
      <trkpt lat="47.79951" lon="-2.61029">
        <ele>104.4</ele>
        <time>2024-09-15T10:19:24Z</time>
      </trkpt>
      <trkpt lat="47.79946" lon="-2.61033">
        <ele>104.2</ele>
        <time>2024-09-15T10:19:25Z</time>
      </trkpt>
      <trkpt lat="47.79942" lon="-2.61036">
        <ele>104.2</ele>
        <time>2024-09-15T10:19:26Z</time>
      </trkpt>
      <trkpt lat="47.79938" lon="-2.61041">
        <ele>104</ele>
        <time>2024-09-15T10:19:27Z</time>
      </trkpt>
      <trkpt lat="47.79935" lon="-2.61047">
        <ele>104</ele>
        <time>2024-09-15T10:19:28Z</time>
      </trkpt>
      <trkpt lat="47.79927" lon="-2.6106">
        <ele>104</ele>
        <time>2024-09-15T10:19:31Z</time>
      </trkpt>
      <trkpt lat="47.79923" lon="-2.61067">
        <ele>103.8</ele>
        <time>2024-09-15T10:19:32Z</time>
      </trkpt>
      <trkpt lat="47.79905" lon="-2.61096">
        <ele>103.8</ele>
        <time>2024-09-15T10:19:35Z</time>
      </trkpt>
      <trkpt lat="47.79902" lon="-2.61106">
        <ele>103.8</ele>
        <time>2024-09-15T10:19:36Z</time>
      </trkpt>
      <trkpt lat="47.79898" lon="-2.61112">
        <ele>103.8</ele>
        <time>2024-09-15T10:19:37Z</time>
      </trkpt>
      <trkpt lat="47.7989" lon="-2.61125">
        <ele>103.8</ele>
        <time>2024-09-15T10:19:39Z</time>
      </trkpt>
      <trkpt lat="47.79886" lon="-2.61132">
        <ele>103.4</ele>
        <time>2024-09-15T10:19:40Z</time>
      </trkpt>
      <trkpt lat="47.79882" lon="-2.61137">
        <ele>103.2</ele>
        <time>2024-09-15T10:19:41Z</time>
      </trkpt>
      <trkpt lat="47.79872" lon="-2.6115">
        <ele>103</ele>
        <time>2024-09-15T10:19:43Z</time>
      </trkpt>
      <trkpt lat="47.79865" lon="-2.6116">
        <ele>102.8</ele>
        <time>2024-09-15T10:19:45Z</time>
      </trkpt>
      <trkpt lat="47.79857" lon="-2.61164">
        <ele>102.8</ele>
        <time>2024-09-15T10:19:46Z</time>
      </trkpt>
      <trkpt lat="47.79841" lon="-2.61188">
        <ele>102</ele>
        <time>2024-09-15T10:19:49Z</time>
      </trkpt>
      <trkpt lat="47.79836" lon="-2.61197">
        <ele>101.4</ele>
        <time>2024-09-15T10:19:50Z</time>
      </trkpt>
      <trkpt lat="47.79831" lon="-2.61207">
        <ele>101.2</ele>
        <time>2024-09-15T10:19:51Z</time>
      </trkpt>
      <trkpt lat="47.79829" lon="-2.61215">
        <ele>100.8</ele>
        <time>2024-09-15T10:19:52Z</time>
      </trkpt>
      <trkpt lat="47.79824" lon="-2.6122">
        <ele>100.4</ele>
        <time>2024-09-15T10:19:53Z</time>
      </trkpt>
      <trkpt lat="47.79819" lon="-2.61226">
        <ele>100.2</ele>
        <time>2024-09-15T10:19:54Z</time>
      </trkpt>
      <trkpt lat="47.79814" lon="-2.61232">
        <ele>100</ele>
        <time>2024-09-15T10:19:55Z</time>
      </trkpt>
      <trkpt lat="47.79811" lon="-2.61236">
        <ele>99.8</ele>
        <time>2024-09-15T10:19:56Z</time>
      </trkpt>
      <trkpt lat="47.79808" lon="-2.61241">
        <ele>99.8</ele>
        <time>2024-09-15T10:19:57Z</time>
      </trkpt>
      <trkpt lat="47.79805" lon="-2.61248">
        <ele>99.6</ele>
        <time>2024-09-15T10:19:58Z</time>
      </trkpt>
      <trkpt lat="47.79799" lon="-2.61253">
        <ele>99.6</ele>
        <time>2024-09-15T10:19:59Z</time>
      </trkpt>
      <trkpt lat="47.79795" lon="-2.61259">
        <ele>99.8</ele>
        <time>2024-09-15T10:20:00Z</time>
      </trkpt>
      <trkpt lat="47.79791" lon="-2.61265">
        <ele>100</ele>
        <time>2024-09-15T10:20:01Z</time>
      </trkpt>
      <trkpt lat="47.79787" lon="-2.61272">
        <ele>100</ele>
        <time>2024-09-15T10:20:02Z</time>
      </trkpt>
      <trkpt lat="47.79784" lon="-2.61277">
        <ele>100</ele>
        <time>2024-09-15T10:20:03Z</time>
      </trkpt>
      <trkpt lat="47.79783" lon="-2.61281">
        <ele>100</ele>
        <time>2024-09-15T10:20:04Z</time>
      </trkpt>
      <trkpt lat="47.79784" lon="-2.61282">
        <ele>100.2</ele>
        <time>2024-09-15T10:20:05Z</time>
      </trkpt>
      <trkpt lat="47.79784" lon="-2.61283">
        <ele>100.6</ele>
        <time>2024-09-15T10:20:06Z</time>
      </trkpt>
      <trkpt lat="47.79784" lon="-2.61285">
        <ele>100.6</ele>
        <time>2024-09-15T10:20:07Z</time>
      </trkpt>
      <trkpt lat="47.79781" lon="-2.61288">
        <ele>100.6</ele>
        <time>2024-09-15T10:20:08Z</time>
      </trkpt>
      <trkpt lat="47.79778" lon="-2.6129">
        <ele>101</ele>
        <time>2024-09-15T10:20:09Z</time>
      </trkpt>
      <trkpt lat="47.79775" lon="-2.61294">
        <ele>101.2</ele>
        <time>2024-09-15T10:20:10Z</time>
      </trkpt>
      <trkpt lat="47.7977" lon="-2.61301">
        <ele>101.2</ele>
        <time>2024-09-15T10:20:11Z</time>
      </trkpt>
      <trkpt lat="47.79767" lon="-2.61304">
        <ele>101.4</ele>
        <time>2024-09-15T10:20:12Z</time>
      </trkpt>
      <trkpt lat="47.79765" lon="-2.61307">
        <ele>101.4</ele>
        <time>2024-09-15T10:20:13Z</time>
      </trkpt>
      <trkpt lat="47.79762" lon="-2.61311">
        <ele>101.4</ele>
        <time>2024-09-15T10:20:14Z</time>
      </trkpt>
      <trkpt lat="47.79759" lon="-2.61314">
        <ele>101.4</ele>
        <time>2024-09-15T10:20:15Z</time>
      </trkpt>
      <trkpt lat="47.79757" lon="-2.61316">
        <ele>101.6</ele>
        <time>2024-09-15T10:20:16Z</time>
      </trkpt>
      <trkpt lat="47.79754" lon="-2.61319">
        <ele>101.6</ele>
        <time>2024-09-15T10:20:17Z</time>
      </trkpt>
      <trkpt lat="47.79752" lon="-2.61322">
        <ele>101.8</ele>
        <time>2024-09-15T10:20:18Z</time>
      </trkpt>
      <trkpt lat="47.7975" lon="-2.61327">
        <ele>101.8</ele>
        <time>2024-09-15T10:20:19Z</time>
      </trkpt>
      <trkpt lat="47.79745" lon="-2.61335">
        <ele>101.8</ele>
        <time>2024-09-15T10:20:21Z</time>
      </trkpt>
      <trkpt lat="47.79739" lon="-2.61344">
        <ele>102.4</ele>
        <time>2024-09-15T10:20:23Z</time>
      </trkpt>
      <trkpt lat="47.79727" lon="-2.61361">
        <ele>102.4</ele>
        <time>2024-09-15T10:20:26Z</time>
      </trkpt>
      <trkpt lat="47.79723" lon="-2.61364">
        <ele>102.6</ele>
        <time>2024-09-15T10:20:27Z</time>
      </trkpt>
      <trkpt lat="47.7972" lon="-2.61367">
        <ele>102.6</ele>
        <time>2024-09-15T10:20:28Z</time>
      </trkpt>
      <trkpt lat="47.79717" lon="-2.61371">
        <ele>102.8</ele>
        <time>2024-09-15T10:20:29Z</time>
      </trkpt>
      <trkpt lat="47.79715" lon="-2.61374">
        <ele>103</ele>
        <time>2024-09-15T10:20:30Z</time>
      </trkpt>
      <trkpt lat="47.79714" lon="-2.61377">
        <ele>103</ele>
        <time>2024-09-15T10:20:31Z</time>
      </trkpt>
      <trkpt lat="47.79711" lon="-2.61381">
        <ele>103</ele>
        <time>2024-09-15T10:20:32Z</time>
      </trkpt>
      <trkpt lat="47.79708" lon="-2.61385">
        <ele>103</ele>
        <time>2024-09-15T10:20:33Z</time>
      </trkpt>
      <trkpt lat="47.79706" lon="-2.6139">
        <ele>103</ele>
        <time>2024-09-15T10:20:34Z</time>
      </trkpt>
      <trkpt lat="47.79706" lon="-2.61396">
        <ele>103</ele>
        <time>2024-09-15T10:20:35Z</time>
      </trkpt>
      <trkpt lat="47.79703" lon="-2.61399">
        <ele>103</ele>
        <time>2024-09-15T10:20:36Z</time>
      </trkpt>
      <trkpt lat="47.79692" lon="-2.61416">
        <ele>103.4</ele>
        <time>2024-09-15T10:20:39Z</time>
      </trkpt>
      <trkpt lat="47.79691" lon="-2.61418">
        <ele>103.4</ele>
        <time>2024-09-15T10:20:40Z</time>
      </trkpt>
      <trkpt lat="47.79689" lon="-2.6142">
        <ele>103.4</ele>
        <time>2024-09-15T10:20:41Z</time>
      </trkpt>
      <trkpt lat="47.79687" lon="-2.61421">
        <ele>103.4</ele>
        <time>2024-09-15T10:20:42Z</time>
      </trkpt>
      <trkpt lat="47.79686" lon="-2.61426">
        <ele>103.6</ele>
        <time>2024-09-15T10:20:43Z</time>
      </trkpt>
      <trkpt lat="47.79682" lon="-2.6144">
        <ele>104</ele>
        <time>2024-09-15T10:20:45Z</time>
      </trkpt>
      <trkpt lat="47.7968" lon="-2.61447">
        <ele>104.2</ele>
        <time>2024-09-15T10:20:47Z</time>
      </trkpt>
      <trkpt lat="47.79679" lon="-2.6145">
        <ele>104.4</ele>
        <time>2024-09-15T10:20:48Z</time>
      </trkpt>
      <trkpt lat="47.79676" lon="-2.6145">
        <ele>104.6</ele>
        <time>2024-09-15T10:20:49Z</time>
      </trkpt>
      <trkpt lat="47.79675" lon="-2.61454">
        <ele>104.8</ele>
        <time>2024-09-15T10:20:50Z</time>
      </trkpt>
      <trkpt lat="47.79672" lon="-2.61457">
        <ele>104.8</ele>
        <time>2024-09-15T10:20:51Z</time>
      </trkpt>
      <trkpt lat="47.7967" lon="-2.61461">
        <ele>104.8</ele>
        <time>2024-09-15T10:20:52Z</time>
      </trkpt>
      <trkpt lat="47.79667" lon="-2.61463">
        <ele>104.8</ele>
        <time>2024-09-15T10:20:53Z</time>
      </trkpt>
      <trkpt lat="47.79664" lon="-2.61465">
        <ele>105</ele>
        <time>2024-09-15T10:20:54Z</time>
      </trkpt>
      <trkpt lat="47.79662" lon="-2.61469">
        <ele>105</ele>
        <time>2024-09-15T10:20:55Z</time>
      </trkpt>
      <trkpt lat="47.79657" lon="-2.61478">
        <ele>105.4</ele>
        <time>2024-09-15T10:20:58Z</time>
      </trkpt>
      <trkpt lat="47.79654" lon="-2.61485">
        <ele>105.4</ele>
        <time>2024-09-15T10:20:59Z</time>
      </trkpt>
      <trkpt lat="47.79649" lon="-2.6149">
        <ele>105.4</ele>
        <time>2024-09-15T10:21:01Z</time>
      </trkpt>
      <trkpt lat="47.79647" lon="-2.61493">
        <ele>105.6</ele>
        <time>2024-09-15T10:21:02Z</time>
      </trkpt>
      <trkpt lat="47.79644" lon="-2.61495">
        <ele>105.6</ele>
        <time>2024-09-15T10:21:03Z</time>
      </trkpt>
      <trkpt lat="47.79642" lon="-2.61497">
        <ele>105.8</ele>
        <time>2024-09-15T10:21:04Z</time>
      </trkpt>
      <trkpt lat="47.79641" lon="-2.615">
        <ele>106</ele>
        <time>2024-09-15T10:21:05Z</time>
      </trkpt>
      <trkpt lat="47.79639" lon="-2.61505">
        <ele>106</ele>
        <time>2024-09-15T10:21:06Z</time>
      </trkpt>
      <trkpt lat="47.79634" lon="-2.61511">
        <ele>106</ele>
        <time>2024-09-15T10:21:08Z</time>
      </trkpt>
      <trkpt lat="47.79633" lon="-2.61516">
        <ele>106.2</ele>
        <time>2024-09-15T10:21:10Z</time>
      </trkpt>
      <trkpt lat="47.79632" lon="-2.61517">
        <ele>106.2</ele>
        <time>2024-09-15T10:21:11Z</time>
      </trkpt>
      <trkpt lat="47.79632" lon="-2.61518">
        <ele>106.4</ele>
        <time>2024-09-15T10:21:12Z</time>
      </trkpt>
      <trkpt lat="47.79631" lon="-2.6152">
        <ele>106.6</ele>
        <time>2024-09-15T10:21:13Z</time>
      </trkpt>
      <trkpt lat="47.79629" lon="-2.61522">
        <ele>106.6</ele>
        <time>2024-09-15T10:21:14Z</time>
      </trkpt>
      <trkpt lat="47.79628" lon="-2.61524">
        <ele>107</ele>
        <time>2024-09-15T10:21:15Z</time>
      </trkpt>
      <trkpt lat="47.79627" lon="-2.61526">
        <ele>107</ele>
        <time>2024-09-15T10:21:16Z</time>
      </trkpt>
      <trkpt lat="47.79625" lon="-2.61528">
        <ele>107.2</ele>
        <time>2024-09-15T10:21:17Z</time>
      </trkpt>
      <trkpt lat="47.79623" lon="-2.61529">
        <ele>107.4</ele>
        <time>2024-09-15T10:21:18Z</time>
      </trkpt>
      <trkpt lat="47.79622" lon="-2.61529">
        <ele>107.4</ele>
        <time>2024-09-15T10:21:19Z</time>
      </trkpt>
      <trkpt lat="47.79621" lon="-2.61531">
        <ele>107.6</ele>
        <time>2024-09-15T10:21:20Z</time>
      </trkpt>
      <trkpt lat="47.79618" lon="-2.61536">
        <ele>108</ele>
        <time>2024-09-15T10:21:22Z</time>
      </trkpt>
      <trkpt lat="47.79617" lon="-2.61539">
        <ele>108</ele>
        <time>2024-09-15T10:21:23Z</time>
      </trkpt>
      <trkpt lat="47.79615" lon="-2.61542">
        <ele>108.2</ele>
        <time>2024-09-15T10:21:24Z</time>
      </trkpt>
      <trkpt lat="47.79612" lon="-2.61547">
        <ele>108.4</ele>
        <time>2024-09-15T10:21:26Z</time>
      </trkpt>
      <trkpt lat="47.7961" lon="-2.6155">
        <ele>108.4</ele>
        <time>2024-09-15T10:21:27Z</time>
      </trkpt>
      <trkpt lat="47.79608" lon="-2.61552">
        <ele>108.6</ele>
        <time>2024-09-15T10:21:28Z</time>
      </trkpt>
      <trkpt lat="47.79606" lon="-2.61554">
        <ele>108.6</ele>
        <time>2024-09-15T10:21:29Z</time>
      </trkpt>
      <trkpt lat="47.79603" lon="-2.61556">
        <ele>108.8</ele>
        <time>2024-09-15T10:21:30Z</time>
      </trkpt>
      <trkpt lat="47.79601" lon="-2.61558">
        <ele>109</ele>
        <time>2024-09-15T10:21:31Z</time>
      </trkpt>
      <trkpt lat="47.79599" lon="-2.61562">
        <ele>109.2</ele>
        <time>2024-09-15T10:21:32Z</time>
      </trkpt>
      <trkpt lat="47.79597" lon="-2.61565">
        <ele>109.4</ele>
        <time>2024-09-15T10:21:33Z</time>
      </trkpt>
      <trkpt lat="47.79595" lon="-2.61569">
        <ele>109.4</ele>
        <time>2024-09-15T10:21:34Z</time>
      </trkpt>
      <trkpt lat="47.79593" lon="-2.61571">
        <ele>109.6</ele>
        <time>2024-09-15T10:21:35Z</time>
      </trkpt>
      <trkpt lat="47.7959" lon="-2.61573">
        <ele>109.8</ele>
        <time>2024-09-15T10:21:36Z</time>
      </trkpt>
      <trkpt lat="47.79587" lon="-2.61575">
        <ele>109.8</ele>
        <time>2024-09-15T10:21:37Z</time>
      </trkpt>
      <trkpt lat="47.79585" lon="-2.61579">
        <ele>109.8</ele>
        <time>2024-09-15T10:21:38Z</time>
      </trkpt>
      <trkpt lat="47.79582" lon="-2.61584">
        <ele>110</ele>
        <time>2024-09-15T10:21:39Z</time>
      </trkpt>
      <trkpt lat="47.79581" lon="-2.61585">
        <ele>110.4</ele>
        <time>2024-09-15T10:21:40Z</time>
      </trkpt>
      <trkpt lat="47.7958" lon="-2.61586">
        <ele>110.4</ele>
        <time>2024-09-15T10:21:41Z</time>
      </trkpt>
      <trkpt lat="47.79578" lon="-2.61591">
        <ele>110.6</ele>
        <time>2024-09-15T10:21:42Z</time>
      </trkpt>
      <trkpt lat="47.79577" lon="-2.61593">
        <ele>110.6</ele>
        <time>2024-09-15T10:21:43Z</time>
      </trkpt>
      <trkpt lat="47.79575" lon="-2.61595">
        <ele>110.8</ele>
        <time>2024-09-15T10:21:44Z</time>
      </trkpt>
      <trkpt lat="47.79575" lon="-2.61595">
        <ele>110.8</ele>
        <time>2024-09-15T10:21:45Z</time>
      </trkpt>
      <trkpt lat="47.79574" lon="-2.61598">
        <ele>111</ele>
        <time>2024-09-15T10:21:46Z</time>
      </trkpt>
      <trkpt lat="47.79571" lon="-2.61601">
        <ele>111.2</ele>
        <time>2024-09-15T10:21:47Z</time>
      </trkpt>
      <trkpt lat="47.79569" lon="-2.61605">
        <ele>111.2</ele>
        <time>2024-09-15T10:21:48Z</time>
      </trkpt>
      <trkpt lat="47.79569" lon="-2.61605">
        <ele>111.2</ele>
        <time>2024-09-15T10:21:49Z</time>
      </trkpt>
      <trkpt lat="47.79568" lon="-2.61606">
        <ele>111.4</ele>
        <time>2024-09-15T10:21:50Z</time>
      </trkpt>
      <trkpt lat="47.79566" lon="-2.61608">
        <ele>111.6</ele>
        <time>2024-09-15T10:21:51Z</time>
      </trkpt>
      <trkpt lat="47.79565" lon="-2.6161">
        <ele>111.6</ele>
        <time>2024-09-15T10:21:52Z</time>
      </trkpt>
      <trkpt lat="47.79563" lon="-2.61612">
        <ele>111.8</ele>
        <time>2024-09-15T10:21:53Z</time>
      </trkpt>
      <trkpt lat="47.79563" lon="-2.61613">
        <ele>111.8</ele>
        <time>2024-09-15T10:21:54Z</time>
      </trkpt>
      <trkpt lat="47.79562" lon="-2.61614">
        <ele>112</ele>
        <time>2024-09-15T10:21:55Z</time>
      </trkpt>
      <trkpt lat="47.7956" lon="-2.61618">
        <ele>112</ele>
        <time>2024-09-15T10:21:56Z</time>
      </trkpt>
      <trkpt lat="47.79558" lon="-2.6162">
        <ele>112.2</ele>
        <time>2024-09-15T10:21:57Z</time>
      </trkpt>
      <trkpt lat="47.79556" lon="-2.61626">
        <ele>112.6</ele>
        <time>2024-09-15T10:21:58Z</time>
      </trkpt>
      <trkpt lat="47.79553" lon="-2.61628">
        <ele>112.6</ele>
        <time>2024-09-15T10:21:59Z</time>
      </trkpt>
      <trkpt lat="47.79552" lon="-2.61631">
        <ele>112.8</ele>
        <time>2024-09-15T10:22:00Z</time>
      </trkpt>
      <trkpt lat="47.7955" lon="-2.61634">
        <ele>113</ele>
        <time>2024-09-15T10:22:01Z</time>
      </trkpt>
      <trkpt lat="47.79548" lon="-2.61637">
        <ele>113.2</ele>
        <time>2024-09-15T10:22:02Z</time>
      </trkpt>
      <trkpt lat="47.79546" lon="-2.6164">
        <ele>113.2</ele>
        <time>2024-09-15T10:22:03Z</time>
      </trkpt>
      <trkpt lat="47.79544" lon="-2.61642">
        <ele>113.4</ele>
        <time>2024-09-15T10:22:04Z</time>
      </trkpt>
      <trkpt lat="47.79543" lon="-2.61644">
        <ele>113.6</ele>
        <time>2024-09-15T10:22:05Z</time>
      </trkpt>
      <trkpt lat="47.79541" lon="-2.61646">
        <ele>113.8</ele>
        <time>2024-09-15T10:22:06Z</time>
      </trkpt>
      <trkpt lat="47.79541" lon="-2.61646">
        <ele>113.8</ele>
        <time>2024-09-15T10:22:07Z</time>
      </trkpt>
      <trkpt lat="47.7954" lon="-2.61647">
        <ele>114</ele>
        <time>2024-09-15T10:22:08Z</time>
      </trkpt>
      <trkpt lat="47.79541" lon="-2.61648">
        <ele>114</ele>
        <time>2024-09-15T10:22:09Z</time>
      </trkpt>
      <trkpt lat="47.79543" lon="-2.61651">
        <ele>114</ele>
        <time>2024-09-15T10:22:10Z</time>
      </trkpt>
      <trkpt lat="47.79544" lon="-2.61655">
        <ele>114</ele>
        <time>2024-09-15T10:22:11Z</time>
      </trkpt>
      <trkpt lat="47.79544" lon="-2.61658">
        <ele>114.2</ele>
        <time>2024-09-15T10:22:12Z</time>
      </trkpt>
      <trkpt lat="47.79543" lon="-2.61662">
        <ele>114.2</ele>
        <time>2024-09-15T10:22:13Z</time>
      </trkpt>
      <trkpt lat="47.79543" lon="-2.61665">
        <ele>114.2</ele>
        <time>2024-09-15T10:22:14Z</time>
      </trkpt>
      <trkpt lat="47.79544" lon="-2.61668">
        <ele>114.4</ele>
        <time>2024-09-15T10:22:15Z</time>
      </trkpt>
      <trkpt lat="47.79545" lon="-2.61672">
        <ele>114.4</ele>
        <time>2024-09-15T10:22:16Z</time>
      </trkpt>
      <trkpt lat="47.79544" lon="-2.61678">
        <ele>114.4</ele>
        <time>2024-09-15T10:22:17Z</time>
      </trkpt>
      <trkpt lat="47.79544" lon="-2.61682">
        <ele>114.4</ele>
        <time>2024-09-15T10:22:18Z</time>
      </trkpt>
      <trkpt lat="47.79545" lon="-2.61686">
        <ele>114.6</ele>
        <time>2024-09-15T10:22:19Z</time>
      </trkpt>
      <trkpt lat="47.79546" lon="-2.61692">
        <ele>114.6</ele>
        <time>2024-09-15T10:22:20Z</time>
      </trkpt>
      <trkpt lat="47.79548" lon="-2.61697">
        <ele>114.6</ele>
        <time>2024-09-15T10:22:21Z</time>
      </trkpt>
      <trkpt lat="47.79548" lon="-2.61702">
        <ele>114.8</ele>
        <time>2024-09-15T10:22:22Z</time>
      </trkpt>
      <trkpt lat="47.79553" lon="-2.61718">
        <ele>115</ele>
        <time>2024-09-15T10:22:25Z</time>
      </trkpt>
      <trkpt lat="47.79558" lon="-2.61732">
        <ele>115.4</ele>
        <time>2024-09-15T10:22:27Z</time>
      </trkpt>
      <trkpt lat="47.79561" lon="-2.61739">
        <ele>115.4</ele>
        <time>2024-09-15T10:22:28Z</time>
      </trkpt>
      <trkpt lat="47.7956" lon="-2.61752">
        <ele>115.6</ele>
        <time>2024-09-15T10:22:30Z</time>
      </trkpt>
      <trkpt lat="47.79561" lon="-2.61761">
        <ele>115.8</ele>
        <time>2024-09-15T10:22:31Z</time>
      </trkpt>
      <trkpt lat="47.79563" lon="-2.61769">
        <ele>115.8</ele>
        <time>2024-09-15T10:22:32Z</time>
      </trkpt>
      <trkpt lat="47.79565" lon="-2.61777">
        <ele>115.8</ele>
        <time>2024-09-15T10:22:33Z</time>
      </trkpt>
      <trkpt lat="47.79567" lon="-2.61782">
        <ele>115.8</ele>
        <time>2024-09-15T10:22:34Z</time>
      </trkpt>
      <trkpt lat="47.79569" lon="-2.61787">
        <ele>116</ele>
        <time>2024-09-15T10:22:35Z</time>
      </trkpt>
      <trkpt lat="47.7957" lon="-2.61793">
        <ele>116</ele>
        <time>2024-09-15T10:22:36Z</time>
      </trkpt>
      <trkpt lat="47.7957" lon="-2.61799">
        <ele>116</ele>
        <time>2024-09-15T10:22:37Z</time>
      </trkpt>
      <trkpt lat="47.79574" lon="-2.61808">
        <ele>116</ele>
        <time>2024-09-15T10:22:39Z</time>
      </trkpt>
      <trkpt lat="47.79577" lon="-2.61813">
        <ele>116</ele>
        <time>2024-09-15T10:22:40Z</time>
      </trkpt>
      <trkpt lat="47.79579" lon="-2.61821">
        <ele>116</ele>
        <time>2024-09-15T10:22:41Z</time>
      </trkpt>
      <trkpt lat="47.79577" lon="-2.61834">
        <ele>116</ele>
        <time>2024-09-15T10:22:44Z</time>
      </trkpt>
      <trkpt lat="47.79579" lon="-2.61839">
        <ele>116</ele>
        <time>2024-09-15T10:22:45Z</time>
      </trkpt>
      <trkpt lat="47.79581" lon="-2.61845">
        <ele>116</ele>
        <time>2024-09-15T10:22:46Z</time>
      </trkpt>
      <trkpt lat="47.79582" lon="-2.61849">
        <ele>116</ele>
        <time>2024-09-15T10:22:47Z</time>
      </trkpt>
      <trkpt lat="47.79581" lon="-2.61855">
        <ele>116</ele>
        <time>2024-09-15T10:22:48Z</time>
      </trkpt>
      <trkpt lat="47.79581" lon="-2.61861">
        <ele>116</ele>
        <time>2024-09-15T10:22:49Z</time>
      </trkpt>
      <trkpt lat="47.79583" lon="-2.61866">
        <ele>116.2</ele>
        <time>2024-09-15T10:22:50Z</time>
      </trkpt>
      <trkpt lat="47.79584" lon="-2.61871">
        <ele>116.2</ele>
        <time>2024-09-15T10:22:51Z</time>
      </trkpt>
      <trkpt lat="47.79588" lon="-2.61878">
        <ele>116.2</ele>
        <time>2024-09-15T10:22:52Z</time>
      </trkpt>
      <trkpt lat="47.7959" lon="-2.61883">
        <ele>116.2</ele>
        <time>2024-09-15T10:22:53Z</time>
      </trkpt>
      <trkpt lat="47.79592" lon="-2.61889">
        <ele>116.2</ele>
        <time>2024-09-15T10:22:54Z</time>
      </trkpt>
      <trkpt lat="47.79593" lon="-2.61899">
        <ele>116.2</ele>
        <time>2024-09-15T10:22:56Z</time>
      </trkpt>
      <trkpt lat="47.79594" lon="-2.61903">
        <ele>116.2</ele>
        <time>2024-09-15T10:22:57Z</time>
      </trkpt>
      <trkpt lat="47.79597" lon="-2.6191">
        <ele>116.2</ele>
        <time>2024-09-15T10:22:58Z</time>
      </trkpt>
      <trkpt lat="47.79602" lon="-2.61922">
        <ele>116.2</ele>
        <time>2024-09-15T10:23:00Z</time>
      </trkpt>
      <trkpt lat="47.79604" lon="-2.61927">
        <ele>116.2</ele>
        <time>2024-09-15T10:23:01Z</time>
      </trkpt>
      <trkpt lat="47.79606" lon="-2.61934">
        <ele>116.2</ele>
        <time>2024-09-15T10:23:02Z</time>
      </trkpt>
      <trkpt lat="47.79608" lon="-2.61941">
        <ele>116.2</ele>
        <time>2024-09-15T10:23:03Z</time>
      </trkpt>
      <trkpt lat="47.79608" lon="-2.61948">
        <ele>116.2</ele>
        <time>2024-09-15T10:23:04Z</time>
      </trkpt>
      <trkpt lat="47.79609" lon="-2.61957">
        <ele>116.2</ele>
        <time>2024-09-15T10:23:05Z</time>
      </trkpt>
      <trkpt lat="47.7961" lon="-2.61964">
        <ele>116.2</ele>
        <time>2024-09-15T10:23:06Z</time>
      </trkpt>
      <trkpt lat="47.79613" lon="-2.61977">
        <ele>116.2</ele>
        <time>2024-09-15T10:23:08Z</time>
      </trkpt>
      <trkpt lat="47.79619" lon="-2.61992">
        <ele>116</ele>
        <time>2024-09-15T10:23:10Z</time>
      </trkpt>
      <trkpt lat="47.79622" lon="-2.62007">
        <ele>116</ele>
        <time>2024-09-15T10:23:12Z</time>
      </trkpt>
      <trkpt lat="47.79629" lon="-2.62033">
        <ele>116</ele>
        <time>2024-09-15T10:23:16Z</time>
      </trkpt>
      <trkpt lat="47.79637" lon="-2.62061">
        <ele>115.8</ele>
        <time>2024-09-15T10:23:20Z</time>
      </trkpt>
      <trkpt lat="47.79639" lon="-2.62067">
        <ele>115.6</ele>
        <time>2024-09-15T10:23:21Z</time>
      </trkpt>
      <trkpt lat="47.79641" lon="-2.62073">
        <ele>115.6</ele>
        <time>2024-09-15T10:23:22Z</time>
      </trkpt>
      <trkpt lat="47.79642" lon="-2.62077">
        <ele>115.4</ele>
        <time>2024-09-15T10:23:23Z</time>
      </trkpt>
      <trkpt lat="47.79646" lon="-2.62085">
        <ele>115.4</ele>
        <time>2024-09-15T10:23:25Z</time>
      </trkpt>
      <trkpt lat="47.79647" lon="-2.62091">
        <ele>115.2</ele>
        <time>2024-09-15T10:23:26Z</time>
      </trkpt>
      <trkpt lat="47.79651" lon="-2.62107">
        <ele>115</ele>
        <time>2024-09-15T10:23:29Z</time>
      </trkpt>
      <trkpt lat="47.79651" lon="-2.62115">
        <ele>115</ele>
        <time>2024-09-15T10:23:30Z</time>
      </trkpt>
      <trkpt lat="47.79646" lon="-2.6212">
        <ele>115</ele>
        <time>2024-09-15T10:23:31Z</time>
      </trkpt>
      <trkpt lat="47.79644" lon="-2.62126">
        <ele>114.8</ele>
        <time>2024-09-15T10:23:32Z</time>
      </trkpt>
      <trkpt lat="47.79643" lon="-2.62129">
        <ele>114.8</ele>
        <time>2024-09-15T10:23:33Z</time>
      </trkpt>
      <trkpt lat="47.79641" lon="-2.62131">
        <ele>114.8</ele>
        <time>2024-09-15T10:23:34Z</time>
      </trkpt>
      <trkpt lat="47.79638" lon="-2.62134">
        <ele>114.8</ele>
        <time>2024-09-15T10:23:35Z</time>
      </trkpt>
      <trkpt lat="47.79638" lon="-2.62134">
        <ele>114.8</ele>
        <time>2024-09-15T10:23:36Z</time>
      </trkpt>
      <trkpt lat="47.79638" lon="-2.62134">
        <ele>114.8</ele>
        <time>2024-09-15T10:23:37Z</time>
      </trkpt>
      <trkpt lat="47.79638" lon="-2.62134">
        <ele>114.8</ele>
        <time>2024-09-15T10:23:38Z</time>
      </trkpt>
      <trkpt lat="47.79638" lon="-2.62134">
        <ele>114.8</ele>
        <time>2024-09-15T10:23:39Z</time>
      </trkpt>
      <trkpt lat="47.79638" lon="-2.62134">
        <ele>115</ele>
        <time>2024-09-15T10:23:42Z</time>
      </trkpt>
      <trkpt lat="47.7964" lon="-2.62136">
        <ele>114.8</ele>
        <time>2024-09-15T10:23:46Z</time>
      </trkpt>
      <trkpt lat="47.79641" lon="-2.62138">
        <ele>114.6</ele>
        <time>2024-09-15T10:23:47Z</time>
      </trkpt>
      <trkpt lat="47.79641" lon="-2.62144">
        <ele>114.8</ele>
        <time>2024-09-15T10:23:49Z</time>
      </trkpt>
      <trkpt lat="47.79641" lon="-2.62147">
        <ele>114.6</ele>
        <time>2024-09-15T10:23:50Z</time>
      </trkpt>
      <trkpt lat="47.79641" lon="-2.6215">
        <ele>114.6</ele>
        <time>2024-09-15T10:23:51Z</time>
      </trkpt>
      <trkpt lat="47.7964" lon="-2.62153">
        <ele>114.4</ele>
        <time>2024-09-15T10:23:52Z</time>
      </trkpt>
      <trkpt lat="47.79639" lon="-2.62157">
        <ele>114.4</ele>
        <time>2024-09-15T10:23:53Z</time>
      </trkpt>
      <trkpt lat="47.79638" lon="-2.62163">
        <ele>114.4</ele>
        <time>2024-09-15T10:23:54Z</time>
      </trkpt>
      <trkpt lat="47.79634" lon="-2.62176">
        <ele>115</ele>
        <time>2024-09-15T10:23:58Z</time>
      </trkpt>
      <trkpt lat="47.79635" lon="-2.62181">
        <ele>115.2</ele>
        <time>2024-09-15T10:24:00Z</time>
      </trkpt>
      <trkpt lat="47.79635" lon="-2.62184">
        <ele>115.4</ele>
        <time>2024-09-15T10:24:01Z</time>
      </trkpt>
      <trkpt lat="47.79633" lon="-2.62188">
        <ele>115.4</ele>
        <time>2024-09-15T10:24:02Z</time>
      </trkpt>
      <trkpt lat="47.79629" lon="-2.622">
        <ele>116.2</ele>
        <time>2024-09-15T10:24:05Z</time>
      </trkpt>
      <trkpt lat="47.79623" lon="-2.62213">
        <ele>116.8</ele>
        <time>2024-09-15T10:24:08Z</time>
      </trkpt>
      <trkpt lat="47.79616" lon="-2.6223">
        <ele>117</ele>
        <time>2024-09-15T10:24:12Z</time>
      </trkpt>
      <trkpt lat="47.79614" lon="-2.62234">
        <ele>117</ele>
        <time>2024-09-15T10:24:13Z</time>
      </trkpt>
      <trkpt lat="47.79612" lon="-2.62241">
        <ele>117.2</ele>
        <time>2024-09-15T10:24:14Z</time>
      </trkpt>
      <trkpt lat="47.79605" lon="-2.62252">
        <ele>117.6</ele>
        <time>2024-09-15T10:24:16Z</time>
      </trkpt>
      <trkpt lat="47.79598" lon="-2.62269">
        <ele>118</ele>
        <time>2024-09-15T10:24:19Z</time>
      </trkpt>
      <trkpt lat="47.79596" lon="-2.62276">
        <ele>118.2</ele>
        <time>2024-09-15T10:24:20Z</time>
      </trkpt>
      <trkpt lat="47.79593" lon="-2.62282">
        <ele>118.2</ele>
        <time>2024-09-15T10:24:21Z</time>
      </trkpt>
      <trkpt lat="47.79595" lon="-2.62287">
        <ele>118.2</ele>
        <time>2024-09-15T10:24:22Z</time>
      </trkpt>
      <trkpt lat="47.79594" lon="-2.62291">
        <ele>118.2</ele>
        <time>2024-09-15T10:24:23Z</time>
      </trkpt>
      <trkpt lat="47.79595" lon="-2.62297">
        <ele>118.2</ele>
        <time>2024-09-15T10:24:24Z</time>
      </trkpt>
      <trkpt lat="47.79593" lon="-2.62309">
        <ele>118.4</ele>
        <time>2024-09-15T10:24:25Z</time>
      </trkpt>
      <trkpt lat="47.79587" lon="-2.62317">
        <ele>118.4</ele>
        <time>2024-09-15T10:24:26Z</time>
      </trkpt>
      <trkpt lat="47.79584" lon="-2.62323">
        <ele>118.4</ele>
        <time>2024-09-15T10:24:27Z</time>
      </trkpt>
      <trkpt lat="47.79585" lon="-2.62329">
        <ele>118.4</ele>
        <time>2024-09-15T10:24:28Z</time>
      </trkpt>
      <trkpt lat="47.79587" lon="-2.62336">
        <ele>118.4</ele>
        <time>2024-09-15T10:24:29Z</time>
      </trkpt>
      <trkpt lat="47.79587" lon="-2.62344">
        <ele>118.4</ele>
        <time>2024-09-15T10:24:30Z</time>
      </trkpt>
      <trkpt lat="47.79589" lon="-2.6235">
        <ele>118.4</ele>
        <time>2024-09-15T10:24:31Z</time>
      </trkpt>
      <trkpt lat="47.79591" lon="-2.62361">
        <ele>118.4</ele>
        <time>2024-09-15T10:24:33Z</time>
      </trkpt>
      <trkpt lat="47.79591" lon="-2.62367">
        <ele>118.4</ele>
        <time>2024-09-15T10:24:34Z</time>
      </trkpt>
      <trkpt lat="47.79595" lon="-2.62387">
        <ele>118.4</ele>
        <time>2024-09-15T10:24:36Z</time>
      </trkpt>
      <trkpt lat="47.79593" lon="-2.62395">
        <ele>118.4</ele>
        <time>2024-09-15T10:24:37Z</time>
      </trkpt>
      <trkpt lat="47.7959" lon="-2.624">
        <ele>118.2</ele>
        <time>2024-09-15T10:24:38Z</time>
      </trkpt>
      <trkpt lat="47.79587" lon="-2.62404">
        <ele>118</ele>
        <time>2024-09-15T10:24:39Z</time>
      </trkpt>
      <trkpt lat="47.79584" lon="-2.62405">
        <ele>117.8</ele>
        <time>2024-09-15T10:24:40Z</time>
      </trkpt>
      <trkpt lat="47.79578" lon="-2.62411">
        <ele>117.8</ele>
        <time>2024-09-15T10:24:42Z</time>
      </trkpt>
      <trkpt lat="47.79567" lon="-2.62423">
        <ele>117.2</ele>
        <time>2024-09-15T10:24:45Z</time>
      </trkpt>
      <trkpt lat="47.79566" lon="-2.62426">
        <ele>117.2</ele>
        <time>2024-09-15T10:24:46Z</time>
      </trkpt>
      <trkpt lat="47.79568" lon="-2.62432">
        <ele>117</ele>
        <time>2024-09-15T10:24:47Z</time>
      </trkpt>
      <trkpt lat="47.79568" lon="-2.62447">
        <ele>116.6</ele>
        <time>2024-09-15T10:24:49Z</time>
      </trkpt>
      <trkpt lat="47.79569" lon="-2.62454">
        <ele>116.2</ele>
        <time>2024-09-15T10:24:50Z</time>
      </trkpt>
      <trkpt lat="47.79568" lon="-2.62469">
        <ele>116</ele>
        <time>2024-09-15T10:24:52Z</time>
      </trkpt>
      <trkpt lat="47.79567" lon="-2.62485">
        <ele>115.4</ele>
        <time>2024-09-15T10:24:54Z</time>
      </trkpt>
      <trkpt lat="47.79566" lon="-2.62491">
        <ele>115.4</ele>
        <time>2024-09-15T10:24:55Z</time>
      </trkpt>
      <trkpt lat="47.79564" lon="-2.62505">
        <ele>114.6</ele>
        <time>2024-09-15T10:24:57Z</time>
      </trkpt>
      <trkpt lat="47.79567" lon="-2.62515">
        <ele>114.4</ele>
        <time>2024-09-15T10:24:58Z</time>
      </trkpt>
      <trkpt lat="47.79568" lon="-2.62529">
        <ele>114.6</ele>
        <time>2024-09-15T10:24:59Z</time>
      </trkpt>
      <trkpt lat="47.79565" lon="-2.62537">
        <ele>114.6</ele>
        <time>2024-09-15T10:25:00Z</time>
      </trkpt>
      <trkpt lat="47.79563" lon="-2.62543">
        <ele>114</ele>
        <time>2024-09-15T10:25:01Z</time>
      </trkpt>
      <trkpt lat="47.79554" lon="-2.62547">
        <ele>114</ele>
        <time>2024-09-15T10:25:03Z</time>
      </trkpt>
      <trkpt lat="47.79545" lon="-2.62547">
        <ele>113.8</ele>
        <time>2024-09-15T10:25:05Z</time>
      </trkpt>
      <trkpt lat="47.7954" lon="-2.62546">
        <ele>113.6</ele>
        <time>2024-09-15T10:25:06Z</time>
      </trkpt>
      <trkpt lat="47.79536" lon="-2.62548">
        <ele>113.6</ele>
        <time>2024-09-15T10:25:07Z</time>
      </trkpt>
      <trkpt lat="47.79535" lon="-2.62552">
        <ele>113.4</ele>
        <time>2024-09-15T10:25:08Z</time>
      </trkpt>
      <trkpt lat="47.79535" lon="-2.62557">
        <ele>113.4</ele>
        <time>2024-09-15T10:25:09Z</time>
      </trkpt>
      <trkpt lat="47.79535" lon="-2.6256">
        <ele>113</ele>
        <time>2024-09-15T10:25:10Z</time>
      </trkpt>
      <trkpt lat="47.79535" lon="-2.62563">
        <ele>112.8</ele>
        <time>2024-09-15T10:25:11Z</time>
      </trkpt>
      <trkpt lat="47.79535" lon="-2.62566">
        <ele>112.4</ele>
        <time>2024-09-15T10:25:12Z</time>
      </trkpt>
      <trkpt lat="47.79535" lon="-2.62568">
        <ele>112.2</ele>
        <time>2024-09-15T10:25:13Z</time>
      </trkpt>
      <trkpt lat="47.79535" lon="-2.62571">
        <ele>112</ele>
        <time>2024-09-15T10:25:14Z</time>
      </trkpt>
      <trkpt lat="47.79536" lon="-2.62574">
        <ele>111.8</ele>
        <time>2024-09-15T10:25:15Z</time>
      </trkpt>
      <trkpt lat="47.79536" lon="-2.62577">
        <ele>111.4</ele>
        <time>2024-09-15T10:25:16Z</time>
      </trkpt>
      <trkpt lat="47.79536" lon="-2.62581">
        <ele>111.4</ele>
        <time>2024-09-15T10:25:17Z</time>
      </trkpt>
      <trkpt lat="47.79536" lon="-2.62584">
        <ele>111.2</ele>
        <time>2024-09-15T10:25:18Z</time>
      </trkpt>
      <trkpt lat="47.79537" lon="-2.62587">
        <ele>111.2</ele>
        <time>2024-09-15T10:25:19Z</time>
      </trkpt>
      <trkpt lat="47.79539" lon="-2.62591">
        <ele>111</ele>
        <time>2024-09-15T10:25:20Z</time>
      </trkpt>
      <trkpt lat="47.79541" lon="-2.62595">
        <ele>111</ele>
        <time>2024-09-15T10:25:21Z</time>
      </trkpt>
      <trkpt lat="47.79542" lon="-2.62601">
        <ele>111</ele>
        <time>2024-09-15T10:25:22Z</time>
      </trkpt>
      <trkpt lat="47.79541" lon="-2.62605">
        <ele>110.8</ele>
        <time>2024-09-15T10:25:23Z</time>
      </trkpt>
      <trkpt lat="47.79544" lon="-2.6262">
        <ele>110.2</ele>
        <time>2024-09-15T10:25:26Z</time>
      </trkpt>
      <trkpt lat="47.79545" lon="-2.62625">
        <ele>110</ele>
        <time>2024-09-15T10:25:27Z</time>
      </trkpt>
      <trkpt lat="47.79545" lon="-2.62631">
        <ele>109.8</ele>
        <time>2024-09-15T10:25:28Z</time>
      </trkpt>
      <trkpt lat="47.79546" lon="-2.62635">
        <ele>109.6</ele>
        <time>2024-09-15T10:25:29Z</time>
      </trkpt>
      <trkpt lat="47.79545" lon="-2.6264">
        <ele>109.2</ele>
        <time>2024-09-15T10:25:30Z</time>
      </trkpt>
      <trkpt lat="47.79543" lon="-2.62642">
        <ele>109</ele>
        <time>2024-09-15T10:25:31Z</time>
      </trkpt>
      <trkpt lat="47.7954" lon="-2.62647">
        <ele>108.8</ele>
        <time>2024-09-15T10:25:32Z</time>
      </trkpt>
      <trkpt lat="47.79537" lon="-2.62652">
        <ele>108.8</ele>
        <time>2024-09-15T10:25:33Z</time>
      </trkpt>
      <trkpt lat="47.79535" lon="-2.62659">
        <ele>108.6</ele>
        <time>2024-09-15T10:25:34Z</time>
      </trkpt>
      <trkpt lat="47.79532" lon="-2.62666">
        <ele>108.4</ele>
        <time>2024-09-15T10:25:35Z</time>
      </trkpt>
      <trkpt lat="47.7953" lon="-2.62673">
        <ele>108.2</ele>
        <time>2024-09-15T10:25:36Z</time>
      </trkpt>
      <trkpt lat="47.79528" lon="-2.62679">
        <ele>108.2</ele>
        <time>2024-09-15T10:25:37Z</time>
      </trkpt>
      <trkpt lat="47.79526" lon="-2.62684">
        <ele>108</ele>
        <time>2024-09-15T10:25:38Z</time>
      </trkpt>
      <trkpt lat="47.79524" lon="-2.62689">
        <ele>108</ele>
        <time>2024-09-15T10:25:39Z</time>
      </trkpt>
      <trkpt lat="47.79522" lon="-2.62695">
        <ele>107.8</ele>
        <time>2024-09-15T10:25:40Z</time>
      </trkpt>
      <trkpt lat="47.7952" lon="-2.62701">
        <ele>107.8</ele>
        <time>2024-09-15T10:25:41Z</time>
      </trkpt>
      <trkpt lat="47.79518" lon="-2.62707">
        <ele>107.6</ele>
        <time>2024-09-15T10:25:42Z</time>
      </trkpt>
      <trkpt lat="47.79517" lon="-2.62712">
        <ele>107.8</ele>
        <time>2024-09-15T10:25:43Z</time>
      </trkpt>
      <trkpt lat="47.79516" lon="-2.62716">
        <ele>107.6</ele>
        <time>2024-09-15T10:25:44Z</time>
      </trkpt>
      <trkpt lat="47.79515" lon="-2.62721">
        <ele>107.8</ele>
        <time>2024-09-15T10:25:45Z</time>
      </trkpt>
      <trkpt lat="47.79516" lon="-2.62725">
        <ele>107.8</ele>
        <time>2024-09-15T10:25:46Z</time>
      </trkpt>
      <trkpt lat="47.79518" lon="-2.62729">
        <ele>107.8</ele>
        <time>2024-09-15T10:25:47Z</time>
      </trkpt>
      <trkpt lat="47.7952" lon="-2.62733">
        <ele>108</ele>
        <time>2024-09-15T10:25:48Z</time>
      </trkpt>
      <trkpt lat="47.79523" lon="-2.62738">
        <ele>108.2</ele>
        <time>2024-09-15T10:25:49Z</time>
      </trkpt>
      <trkpt lat="47.79524" lon="-2.62743">
        <ele>108.4</ele>
        <time>2024-09-15T10:25:50Z</time>
      </trkpt>
      <trkpt lat="47.79525" lon="-2.62748">
        <ele>108.6</ele>
        <time>2024-09-15T10:25:51Z</time>
      </trkpt>
      <trkpt lat="47.79525" lon="-2.62753">
        <ele>108.6</ele>
        <time>2024-09-15T10:25:52Z</time>
      </trkpt>
      <trkpt lat="47.79523" lon="-2.62755">
        <ele>108.8</ele>
        <time>2024-09-15T10:25:53Z</time>
      </trkpt>
      <trkpt lat="47.79516" lon="-2.62761">
        <ele>109.4</ele>
        <time>2024-09-15T10:25:56Z</time>
      </trkpt>
      <trkpt lat="47.79515" lon="-2.62763">
        <ele>109.6</ele>
        <time>2024-09-15T10:25:57Z</time>
      </trkpt>
      <trkpt lat="47.79513" lon="-2.62764">
        <ele>109.8</ele>
        <time>2024-09-15T10:25:58Z</time>
      </trkpt>
      <trkpt lat="47.79511" lon="-2.62765">
        <ele>110</ele>
        <time>2024-09-15T10:25:59Z</time>
      </trkpt>
      <trkpt lat="47.79508" lon="-2.62764">
        <ele>110.2</ele>
        <time>2024-09-15T10:26:00Z</time>
      </trkpt>
      <trkpt lat="47.79505" lon="-2.62764">
        <ele>110.2</ele>
        <time>2024-09-15T10:26:01Z</time>
      </trkpt>
      <trkpt lat="47.79503" lon="-2.62764">
        <ele>110.4</ele>
        <time>2024-09-15T10:26:02Z</time>
      </trkpt>
      <trkpt lat="47.79497" lon="-2.62763">
        <ele>110.6</ele>
        <time>2024-09-15T10:26:04Z</time>
      </trkpt>
      <trkpt lat="47.79489" lon="-2.62764">
        <ele>111</ele>
        <time>2024-09-15T10:26:07Z</time>
      </trkpt>
      <trkpt lat="47.79483" lon="-2.62762">
        <ele>111.2</ele>
        <time>2024-09-15T10:26:09Z</time>
      </trkpt>
      <trkpt lat="47.79475" lon="-2.62761">
        <ele>111.6</ele>
        <time>2024-09-15T10:26:12Z</time>
      </trkpt>
      <trkpt lat="47.79472" lon="-2.6276">
        <ele>111.8</ele>
        <time>2024-09-15T10:26:13Z</time>
      </trkpt>
      <trkpt lat="47.79469" lon="-2.62759">
        <ele>112</ele>
        <time>2024-09-15T10:26:14Z</time>
      </trkpt>
      <trkpt lat="47.79467" lon="-2.62758">
        <ele>112</ele>
        <time>2024-09-15T10:26:15Z</time>
      </trkpt>
      <trkpt lat="47.79464" lon="-2.62758">
        <ele>112</ele>
        <time>2024-09-15T10:26:16Z</time>
      </trkpt>
      <trkpt lat="47.79462" lon="-2.62757">
        <ele>112</ele>
        <time>2024-09-15T10:26:17Z</time>
      </trkpt>
      <trkpt lat="47.79459" lon="-2.62756">
        <ele>112.2</ele>
        <time>2024-09-15T10:26:18Z</time>
      </trkpt>
      <trkpt lat="47.79455" lon="-2.62756">
        <ele>112.2</ele>
        <time>2024-09-15T10:26:19Z</time>
      </trkpt>
      <trkpt lat="47.79452" lon="-2.62756">
        <ele>112.2</ele>
        <time>2024-09-15T10:26:20Z</time>
      </trkpt>
      <trkpt lat="47.79449" lon="-2.62756">
        <ele>112.2</ele>
        <time>2024-09-15T10:26:21Z</time>
      </trkpt>
      <trkpt lat="47.79446" lon="-2.62756">
        <ele>112.2</ele>
        <time>2024-09-15T10:26:22Z</time>
      </trkpt>
      <trkpt lat="47.79442" lon="-2.62756">
        <ele>112.2</ele>
        <time>2024-09-15T10:26:23Z</time>
      </trkpt>
      <trkpt lat="47.79438" lon="-2.62755">
        <ele>112.4</ele>
        <time>2024-09-15T10:26:24Z</time>
      </trkpt>
      <trkpt lat="47.79435" lon="-2.62754">
        <ele>112.2</ele>
        <time>2024-09-15T10:26:25Z</time>
      </trkpt>
      <trkpt lat="47.79432" lon="-2.62754">
        <ele>112</ele>
        <time>2024-09-15T10:26:26Z</time>
      </trkpt>
      <trkpt lat="47.7943" lon="-2.62755">
        <ele>112</ele>
        <time>2024-09-15T10:26:27Z</time>
      </trkpt>
      <trkpt lat="47.79428" lon="-2.62757">
        <ele>112.2</ele>
        <time>2024-09-15T10:26:28Z</time>
      </trkpt>
      <trkpt lat="47.79428" lon="-2.6276">
        <ele>112.2</ele>
        <time>2024-09-15T10:26:29Z</time>
      </trkpt>
      <trkpt lat="47.79428" lon="-2.62762">
        <ele>112.2</ele>
        <time>2024-09-15T10:26:30Z</time>
      </trkpt>
      <trkpt lat="47.79433" lon="-2.62772">
        <ele>112</ele>
        <time>2024-09-15T10:26:33Z</time>
      </trkpt>
      <trkpt lat="47.79433" lon="-2.62774">
        <ele>112</ele>
        <time>2024-09-15T10:26:34Z</time>
      </trkpt>
      <trkpt lat="47.79433" lon="-2.62777">
        <ele>112</ele>
        <time>2024-09-15T10:26:35Z</time>
      </trkpt>
      <trkpt lat="47.79432" lon="-2.62779">
        <ele>112</ele>
        <time>2024-09-15T10:26:36Z</time>
      </trkpt>
      <trkpt lat="47.79433" lon="-2.6278">
        <ele>112</ele>
        <time>2024-09-15T10:26:37Z</time>
      </trkpt>
      <trkpt lat="47.79432" lon="-2.62782">
        <ele>112.2</ele>
        <time>2024-09-15T10:26:38Z</time>
      </trkpt>
      <trkpt lat="47.79432" lon="-2.62784">
        <ele>112.8</ele>
        <time>2024-09-15T10:26:41Z</time>
      </trkpt>
      <trkpt lat="47.79433" lon="-2.62786">
        <ele>113</ele>
        <time>2024-09-15T10:26:42Z</time>
      </trkpt>
      <trkpt lat="47.79433" lon="-2.62787">
        <ele>113</ele>
        <time>2024-09-15T10:26:43Z</time>
      </trkpt>
      <trkpt lat="47.79433" lon="-2.62787">
        <ele>113.2</ele>
        <time>2024-09-15T10:26:44Z</time>
      </trkpt>
      <trkpt lat="47.79433" lon="-2.62789">
        <ele>114.2</ele>
        <time>2024-09-15T10:26:48Z</time>
      </trkpt>
      <trkpt lat="47.79433" lon="-2.62791">
        <ele>114.6</ele>
        <time>2024-09-15T10:26:49Z</time>
      </trkpt>
      <trkpt lat="47.79433" lon="-2.62793">
        <ele>114.6</ele>
        <time>2024-09-15T10:26:50Z</time>
      </trkpt>
      <trkpt lat="47.79432" lon="-2.62796">
        <ele>115</ele>
        <time>2024-09-15T10:26:51Z</time>
      </trkpt>
      <trkpt lat="47.79429" lon="-2.62804">
        <ele>115.2</ele>
        <time>2024-09-15T10:26:53Z</time>
      </trkpt>
      <trkpt lat="47.79429" lon="-2.62806">
        <ele>115.4</ele>
        <time>2024-09-15T10:26:54Z</time>
      </trkpt>
      <trkpt lat="47.79428" lon="-2.62809">
        <ele>115.4</ele>
        <time>2024-09-15T10:26:55Z</time>
      </trkpt>
      <trkpt lat="47.79427" lon="-2.62811">
        <ele>115.4</ele>
        <time>2024-09-15T10:26:56Z</time>
      </trkpt>
      <trkpt lat="47.79426" lon="-2.62814">
        <ele>115.4</ele>
        <time>2024-09-15T10:26:57Z</time>
      </trkpt>
      <trkpt lat="47.79423" lon="-2.6282">
        <ele>115.4</ele>
        <time>2024-09-15T10:26:58Z</time>
      </trkpt>
      <trkpt lat="47.79423" lon="-2.62823">
        <ele>115.6</ele>
        <time>2024-09-15T10:26:59Z</time>
      </trkpt>
      <trkpt lat="47.79422" lon="-2.62826">
        <ele>115.6</ele>
        <time>2024-09-15T10:27:00Z</time>
      </trkpt>
      <trkpt lat="47.79421" lon="-2.62829">
        <ele>115.8</ele>
        <time>2024-09-15T10:27:01Z</time>
      </trkpt>
      <trkpt lat="47.79419" lon="-2.62834">
        <ele>116</ele>
        <time>2024-09-15T10:27:02Z</time>
      </trkpt>
      <trkpt lat="47.79418" lon="-2.62839">
        <ele>116</ele>
        <time>2024-09-15T10:27:03Z</time>
      </trkpt>
      <trkpt lat="47.79415" lon="-2.62845">
        <ele>116</ele>
        <time>2024-09-15T10:27:04Z</time>
      </trkpt>
      <trkpt lat="47.79413" lon="-2.62851">
        <ele>116</ele>
        <time>2024-09-15T10:27:05Z</time>
      </trkpt>
      <trkpt lat="47.79413" lon="-2.62856">
        <ele>116.2</ele>
        <time>2024-09-15T10:27:06Z</time>
      </trkpt>
      <trkpt lat="47.79414" lon="-2.62863">
        <ele>116.2</ele>
        <time>2024-09-15T10:27:07Z</time>
      </trkpt>
      <trkpt lat="47.79413" lon="-2.6287">
        <ele>116.2</ele>
        <time>2024-09-15T10:27:08Z</time>
      </trkpt>
      <trkpt lat="47.79414" lon="-2.62876">
        <ele>116.2</ele>
        <time>2024-09-15T10:27:09Z</time>
      </trkpt>
      <trkpt lat="47.79416" lon="-2.62881">
        <ele>116.2</ele>
        <time>2024-09-15T10:27:10Z</time>
      </trkpt>
      <trkpt lat="47.79417" lon="-2.6289">
        <ele>116.2</ele>
        <time>2024-09-15T10:27:11Z</time>
      </trkpt>
      <trkpt lat="47.79416" lon="-2.62897">
        <ele>116.2</ele>
        <time>2024-09-15T10:27:12Z</time>
      </trkpt>
      <trkpt lat="47.79412" lon="-2.62899">
        <ele>116.2</ele>
        <time>2024-09-15T10:27:13Z</time>
      </trkpt>
      <trkpt lat="47.7941" lon="-2.62903">
        <ele>116.2</ele>
        <time>2024-09-15T10:27:14Z</time>
      </trkpt>
      <trkpt lat="47.79411" lon="-2.62907">
        <ele>116.2</ele>
        <time>2024-09-15T10:27:15Z</time>
      </trkpt>
      <trkpt lat="47.7941" lon="-2.62912">
        <ele>116.4</ele>
        <time>2024-09-15T10:27:16Z</time>
      </trkpt>
      <trkpt lat="47.7941" lon="-2.62917">
        <ele>116.4</ele>
        <time>2024-09-15T10:27:17Z</time>
      </trkpt>
      <trkpt lat="47.7941" lon="-2.62924">
        <ele>116.4</ele>
        <time>2024-09-15T10:27:18Z</time>
      </trkpt>
      <trkpt lat="47.7941" lon="-2.62928">
        <ele>116.6</ele>
        <time>2024-09-15T10:27:19Z</time>
      </trkpt>
      <trkpt lat="47.79408" lon="-2.6293">
        <ele>116.8</ele>
        <time>2024-09-15T10:27:20Z</time>
      </trkpt>
      <trkpt lat="47.79404" lon="-2.62929">
        <ele>116.8</ele>
        <time>2024-09-15T10:27:21Z</time>
      </trkpt>
      <trkpt lat="47.794" lon="-2.62928">
        <ele>116.6</ele>
        <time>2024-09-15T10:27:22Z</time>
      </trkpt>
      <trkpt lat="47.79391" lon="-2.62934">
        <ele>116.4</ele>
        <time>2024-09-15T10:27:24Z</time>
      </trkpt>
      <trkpt lat="47.79389" lon="-2.6294">
        <ele>116.4</ele>
        <time>2024-09-15T10:27:25Z</time>
      </trkpt>
      <trkpt lat="47.79387" lon="-2.62944">
        <ele>116.4</ele>
        <time>2024-09-15T10:27:26Z</time>
      </trkpt>
      <trkpt lat="47.79385" lon="-2.62947">
        <ele>116.2</ele>
        <time>2024-09-15T10:27:27Z</time>
      </trkpt>
      <trkpt lat="47.79382" lon="-2.6295">
        <ele>116.2</ele>
        <time>2024-09-15T10:27:28Z</time>
      </trkpt>
      <trkpt lat="47.79378" lon="-2.62954">
        <ele>116.2</ele>
        <time>2024-09-15T10:27:29Z</time>
      </trkpt>
      <trkpt lat="47.79374" lon="-2.62957">
        <ele>116.2</ele>
        <time>2024-09-15T10:27:30Z</time>
      </trkpt>
      <trkpt lat="47.79371" lon="-2.62959">
        <ele>116.2</ele>
        <time>2024-09-15T10:27:31Z</time>
      </trkpt>
      <trkpt lat="47.79367" lon="-2.6296">
        <ele>116.2</ele>
        <time>2024-09-15T10:27:32Z</time>
      </trkpt>
      <trkpt lat="47.79363" lon="-2.62958">
        <ele>116.2</ele>
        <time>2024-09-15T10:27:33Z</time>
      </trkpt>
      <trkpt lat="47.79359" lon="-2.62955">
        <ele>116.2</ele>
        <time>2024-09-15T10:27:34Z</time>
      </trkpt>
      <trkpt lat="47.79354" lon="-2.62952">
        <ele>116.2</ele>
        <time>2024-09-15T10:27:35Z</time>
      </trkpt>
      <trkpt lat="47.7935" lon="-2.62947">
        <ele>116.2</ele>
        <time>2024-09-15T10:27:36Z</time>
      </trkpt>
      <trkpt lat="47.79347" lon="-2.62941">
        <ele>116.4</ele>
        <time>2024-09-15T10:27:37Z</time>
      </trkpt>
      <trkpt lat="47.79345" lon="-2.62935">
        <ele>116.4</ele>
        <time>2024-09-15T10:27:38Z</time>
      </trkpt>
      <trkpt lat="47.79343" lon="-2.62929">
        <ele>116.4</ele>
        <time>2024-09-15T10:27:39Z</time>
      </trkpt>
      <trkpt lat="47.79341" lon="-2.62923">
        <ele>116.4</ele>
        <time>2024-09-15T10:27:40Z</time>
      </trkpt>
      <trkpt lat="47.79339" lon="-2.62918">
        <ele>116.4</ele>
        <time>2024-09-15T10:27:41Z</time>
      </trkpt>
      <trkpt lat="47.79337" lon="-2.62913">
        <ele>116.4</ele>
        <time>2024-09-15T10:27:42Z</time>
      </trkpt>
      <trkpt lat="47.79336" lon="-2.62908">
        <ele>116.4</ele>
        <time>2024-09-15T10:27:43Z</time>
      </trkpt>
      <trkpt lat="47.79333" lon="-2.62903">
        <ele>116.4</ele>
        <time>2024-09-15T10:27:44Z</time>
      </trkpt>
      <trkpt lat="47.79331" lon="-2.62899">
        <ele>116.4</ele>
        <time>2024-09-15T10:27:45Z</time>
      </trkpt>
      <trkpt lat="47.79329" lon="-2.62897">
        <ele>116.4</ele>
        <time>2024-09-15T10:27:46Z</time>
      </trkpt>
      <trkpt lat="47.79327" lon="-2.62895">
        <ele>116.6</ele>
        <time>2024-09-15T10:27:47Z</time>
      </trkpt>
      <trkpt lat="47.79324" lon="-2.62891">
        <ele>116.6</ele>
        <time>2024-09-15T10:27:48Z</time>
      </trkpt>
      <trkpt lat="47.79317" lon="-2.62884">
        <ele>116.6</ele>
        <time>2024-09-15T10:27:50Z</time>
      </trkpt>
      <trkpt lat="47.79314" lon="-2.62882">
        <ele>116.6</ele>
        <time>2024-09-15T10:27:51Z</time>
      </trkpt>
      <trkpt lat="47.79309" lon="-2.62878">
        <ele>116.6</ele>
        <time>2024-09-15T10:27:52Z</time>
      </trkpt>
      <trkpt lat="47.79305" lon="-2.62872">
        <ele>116.8</ele>
        <time>2024-09-15T10:27:53Z</time>
      </trkpt>
      <trkpt lat="47.79301" lon="-2.6287">
        <ele>116.8</ele>
        <time>2024-09-15T10:27:54Z</time>
      </trkpt>
      <trkpt lat="47.793" lon="-2.62869">
        <ele>117</ele>
        <time>2024-09-15T10:27:55Z</time>
      </trkpt>
      <trkpt lat="47.79299" lon="-2.6287">
        <ele>117</ele>
        <time>2024-09-15T10:27:56Z</time>
      </trkpt>
      <trkpt lat="47.79296" lon="-2.62869">
        <ele>117</ele>
        <time>2024-09-15T10:27:57Z</time>
      </trkpt>
      <trkpt lat="47.79294" lon="-2.62868">
        <ele>117.2</ele>
        <time>2024-09-15T10:27:58Z</time>
      </trkpt>
      <trkpt lat="47.79287" lon="-2.62866">
        <ele>117.4</ele>
        <time>2024-09-15T10:27:59Z</time>
      </trkpt>
      <trkpt lat="47.79286" lon="-2.62863">
        <ele>117.4</ele>
        <time>2024-09-15T10:28:00Z</time>
      </trkpt>
      <trkpt lat="47.79284" lon="-2.62861">
        <ele>117.4</ele>
        <time>2024-09-15T10:28:01Z</time>
      </trkpt>
      <trkpt lat="47.79283" lon="-2.62858">
        <ele>117.6</ele>
        <time>2024-09-15T10:28:02Z</time>
      </trkpt>
      <trkpt lat="47.79282" lon="-2.62856">
        <ele>117.6</ele>
        <time>2024-09-15T10:28:03Z</time>
      </trkpt>
      <trkpt lat="47.79281" lon="-2.62853">
        <ele>117.6</ele>
        <time>2024-09-15T10:28:04Z</time>
      </trkpt>
      <trkpt lat="47.79279" lon="-2.62848">
        <ele>117.6</ele>
        <time>2024-09-15T10:28:05Z</time>
      </trkpt>
      <trkpt lat="47.79275" lon="-2.62842">
        <ele>117.4</ele>
        <time>2024-09-15T10:28:06Z</time>
      </trkpt>
      <trkpt lat="47.79273" lon="-2.6284">
        <ele>117.4</ele>
        <time>2024-09-15T10:28:07Z</time>
      </trkpt>
      <trkpt lat="47.79272" lon="-2.62839">
        <ele>117.4</ele>
        <time>2024-09-15T10:28:08Z</time>
      </trkpt>
      <trkpt lat="47.79271" lon="-2.62838">
        <ele>117.4</ele>
        <time>2024-09-15T10:28:09Z</time>
      </trkpt>
      <trkpt lat="47.79271" lon="-2.62838">
        <ele>117.4</ele>
        <time>2024-09-15T10:28:10Z</time>
      </trkpt>
      <trkpt lat="47.79272" lon="-2.62838">
        <ele>117.4</ele>
        <time>2024-09-15T10:28:11Z</time>
      </trkpt>
      <trkpt lat="47.79271" lon="-2.62839">
        <ele>117.4</ele>
        <time>2024-09-15T10:28:13Z</time>
      </trkpt>
      <trkpt lat="47.79269" lon="-2.6284">
        <ele>117.4</ele>
        <time>2024-09-15T10:28:16Z</time>
      </trkpt>
      <trkpt lat="47.79266" lon="-2.62839">
        <ele>117.6</ele>
        <time>2024-09-15T10:28:17Z</time>
      </trkpt>
      <trkpt lat="47.79263" lon="-2.62838">
        <ele>117.6</ele>
        <time>2024-09-15T10:28:18Z</time>
      </trkpt>
      <trkpt lat="47.79246" lon="-2.62833">
        <ele>118.2</ele>
        <time>2024-09-15T10:28:24Z</time>
      </trkpt>
      <trkpt lat="47.79221" lon="-2.62825">
        <ele>117.8</ele>
        <time>2024-09-15T10:28:32Z</time>
      </trkpt>
      <trkpt lat="47.79217" lon="-2.62826">
        <ele>118</ele>
        <time>2024-09-15T10:28:33Z</time>
      </trkpt>
      <trkpt lat="47.79214" lon="-2.62827">
        <ele>117.8</ele>
        <time>2024-09-15T10:28:34Z</time>
      </trkpt>
      <trkpt lat="47.79211" lon="-2.62828">
        <ele>117.8</ele>
        <time>2024-09-15T10:28:35Z</time>
      </trkpt>
      <trkpt lat="47.79207" lon="-2.6283">
        <ele>117.8</ele>
        <time>2024-09-15T10:28:36Z</time>
      </trkpt>
      <trkpt lat="47.79203" lon="-2.62833">
        <ele>118</ele>
        <time>2024-09-15T10:28:37Z</time>
      </trkpt>
      <trkpt lat="47.792" lon="-2.62835">
        <ele>118.2</ele>
        <time>2024-09-15T10:28:38Z</time>
      </trkpt>
      <trkpt lat="47.79191" lon="-2.6284">
        <ele>118.2</ele>
        <time>2024-09-15T10:28:40Z</time>
      </trkpt>
      <trkpt lat="47.79182" lon="-2.62846">
        <ele>118.2</ele>
        <time>2024-09-15T10:28:42Z</time>
      </trkpt>
      <trkpt lat="47.79181" lon="-2.62851">
        <ele>118.4</ele>
        <time>2024-09-15T10:28:43Z</time>
      </trkpt>
      <trkpt lat="47.79178" lon="-2.62855">
        <ele>118.6</ele>
        <time>2024-09-15T10:28:44Z</time>
      </trkpt>
      <trkpt lat="47.79175" lon="-2.62858">
        <ele>118.6</ele>
        <time>2024-09-15T10:28:45Z</time>
      </trkpt>
      <trkpt lat="47.79172" lon="-2.62859">
        <ele>118.8</ele>
        <time>2024-09-15T10:28:46Z</time>
      </trkpt>
      <trkpt lat="47.7917" lon="-2.6286">
        <ele>118.8</ele>
        <time>2024-09-15T10:28:47Z</time>
      </trkpt>
      <trkpt lat="47.79168" lon="-2.62864">
        <ele>118.6</ele>
        <time>2024-09-15T10:28:48Z</time>
      </trkpt>
      <trkpt lat="47.79166" lon="-2.6287">
        <ele>118.8</ele>
        <time>2024-09-15T10:28:49Z</time>
      </trkpt>
      <trkpt lat="47.79163" lon="-2.62873">
        <ele>119</ele>
        <time>2024-09-15T10:28:50Z</time>
      </trkpt>
      <trkpt lat="47.79161" lon="-2.62876">
        <ele>119.2</ele>
        <time>2024-09-15T10:28:51Z</time>
      </trkpt>
      <trkpt lat="47.79158" lon="-2.6288">
        <ele>119.6</ele>
        <time>2024-09-15T10:28:53Z</time>
      </trkpt>
      <trkpt lat="47.79154" lon="-2.62887">
        <ele>119.8</ele>
        <time>2024-09-15T10:28:55Z</time>
      </trkpt>
      <trkpt lat="47.7915" lon="-2.62891">
        <ele>119.8</ele>
        <time>2024-09-15T10:28:57Z</time>
      </trkpt>
      <trkpt lat="47.79146" lon="-2.62893">
        <ele>120</ele>
        <time>2024-09-15T10:28:58Z</time>
      </trkpt>
      <trkpt lat="47.79144" lon="-2.62894">
        <ele>120</ele>
        <time>2024-09-15T10:28:59Z</time>
      </trkpt>
      <trkpt lat="47.79141" lon="-2.62898">
        <ele>120.2</ele>
        <time>2024-09-15T10:29:00Z</time>
      </trkpt>
      <trkpt lat="47.79137" lon="-2.629">
        <ele>120.4</ele>
        <time>2024-09-15T10:29:01Z</time>
      </trkpt>
      <trkpt lat="47.79136" lon="-2.62902">
        <ele>120.4</ele>
        <time>2024-09-15T10:29:02Z</time>
      </trkpt>
      <trkpt lat="47.79134" lon="-2.62902">
        <ele>120.4</ele>
        <time>2024-09-15T10:29:03Z</time>
      </trkpt>
      <trkpt lat="47.79131" lon="-2.62905">
        <ele>120.4</ele>
        <time>2024-09-15T10:29:04Z</time>
      </trkpt>
      <trkpt lat="47.79126" lon="-2.62911">
        <ele>120.6</ele>
        <time>2024-09-15T10:29:06Z</time>
      </trkpt>
      <trkpt lat="47.79125" lon="-2.62913">
        <ele>120.8</ele>
        <time>2024-09-15T10:29:07Z</time>
      </trkpt>
      <trkpt lat="47.79123" lon="-2.62914">
        <ele>120.8</ele>
        <time>2024-09-15T10:29:08Z</time>
      </trkpt>
      <trkpt lat="47.79121" lon="-2.62915">
        <ele>120.8</ele>
        <time>2024-09-15T10:29:09Z</time>
      </trkpt>
      <trkpt lat="47.79119" lon="-2.62916">
        <ele>120.8</ele>
        <time>2024-09-15T10:29:10Z</time>
      </trkpt>
      <trkpt lat="47.79113" lon="-2.62923">
        <ele>121</ele>
        <time>2024-09-15T10:29:12Z</time>
      </trkpt>
      <trkpt lat="47.79106" lon="-2.62931">
        <ele>121.4</ele>
        <time>2024-09-15T10:29:15Z</time>
      </trkpt>
      <trkpt lat="47.79104" lon="-2.62934">
        <ele>121.6</ele>
        <time>2024-09-15T10:29:17Z</time>
      </trkpt>
      <trkpt lat="47.79101" lon="-2.62939">
        <ele>121.6</ele>
        <time>2024-09-15T10:29:19Z</time>
      </trkpt>
      <trkpt lat="47.79098" lon="-2.62942">
        <ele>121.6</ele>
        <time>2024-09-15T10:29:20Z</time>
      </trkpt>
      <trkpt lat="47.79095" lon="-2.62943">
        <ele>121.8</ele>
        <time>2024-09-15T10:29:21Z</time>
      </trkpt>
      <trkpt lat="47.79092" lon="-2.62945">
        <ele>122</ele>
        <time>2024-09-15T10:29:22Z</time>
      </trkpt>
      <trkpt lat="47.79092" lon="-2.62947">
        <ele>122</ele>
        <time>2024-09-15T10:29:23Z</time>
      </trkpt>
      <trkpt lat="47.7909" lon="-2.6295">
        <ele>122</ele>
        <time>2024-09-15T10:29:24Z</time>
      </trkpt>
      <trkpt lat="47.79089" lon="-2.62951">
        <ele>122.4</ele>
        <time>2024-09-15T10:29:25Z</time>
      </trkpt>
      <trkpt lat="47.79086" lon="-2.62959">
        <ele>122.8</ele>
        <time>2024-09-15T10:29:28Z</time>
      </trkpt>
      <trkpt lat="47.79084" lon="-2.62964">
        <ele>123</ele>
        <time>2024-09-15T10:29:29Z</time>
      </trkpt>
      <trkpt lat="47.79084" lon="-2.62971">
        <ele>123.2</ele>
        <time>2024-09-15T10:29:30Z</time>
      </trkpt>
      <trkpt lat="47.79081" lon="-2.62979">
        <ele>123.2</ele>
        <time>2024-09-15T10:29:31Z</time>
      </trkpt>
      <trkpt lat="47.79079" lon="-2.62983">
        <ele>123.2</ele>
        <time>2024-09-15T10:29:32Z</time>
      </trkpt>
      <trkpt lat="47.79077" lon="-2.62985">
        <ele>123.2</ele>
        <time>2024-09-15T10:29:33Z</time>
      </trkpt>
      <trkpt lat="47.79071" lon="-2.6299">
        <ele>123.4</ele>
        <time>2024-09-15T10:29:36Z</time>
      </trkpt>
      <trkpt lat="47.79067" lon="-2.62992">
        <ele>123.6</ele>
        <time>2024-09-15T10:29:38Z</time>
      </trkpt>
      <trkpt lat="47.79064" lon="-2.62993">
        <ele>123.6</ele>
        <time>2024-09-15T10:29:39Z</time>
      </trkpt>
      <trkpt lat="47.79062" lon="-2.62994">
        <ele>123.8</ele>
        <time>2024-09-15T10:29:40Z</time>
      </trkpt>
      <trkpt lat="47.79059" lon="-2.62997">
        <ele>124</ele>
        <time>2024-09-15T10:29:41Z</time>
      </trkpt>
      <trkpt lat="47.79056" lon="-2.63">
        <ele>124.4</ele>
        <time>2024-09-15T10:29:42Z</time>
      </trkpt>
      <trkpt lat="47.79052" lon="-2.63002">
        <ele>124.6</ele>
        <time>2024-09-15T10:29:43Z</time>
      </trkpt>
      <trkpt lat="47.79045" lon="-2.63007">
        <ele>125</ele>
        <time>2024-09-15T10:29:46Z</time>
      </trkpt>
      <trkpt lat="47.79043" lon="-2.63011">
        <ele>125</ele>
        <time>2024-09-15T10:29:47Z</time>
      </trkpt>
      <trkpt lat="47.79038" lon="-2.63014">
        <ele>125.2</ele>
        <time>2024-09-15T10:29:49Z</time>
      </trkpt>
      <trkpt lat="47.79035" lon="-2.63017">
        <ele>125.2</ele>
        <time>2024-09-15T10:29:50Z</time>
      </trkpt>
      <trkpt lat="47.7903" lon="-2.63022">
        <ele>125.4</ele>
        <time>2024-09-15T10:29:51Z</time>
      </trkpt>
      <trkpt lat="47.7903" lon="-2.63022">
        <ele>125.4</ele>
        <time>2024-09-15T10:29:52Z</time>
      </trkpt>
      <trkpt lat="47.79029" lon="-2.63025">
        <ele>125.4</ele>
        <time>2024-09-15T10:29:53Z</time>
      </trkpt>
      <trkpt lat="47.79026" lon="-2.63026">
        <ele>125.6</ele>
        <time>2024-09-15T10:29:54Z</time>
      </trkpt>
      <trkpt lat="47.79023" lon="-2.63027">
        <ele>125.6</ele>
        <time>2024-09-15T10:29:55Z</time>
      </trkpt>
      <trkpt lat="47.79019" lon="-2.63028">
        <ele>125.6</ele>
        <time>2024-09-15T10:29:56Z</time>
      </trkpt>
      <trkpt lat="47.79017" lon="-2.6303">
        <ele>125.4</ele>
        <time>2024-09-15T10:29:57Z</time>
      </trkpt>
      <trkpt lat="47.79015" lon="-2.63033">
        <ele>125.4</ele>
        <time>2024-09-15T10:29:58Z</time>
      </trkpt>
      <trkpt lat="47.79011" lon="-2.63035">
        <ele>125.4</ele>
        <time>2024-09-15T10:29:59Z</time>
      </trkpt>
      <trkpt lat="47.79007" lon="-2.63038">
        <ele>125.4</ele>
        <time>2024-09-15T10:30:00Z</time>
      </trkpt>
      <trkpt lat="47.78994" lon="-2.63046">
        <ele>125.6</ele>
        <time>2024-09-15T10:30:03Z</time>
      </trkpt>
      <trkpt lat="47.78989" lon="-2.6305">
        <ele>125.6</ele>
        <time>2024-09-15T10:30:04Z</time>
      </trkpt>
      <trkpt lat="47.78985" lon="-2.63059">
        <ele>125.6</ele>
        <time>2024-09-15T10:30:06Z</time>
      </trkpt>
      <trkpt lat="47.78983" lon="-2.63062">
        <ele>125.6</ele>
        <time>2024-09-15T10:30:07Z</time>
      </trkpt>
      <trkpt lat="47.78981" lon="-2.63064">
        <ele>125.6</ele>
        <time>2024-09-15T10:30:08Z</time>
      </trkpt>
      <trkpt lat="47.78976" lon="-2.63067">
        <ele>125.6</ele>
        <time>2024-09-15T10:30:10Z</time>
      </trkpt>
      <trkpt lat="47.78972" lon="-2.6307">
        <ele>125.6</ele>
        <time>2024-09-15T10:30:11Z</time>
      </trkpt>
      <trkpt lat="47.78955" lon="-2.63085">
        <ele>125</ele>
        <time>2024-09-15T10:30:14Z</time>
      </trkpt>
      <trkpt lat="47.78948" lon="-2.63093">
        <ele>124.8</ele>
        <time>2024-09-15T10:30:15Z</time>
      </trkpt>
      <trkpt lat="47.78944" lon="-2.63096">
        <ele>124.6</ele>
        <time>2024-09-15T10:30:16Z</time>
      </trkpt>
      <trkpt lat="47.78944" lon="-2.63101">
        <ele>124.4</ele>
        <time>2024-09-15T10:30:17Z</time>
      </trkpt>
      <trkpt lat="47.78943" lon="-2.63106">
        <ele>124.2</ele>
        <time>2024-09-15T10:30:18Z</time>
      </trkpt>
      <trkpt lat="47.78942" lon="-2.63112">
        <ele>123.4</ele>
        <time>2024-09-15T10:30:19Z</time>
      </trkpt>
      <trkpt lat="47.78944" lon="-2.63118">
        <ele>122.8</ele>
        <time>2024-09-15T10:30:20Z</time>
      </trkpt>
      <trkpt lat="47.78945" lon="-2.63127">
        <ele>122.6</ele>
        <time>2024-09-15T10:30:21Z</time>
      </trkpt>
      <trkpt lat="47.78947" lon="-2.63135">
        <ele>122</ele>
        <time>2024-09-15T10:30:23Z</time>
      </trkpt>
      <trkpt lat="47.78949" lon="-2.63139">
        <ele>121.8</ele>
        <time>2024-09-15T10:30:24Z</time>
      </trkpt>
      <trkpt lat="47.78948" lon="-2.63144">
        <ele>121.8</ele>
        <time>2024-09-15T10:30:25Z</time>
      </trkpt>
      <trkpt lat="47.78948" lon="-2.63158">
        <ele>121.4</ele>
        <time>2024-09-15T10:30:27Z</time>
      </trkpt>
      <trkpt lat="47.78948" lon="-2.63164">
        <ele>121.4</ele>
        <time>2024-09-15T10:30:28Z</time>
      </trkpt>
      <trkpt lat="47.78949" lon="-2.63171">
        <ele>121.4</ele>
        <time>2024-09-15T10:30:29Z</time>
      </trkpt>
      <trkpt lat="47.78948" lon="-2.63176">
        <ele>121.4</ele>
        <time>2024-09-15T10:30:30Z</time>
      </trkpt>
      <trkpt lat="47.78946" lon="-2.63184">
        <ele>121</ele>
        <time>2024-09-15T10:30:31Z</time>
      </trkpt>
      <trkpt lat="47.78946" lon="-2.63193">
        <ele>121</ele>
        <time>2024-09-15T10:30:32Z</time>
      </trkpt>
      <trkpt lat="47.78946" lon="-2.63193">
        <ele>120.6</ele>
        <time>2024-09-15T10:30:33Z</time>
      </trkpt>
      <trkpt lat="47.78946" lon="-2.63197">
        <ele>120.6</ele>
        <time>2024-09-15T10:30:34Z</time>
      </trkpt>
      <trkpt lat="47.78945" lon="-2.63209">
        <ele>120.2</ele>
        <time>2024-09-15T10:30:37Z</time>
      </trkpt>
      <trkpt lat="47.78943" lon="-2.63218">
        <ele>120.2</ele>
        <time>2024-09-15T10:30:38Z</time>
      </trkpt>
      <trkpt lat="47.78943" lon="-2.63218">
        <ele>120.4</ele>
        <time>2024-09-15T10:30:39Z</time>
      </trkpt>
      <trkpt lat="47.78942" lon="-2.63226">
        <ele>120.6</ele>
        <time>2024-09-15T10:30:41Z</time>
      </trkpt>
      <trkpt lat="47.78943" lon="-2.63231">
        <ele>120.8</ele>
        <time>2024-09-15T10:30:42Z</time>
      </trkpt>
      <trkpt lat="47.78944" lon="-2.63237">
        <ele>121</ele>
        <time>2024-09-15T10:30:43Z</time>
      </trkpt>
      <trkpt lat="47.78942" lon="-2.63243">
        <ele>121.2</ele>
        <time>2024-09-15T10:30:44Z</time>
      </trkpt>
      <trkpt lat="47.7894" lon="-2.63248">
        <ele>121.4</ele>
        <time>2024-09-15T10:30:45Z</time>
      </trkpt>
      <trkpt lat="47.78939" lon="-2.63253">
        <ele>121.4</ele>
        <time>2024-09-15T10:30:46Z</time>
      </trkpt>
      <trkpt lat="47.78938" lon="-2.63257">
        <ele>121.6</ele>
        <time>2024-09-15T10:30:47Z</time>
      </trkpt>
      <trkpt lat="47.78939" lon="-2.6326">
        <ele>121.8</ele>
        <time>2024-09-15T10:30:48Z</time>
      </trkpt>
      <trkpt lat="47.78935" lon="-2.63266">
        <ele>121.8</ele>
        <time>2024-09-15T10:30:49Z</time>
      </trkpt>
      <trkpt lat="47.78934" lon="-2.6327">
        <ele>122</ele>
        <time>2024-09-15T10:30:50Z</time>
      </trkpt>
      <trkpt lat="47.78934" lon="-2.6327">
        <ele>122</ele>
        <time>2024-09-15T10:30:51Z</time>
      </trkpt>
      <trkpt lat="47.78935" lon="-2.6328">
        <ele>122.2</ele>
        <time>2024-09-15T10:30:52Z</time>
      </trkpt>
      <trkpt lat="47.78934" lon="-2.63292">
        <ele>122.4</ele>
        <time>2024-09-15T10:30:54Z</time>
      </trkpt>
      <trkpt lat="47.78935" lon="-2.63298">
        <ele>122.6</ele>
        <time>2024-09-15T10:30:55Z</time>
      </trkpt>
      <trkpt lat="47.78934" lon="-2.63302">
        <ele>122.6</ele>
        <time>2024-09-15T10:30:56Z</time>
      </trkpt>
      <trkpt lat="47.78936" lon="-2.63306">
        <ele>122.8</ele>
        <time>2024-09-15T10:30:57Z</time>
      </trkpt>
      <trkpt lat="47.78938" lon="-2.63309">
        <ele>122.8</ele>
        <time>2024-09-15T10:30:58Z</time>
      </trkpt>
      <trkpt lat="47.78937" lon="-2.63312">
        <ele>123</ele>
        <time>2024-09-15T10:30:59Z</time>
      </trkpt>
      <trkpt lat="47.78937" lon="-2.63318">
        <ele>123.2</ele>
        <time>2024-09-15T10:31:00Z</time>
      </trkpt>
      <trkpt lat="47.78937" lon="-2.63323">
        <ele>123.2</ele>
        <time>2024-09-15T10:31:01Z</time>
      </trkpt>
      <trkpt lat="47.78936" lon="-2.63327">
        <ele>123.2</ele>
        <time>2024-09-15T10:31:02Z</time>
      </trkpt>
      <trkpt lat="47.78936" lon="-2.63332">
        <ele>123.2</ele>
        <time>2024-09-15T10:31:03Z</time>
      </trkpt>
      <trkpt lat="47.78935" lon="-2.63337">
        <ele>123.4</ele>
        <time>2024-09-15T10:31:04Z</time>
      </trkpt>
      <trkpt lat="47.78938" lon="-2.63342">
        <ele>123.4</ele>
        <time>2024-09-15T10:31:05Z</time>
      </trkpt>
      <trkpt lat="47.78939" lon="-2.63345">
        <ele>123.4</ele>
        <time>2024-09-15T10:31:06Z</time>
      </trkpt>
      <trkpt lat="47.78939" lon="-2.6335">
        <ele>123.4</ele>
        <time>2024-09-15T10:31:07Z</time>
      </trkpt>
      <trkpt lat="47.78938" lon="-2.63367">
        <ele>123.6</ele>
        <time>2024-09-15T10:31:10Z</time>
      </trkpt>
      <trkpt lat="47.78937" lon="-2.63375">
        <ele>123.6</ele>
        <time>2024-09-15T10:31:11Z</time>
      </trkpt>
      <trkpt lat="47.78936" lon="-2.63381">
        <ele>123.6</ele>
        <time>2024-09-15T10:31:12Z</time>
      </trkpt>
      <trkpt lat="47.78938" lon="-2.63393">
        <ele>123.8</ele>
        <time>2024-09-15T10:31:14Z</time>
      </trkpt>
      <trkpt lat="47.78936" lon="-2.63396">
        <ele>124</ele>
        <time>2024-09-15T10:31:15Z</time>
      </trkpt>
      <trkpt lat="47.78936" lon="-2.63397">
        <ele>124</ele>
        <time>2024-09-15T10:31:16Z</time>
      </trkpt>
      <trkpt lat="47.78936" lon="-2.63398">
        <ele>124</ele>
        <time>2024-09-15T10:31:17Z</time>
      </trkpt>
      <trkpt lat="47.78936" lon="-2.634">
        <ele>124.2</ele>
        <time>2024-09-15T10:31:18Z</time>
      </trkpt>
      <trkpt lat="47.78935" lon="-2.63403">
        <ele>124.2</ele>
        <time>2024-09-15T10:31:19Z</time>
      </trkpt>
      <trkpt lat="47.7893" lon="-2.63421">
        <ele>124.8</ele>
        <time>2024-09-15T10:31:24Z</time>
      </trkpt>
      <trkpt lat="47.7893" lon="-2.63425">
        <ele>124.8</ele>
        <time>2024-09-15T10:31:25Z</time>
      </trkpt>
      <trkpt lat="47.78928" lon="-2.63436">
        <ele>124.8</ele>
        <time>2024-09-15T10:31:28Z</time>
      </trkpt>
      <trkpt lat="47.78929" lon="-2.6344">
        <ele>124.8</ele>
        <time>2024-09-15T10:31:29Z</time>
      </trkpt>
      <trkpt lat="47.78929" lon="-2.63443">
        <ele>125</ele>
        <time>2024-09-15T10:31:30Z</time>
      </trkpt>
      <trkpt lat="47.78929" lon="-2.63446">
        <ele>125.2</ele>
        <time>2024-09-15T10:31:31Z</time>
      </trkpt>
      <trkpt lat="47.7893" lon="-2.63452">
        <ele>125.2</ele>
        <time>2024-09-15T10:31:32Z</time>
      </trkpt>
      <trkpt lat="47.78929" lon="-2.63457">
        <ele>125.4</ele>
        <time>2024-09-15T10:31:33Z</time>
      </trkpt>
      <trkpt lat="47.78929" lon="-2.63462">
        <ele>125.4</ele>
        <time>2024-09-15T10:31:34Z</time>
      </trkpt>
      <trkpt lat="47.78928" lon="-2.63469">
        <ele>125.6</ele>
        <time>2024-09-15T10:31:35Z</time>
      </trkpt>
      <trkpt lat="47.78928" lon="-2.63479">
        <ele>125.8</ele>
        <time>2024-09-15T10:31:37Z</time>
      </trkpt>
      <trkpt lat="47.78928" lon="-2.63486">
        <ele>125.8</ele>
        <time>2024-09-15T10:31:38Z</time>
      </trkpt>
      <trkpt lat="47.78926" lon="-2.63496">
        <ele>125.8</ele>
        <time>2024-09-15T10:31:40Z</time>
      </trkpt>
      <trkpt lat="47.78926" lon="-2.63502">
        <ele>125.8</ele>
        <time>2024-09-15T10:31:41Z</time>
      </trkpt>
      <trkpt lat="47.78923" lon="-2.63508">
        <ele>125.8</ele>
        <time>2024-09-15T10:31:42Z</time>
      </trkpt>
      <trkpt lat="47.78923" lon="-2.63513">
        <ele>125.8</ele>
        <time>2024-09-15T10:31:43Z</time>
      </trkpt>
      <trkpt lat="47.78922" lon="-2.63518">
        <ele>126</ele>
        <time>2024-09-15T10:31:44Z</time>
      </trkpt>
      <trkpt lat="47.78921" lon="-2.63526">
        <ele>126.2</ele>
        <time>2024-09-15T10:31:46Z</time>
      </trkpt>
      <trkpt lat="47.7892" lon="-2.63536">
        <ele>126.6</ele>
        <time>2024-09-15T10:31:48Z</time>
      </trkpt>
      <trkpt lat="47.78922" lon="-2.6354">
        <ele>126.6</ele>
        <time>2024-09-15T10:31:49Z</time>
      </trkpt>
      <trkpt lat="47.78925" lon="-2.63545">
        <ele>126.6</ele>
        <time>2024-09-15T10:31:50Z</time>
      </trkpt>
      <trkpt lat="47.78926" lon="-2.6355">
        <ele>126.6</ele>
        <time>2024-09-15T10:31:51Z</time>
      </trkpt>
      <trkpt lat="47.78927" lon="-2.63554">
        <ele>126.8</ele>
        <time>2024-09-15T10:31:52Z</time>
      </trkpt>
      <trkpt lat="47.78926" lon="-2.63559">
        <ele>126.8</ele>
        <time>2024-09-15T10:31:53Z</time>
      </trkpt>
      <trkpt lat="47.78925" lon="-2.63569">
        <ele>126.8</ele>
        <time>2024-09-15T10:31:55Z</time>
      </trkpt>
      <trkpt lat="47.78926" lon="-2.63578">
        <ele>126.8</ele>
        <time>2024-09-15T10:31:56Z</time>
      </trkpt>
      <trkpt lat="47.78926" lon="-2.63584">
        <ele>126.8</ele>
        <time>2024-09-15T10:31:57Z</time>
      </trkpt>
      <trkpt lat="47.78925" lon="-2.63588">
        <ele>127</ele>
        <time>2024-09-15T10:31:58Z</time>
      </trkpt>
      <trkpt lat="47.78923" lon="-2.63596">
        <ele>126.8</ele>
        <time>2024-09-15T10:31:59Z</time>
      </trkpt>
      <trkpt lat="47.78923" lon="-2.63602">
        <ele>126.8</ele>
        <time>2024-09-15T10:32:00Z</time>
      </trkpt>
      <trkpt lat="47.78924" lon="-2.63606">
        <ele>127</ele>
        <time>2024-09-15T10:32:01Z</time>
      </trkpt>
      <trkpt lat="47.78925" lon="-2.63612">
        <ele>127</ele>
        <time>2024-09-15T10:32:02Z</time>
      </trkpt>
      <trkpt lat="47.78926" lon="-2.63617">
        <ele>127</ele>
        <time>2024-09-15T10:32:03Z</time>
      </trkpt>
      <trkpt lat="47.78927" lon="-2.63621">
        <ele>127</ele>
        <time>2024-09-15T10:32:04Z</time>
      </trkpt>
      <trkpt lat="47.78925" lon="-2.63626">
        <ele>127</ele>
        <time>2024-09-15T10:32:05Z</time>
      </trkpt>
      <trkpt lat="47.78925" lon="-2.63634">
        <ele>126.6</ele>
        <time>2024-09-15T10:32:06Z</time>
      </trkpt>
      <trkpt lat="47.78923" lon="-2.63643">
        <ele>126.6</ele>
        <time>2024-09-15T10:32:07Z</time>
      </trkpt>
      <trkpt lat="47.78923" lon="-2.6365">
        <ele>126.6</ele>
        <time>2024-09-15T10:32:08Z</time>
      </trkpt>
      <trkpt lat="47.78923" lon="-2.63662">
        <ele>126.4</ele>
        <time>2024-09-15T10:32:10Z</time>
      </trkpt>
      <trkpt lat="47.78924" lon="-2.6367">
        <ele>126.4</ele>
        <time>2024-09-15T10:32:11Z</time>
      </trkpt>
      <trkpt lat="47.78923" lon="-2.63678">
        <ele>126.4</ele>
        <time>2024-09-15T10:32:12Z</time>
      </trkpt>
      <trkpt lat="47.78924" lon="-2.63691">
        <ele>126.2</ele>
        <time>2024-09-15T10:32:14Z</time>
      </trkpt>
      <trkpt lat="47.78925" lon="-2.63698">
        <ele>126</ele>
        <time>2024-09-15T10:32:15Z</time>
      </trkpt>
      <trkpt lat="47.78927" lon="-2.63704">
        <ele>125.8</ele>
        <time>2024-09-15T10:32:16Z</time>
      </trkpt>
      <trkpt lat="47.78929" lon="-2.63713">
        <ele>125.4</ele>
        <time>2024-09-15T10:32:17Z</time>
      </trkpt>
      <trkpt lat="47.7893" lon="-2.63722">
        <ele>125.4</ele>
        <time>2024-09-15T10:32:18Z</time>
      </trkpt>
      <trkpt lat="47.7893" lon="-2.63728">
        <ele>125.2</ele>
        <time>2024-09-15T10:32:19Z</time>
      </trkpt>
      <trkpt lat="47.78932" lon="-2.63735">
        <ele>125</ele>
        <time>2024-09-15T10:32:20Z</time>
      </trkpt>
      <trkpt lat="47.78933" lon="-2.6374">
        <ele>125</ele>
        <time>2024-09-15T10:32:21Z</time>
      </trkpt>
      <trkpt lat="47.78932" lon="-2.63744">
        <ele>125</ele>
        <time>2024-09-15T10:32:22Z</time>
      </trkpt>
      <trkpt lat="47.78931" lon="-2.63753">
        <ele>124.8</ele>
        <time>2024-09-15T10:32:24Z</time>
      </trkpt>
      <trkpt lat="47.78932" lon="-2.63761">
        <ele>124.8</ele>
        <time>2024-09-15T10:32:26Z</time>
      </trkpt>
      <trkpt lat="47.7893" lon="-2.63771">
        <ele>124.8</ele>
        <time>2024-09-15T10:32:28Z</time>
      </trkpt>
      <trkpt lat="47.78932" lon="-2.63784">
        <ele>125.2</ele>
        <time>2024-09-15T10:32:31Z</time>
      </trkpt>
      <trkpt lat="47.78932" lon="-2.63788">
        <ele>125.2</ele>
        <time>2024-09-15T10:32:32Z</time>
      </trkpt>
      <trkpt lat="47.78933" lon="-2.63792">
        <ele>125.2</ele>
        <time>2024-09-15T10:32:33Z</time>
      </trkpt>
      <trkpt lat="47.78934" lon="-2.63796">
        <ele>125.2</ele>
        <time>2024-09-15T10:32:34Z</time>
      </trkpt>
      <trkpt lat="47.78934" lon="-2.63801">
        <ele>125.2</ele>
        <time>2024-09-15T10:32:35Z</time>
      </trkpt>
      <trkpt lat="47.78933" lon="-2.63814">
        <ele>125.4</ele>
        <time>2024-09-15T10:32:38Z</time>
      </trkpt>
      <trkpt lat="47.78933" lon="-2.63819">
        <ele>125.4</ele>
        <time>2024-09-15T10:32:39Z</time>
      </trkpt>
      <trkpt lat="47.78936" lon="-2.63836">
        <ele>125.6</ele>
        <time>2024-09-15T10:32:42Z</time>
      </trkpt>
      <trkpt lat="47.78936" lon="-2.63843">
        <ele>125.6</ele>
        <time>2024-09-15T10:32:43Z</time>
      </trkpt>
      <trkpt lat="47.78936" lon="-2.63848">
        <ele>125.6</ele>
        <time>2024-09-15T10:32:44Z</time>
      </trkpt>
      <trkpt lat="47.78935" lon="-2.63858">
        <ele>125.6</ele>
        <time>2024-09-15T10:32:46Z</time>
      </trkpt>
      <trkpt lat="47.78935" lon="-2.63863">
        <ele>125.6</ele>
        <time>2024-09-15T10:32:47Z</time>
      </trkpt>
      <trkpt lat="47.78934" lon="-2.63869">
        <ele>125.8</ele>
        <time>2024-09-15T10:32:48Z</time>
      </trkpt>
      <trkpt lat="47.78934" lon="-2.63873">
        <ele>125.8</ele>
        <time>2024-09-15T10:32:49Z</time>
      </trkpt>
      <trkpt lat="47.78934" lon="-2.63881">
        <ele>125.8</ele>
        <time>2024-09-15T10:32:51Z</time>
      </trkpt>
      <trkpt lat="47.78934" lon="-2.6389">
        <ele>125.8</ele>
        <time>2024-09-15T10:32:53Z</time>
      </trkpt>
      <trkpt lat="47.78934" lon="-2.63893">
        <ele>126</ele>
        <time>2024-09-15T10:32:54Z</time>
      </trkpt>
      <trkpt lat="47.78933" lon="-2.63899">
        <ele>126</ele>
        <time>2024-09-15T10:32:55Z</time>
      </trkpt>
      <trkpt lat="47.78933" lon="-2.63907">
        <ele>126.4</ele>
        <time>2024-09-15T10:32:57Z</time>
      </trkpt>
      <trkpt lat="47.78934" lon="-2.63911">
        <ele>126.4</ele>
        <time>2024-09-15T10:32:58Z</time>
      </trkpt>
      <trkpt lat="47.78935" lon="-2.63917">
        <ele>126.4</ele>
        <time>2024-09-15T10:32:59Z</time>
      </trkpt>
      <trkpt lat="47.78935" lon="-2.63925">
        <ele>126.4</ele>
        <time>2024-09-15T10:33:00Z</time>
      </trkpt>
      <trkpt lat="47.78934" lon="-2.63939">
        <ele>126.4</ele>
        <time>2024-09-15T10:33:02Z</time>
      </trkpt>
      <trkpt lat="47.78933" lon="-2.63944">
        <ele>126.4</ele>
        <time>2024-09-15T10:33:03Z</time>
      </trkpt>
      <trkpt lat="47.78933" lon="-2.63949">
        <ele>126.4</ele>
        <time>2024-09-15T10:33:04Z</time>
      </trkpt>
      <trkpt lat="47.78932" lon="-2.63957">
        <ele>126.4</ele>
        <time>2024-09-15T10:33:05Z</time>
      </trkpt>
      <trkpt lat="47.78931" lon="-2.63962">
        <ele>126.4</ele>
        <time>2024-09-15T10:33:06Z</time>
      </trkpt>
      <trkpt lat="47.78931" lon="-2.63966">
        <ele>126.4</ele>
        <time>2024-09-15T10:33:07Z</time>
      </trkpt>
      <trkpt lat="47.78931" lon="-2.63973">
        <ele>126.4</ele>
        <time>2024-09-15T10:33:09Z</time>
      </trkpt>
      <trkpt lat="47.78932" lon="-2.63978">
        <ele>126.2</ele>
        <time>2024-09-15T10:33:10Z</time>
      </trkpt>
      <trkpt lat="47.78932" lon="-2.6398">
        <ele>126</ele>
        <time>2024-09-15T10:33:11Z</time>
      </trkpt>
      <trkpt lat="47.78933" lon="-2.63981">
        <ele>126</ele>
        <time>2024-09-15T10:33:12Z</time>
      </trkpt>
      <trkpt lat="47.78935" lon="-2.63981">
        <ele>126</ele>
        <time>2024-09-15T10:33:13Z</time>
      </trkpt>
      <trkpt lat="47.78938" lon="-2.6398">
        <ele>125.8</ele>
        <time>2024-09-15T10:33:15Z</time>
      </trkpt>
      <trkpt lat="47.78938" lon="-2.63979">
        <ele>125.8</ele>
        <time>2024-09-15T10:33:16Z</time>
      </trkpt>
      <trkpt lat="47.7894" lon="-2.63978">
        <ele>125.8</ele>
        <time>2024-09-15T10:33:17Z</time>
      </trkpt>
      <trkpt lat="47.78941" lon="-2.63978">
        <ele>125.8</ele>
        <time>2024-09-15T10:33:18Z</time>
      </trkpt>
      <trkpt lat="47.78942" lon="-2.63977">
        <ele>126.2</ele>
        <time>2024-09-15T10:33:19Z</time>
      </trkpt>
      <trkpt lat="47.78944" lon="-2.63976">
        <ele>126.4</ele>
        <time>2024-09-15T10:33:20Z</time>
      </trkpt>
      <trkpt lat="47.78947" lon="-2.63974">
        <ele>127.4</ele>
        <time>2024-09-15T10:33:23Z</time>
      </trkpt>
      <trkpt lat="47.78948" lon="-2.63973">
        <ele>127.8</ele>
        <time>2024-09-15T10:33:24Z</time>
      </trkpt>
      <trkpt lat="47.78949" lon="-2.63971">
        <ele>127.8</ele>
        <time>2024-09-15T10:33:25Z</time>
      </trkpt>
      <trkpt lat="47.7895" lon="-2.63968">
        <ele>128</ele>
        <time>2024-09-15T10:33:26Z</time>
      </trkpt>
      <trkpt lat="47.78952" lon="-2.63965">
        <ele>128</ele>
        <time>2024-09-15T10:33:27Z</time>
      </trkpt>
      <trkpt lat="47.78953" lon="-2.63963">
        <ele>128.2</ele>
        <time>2024-09-15T10:33:28Z</time>
      </trkpt>
      <trkpt lat="47.78954" lon="-2.63961">
        <ele>128.2</ele>
        <time>2024-09-15T10:33:29Z</time>
      </trkpt>
      <trkpt lat="47.78957" lon="-2.63953">
        <ele>128.4</ele>
        <time>2024-09-15T10:33:31Z</time>
      </trkpt>
      <trkpt lat="47.78962" lon="-2.63942">
        <ele>128.6</ele>
        <time>2024-09-15T10:33:34Z</time>
      </trkpt>
      <trkpt lat="47.78963" lon="-2.63938">
        <ele>128.8</ele>
        <time>2024-09-15T10:33:35Z</time>
      </trkpt>
      <trkpt lat="47.78971" lon="-2.63923">
        <ele>129</ele>
        <time>2024-09-15T10:33:39Z</time>
      </trkpt>
      <trkpt lat="47.78973" lon="-2.63919">
        <ele>129.2</ele>
        <time>2024-09-15T10:33:40Z</time>
      </trkpt>
      <trkpt lat="47.78979" lon="-2.63907">
        <ele>129.2</ele>
        <time>2024-09-15T10:33:43Z</time>
      </trkpt>
      <trkpt lat="47.78983" lon="-2.63904">
        <ele>129.4</ele>
        <time>2024-09-15T10:33:44Z</time>
      </trkpt>
      <trkpt lat="47.78993" lon="-2.63893">
        <ele>129.4</ele>
        <time>2024-09-15T10:33:48Z</time>
      </trkpt>
      <trkpt lat="47.78995" lon="-2.63889">
        <ele>129.4</ele>
        <time>2024-09-15T10:33:49Z</time>
      </trkpt>
      <trkpt lat="47.79003" lon="-2.63874">
        <ele>129.4</ele>
        <time>2024-09-15T10:33:52Z</time>
      </trkpt>
      <trkpt lat="47.79005" lon="-2.63873">
        <ele>129.4</ele>
        <time>2024-09-15T10:33:53Z</time>
      </trkpt>
      <trkpt lat="47.79007" lon="-2.6387">
        <ele>129.4</ele>
        <time>2024-09-15T10:33:54Z</time>
      </trkpt>
      <trkpt lat="47.7901" lon="-2.63869">
        <ele>129.4</ele>
        <time>2024-09-15T10:33:55Z</time>
      </trkpt>
      <trkpt lat="47.79012" lon="-2.63866">
        <ele>129.6</ele>
        <time>2024-09-15T10:33:56Z</time>
      </trkpt>
      <trkpt lat="47.79016" lon="-2.63862">
        <ele>129.8</ele>
        <time>2024-09-15T10:33:57Z</time>
      </trkpt>
      <trkpt lat="47.79021" lon="-2.63854">
        <ele>130.4</ele>
        <time>2024-09-15T10:34:00Z</time>
      </trkpt>
      <trkpt lat="47.79024" lon="-2.63852">
        <ele>130.4</ele>
        <time>2024-09-15T10:34:01Z</time>
      </trkpt>
      <trkpt lat="47.79031" lon="-2.63846">
        <ele>130.8</ele>
        <time>2024-09-15T10:34:03Z</time>
      </trkpt>
      <trkpt lat="47.79034" lon="-2.63847">
        <ele>130.8</ele>
        <time>2024-09-15T10:34:04Z</time>
      </trkpt>
      <trkpt lat="47.79037" lon="-2.63846">
        <ele>130.8</ele>
        <time>2024-09-15T10:34:05Z</time>
      </trkpt>
      <trkpt lat="47.79041" lon="-2.63847">
        <ele>131</ele>
        <time>2024-09-15T10:34:06Z</time>
      </trkpt>
      <trkpt lat="47.79045" lon="-2.6385">
        <ele>131</ele>
        <time>2024-09-15T10:34:07Z</time>
      </trkpt>
      <trkpt lat="47.79048" lon="-2.63854">
        <ele>131</ele>
        <time>2024-09-15T10:34:08Z</time>
      </trkpt>
      <trkpt lat="47.79052" lon="-2.6386">
        <ele>131</ele>
        <time>2024-09-15T10:34:09Z</time>
      </trkpt>
      <trkpt lat="47.79054" lon="-2.63864">
        <ele>131</ele>
        <time>2024-09-15T10:34:10Z</time>
      </trkpt>
      <trkpt lat="47.79054" lon="-2.63868">
        <ele>131</ele>
        <time>2024-09-15T10:34:11Z</time>
      </trkpt>
      <trkpt lat="47.79056" lon="-2.63872">
        <ele>131</ele>
        <time>2024-09-15T10:34:12Z</time>
      </trkpt>
      <trkpt lat="47.79056" lon="-2.63876">
        <ele>131</ele>
        <time>2024-09-15T10:34:13Z</time>
      </trkpt>
      <trkpt lat="47.79061" lon="-2.63892">
        <ele>131</ele>
        <time>2024-09-15T10:34:17Z</time>
      </trkpt>
      <trkpt lat="47.79062" lon="-2.63895">
        <ele>131</ele>
        <time>2024-09-15T10:34:18Z</time>
      </trkpt>
      <trkpt lat="47.79067" lon="-2.63909">
        <ele>131.4</ele>
        <time>2024-09-15T10:34:22Z</time>
      </trkpt>
      <trkpt lat="47.79068" lon="-2.63912">
        <ele>131.4</ele>
        <time>2024-09-15T10:34:23Z</time>
      </trkpt>
      <trkpt lat="47.79068" lon="-2.63914">
        <ele>131.4</ele>
        <time>2024-09-15T10:34:24Z</time>
      </trkpt>
      <trkpt lat="47.7907" lon="-2.63918">
        <ele>131.4</ele>
        <time>2024-09-15T10:34:25Z</time>
      </trkpt>
      <trkpt lat="47.79071" lon="-2.63922">
        <ele>131.6</ele>
        <time>2024-09-15T10:34:26Z</time>
      </trkpt>
      <trkpt lat="47.79072" lon="-2.63926">
        <ele>131.6</ele>
        <time>2024-09-15T10:34:27Z</time>
      </trkpt>
      <trkpt lat="47.79073" lon="-2.63931">
        <ele>131.8</ele>
        <time>2024-09-15T10:34:28Z</time>
      </trkpt>
      <trkpt lat="47.79079" lon="-2.63941">
        <ele>131.8</ele>
        <time>2024-09-15T10:34:30Z</time>
      </trkpt>
      <trkpt lat="47.79084" lon="-2.63957">
        <ele>132.2</ele>
        <time>2024-09-15T10:34:35Z</time>
      </trkpt>
      <trkpt lat="47.79085" lon="-2.63959">
        <ele>132.2</ele>
        <time>2024-09-15T10:34:36Z</time>
      </trkpt>
      <trkpt lat="47.79086" lon="-2.63963">
        <ele>132.4</ele>
        <time>2024-09-15T10:34:37Z</time>
      </trkpt>
      <trkpt lat="47.79087" lon="-2.63967">
        <ele>132.4</ele>
        <time>2024-09-15T10:34:38Z</time>
      </trkpt>
      <trkpt lat="47.79089" lon="-2.63973">
        <ele>132.4</ele>
        <time>2024-09-15T10:34:39Z</time>
      </trkpt>
      <trkpt lat="47.79091" lon="-2.63978">
        <ele>132.6</ele>
        <time>2024-09-15T10:34:40Z</time>
      </trkpt>
      <trkpt lat="47.79093" lon="-2.63984">
        <ele>132.6</ele>
        <time>2024-09-15T10:34:41Z</time>
      </trkpt>
      <trkpt lat="47.79097" lon="-2.64014">
        <ele>133</ele>
        <time>2024-09-15T10:34:46Z</time>
      </trkpt>
      <trkpt lat="47.79098" lon="-2.64019">
        <ele>133</ele>
        <time>2024-09-15T10:34:47Z</time>
      </trkpt>
      <trkpt lat="47.79099" lon="-2.64023">
        <ele>133.2</ele>
        <time>2024-09-15T10:34:48Z</time>
      </trkpt>
      <trkpt lat="47.79101" lon="-2.64033">
        <ele>133.4</ele>
        <time>2024-09-15T10:34:50Z</time>
      </trkpt>
      <trkpt lat="47.79102" lon="-2.64037">
        <ele>133.6</ele>
        <time>2024-09-15T10:34:51Z</time>
      </trkpt>
      <trkpt lat="47.79102" lon="-2.64042">
        <ele>133.6</ele>
        <time>2024-09-15T10:34:52Z</time>
      </trkpt>
      <trkpt lat="47.79103" lon="-2.64047">
        <ele>133.6</ele>
        <time>2024-09-15T10:34:53Z</time>
      </trkpt>
      <trkpt lat="47.79101" lon="-2.64051">
        <ele>133.8</ele>
        <time>2024-09-15T10:34:54Z</time>
      </trkpt>
      <trkpt lat="47.79102" lon="-2.64056">
        <ele>133.8</ele>
        <time>2024-09-15T10:34:55Z</time>
      </trkpt>
      <trkpt lat="47.79104" lon="-2.64066">
        <ele>134</ele>
        <time>2024-09-15T10:34:57Z</time>
      </trkpt>
      <trkpt lat="47.79104" lon="-2.64071">
        <ele>134.2</ele>
        <time>2024-09-15T10:34:58Z</time>
      </trkpt>
      <trkpt lat="47.79106" lon="-2.64075">
        <ele>134.2</ele>
        <time>2024-09-15T10:34:59Z</time>
      </trkpt>
      <trkpt lat="47.7911" lon="-2.6408">
        <ele>134.2</ele>
        <time>2024-09-15T10:35:00Z</time>
      </trkpt>
      <trkpt lat="47.79112" lon="-2.64086">
        <ele>134.2</ele>
        <time>2024-09-15T10:35:01Z</time>
      </trkpt>
      <trkpt lat="47.79114" lon="-2.64091">
        <ele>134.4</ele>
        <time>2024-09-15T10:35:02Z</time>
      </trkpt>
      <trkpt lat="47.79115" lon="-2.64096">
        <ele>134.6</ele>
        <time>2024-09-15T10:35:03Z</time>
      </trkpt>
      <trkpt lat="47.79118" lon="-2.64114">
        <ele>134.6</ele>
        <time>2024-09-15T10:35:06Z</time>
      </trkpt>
      <trkpt lat="47.79119" lon="-2.64118">
        <ele>134.8</ele>
        <time>2024-09-15T10:35:07Z</time>
      </trkpt>
      <trkpt lat="47.7912" lon="-2.64125">
        <ele>134.8</ele>
        <time>2024-09-15T10:35:08Z</time>
      </trkpt>
      <trkpt lat="47.79123" lon="-2.6413">
        <ele>135</ele>
        <time>2024-09-15T10:35:09Z</time>
      </trkpt>
      <trkpt lat="47.79125" lon="-2.64136">
        <ele>135</ele>
        <time>2024-09-15T10:35:10Z</time>
      </trkpt>
      <trkpt lat="47.79126" lon="-2.64142">
        <ele>135.2</ele>
        <time>2024-09-15T10:35:11Z</time>
      </trkpt>
      <trkpt lat="47.79128" lon="-2.64147">
        <ele>135.2</ele>
        <time>2024-09-15T10:35:12Z</time>
      </trkpt>
      <trkpt lat="47.79128" lon="-2.64154">
        <ele>135.4</ele>
        <time>2024-09-15T10:35:13Z</time>
      </trkpt>
      <trkpt lat="47.79128" lon="-2.6416">
        <ele>135.4</ele>
        <time>2024-09-15T10:35:14Z</time>
      </trkpt>
      <trkpt lat="47.79129" lon="-2.64166">
        <ele>135.6</ele>
        <time>2024-09-15T10:35:15Z</time>
      </trkpt>
      <trkpt lat="47.79137" lon="-2.64182">
        <ele>135.6</ele>
        <time>2024-09-15T10:35:18Z</time>
      </trkpt>
      <trkpt lat="47.79139" lon="-2.64188">
        <ele>135.8</ele>
        <time>2024-09-15T10:35:19Z</time>
      </trkpt>
      <trkpt lat="47.7914" lon="-2.64193">
        <ele>136</ele>
        <time>2024-09-15T10:35:20Z</time>
      </trkpt>
      <trkpt lat="47.79142" lon="-2.64211">
        <ele>136.4</ele>
        <time>2024-09-15T10:35:23Z</time>
      </trkpt>
      <trkpt lat="47.79145" lon="-2.64216">
        <ele>136.8</ele>
        <time>2024-09-15T10:35:24Z</time>
      </trkpt>
      <trkpt lat="47.79147" lon="-2.64224">
        <ele>137.2</ele>
        <time>2024-09-15T10:35:25Z</time>
      </trkpt>
      <trkpt lat="47.79148" lon="-2.64227">
        <ele>137.4</ele>
        <time>2024-09-15T10:35:26Z</time>
      </trkpt>
      <trkpt lat="47.79147" lon="-2.64229">
        <ele>137.6</ele>
        <time>2024-09-15T10:35:27Z</time>
      </trkpt>
      <trkpt lat="47.79148" lon="-2.64234">
        <ele>137.8</ele>
        <time>2024-09-15T10:35:28Z</time>
      </trkpt>
      <trkpt lat="47.79147" lon="-2.64238">
        <ele>138</ele>
        <time>2024-09-15T10:35:29Z</time>
      </trkpt>
      <trkpt lat="47.79148" lon="-2.64243">
        <ele>138.2</ele>
        <time>2024-09-15T10:35:30Z</time>
      </trkpt>
      <trkpt lat="47.79148" lon="-2.64248">
        <ele>138.6</ele>
        <time>2024-09-15T10:35:31Z</time>
      </trkpt>
      <trkpt lat="47.79147" lon="-2.64252">
        <ele>138.6</ele>
        <time>2024-09-15T10:35:32Z</time>
      </trkpt>
      <trkpt lat="47.79148" lon="-2.64255">
        <ele>139</ele>
        <time>2024-09-15T10:35:33Z</time>
      </trkpt>
      <trkpt lat="47.79149" lon="-2.6426">
        <ele>139</ele>
        <time>2024-09-15T10:35:34Z</time>
      </trkpt>
      <trkpt lat="47.7915" lon="-2.64263">
        <ele>139.4</ele>
        <time>2024-09-15T10:35:35Z</time>
      </trkpt>
      <trkpt lat="47.79151" lon="-2.64269">
        <ele>139.6</ele>
        <time>2024-09-15T10:35:36Z</time>
      </trkpt>
      <trkpt lat="47.79156" lon="-2.64274">
        <ele>139.8</ele>
        <time>2024-09-15T10:35:37Z</time>
      </trkpt>
      <trkpt lat="47.79159" lon="-2.64279">
        <ele>140</ele>
        <time>2024-09-15T10:35:38Z</time>
      </trkpt>
      <trkpt lat="47.79159" lon="-2.64285">
        <ele>140.2</ele>
        <time>2024-09-15T10:35:39Z</time>
      </trkpt>
      <trkpt lat="47.79161" lon="-2.64292">
        <ele>140.4</ele>
        <time>2024-09-15T10:35:40Z</time>
      </trkpt>
      <trkpt lat="47.79162" lon="-2.64297">
        <ele>140.4</ele>
        <time>2024-09-15T10:35:41Z</time>
      </trkpt>
      <trkpt lat="47.79163" lon="-2.643">
        <ele>140.6</ele>
        <time>2024-09-15T10:35:42Z</time>
      </trkpt>
      <trkpt lat="47.79161" lon="-2.64303">
        <ele>140.8</ele>
        <time>2024-09-15T10:35:43Z</time>
      </trkpt>
      <trkpt lat="47.79162" lon="-2.64307">
        <ele>141</ele>
        <time>2024-09-15T10:35:44Z</time>
      </trkpt>
      <trkpt lat="47.79164" lon="-2.64312">
        <ele>141</ele>
        <time>2024-09-15T10:35:45Z</time>
      </trkpt>
      <trkpt lat="47.79166" lon="-2.64317">
        <ele>141.2</ele>
        <time>2024-09-15T10:35:46Z</time>
      </trkpt>
      <trkpt lat="47.79168" lon="-2.64322">
        <ele>141.2</ele>
        <time>2024-09-15T10:35:47Z</time>
      </trkpt>
      <trkpt lat="47.7917" lon="-2.64327">
        <ele>141.4</ele>
        <time>2024-09-15T10:35:48Z</time>
      </trkpt>
      <trkpt lat="47.79172" lon="-2.64333">
        <ele>141.6</ele>
        <time>2024-09-15T10:35:49Z</time>
      </trkpt>
      <trkpt lat="47.79174" lon="-2.64336">
        <ele>141.8</ele>
        <time>2024-09-15T10:35:50Z</time>
      </trkpt>
      <trkpt lat="47.79174" lon="-2.64341">
        <ele>141.8</ele>
        <time>2024-09-15T10:35:51Z</time>
      </trkpt>
      <trkpt lat="47.79175" lon="-2.64345">
        <ele>142</ele>
        <time>2024-09-15T10:35:52Z</time>
      </trkpt>
      <trkpt lat="47.79172" lon="-2.64349">
        <ele>142.2</ele>
        <time>2024-09-15T10:35:53Z</time>
      </trkpt>
      <trkpt lat="47.79172" lon="-2.64353">
        <ele>142.4</ele>
        <time>2024-09-15T10:35:54Z</time>
      </trkpt>
      <trkpt lat="47.79174" lon="-2.64358">
        <ele>142.6</ele>
        <time>2024-09-15T10:35:55Z</time>
      </trkpt>
      <trkpt lat="47.79176" lon="-2.64363">
        <ele>142.8</ele>
        <time>2024-09-15T10:35:56Z</time>
      </trkpt>
      <trkpt lat="47.79176" lon="-2.64367">
        <ele>142.8</ele>
        <time>2024-09-15T10:35:57Z</time>
      </trkpt>
      <trkpt lat="47.79176" lon="-2.6437">
        <ele>143</ele>
        <time>2024-09-15T10:35:58Z</time>
      </trkpt>
      <trkpt lat="47.79178" lon="-2.64375">
        <ele>143.2</ele>
        <time>2024-09-15T10:35:59Z</time>
      </trkpt>
      <trkpt lat="47.7918" lon="-2.64381">
        <ele>143.4</ele>
        <time>2024-09-15T10:36:00Z</time>
      </trkpt>
      <trkpt lat="47.79181" lon="-2.64385">
        <ele>143.4</ele>
        <time>2024-09-15T10:36:01Z</time>
      </trkpt>
      <trkpt lat="47.79181" lon="-2.64387">
        <ele>143.6</ele>
        <time>2024-09-15T10:36:02Z</time>
      </trkpt>
      <trkpt lat="47.79183" lon="-2.64393">
        <ele>143.6</ele>
        <time>2024-09-15T10:36:03Z</time>
      </trkpt>
      <trkpt lat="47.79184" lon="-2.64398">
        <ele>143.6</ele>
        <time>2024-09-15T10:36:04Z</time>
      </trkpt>
      <trkpt lat="47.79184" lon="-2.64403">
        <ele>143.8</ele>
        <time>2024-09-15T10:36:05Z</time>
      </trkpt>
      <trkpt lat="47.79185" lon="-2.64408">
        <ele>144</ele>
        <time>2024-09-15T10:36:06Z</time>
      </trkpt>
      <trkpt lat="47.79185" lon="-2.64414">
        <ele>144</ele>
        <time>2024-09-15T10:36:07Z</time>
      </trkpt>
      <trkpt lat="47.79185" lon="-2.6442">
        <ele>144.4</ele>
        <time>2024-09-15T10:36:08Z</time>
      </trkpt>
      <trkpt lat="47.79184" lon="-2.64425">
        <ele>144.6</ele>
        <time>2024-09-15T10:36:09Z</time>
      </trkpt>
      <trkpt lat="47.79186" lon="-2.64434">
        <ele>144.8</ele>
        <time>2024-09-15T10:36:10Z</time>
      </trkpt>
      <trkpt lat="47.79185" lon="-2.64441">
        <ele>144.8</ele>
        <time>2024-09-15T10:36:11Z</time>
      </trkpt>
      <trkpt lat="47.79186" lon="-2.64447">
        <ele>144.8</ele>
        <time>2024-09-15T10:36:12Z</time>
      </trkpt>
      <trkpt lat="47.79187" lon="-2.64452">
        <ele>144.8</ele>
        <time>2024-09-15T10:36:13Z</time>
      </trkpt>
      <trkpt lat="47.79189" lon="-2.64457">
        <ele>145</ele>
        <time>2024-09-15T10:36:14Z</time>
      </trkpt>
      <trkpt lat="47.79191" lon="-2.64461">
        <ele>145</ele>
        <time>2024-09-15T10:36:15Z</time>
      </trkpt>
      <trkpt lat="47.79194" lon="-2.64465">
        <ele>145</ele>
        <time>2024-09-15T10:36:16Z</time>
      </trkpt>
      <trkpt lat="47.79196" lon="-2.64469">
        <ele>145</ele>
        <time>2024-09-15T10:36:17Z</time>
      </trkpt>
      <trkpt lat="47.79199" lon="-2.64474">
        <ele>145</ele>
        <time>2024-09-15T10:36:18Z</time>
      </trkpt>
      <trkpt lat="47.792" lon="-2.64479">
        <ele>144.8</ele>
        <time>2024-09-15T10:36:19Z</time>
      </trkpt>
      <trkpt lat="47.79201" lon="-2.64484">
        <ele>144.8</ele>
        <time>2024-09-15T10:36:20Z</time>
      </trkpt>
      <trkpt lat="47.79201" lon="-2.64489">
        <ele>144.6</ele>
        <time>2024-09-15T10:36:21Z</time>
      </trkpt>
      <trkpt lat="47.79201" lon="-2.64495">
        <ele>144.6</ele>
        <time>2024-09-15T10:36:22Z</time>
      </trkpt>
      <trkpt lat="47.79202" lon="-2.64502">
        <ele>144.4</ele>
        <time>2024-09-15T10:36:23Z</time>
      </trkpt>
      <trkpt lat="47.79204" lon="-2.6451">
        <ele>144.2</ele>
        <time>2024-09-15T10:36:24Z</time>
      </trkpt>
      <trkpt lat="47.79206" lon="-2.64527">
        <ele>144</ele>
        <time>2024-09-15T10:36:26Z</time>
      </trkpt>
      <trkpt lat="47.79204" lon="-2.64549">
        <ele>143.6</ele>
        <time>2024-09-15T10:36:28Z</time>
      </trkpt>
      <trkpt lat="47.79201" lon="-2.64561">
        <ele>143.4</ele>
        <time>2024-09-15T10:36:29Z</time>
      </trkpt>
      <trkpt lat="47.792" lon="-2.64572">
        <ele>143.4</ele>
        <time>2024-09-15T10:36:30Z</time>
      </trkpt>
      <trkpt lat="47.79198" lon="-2.64585">
        <ele>142.8</ele>
        <time>2024-09-15T10:36:31Z</time>
      </trkpt>
      <trkpt lat="47.79194" lon="-2.64625">
        <ele>141.8</ele>
        <time>2024-09-15T10:36:34Z</time>
      </trkpt>
      <trkpt lat="47.79196" lon="-2.64664">
        <ele>141.2</ele>
        <time>2024-09-15T10:36:37Z</time>
      </trkpt>
      <trkpt lat="47.79195" lon="-2.64691">
        <ele>140.8</ele>
        <time>2024-09-15T10:36:39Z</time>
      </trkpt>
      <trkpt lat="47.79195" lon="-2.64703">
        <ele>140</ele>
        <time>2024-09-15T10:36:40Z</time>
      </trkpt>
      <trkpt lat="47.79195" lon="-2.64714">
        <ele>139.8</ele>
        <time>2024-09-15T10:36:41Z</time>
      </trkpt>
      <trkpt lat="47.79196" lon="-2.64725">
        <ele>139.4</ele>
        <time>2024-09-15T10:36:42Z</time>
      </trkpt>
      <trkpt lat="47.79198" lon="-2.64735">
        <ele>139.2</ele>
        <time>2024-09-15T10:36:43Z</time>
      </trkpt>
      <trkpt lat="47.79198" lon="-2.64745">
        <ele>139</ele>
        <time>2024-09-15T10:36:44Z</time>
      </trkpt>
      <trkpt lat="47.79199" lon="-2.64757">
        <ele>138.8</ele>
        <time>2024-09-15T10:36:45Z</time>
      </trkpt>
      <trkpt lat="47.79199" lon="-2.64769">
        <ele>138.6</ele>
        <time>2024-09-15T10:36:46Z</time>
      </trkpt>
      <trkpt lat="47.79201" lon="-2.64782">
        <ele>138.6</ele>
        <time>2024-09-15T10:36:47Z</time>
      </trkpt>
      <trkpt lat="47.79201" lon="-2.64802">
        <ele>138.6</ele>
        <time>2024-09-15T10:36:49Z</time>
      </trkpt>
      <trkpt lat="47.79201" lon="-2.64814">
        <ele>138.6</ele>
        <time>2024-09-15T10:36:50Z</time>
      </trkpt>
      <trkpt lat="47.79202" lon="-2.64826">
        <ele>138.6</ele>
        <time>2024-09-15T10:36:51Z</time>
      </trkpt>
      <trkpt lat="47.79202" lon="-2.64836">
        <ele>138.6</ele>
        <time>2024-09-15T10:36:52Z</time>
      </trkpt>
      <trkpt lat="47.79203" lon="-2.64846">
        <ele>138.6</ele>
        <time>2024-09-15T10:36:53Z</time>
      </trkpt>
      <trkpt lat="47.79201" lon="-2.64875">
        <ele>138.6</ele>
        <time>2024-09-15T10:36:56Z</time>
      </trkpt>
      <trkpt lat="47.79202" lon="-2.64904">
        <ele>138.4</ele>
        <time>2024-09-15T10:36:59Z</time>
      </trkpt>
      <trkpt lat="47.79199" lon="-2.64914">
        <ele>138.4</ele>
        <time>2024-09-15T10:37:00Z</time>
      </trkpt>
      <trkpt lat="47.79194" lon="-2.64921">
        <ele>138.4</ele>
        <time>2024-09-15T10:37:01Z</time>
      </trkpt>
      <trkpt lat="47.79194" lon="-2.64929">
        <ele>138.4</ele>
        <time>2024-09-15T10:37:02Z</time>
      </trkpt>
      <trkpt lat="47.79193" lon="-2.64937">
        <ele>138.4</ele>
        <time>2024-09-15T10:37:03Z</time>
      </trkpt>
      <trkpt lat="47.79194" lon="-2.64946">
        <ele>138.6</ele>
        <time>2024-09-15T10:37:04Z</time>
      </trkpt>
      <trkpt lat="47.79194" lon="-2.64954">
        <ele>138.6</ele>
        <time>2024-09-15T10:37:05Z</time>
      </trkpt>
      <trkpt lat="47.79199" lon="-2.64962">
        <ele>138.6</ele>
        <time>2024-09-15T10:37:06Z</time>
      </trkpt>
      <trkpt lat="47.792" lon="-2.64969">
        <ele>138.6</ele>
        <time>2024-09-15T10:37:07Z</time>
      </trkpt>
      <trkpt lat="47.792" lon="-2.64977">
        <ele>138.6</ele>
        <time>2024-09-15T10:37:08Z</time>
      </trkpt>
      <trkpt lat="47.792" lon="-2.64984">
        <ele>138.6</ele>
        <time>2024-09-15T10:37:09Z</time>
      </trkpt>
      <trkpt lat="47.79197" lon="-2.64993">
        <ele>138.6</ele>
        <time>2024-09-15T10:37:10Z</time>
      </trkpt>
      <trkpt lat="47.79195" lon="-2.65002">
        <ele>138.6</ele>
        <time>2024-09-15T10:37:11Z</time>
      </trkpt>
      <trkpt lat="47.79194" lon="-2.6501">
        <ele>138.8</ele>
        <time>2024-09-15T10:37:12Z</time>
      </trkpt>
      <trkpt lat="47.79196" lon="-2.65018">
        <ele>138.8</ele>
        <time>2024-09-15T10:37:13Z</time>
      </trkpt>
      <trkpt lat="47.79196" lon="-2.65025">
        <ele>138.8</ele>
        <time>2024-09-15T10:37:14Z</time>
      </trkpt>
      <trkpt lat="47.79199" lon="-2.65035">
        <ele>138.8</ele>
        <time>2024-09-15T10:37:15Z</time>
      </trkpt>
      <trkpt lat="47.79199" lon="-2.65044">
        <ele>138.8</ele>
        <time>2024-09-15T10:37:16Z</time>
      </trkpt>
      <trkpt lat="47.79201" lon="-2.65051">
        <ele>138.8</ele>
        <time>2024-09-15T10:37:17Z</time>
      </trkpt>
      <trkpt lat="47.79202" lon="-2.65058">
        <ele>138.8</ele>
        <time>2024-09-15T10:37:18Z</time>
      </trkpt>
      <trkpt lat="47.79204" lon="-2.65068">
        <ele>138.8</ele>
        <time>2024-09-15T10:37:19Z</time>
      </trkpt>
      <trkpt lat="47.79206" lon="-2.65075">
        <ele>139</ele>
        <time>2024-09-15T10:37:20Z</time>
      </trkpt>
      <trkpt lat="47.79202" lon="-2.65089">
        <ele>139</ele>
        <time>2024-09-15T10:37:22Z</time>
      </trkpt>
      <trkpt lat="47.79199" lon="-2.65094">
        <ele>139</ele>
        <time>2024-09-15T10:37:23Z</time>
      </trkpt>
      <trkpt lat="47.79198" lon="-2.651">
        <ele>139</ele>
        <time>2024-09-15T10:37:24Z</time>
      </trkpt>
      <trkpt lat="47.792" lon="-2.6512">
        <ele>139</ele>
        <time>2024-09-15T10:37:27Z</time>
      </trkpt>
      <trkpt lat="47.792" lon="-2.65128">
        <ele>139</ele>
        <time>2024-09-15T10:37:28Z</time>
      </trkpt>
      <trkpt lat="47.792" lon="-2.65135">
        <ele>139</ele>
        <time>2024-09-15T10:37:29Z</time>
      </trkpt>
      <trkpt lat="47.79196" lon="-2.65152">
        <ele>139</ele>
        <time>2024-09-15T10:37:31Z</time>
      </trkpt>
      <trkpt lat="47.79196" lon="-2.65159">
        <ele>139</ele>
        <time>2024-09-15T10:37:32Z</time>
      </trkpt>
      <trkpt lat="47.79198" lon="-2.65166">
        <ele>139</ele>
        <time>2024-09-15T10:37:33Z</time>
      </trkpt>
      <trkpt lat="47.79208" lon="-2.65189">
        <ele>139</ele>
        <time>2024-09-15T10:37:36Z</time>
      </trkpt>
      <trkpt lat="47.79209" lon="-2.65195">
        <ele>139</ele>
        <time>2024-09-15T10:37:37Z</time>
      </trkpt>
      <trkpt lat="47.79207" lon="-2.65199">
        <ele>139.2</ele>
        <time>2024-09-15T10:37:38Z</time>
      </trkpt>
      <trkpt lat="47.79204" lon="-2.65205">
        <ele>139.2</ele>
        <time>2024-09-15T10:37:39Z</time>
      </trkpt>
      <trkpt lat="47.792" lon="-2.65219">
        <ele>139.2</ele>
        <time>2024-09-15T10:37:41Z</time>
      </trkpt>
      <trkpt lat="47.79199" lon="-2.65227">
        <ele>139.2</ele>
        <time>2024-09-15T10:37:42Z</time>
      </trkpt>
      <trkpt lat="47.79199" lon="-2.65235">
        <ele>139.2</ele>
        <time>2024-09-15T10:37:43Z</time>
      </trkpt>
      <trkpt lat="47.79201" lon="-2.65243">
        <ele>139.2</ele>
        <time>2024-09-15T10:37:44Z</time>
      </trkpt>
      <trkpt lat="47.79202" lon="-2.65251">
        <ele>139.2</ele>
        <time>2024-09-15T10:37:45Z</time>
      </trkpt>
      <trkpt lat="47.79204" lon="-2.6526">
        <ele>139.2</ele>
        <time>2024-09-15T10:37:46Z</time>
      </trkpt>
      <trkpt lat="47.79206" lon="-2.65269">
        <ele>139.2</ele>
        <time>2024-09-15T10:37:47Z</time>
      </trkpt>
      <trkpt lat="47.79204" lon="-2.65277">
        <ele>139.2</ele>
        <time>2024-09-15T10:37:48Z</time>
      </trkpt>
      <trkpt lat="47.792" lon="-2.65287">
        <ele>139.2</ele>
        <time>2024-09-15T10:37:49Z</time>
      </trkpt>
      <trkpt lat="47.792" lon="-2.65296">
        <ele>139</ele>
        <time>2024-09-15T10:37:50Z</time>
      </trkpt>
      <trkpt lat="47.79202" lon="-2.65306">
        <ele>139</ele>
        <time>2024-09-15T10:37:51Z</time>
      </trkpt>
      <trkpt lat="47.79204" lon="-2.65321">
        <ele>139</ele>
        <time>2024-09-15T10:37:53Z</time>
      </trkpt>
      <trkpt lat="47.79205" lon="-2.65328">
        <ele>139</ele>
        <time>2024-09-15T10:37:54Z</time>
      </trkpt>
      <trkpt lat="47.79206" lon="-2.65335">
        <ele>139</ele>
        <time>2024-09-15T10:37:55Z</time>
      </trkpt>
      <trkpt lat="47.79208" lon="-2.65344">
        <ele>139</ele>
        <time>2024-09-15T10:37:56Z</time>
      </trkpt>
      <trkpt lat="47.79203" lon="-2.65372">
        <ele>139.2</ele>
        <time>2024-09-15T10:37:59Z</time>
      </trkpt>
      <trkpt lat="47.792" lon="-2.65382">
        <ele>139.2</ele>
        <time>2024-09-15T10:38:00Z</time>
      </trkpt>
      <trkpt lat="47.79199" lon="-2.65389">
        <ele>139.2</ele>
        <time>2024-09-15T10:38:01Z</time>
      </trkpt>
      <trkpt lat="47.79198" lon="-2.65399">
        <ele>139.2</ele>
        <time>2024-09-15T10:38:02Z</time>
      </trkpt>
      <trkpt lat="47.79198" lon="-2.65418">
        <ele>139.2</ele>
        <time>2024-09-15T10:38:04Z</time>
      </trkpt>
      <trkpt lat="47.79199" lon="-2.65425">
        <ele>139.2</ele>
        <time>2024-09-15T10:38:05Z</time>
      </trkpt>
      <trkpt lat="47.792" lon="-2.65438">
        <ele>139.2</ele>
        <time>2024-09-15T10:38:07Z</time>
      </trkpt>
      <trkpt lat="47.79197" lon="-2.65446">
        <ele>139.2</ele>
        <time>2024-09-15T10:38:08Z</time>
      </trkpt>
      <trkpt lat="47.79196" lon="-2.65455">
        <ele>139</ele>
        <time>2024-09-15T10:38:09Z</time>
      </trkpt>
      <trkpt lat="47.79195" lon="-2.65462">
        <ele>139</ele>
        <time>2024-09-15T10:38:10Z</time>
      </trkpt>
      <trkpt lat="47.79199" lon="-2.65468">
        <ele>139</ele>
        <time>2024-09-15T10:38:11Z</time>
      </trkpt>
      <trkpt lat="47.79198" lon="-2.65474">
        <ele>138.8</ele>
        <time>2024-09-15T10:38:12Z</time>
      </trkpt>
      <trkpt lat="47.79199" lon="-2.6548">
        <ele>138.6</ele>
        <time>2024-09-15T10:38:13Z</time>
      </trkpt>
      <trkpt lat="47.79203" lon="-2.65488">
        <ele>138.6</ele>
        <time>2024-09-15T10:38:14Z</time>
      </trkpt>
      <trkpt lat="47.79205" lon="-2.65496">
        <ele>138.4</ele>
        <time>2024-09-15T10:38:15Z</time>
      </trkpt>
      <trkpt lat="47.79206" lon="-2.65503">
        <ele>138.4</ele>
        <time>2024-09-15T10:38:16Z</time>
      </trkpt>
      <trkpt lat="47.79205" lon="-2.65511">
        <ele>138.4</ele>
        <time>2024-09-15T10:38:17Z</time>
      </trkpt>
      <trkpt lat="47.79203" lon="-2.65518">
        <ele>138.2</ele>
        <time>2024-09-15T10:38:18Z</time>
      </trkpt>
      <trkpt lat="47.79202" lon="-2.65525">
        <ele>138.2</ele>
        <time>2024-09-15T10:38:19Z</time>
      </trkpt>
      <trkpt lat="47.792" lon="-2.65532">
        <ele>138.2</ele>
        <time>2024-09-15T10:38:20Z</time>
      </trkpt>
      <trkpt lat="47.79199" lon="-2.6554">
        <ele>138.2</ele>
        <time>2024-09-15T10:38:21Z</time>
      </trkpt>
      <trkpt lat="47.79201" lon="-2.65549">
        <ele>138.2</ele>
        <time>2024-09-15T10:38:22Z</time>
      </trkpt>
      <trkpt lat="47.79201" lon="-2.65554">
        <ele>138.2</ele>
        <time>2024-09-15T10:38:23Z</time>
      </trkpt>
      <trkpt lat="47.79203" lon="-2.65558">
        <ele>138.4</ele>
        <time>2024-09-15T10:38:24Z</time>
      </trkpt>
      <trkpt lat="47.7921" lon="-2.65562">
        <ele>138.6</ele>
        <time>2024-09-15T10:38:26Z</time>
      </trkpt>
      <trkpt lat="47.79214" lon="-2.65565">
        <ele>138.8</ele>
        <time>2024-09-15T10:38:27Z</time>
      </trkpt>
      <trkpt lat="47.79217" lon="-2.65567">
        <ele>138.8</ele>
        <time>2024-09-15T10:38:28Z</time>
      </trkpt>
      <trkpt lat="47.79242" lon="-2.65581">
        <ele>139</ele>
        <time>2024-09-15T10:38:34Z</time>
      </trkpt>
      <trkpt lat="47.79249" lon="-2.65586">
        <ele>139</ele>
        <time>2024-09-15T10:38:36Z</time>
      </trkpt>
      <trkpt lat="47.7926" lon="-2.65593">
        <ele>139</ele>
        <time>2024-09-15T10:38:38Z</time>
      </trkpt>
      <trkpt lat="47.79263" lon="-2.65595">
        <ele>139</ele>
        <time>2024-09-15T10:38:39Z</time>
      </trkpt>
      <trkpt lat="47.79266" lon="-2.65597">
        <ele>139</ele>
        <time>2024-09-15T10:38:40Z</time>
      </trkpt>
      <trkpt lat="47.79281" lon="-2.65607">
        <ele>139</ele>
        <time>2024-09-15T10:38:43Z</time>
      </trkpt>
      <trkpt lat="47.79286" lon="-2.6561">
        <ele>138.8</ele>
        <time>2024-09-15T10:38:44Z</time>
      </trkpt>
      <trkpt lat="47.79295" lon="-2.65615">
        <ele>138.8</ele>
        <time>2024-09-15T10:38:46Z</time>
      </trkpt>
      <trkpt lat="47.79299" lon="-2.65619">
        <ele>138.8</ele>
        <time>2024-09-15T10:38:47Z</time>
      </trkpt>
      <trkpt lat="47.79312" lon="-2.65631">
        <ele>139</ele>
        <time>2024-09-15T10:38:50Z</time>
      </trkpt>
      <trkpt lat="47.79317" lon="-2.65633">
        <ele>139</ele>
        <time>2024-09-15T10:38:51Z</time>
      </trkpt>
      <trkpt lat="47.79323" lon="-2.65634">
        <ele>139</ele>
        <time>2024-09-15T10:38:52Z</time>
      </trkpt>
      <trkpt lat="47.79328" lon="-2.65636">
        <ele>139</ele>
        <time>2024-09-15T10:38:53Z</time>
      </trkpt>
      <trkpt lat="47.79338" lon="-2.6564">
        <ele>139</ele>
        <time>2024-09-15T10:38:55Z</time>
      </trkpt>
      <trkpt lat="47.7935" lon="-2.65651">
        <ele>138.6</ele>
        <time>2024-09-15T10:38:59Z</time>
      </trkpt>
      <trkpt lat="47.79354" lon="-2.65651">
        <ele>138.6</ele>
        <time>2024-09-15T10:39:00Z</time>
      </trkpt>
      <trkpt lat="47.79357" lon="-2.65653">
        <ele>138.6</ele>
        <time>2024-09-15T10:39:01Z</time>
      </trkpt>
      <trkpt lat="47.79359" lon="-2.65655">
        <ele>138.4</ele>
        <time>2024-09-15T10:39:02Z</time>
      </trkpt>
      <trkpt lat="47.79362" lon="-2.65659">
        <ele>138.4</ele>
        <time>2024-09-15T10:39:03Z</time>
      </trkpt>
      <trkpt lat="47.79363" lon="-2.65663">
        <ele>138.4</ele>
        <time>2024-09-15T10:39:04Z</time>
      </trkpt>
      <trkpt lat="47.79365" lon="-2.65666">
        <ele>138.2</ele>
        <time>2024-09-15T10:39:05Z</time>
      </trkpt>
      <trkpt lat="47.79365" lon="-2.65668">
        <ele>138.2</ele>
        <time>2024-09-15T10:39:06Z</time>
      </trkpt>
      <trkpt lat="47.79366" lon="-2.6567">
        <ele>138.2</ele>
        <time>2024-09-15T10:39:07Z</time>
      </trkpt>
      <trkpt lat="47.79367" lon="-2.65673">
        <ele>138.2</ele>
        <time>2024-09-15T10:39:08Z</time>
      </trkpt>
      <trkpt lat="47.79376" lon="-2.65691">
        <ele>138</ele>
        <time>2024-09-15T10:39:11Z</time>
      </trkpt>
      <trkpt lat="47.79378" lon="-2.65696">
        <ele>138</ele>
        <time>2024-09-15T10:39:12Z</time>
      </trkpt>
      <trkpt lat="47.79385" lon="-2.65704">
        <ele>137.8</ele>
        <time>2024-09-15T10:39:14Z</time>
      </trkpt>
      <trkpt lat="47.79388" lon="-2.65707">
        <ele>137.8</ele>
        <time>2024-09-15T10:39:15Z</time>
      </trkpt>
      <trkpt lat="47.7939" lon="-2.65708">
        <ele>137.8</ele>
        <time>2024-09-15T10:39:16Z</time>
      </trkpt>
      <trkpt lat="47.79392" lon="-2.65708">
        <ele>137.6</ele>
        <time>2024-09-15T10:39:17Z</time>
      </trkpt>
      <trkpt lat="47.79394" lon="-2.65707">
        <ele>137.6</ele>
        <time>2024-09-15T10:39:18Z</time>
      </trkpt>
      <trkpt lat="47.79396" lon="-2.65706">
        <ele>137.6</ele>
        <time>2024-09-15T10:39:19Z</time>
      </trkpt>
      <trkpt lat="47.79399" lon="-2.65708">
        <ele>137.6</ele>
        <time>2024-09-15T10:39:20Z</time>
      </trkpt>
      <trkpt lat="47.79401" lon="-2.65709">
        <ele>137.8</ele>
        <time>2024-09-15T10:39:21Z</time>
      </trkpt>
      <trkpt lat="47.79405" lon="-2.65713">
        <ele>137.6</ele>
        <time>2024-09-15T10:39:22Z</time>
      </trkpt>
      <trkpt lat="47.79408" lon="-2.65716">
        <ele>137.6</ele>
        <time>2024-09-15T10:39:23Z</time>
      </trkpt>
      <trkpt lat="47.79416" lon="-2.65724">
        <ele>137.6</ele>
        <time>2024-09-15T10:39:25Z</time>
      </trkpt>
      <trkpt lat="47.79419" lon="-2.65727">
        <ele>137.4</ele>
        <time>2024-09-15T10:39:26Z</time>
      </trkpt>
      <trkpt lat="47.79421" lon="-2.65729">
        <ele>137.4</ele>
        <time>2024-09-15T10:39:27Z</time>
      </trkpt>
      <trkpt lat="47.79424" lon="-2.6573">
        <ele>137.4</ele>
        <time>2024-09-15T10:39:28Z</time>
      </trkpt>
      <trkpt lat="47.7943" lon="-2.6573">
        <ele>137.6</ele>
        <time>2024-09-15T10:39:30Z</time>
      </trkpt>
      <trkpt lat="47.79432" lon="-2.6573">
        <ele>137.6</ele>
        <time>2024-09-15T10:39:31Z</time>
      </trkpt>
      <trkpt lat="47.79436" lon="-2.65731">
        <ele>137.6</ele>
        <time>2024-09-15T10:39:32Z</time>
      </trkpt>
      <trkpt lat="47.79442" lon="-2.65734">
        <ele>137.4</ele>
        <time>2024-09-15T10:39:33Z</time>
      </trkpt>
      <trkpt lat="47.79445" lon="-2.65736">
        <ele>137.4</ele>
        <time>2024-09-15T10:39:34Z</time>
      </trkpt>
      <trkpt lat="47.79447" lon="-2.65737">
        <ele>137.4</ele>
        <time>2024-09-15T10:39:35Z</time>
      </trkpt>
      <trkpt lat="47.79451" lon="-2.65738">
        <ele>137.4</ele>
        <time>2024-09-15T10:39:37Z</time>
      </trkpt>
      <trkpt lat="47.79455" lon="-2.65743">
        <ele>137.4</ele>
        <time>2024-09-15T10:39:39Z</time>
      </trkpt>
      <trkpt lat="47.79457" lon="-2.65744">
        <ele>137.4</ele>
        <time>2024-09-15T10:39:40Z</time>
      </trkpt>
      <trkpt lat="47.79459" lon="-2.65744">
        <ele>137.4</ele>
        <time>2024-09-15T10:39:41Z</time>
      </trkpt>
      <trkpt lat="47.79468" lon="-2.65743">
        <ele>137.4</ele>
        <time>2024-09-15T10:39:43Z</time>
      </trkpt>
      <trkpt lat="47.79472" lon="-2.65743">
        <ele>137.4</ele>
        <time>2024-09-15T10:39:44Z</time>
      </trkpt>
      <trkpt lat="47.79475" lon="-2.65745">
        <ele>137.4</ele>
        <time>2024-09-15T10:39:45Z</time>
      </trkpt>
      <trkpt lat="47.79478" lon="-2.65746">
        <ele>137.8</ele>
        <time>2024-09-15T10:39:46Z</time>
      </trkpt>
      <trkpt lat="47.79481" lon="-2.65746">
        <ele>137.8</ele>
        <time>2024-09-15T10:39:47Z</time>
      </trkpt>
      <trkpt lat="47.79496" lon="-2.65752">
        <ele>137.8</ele>
        <time>2024-09-15T10:39:51Z</time>
      </trkpt>
      <trkpt lat="47.79499" lon="-2.65754">
        <ele>137.8</ele>
        <time>2024-09-15T10:39:52Z</time>
      </trkpt>
      <trkpt lat="47.79501" lon="-2.65754">
        <ele>137.8</ele>
        <time>2024-09-15T10:39:53Z</time>
      </trkpt>
      <trkpt lat="47.79506" lon="-2.65754">
        <ele>137.8</ele>
        <time>2024-09-15T10:39:55Z</time>
      </trkpt>
      <trkpt lat="47.7951" lon="-2.65756">
        <ele>137.8</ele>
        <time>2024-09-15T10:39:56Z</time>
      </trkpt>
      <trkpt lat="47.79513" lon="-2.65758">
        <ele>137.8</ele>
        <time>2024-09-15T10:39:57Z</time>
      </trkpt>
      <trkpt lat="47.79516" lon="-2.6576">
        <ele>137.8</ele>
        <time>2024-09-15T10:39:58Z</time>
      </trkpt>
      <trkpt lat="47.79519" lon="-2.65762">
        <ele>137.8</ele>
        <time>2024-09-15T10:39:59Z</time>
      </trkpt>
      <trkpt lat="47.79522" lon="-2.65764">
        <ele>137.8</ele>
        <time>2024-09-15T10:40:00Z</time>
      </trkpt>
      <trkpt lat="47.79525" lon="-2.65766">
        <ele>137.8</ele>
        <time>2024-09-15T10:40:01Z</time>
      </trkpt>
      <trkpt lat="47.79534" lon="-2.65771">
        <ele>138</ele>
        <time>2024-09-15T10:40:04Z</time>
      </trkpt>
      <trkpt lat="47.79541" lon="-2.65774">
        <ele>138.4</ele>
        <time>2024-09-15T10:40:06Z</time>
      </trkpt>
      <trkpt lat="47.79549" lon="-2.65781">
        <ele>138.4</ele>
        <time>2024-09-15T10:40:09Z</time>
      </trkpt>
      <trkpt lat="47.79555" lon="-2.65785">
        <ele>138.6</ele>
        <time>2024-09-15T10:40:11Z</time>
      </trkpt>
      <trkpt lat="47.79558" lon="-2.65786">
        <ele>138.8</ele>
        <time>2024-09-15T10:40:12Z</time>
      </trkpt>
      <trkpt lat="47.7956" lon="-2.65788">
        <ele>138.8</ele>
        <time>2024-09-15T10:40:13Z</time>
      </trkpt>
      <trkpt lat="47.79563" lon="-2.65789">
        <ele>138.8</ele>
        <time>2024-09-15T10:40:14Z</time>
      </trkpt>
      <trkpt lat="47.79565" lon="-2.65791">
        <ele>138.8</ele>
        <time>2024-09-15T10:40:15Z</time>
      </trkpt>
      <trkpt lat="47.79571" lon="-2.65795">
        <ele>139</ele>
        <time>2024-09-15T10:40:17Z</time>
      </trkpt>
      <trkpt lat="47.79573" lon="-2.65797">
        <ele>139.2</ele>
        <time>2024-09-15T10:40:18Z</time>
      </trkpt>
      <trkpt lat="47.79575" lon="-2.65798">
        <ele>139.4</ele>
        <time>2024-09-15T10:40:19Z</time>
      </trkpt>
      <trkpt lat="47.79578" lon="-2.658">
        <ele>139.4</ele>
        <time>2024-09-15T10:40:20Z</time>
      </trkpt>
      <trkpt lat="47.79581" lon="-2.65802">
        <ele>139.6</ele>
        <time>2024-09-15T10:40:21Z</time>
      </trkpt>
      <trkpt lat="47.79584" lon="-2.65805">
        <ele>139.8</ele>
        <time>2024-09-15T10:40:22Z</time>
      </trkpt>
      <trkpt lat="47.79594" lon="-2.65812">
        <ele>140</ele>
        <time>2024-09-15T10:40:26Z</time>
      </trkpt>
      <trkpt lat="47.79605" lon="-2.65819">
        <ele>140</ele>
        <time>2024-09-15T10:40:29Z</time>
      </trkpt>
      <trkpt lat="47.79617" lon="-2.65827">
        <ele>140</ele>
        <time>2024-09-15T10:40:32Z</time>
      </trkpt>
      <trkpt lat="47.79625" lon="-2.65832">
        <ele>140</ele>
        <time>2024-09-15T10:40:34Z</time>
      </trkpt>
      <trkpt lat="47.79629" lon="-2.65836">
        <ele>140</ele>
        <time>2024-09-15T10:40:35Z</time>
      </trkpt>
      <trkpt lat="47.79634" lon="-2.65838">
        <ele>140</ele>
        <time>2024-09-15T10:40:36Z</time>
      </trkpt>
      <trkpt lat="47.79641" lon="-2.65841">
        <ele>140</ele>
        <time>2024-09-15T10:40:38Z</time>
      </trkpt>
      <trkpt lat="47.79645" lon="-2.65842">
        <ele>139.8</ele>
        <time>2024-09-15T10:40:39Z</time>
      </trkpt>
      <trkpt lat="47.79656" lon="-2.6585">
        <ele>139.4</ele>
        <time>2024-09-15T10:40:42Z</time>
      </trkpt>
      <trkpt lat="47.79662" lon="-2.65853">
        <ele>139</ele>
        <time>2024-09-15T10:40:44Z</time>
      </trkpt>
      <trkpt lat="47.79666" lon="-2.65856">
        <ele>139</ele>
        <time>2024-09-15T10:40:45Z</time>
      </trkpt>
      <trkpt lat="47.79672" lon="-2.65859">
        <ele>138.6</ele>
        <time>2024-09-15T10:40:46Z</time>
      </trkpt>
      <trkpt lat="47.79688" lon="-2.65869">
        <ele>138.4</ele>
        <time>2024-09-15T10:40:49Z</time>
      </trkpt>
      <trkpt lat="47.79695" lon="-2.65873">
        <ele>138</ele>
        <time>2024-09-15T10:40:50Z</time>
      </trkpt>
      <trkpt lat="47.79701" lon="-2.65876">
        <ele>137.8</ele>
        <time>2024-09-15T10:40:51Z</time>
      </trkpt>
      <trkpt lat="47.79705" lon="-2.65878">
        <ele>137</ele>
        <time>2024-09-15T10:40:52Z</time>
      </trkpt>
      <trkpt lat="47.79707" lon="-2.65881">
        <ele>135.8</ele>
        <time>2024-09-15T10:40:53Z</time>
      </trkpt>
      <trkpt lat="47.79708" lon="-2.65885">
        <ele>135.2</ele>
        <time>2024-09-15T10:40:54Z</time>
      </trkpt>
      <trkpt lat="47.79708" lon="-2.65887">
        <ele>134</ele>
        <time>2024-09-15T10:40:55Z</time>
      </trkpt>
      <trkpt lat="47.79706" lon="-2.6589">
        <ele>133.4</ele>
        <time>2024-09-15T10:40:56Z</time>
      </trkpt>
      <trkpt lat="47.79707" lon="-2.65896">
        <ele>132.8</ele>
        <time>2024-09-15T10:40:57Z</time>
      </trkpt>
      <trkpt lat="47.797" lon="-2.65906">
        <ele>132.4</ele>
        <time>2024-09-15T10:41:00Z</time>
      </trkpt>
      <trkpt lat="47.79698" lon="-2.65909">
        <ele>132.2</ele>
        <time>2024-09-15T10:41:01Z</time>
      </trkpt>
      <trkpt lat="47.79697" lon="-2.65912">
        <ele>132</ele>
        <time>2024-09-15T10:41:02Z</time>
      </trkpt>
      <trkpt lat="47.79697" lon="-2.65915">
        <ele>132</ele>
        <time>2024-09-15T10:41:03Z</time>
      </trkpt>
      <trkpt lat="47.79696" lon="-2.65917">
        <ele>132</ele>
        <time>2024-09-15T10:41:04Z</time>
      </trkpt>
      <trkpt lat="47.79695" lon="-2.65922">
        <ele>132</ele>
        <time>2024-09-15T10:41:05Z</time>
      </trkpt>
      <trkpt lat="47.79696" lon="-2.65926">
        <ele>132</ele>
        <time>2024-09-15T10:41:06Z</time>
      </trkpt>
      <trkpt lat="47.79695" lon="-2.65928">
        <ele>132.2</ele>
        <time>2024-09-15T10:41:07Z</time>
      </trkpt>
      <trkpt lat="47.79693" lon="-2.65932">
        <ele>132.2</ele>
        <time>2024-09-15T10:41:08Z</time>
      </trkpt>
      <trkpt lat="47.79692" lon="-2.65936">
        <ele>132.4</ele>
        <time>2024-09-15T10:41:09Z</time>
      </trkpt>
      <trkpt lat="47.7969" lon="-2.65945">
        <ele>132.6</ele>
        <time>2024-09-15T10:41:11Z</time>
      </trkpt>
      <trkpt lat="47.79691" lon="-2.65951">
        <ele>132.8</ele>
        <time>2024-09-15T10:41:12Z</time>
      </trkpt>
      <trkpt lat="47.79689" lon="-2.65952">
        <ele>133</ele>
        <time>2024-09-15T10:41:13Z</time>
      </trkpt>
      <trkpt lat="47.79687" lon="-2.65956">
        <ele>133</ele>
        <time>2024-09-15T10:41:14Z</time>
      </trkpt>
      <trkpt lat="47.79685" lon="-2.65958">
        <ele>133</ele>
        <time>2024-09-15T10:41:15Z</time>
      </trkpt>
      <trkpt lat="47.7968" lon="-2.65963">
        <ele>133.2</ele>
        <time>2024-09-15T10:41:17Z</time>
      </trkpt>
      <trkpt lat="47.79676" lon="-2.65967">
        <ele>133.2</ele>
        <time>2024-09-15T10:41:19Z</time>
      </trkpt>
      <trkpt lat="47.79674" lon="-2.65971">
        <ele>133.2</ele>
        <time>2024-09-15T10:41:20Z</time>
      </trkpt>
      <trkpt lat="47.79672" lon="-2.65975">
        <ele>133.4</ele>
        <time>2024-09-15T10:41:21Z</time>
      </trkpt>
      <trkpt lat="47.79669" lon="-2.65979">
        <ele>133.6</ele>
        <time>2024-09-15T10:41:22Z</time>
      </trkpt>
      <trkpt lat="47.79665" lon="-2.65984">
        <ele>133.8</ele>
        <time>2024-09-15T10:41:23Z</time>
      </trkpt>
      <trkpt lat="47.79665" lon="-2.65989">
        <ele>134</ele>
        <time>2024-09-15T10:41:24Z</time>
      </trkpt>
      <trkpt lat="47.79663" lon="-2.65991">
        <ele>134.2</ele>
        <time>2024-09-15T10:41:25Z</time>
      </trkpt>
      <trkpt lat="47.79663" lon="-2.65992">
        <ele>134.2</ele>
        <time>2024-09-15T10:41:26Z</time>
      </trkpt>
      <trkpt lat="47.79661" lon="-2.65994">
        <ele>134.2</ele>
        <time>2024-09-15T10:41:27Z</time>
      </trkpt>
      <trkpt lat="47.79658" lon="-2.65997">
        <ele>134.4</ele>
        <time>2024-09-15T10:41:28Z</time>
      </trkpt>
      <trkpt lat="47.79655" lon="-2.66004">
        <ele>134.4</ele>
        <time>2024-09-15T10:41:32Z</time>
      </trkpt>
      <trkpt lat="47.79655" lon="-2.66005">
        <ele>134.4</ele>
        <time>2024-09-15T10:41:33Z</time>
      </trkpt>
      <trkpt lat="47.79652" lon="-2.66008">
        <ele>134.4</ele>
        <time>2024-09-15T10:41:35Z</time>
      </trkpt>
      <trkpt lat="47.7965" lon="-2.6601">
        <ele>134.4</ele>
        <time>2024-09-15T10:41:36Z</time>
      </trkpt>
      <trkpt lat="47.79648" lon="-2.66012">
        <ele>134.6</ele>
        <time>2024-09-15T10:41:37Z</time>
      </trkpt>
      <trkpt lat="47.79631" lon="-2.66026">
        <ele>135</ele>
        <time>2024-09-15T10:41:43Z</time>
      </trkpt>
      <trkpt lat="47.79629" lon="-2.66029">
        <ele>135</ele>
        <time>2024-09-15T10:41:44Z</time>
      </trkpt>
      <trkpt lat="47.79627" lon="-2.66032">
        <ele>135.2</ele>
        <time>2024-09-15T10:41:45Z</time>
      </trkpt>
      <trkpt lat="47.79627" lon="-2.66035">
        <ele>135.4</ele>
        <time>2024-09-15T10:41:46Z</time>
      </trkpt>
      <trkpt lat="47.79625" lon="-2.6604">
        <ele>135.6</ele>
        <time>2024-09-15T10:41:47Z</time>
      </trkpt>
      <trkpt lat="47.7962" lon="-2.6605">
        <ele>135.8</ele>
        <time>2024-09-15T10:41:49Z</time>
      </trkpt>
      <trkpt lat="47.79615" lon="-2.66058">
        <ele>135.8</ele>
        <time>2024-09-15T10:41:51Z</time>
      </trkpt>
      <trkpt lat="47.79614" lon="-2.66065">
        <ele>136.2</ele>
        <time>2024-09-15T10:41:52Z</time>
      </trkpt>
      <trkpt lat="47.79614" lon="-2.66071">
        <ele>136.2</ele>
        <time>2024-09-15T10:41:53Z</time>
      </trkpt>
      <trkpt lat="47.79613" lon="-2.66076">
        <ele>136.2</ele>
        <time>2024-09-15T10:41:54Z</time>
      </trkpt>
      <trkpt lat="47.79611" lon="-2.66084">
        <ele>136.4</ele>
        <time>2024-09-15T10:41:55Z</time>
      </trkpt>
      <trkpt lat="47.7961" lon="-2.66088">
        <ele>136.4</ele>
        <time>2024-09-15T10:41:56Z</time>
      </trkpt>
      <trkpt lat="47.79609" lon="-2.66092">
        <ele>136.4</ele>
        <time>2024-09-15T10:41:57Z</time>
      </trkpt>
      <trkpt lat="47.79607" lon="-2.66096">
        <ele>136.2</ele>
        <time>2024-09-15T10:41:58Z</time>
      </trkpt>
      <trkpt lat="47.79607" lon="-2.66096">
        <ele>136.2</ele>
        <time>2024-09-15T10:41:59Z</time>
      </trkpt>
      <trkpt lat="47.79606" lon="-2.66098">
        <ele>136</ele>
        <time>2024-09-15T10:42:00Z</time>
      </trkpt>
      <trkpt lat="47.79605" lon="-2.66101">
        <ele>136.2</ele>
        <time>2024-09-15T10:42:01Z</time>
      </trkpt>
      <trkpt lat="47.79603" lon="-2.66104">
        <ele>136.2</ele>
        <time>2024-09-15T10:42:02Z</time>
      </trkpt>
      <trkpt lat="47.79602" lon="-2.66106">
        <ele>136.2</ele>
        <time>2024-09-15T10:42:03Z</time>
      </trkpt>
      <trkpt lat="47.796" lon="-2.66112">
        <ele>136</ele>
        <time>2024-09-15T10:42:05Z</time>
      </trkpt>
      <trkpt lat="47.79599" lon="-2.66117">
        <ele>136</ele>
        <time>2024-09-15T10:42:06Z</time>
      </trkpt>
      <trkpt lat="47.79596" lon="-2.66121">
        <ele>136</ele>
        <time>2024-09-15T10:42:07Z</time>
      </trkpt>
      <trkpt lat="47.79592" lon="-2.66124">
        <ele>136</ele>
        <time>2024-09-15T10:42:08Z</time>
      </trkpt>
      <trkpt lat="47.7959" lon="-2.66126">
        <ele>136</ele>
        <time>2024-09-15T10:42:09Z</time>
      </trkpt>
      <trkpt lat="47.79589" lon="-2.66127">
        <ele>136</ele>
        <time>2024-09-15T10:42:10Z</time>
      </trkpt>
      <trkpt lat="47.79587" lon="-2.66128">
        <ele>136</ele>
        <time>2024-09-15T10:42:11Z</time>
      </trkpt>
      <trkpt lat="47.79587" lon="-2.66128">
        <ele>135.8</ele>
        <time>2024-09-15T10:42:12Z</time>
      </trkpt>
      <trkpt lat="47.79587" lon="-2.66128">
        <ele>135.8</ele>
        <time>2024-09-15T10:42:13Z</time>
      </trkpt>
      <trkpt lat="47.79587" lon="-2.66128">
        <ele>136</ele>
        <time>2024-09-15T10:42:14Z</time>
      </trkpt>
      <trkpt lat="47.79588" lon="-2.66129">
        <ele>136</ele>
        <time>2024-09-15T10:42:15Z</time>
      </trkpt>
      <trkpt lat="47.79587" lon="-2.66132">
        <ele>136</ele>
        <time>2024-09-15T10:42:17Z</time>
      </trkpt>
      <trkpt lat="47.79586" lon="-2.66134">
        <ele>136</ele>
        <time>2024-09-15T10:42:18Z</time>
      </trkpt>
      <trkpt lat="47.79586" lon="-2.66137">
        <ele>136</ele>
        <time>2024-09-15T10:42:19Z</time>
      </trkpt>
      <trkpt lat="47.79587" lon="-2.66144">
        <ele>136.2</ele>
        <time>2024-09-15T10:42:21Z</time>
      </trkpt>
      <trkpt lat="47.79588" lon="-2.66147">
        <ele>136.2</ele>
        <time>2024-09-15T10:42:22Z</time>
      </trkpt>
      <trkpt lat="47.7959" lon="-2.66149">
        <ele>136.2</ele>
        <time>2024-09-15T10:42:23Z</time>
      </trkpt>
      <trkpt lat="47.7959" lon="-2.66153">
        <ele>136.2</ele>
        <time>2024-09-15T10:42:24Z</time>
      </trkpt>
      <trkpt lat="47.79592" lon="-2.66156">
        <ele>136.4</ele>
        <time>2024-09-15T10:42:25Z</time>
      </trkpt>
      <trkpt lat="47.79595" lon="-2.66167">
        <ele>136.4</ele>
        <time>2024-09-15T10:42:27Z</time>
      </trkpt>
      <trkpt lat="47.79596" lon="-2.66171">
        <ele>136.4</ele>
        <time>2024-09-15T10:42:28Z</time>
      </trkpt>
      <trkpt lat="47.79605" lon="-2.66179">
        <ele>136.4</ele>
        <time>2024-09-15T10:42:31Z</time>
      </trkpt>
      <trkpt lat="47.79608" lon="-2.66185">
        <ele>136.4</ele>
        <time>2024-09-15T10:42:32Z</time>
      </trkpt>
      <trkpt lat="47.79611" lon="-2.66191">
        <ele>136.4</ele>
        <time>2024-09-15T10:42:33Z</time>
      </trkpt>
      <trkpt lat="47.79611" lon="-2.66196">
        <ele>136.4</ele>
        <time>2024-09-15T10:42:34Z</time>
      </trkpt>
      <trkpt lat="47.79611" lon="-2.66202">
        <ele>136.4</ele>
        <time>2024-09-15T10:42:35Z</time>
      </trkpt>
      <trkpt lat="47.79611" lon="-2.66205">
        <ele>136.6</ele>
        <time>2024-09-15T10:42:36Z</time>
      </trkpt>
      <trkpt lat="47.79611" lon="-2.66206">
        <ele>136.6</ele>
        <time>2024-09-15T10:42:37Z</time>
      </trkpt>
      <trkpt lat="47.79611" lon="-2.66206">
        <ele>136.6</ele>
        <time>2024-09-15T10:42:38Z</time>
      </trkpt>
      <trkpt lat="47.79611" lon="-2.66207">
        <ele>136.6</ele>
        <time>2024-09-15T10:42:39Z</time>
      </trkpt>
      <trkpt lat="47.79611" lon="-2.66206">
        <ele>136.6</ele>
        <time>2024-09-15T10:42:40Z</time>
      </trkpt>
      <trkpt lat="47.7961" lon="-2.66207">
        <ele>136.6</ele>
        <time>2024-09-15T10:42:41Z</time>
      </trkpt>
      <trkpt lat="47.79608" lon="-2.66208">
        <ele>136.8</ele>
        <time>2024-09-15T10:42:43Z</time>
      </trkpt>
      <trkpt lat="47.79603" lon="-2.66208">
        <ele>137</ele>
        <time>2024-09-15T10:42:46Z</time>
      </trkpt>
      <trkpt lat="47.79601" lon="-2.66209">
        <ele>137.2</ele>
        <time>2024-09-15T10:42:47Z</time>
      </trkpt>
      <trkpt lat="47.79591" lon="-2.66204">
        <ele>137</ele>
        <time>2024-09-15T10:42:51Z</time>
      </trkpt>
      <trkpt lat="47.79589" lon="-2.66203">
        <ele>137.2</ele>
        <time>2024-09-15T10:42:52Z</time>
      </trkpt>
      <trkpt lat="47.79587" lon="-2.66201">
        <ele>137.2</ele>
        <time>2024-09-15T10:42:53Z</time>
      </trkpt>
      <trkpt lat="47.79586" lon="-2.66198">
        <ele>137.2</ele>
        <time>2024-09-15T10:42:54Z</time>
      </trkpt>
      <trkpt lat="47.79585" lon="-2.66194">
        <ele>137.2</ele>
        <time>2024-09-15T10:42:55Z</time>
      </trkpt>
      <trkpt lat="47.79583" lon="-2.66191">
        <ele>137.2</ele>
        <time>2024-09-15T10:42:56Z</time>
      </trkpt>
      <trkpt lat="47.7958" lon="-2.66188">
        <ele>137</ele>
        <time>2024-09-15T10:42:57Z</time>
      </trkpt>
      <trkpt lat="47.79578" lon="-2.66187">
        <ele>137</ele>
        <time>2024-09-15T10:42:58Z</time>
      </trkpt>
      <trkpt lat="47.79575" lon="-2.66186">
        <ele>137</ele>
        <time>2024-09-15T10:42:59Z</time>
      </trkpt>
      <trkpt lat="47.79572" lon="-2.66184">
        <ele>137</ele>
        <time>2024-09-15T10:43:00Z</time>
      </trkpt>
      <trkpt lat="47.7957" lon="-2.66183">
        <ele>136.8</ele>
        <time>2024-09-15T10:43:01Z</time>
      </trkpt>
      <trkpt lat="47.79565" lon="-2.66181">
        <ele>136.8</ele>
        <time>2024-09-15T10:43:03Z</time>
      </trkpt>
      <trkpt lat="47.79561" lon="-2.66181">
        <ele>136.8</ele>
        <time>2024-09-15T10:43:04Z</time>
      </trkpt>
      <trkpt lat="47.7956" lon="-2.66182">
        <ele>136.8</ele>
        <time>2024-09-15T10:43:05Z</time>
      </trkpt>
      <trkpt lat="47.79559" lon="-2.66183">
        <ele>136.8</ele>
        <time>2024-09-15T10:43:06Z</time>
      </trkpt>
      <trkpt lat="47.79559" lon="-2.66186">
        <ele>136.8</ele>
        <time>2024-09-15T10:43:07Z</time>
      </trkpt>
      <trkpt lat="47.79555" lon="-2.66193">
        <ele>137.2</ele>
        <time>2024-09-15T10:43:09Z</time>
      </trkpt>
      <trkpt lat="47.79551" lon="-2.66203">
        <ele>137.4</ele>
        <time>2024-09-15T10:43:11Z</time>
      </trkpt>
      <trkpt lat="47.7954" lon="-2.6621">
        <ele>137.4</ele>
        <time>2024-09-15T10:43:15Z</time>
      </trkpt>
      <trkpt lat="47.79536" lon="-2.6621">
        <ele>137.6</ele>
        <time>2024-09-15T10:43:16Z</time>
      </trkpt>
      <trkpt lat="47.79533" lon="-2.66212">
        <ele>137.6</ele>
        <time>2024-09-15T10:43:17Z</time>
      </trkpt>
      <trkpt lat="47.79529" lon="-2.66215">
        <ele>137.6</ele>
        <time>2024-09-15T10:43:18Z</time>
      </trkpt>
      <trkpt lat="47.79526" lon="-2.66218">
        <ele>137.6</ele>
        <time>2024-09-15T10:43:19Z</time>
      </trkpt>
      <trkpt lat="47.79522" lon="-2.66225">
        <ele>137.8</ele>
        <time>2024-09-15T10:43:21Z</time>
      </trkpt>
      <trkpt lat="47.79521" lon="-2.66229">
        <ele>137.8</ele>
        <time>2024-09-15T10:43:22Z</time>
      </trkpt>
      <trkpt lat="47.79521" lon="-2.66234">
        <ele>137.8</ele>
        <time>2024-09-15T10:43:23Z</time>
      </trkpt>
      <trkpt lat="47.79521" lon="-2.66238">
        <ele>137.6</ele>
        <time>2024-09-15T10:43:24Z</time>
      </trkpt>
      <trkpt lat="47.79522" lon="-2.66242">
        <ele>137.6</ele>
        <time>2024-09-15T10:43:25Z</time>
      </trkpt>
      <trkpt lat="47.79522" lon="-2.66253">
        <ele>137.6</ele>
        <time>2024-09-15T10:43:27Z</time>
      </trkpt>
      <trkpt lat="47.79524" lon="-2.66268">
        <ele>137.6</ele>
        <time>2024-09-15T10:43:30Z</time>
      </trkpt>
      <trkpt lat="47.79525" lon="-2.66283">
        <ele>137.8</ele>
        <time>2024-09-15T10:43:33Z</time>
      </trkpt>
      <trkpt lat="47.79527" lon="-2.663">
        <ele>138</ele>
        <time>2024-09-15T10:43:36Z</time>
      </trkpt>
      <trkpt lat="47.79526" lon="-2.66304">
        <ele>138.2</ele>
        <time>2024-09-15T10:43:37Z</time>
      </trkpt>
      <trkpt lat="47.79525" lon="-2.66309">
        <ele>138.2</ele>
        <time>2024-09-15T10:43:38Z</time>
      </trkpt>
      <trkpt lat="47.79527" lon="-2.66314">
        <ele>138.2</ele>
        <time>2024-09-15T10:43:39Z</time>
      </trkpt>
      <trkpt lat="47.79531" lon="-2.66322">
        <ele>138.2</ele>
        <time>2024-09-15T10:43:40Z</time>
      </trkpt>
      <trkpt lat="47.79531" lon="-2.66328">
        <ele>138.6</ele>
        <time>2024-09-15T10:43:41Z</time>
      </trkpt>
      <trkpt lat="47.7953" lon="-2.66333">
        <ele>138.6</ele>
        <time>2024-09-15T10:43:42Z</time>
      </trkpt>
      <trkpt lat="47.79528" lon="-2.66337">
        <ele>138.8</ele>
        <time>2024-09-15T10:43:43Z</time>
      </trkpt>
      <trkpt lat="47.79529" lon="-2.66345">
        <ele>138.8</ele>
        <time>2024-09-15T10:43:44Z</time>
      </trkpt>
      <trkpt lat="47.79528" lon="-2.66352">
        <ele>138.8</ele>
        <time>2024-09-15T10:43:45Z</time>
      </trkpt>
      <trkpt lat="47.79528" lon="-2.66356">
        <ele>138.8</ele>
        <time>2024-09-15T10:43:46Z</time>
      </trkpt>
      <trkpt lat="47.79524" lon="-2.66364">
        <ele>139</ele>
        <time>2024-09-15T10:43:48Z</time>
      </trkpt>
      <trkpt lat="47.79521" lon="-2.66376">
        <ele>139.4</ele>
        <time>2024-09-15T10:43:50Z</time>
      </trkpt>
      <trkpt lat="47.79521" lon="-2.66388">
        <ele>139.6</ele>
        <time>2024-09-15T10:43:51Z</time>
      </trkpt>
      <trkpt lat="47.79522" lon="-2.66394">
        <ele>139.8</ele>
        <time>2024-09-15T10:43:52Z</time>
      </trkpt>
      <trkpt lat="47.79522" lon="-2.66399">
        <ele>140</ele>
        <time>2024-09-15T10:43:53Z</time>
      </trkpt>
      <trkpt lat="47.7952" lon="-2.66404">
        <ele>140</ele>
        <time>2024-09-15T10:43:54Z</time>
      </trkpt>
      <trkpt lat="47.79516" lon="-2.66408">
        <ele>140</ele>
        <time>2024-09-15T10:43:55Z</time>
      </trkpt>
      <trkpt lat="47.79514" lon="-2.6641">
        <ele>140</ele>
        <time>2024-09-15T10:43:56Z</time>
      </trkpt>
      <trkpt lat="47.79512" lon="-2.66412">
        <ele>140</ele>
        <time>2024-09-15T10:43:57Z</time>
      </trkpt>
      <trkpt lat="47.79512" lon="-2.66426">
        <ele>140.2</ele>
        <time>2024-09-15T10:43:59Z</time>
      </trkpt>
      <trkpt lat="47.79514" lon="-2.66433">
        <ele>140.4</ele>
        <time>2024-09-15T10:44:00Z</time>
      </trkpt>
      <trkpt lat="47.79517" lon="-2.66445">
        <ele>140.4</ele>
        <time>2024-09-15T10:44:02Z</time>
      </trkpt>
      <trkpt lat="47.79515" lon="-2.66452">
        <ele>140.4</ele>
        <time>2024-09-15T10:44:03Z</time>
      </trkpt>
      <trkpt lat="47.79512" lon="-2.66459">
        <ele>140.4</ele>
        <time>2024-09-15T10:44:04Z</time>
      </trkpt>
      <trkpt lat="47.79511" lon="-2.66478">
        <ele>140.4</ele>
        <time>2024-09-15T10:44:06Z</time>
      </trkpt>
      <trkpt lat="47.79511" lon="-2.66488">
        <ele>140.4</ele>
        <time>2024-09-15T10:44:07Z</time>
      </trkpt>
      <trkpt lat="47.79509" lon="-2.66502">
        <ele>140.2</ele>
        <time>2024-09-15T10:44:09Z</time>
      </trkpt>
      <trkpt lat="47.79505" lon="-2.66511">
        <ele>139.8</ele>
        <time>2024-09-15T10:44:11Z</time>
      </trkpt>
      <trkpt lat="47.795" lon="-2.66515">
        <ele>139.6</ele>
        <time>2024-09-15T10:44:12Z</time>
      </trkpt>
      <trkpt lat="47.79488" lon="-2.66529">
        <ele>139.2</ele>
        <time>2024-09-15T10:44:14Z</time>
      </trkpt>
      <trkpt lat="47.79483" lon="-2.66536">
        <ele>139</ele>
        <time>2024-09-15T10:44:15Z</time>
      </trkpt>
      <trkpt lat="47.79479" lon="-2.66543">
        <ele>138.8</ele>
        <time>2024-09-15T10:44:16Z</time>
      </trkpt>
      <trkpt lat="47.79473" lon="-2.66551">
        <ele>138.8</ele>
        <time>2024-09-15T10:44:17Z</time>
      </trkpt>
      <trkpt lat="47.79468" lon="-2.66559">
        <ele>138.6</ele>
        <time>2024-09-15T10:44:18Z</time>
      </trkpt>
      <trkpt lat="47.79463" lon="-2.66568">
        <ele>138.4</ele>
        <time>2024-09-15T10:44:19Z</time>
      </trkpt>
      <trkpt lat="47.7946" lon="-2.66576">
        <ele>138.2</ele>
        <time>2024-09-15T10:44:20Z</time>
      </trkpt>
      <trkpt lat="47.79457" lon="-2.66583">
        <ele>137.8</ele>
        <time>2024-09-15T10:44:21Z</time>
      </trkpt>
      <trkpt lat="47.79457" lon="-2.66596">
        <ele>137.6</ele>
        <time>2024-09-15T10:44:22Z</time>
      </trkpt>
      <trkpt lat="47.79456" lon="-2.66611">
        <ele>137.2</ele>
        <time>2024-09-15T10:44:23Z</time>
      </trkpt>
      <trkpt lat="47.79453" lon="-2.6662">
        <ele>137.2</ele>
        <time>2024-09-15T10:44:24Z</time>
      </trkpt>
      <trkpt lat="47.79449" lon="-2.66624">
        <ele>137</ele>
        <time>2024-09-15T10:44:25Z</time>
      </trkpt>
      <trkpt lat="47.79445" lon="-2.66622">
        <ele>136.8</ele>
        <time>2024-09-15T10:44:26Z</time>
      </trkpt>
      <trkpt lat="47.7944" lon="-2.66618">
        <ele>136.6</ele>
        <time>2024-09-15T10:44:27Z</time>
      </trkpt>
      <trkpt lat="47.79437" lon="-2.66616">
        <ele>136.4</ele>
        <time>2024-09-15T10:44:28Z</time>
      </trkpt>
      <trkpt lat="47.79433" lon="-2.66615">
        <ele>136.2</ele>
        <time>2024-09-15T10:44:29Z</time>
      </trkpt>
      <trkpt lat="47.7943" lon="-2.66614">
        <ele>136.2</ele>
        <time>2024-09-15T10:44:30Z</time>
      </trkpt>
      <trkpt lat="47.79422" lon="-2.66613">
        <ele>136</ele>
        <time>2024-09-15T10:44:32Z</time>
      </trkpt>
      <trkpt lat="47.79419" lon="-2.66613">
        <ele>136</ele>
        <time>2024-09-15T10:44:33Z</time>
      </trkpt>
      <trkpt lat="47.79411" lon="-2.66611">
        <ele>136</ele>
        <time>2024-09-15T10:44:35Z</time>
      </trkpt>
      <trkpt lat="47.79409" lon="-2.6661">
        <ele>136</ele>
        <time>2024-09-15T10:44:36Z</time>
      </trkpt>
      <trkpt lat="47.79407" lon="-2.6661">
        <ele>136.2</ele>
        <time>2024-09-15T10:44:37Z</time>
      </trkpt>
      <trkpt lat="47.79403" lon="-2.66607">
        <ele>136</ele>
        <time>2024-09-15T10:45:54Z</time>
      </trkpt>
      <trkpt lat="47.79401" lon="-2.66606">
        <ele>136</ele>
        <time>2024-09-15T10:45:55Z</time>
      </trkpt>
      <trkpt lat="47.79382" lon="-2.66604">
        <ele>136</ele>
        <time>2024-09-15T10:46:02Z</time>
      </trkpt>
      <trkpt lat="47.7936" lon="-2.66592">
        <ele>136.4</ele>
        <time>2024-09-15T10:46:09Z</time>
      </trkpt>
      <trkpt lat="47.79353" lon="-2.66587">
        <ele>136.6</ele>
        <time>2024-09-15T10:46:11Z</time>
      </trkpt>
      <trkpt lat="47.7935" lon="-2.66585">
        <ele>136.6</ele>
        <time>2024-09-15T10:46:12Z</time>
      </trkpt>
      <trkpt lat="47.79343" lon="-2.66586">
        <ele>136.4</ele>
        <time>2024-09-15T10:46:14Z</time>
      </trkpt>
      <trkpt lat="47.79339" lon="-2.66588">
        <ele>136.4</ele>
        <time>2024-09-15T10:46:15Z</time>
      </trkpt>
      <trkpt lat="47.79335" lon="-2.66598">
        <ele>136.4</ele>
        <time>2024-09-15T10:46:17Z</time>
      </trkpt>
      <trkpt lat="47.79333" lon="-2.6661">
        <ele>136.4</ele>
        <time>2024-09-15T10:46:19Z</time>
      </trkpt>
      <trkpt lat="47.79331" lon="-2.66616">
        <ele>136.4</ele>
        <time>2024-09-15T10:46:20Z</time>
      </trkpt>
      <trkpt lat="47.79327" lon="-2.66635">
        <ele>136.4</ele>
        <time>2024-09-15T10:46:23Z</time>
      </trkpt>
      <trkpt lat="47.79325" lon="-2.66641">
        <ele>136.4</ele>
        <time>2024-09-15T10:46:24Z</time>
      </trkpt>
      <trkpt lat="47.79315" lon="-2.66671">
        <ele>136.4</ele>
        <time>2024-09-15T10:46:29Z</time>
      </trkpt>
      <trkpt lat="47.79309" lon="-2.66682">
        <ele>136.6</ele>
        <time>2024-09-15T10:46:31Z</time>
      </trkpt>
      <trkpt lat="47.79283" lon="-2.66705">
        <ele>136.8</ele>
        <time>2024-09-15T10:46:37Z</time>
      </trkpt>
      <trkpt lat="47.79266" lon="-2.66722">
        <ele>136.6</ele>
        <time>2024-09-15T10:46:41Z</time>
      </trkpt>
      <trkpt lat="47.79258" lon="-2.66734">
        <ele>136.6</ele>
        <time>2024-09-15T10:46:43Z</time>
      </trkpt>
      <trkpt lat="47.79239" lon="-2.66765">
        <ele>136.2</ele>
        <time>2024-09-15T10:46:48Z</time>
      </trkpt>
      <trkpt lat="47.79231" lon="-2.66778">
        <ele>136</ele>
        <time>2024-09-15T10:46:50Z</time>
      </trkpt>
      <trkpt lat="47.79224" lon="-2.66791">
        <ele>135.8</ele>
        <time>2024-09-15T10:46:52Z</time>
      </trkpt>
      <trkpt lat="47.7922" lon="-2.66799">
        <ele>135.6</ele>
        <time>2024-09-15T10:46:53Z</time>
      </trkpt>
      <trkpt lat="47.79216" lon="-2.66815">
        <ele>135.4</ele>
        <time>2024-09-15T10:46:55Z</time>
      </trkpt>
      <trkpt lat="47.79216" lon="-2.66823">
        <ele>135.2</ele>
        <time>2024-09-15T10:46:56Z</time>
      </trkpt>
      <trkpt lat="47.79216" lon="-2.66831">
        <ele>135</ele>
        <time>2024-09-15T10:46:57Z</time>
      </trkpt>
      <trkpt lat="47.79216" lon="-2.6684">
        <ele>135</ele>
        <time>2024-09-15T10:46:58Z</time>
      </trkpt>
      <trkpt lat="47.79216" lon="-2.66848">
        <ele>134.8</ele>
        <time>2024-09-15T10:46:59Z</time>
      </trkpt>
      <trkpt lat="47.79217" lon="-2.66856">
        <ele>134.8</ele>
        <time>2024-09-15T10:47:00Z</time>
      </trkpt>
      <trkpt lat="47.79217" lon="-2.66864">
        <ele>134.8</ele>
        <time>2024-09-15T10:47:01Z</time>
      </trkpt>
      <trkpt lat="47.79217" lon="-2.66872">
        <ele>134.6</ele>
        <time>2024-09-15T10:47:02Z</time>
      </trkpt>
      <trkpt lat="47.79217" lon="-2.66879">
        <ele>134.4</ele>
        <time>2024-09-15T10:47:03Z</time>
      </trkpt>
      <trkpt lat="47.79217" lon="-2.66887">
        <ele>134.4</ele>
        <time>2024-09-15T10:47:04Z</time>
      </trkpt>
      <trkpt lat="47.79217" lon="-2.66909">
        <ele>134.2</ele>
        <time>2024-09-15T10:47:07Z</time>
      </trkpt>
      <trkpt lat="47.79217" lon="-2.66916">
        <ele>134.2</ele>
        <time>2024-09-15T10:47:08Z</time>
      </trkpt>
      <trkpt lat="47.79217" lon="-2.6693">
        <ele>134.2</ele>
        <time>2024-09-15T10:47:10Z</time>
      </trkpt>
      <trkpt lat="47.79217" lon="-2.66944">
        <ele>134.2</ele>
        <time>2024-09-15T10:47:12Z</time>
      </trkpt>
      <trkpt lat="47.79218" lon="-2.66951">
        <ele>134.2</ele>
        <time>2024-09-15T10:47:13Z</time>
      </trkpt>
      <trkpt lat="47.79217" lon="-2.66958">
        <ele>134.2</ele>
        <time>2024-09-15T10:47:14Z</time>
      </trkpt>
      <trkpt lat="47.79217" lon="-2.66964">
        <ele>134.4</ele>
        <time>2024-09-15T10:47:15Z</time>
      </trkpt>
      <trkpt lat="47.79217" lon="-2.66971">
        <ele>134.6</ele>
        <time>2024-09-15T10:47:16Z</time>
      </trkpt>
      <trkpt lat="47.79218" lon="-2.66984">
        <ele>134.8</ele>
        <time>2024-09-15T10:47:18Z</time>
      </trkpt>
      <trkpt lat="47.79218" lon="-2.66991">
        <ele>134.8</ele>
        <time>2024-09-15T10:47:19Z</time>
      </trkpt>
      <trkpt lat="47.79218" lon="-2.66997">
        <ele>134.8</ele>
        <time>2024-09-15T10:47:20Z</time>
      </trkpt>
      <trkpt lat="47.79218" lon="-2.67003">
        <ele>135</ele>
        <time>2024-09-15T10:47:21Z</time>
      </trkpt>
      <trkpt lat="47.79218" lon="-2.67009">
        <ele>135</ele>
        <time>2024-09-15T10:47:22Z</time>
      </trkpt>
      <trkpt lat="47.79218" lon="-2.67014">
        <ele>135</ele>
        <time>2024-09-15T10:47:23Z</time>
      </trkpt>
      <trkpt lat="47.79218" lon="-2.6702">
        <ele>135.2</ele>
        <time>2024-09-15T10:47:24Z</time>
      </trkpt>
      <trkpt lat="47.79218" lon="-2.67025">
        <ele>135.2</ele>
        <time>2024-09-15T10:47:25Z</time>
      </trkpt>
      <trkpt lat="47.79218" lon="-2.6703">
        <ele>135.2</ele>
        <time>2024-09-15T10:47:26Z</time>
      </trkpt>
      <trkpt lat="47.79218" lon="-2.67035">
        <ele>135.4</ele>
        <time>2024-09-15T10:47:27Z</time>
      </trkpt>
      <trkpt lat="47.79218" lon="-2.67046">
        <ele>135.6</ele>
        <time>2024-09-15T10:47:29Z</time>
      </trkpt>
      <trkpt lat="47.79218" lon="-2.67051">
        <ele>135.6</ele>
        <time>2024-09-15T10:47:30Z</time>
      </trkpt>
      <trkpt lat="47.79218" lon="-2.67056">
        <ele>135.8</ele>
        <time>2024-09-15T10:47:31Z</time>
      </trkpt>
      <trkpt lat="47.79218" lon="-2.67078">
        <ele>136.2</ele>
        <time>2024-09-15T10:47:35Z</time>
      </trkpt>
      <trkpt lat="47.79218" lon="-2.67084">
        <ele>136.2</ele>
        <time>2024-09-15T10:47:36Z</time>
      </trkpt>
      <trkpt lat="47.79219" lon="-2.67094">
        <ele>136.6</ele>
        <time>2024-09-15T10:47:38Z</time>
      </trkpt>
      <trkpt lat="47.79219" lon="-2.671">
        <ele>136.8</ele>
        <time>2024-09-15T10:47:39Z</time>
      </trkpt>
      <trkpt lat="47.7922" lon="-2.67112">
        <ele>137</ele>
        <time>2024-09-15T10:47:41Z</time>
      </trkpt>
      <trkpt lat="47.7922" lon="-2.67118">
        <ele>137.2</ele>
        <time>2024-09-15T10:47:42Z</time>
      </trkpt>
      <trkpt lat="47.7922" lon="-2.67123">
        <ele>137.4</ele>
        <time>2024-09-15T10:47:43Z</time>
      </trkpt>
      <trkpt lat="47.7922" lon="-2.67128">
        <ele>137.4</ele>
        <time>2024-09-15T10:47:44Z</time>
      </trkpt>
      <trkpt lat="47.7922" lon="-2.67134">
        <ele>137.6</ele>
        <time>2024-09-15T10:47:45Z</time>
      </trkpt>
      <trkpt lat="47.7922" lon="-2.67144">
        <ele>137.8</ele>
        <time>2024-09-15T10:47:47Z</time>
      </trkpt>
      <trkpt lat="47.7922" lon="-2.6715">
        <ele>137.8</ele>
        <time>2024-09-15T10:47:48Z</time>
      </trkpt>
      <trkpt lat="47.79221" lon="-2.67166">
        <ele>138.4</ele>
        <time>2024-09-15T10:47:51Z</time>
      </trkpt>
      <trkpt lat="47.79221" lon="-2.6717">
        <ele>138.6</ele>
        <time>2024-09-15T10:47:52Z</time>
      </trkpt>
      <trkpt lat="47.79221" lon="-2.67175">
        <ele>139</ele>
        <time>2024-09-15T10:47:53Z</time>
      </trkpt>
      <trkpt lat="47.79221" lon="-2.67179">
        <ele>139</ele>
        <time>2024-09-15T10:47:54Z</time>
      </trkpt>
      <trkpt lat="47.79221" lon="-2.67183">
        <ele>139.2</ele>
        <time>2024-09-15T10:47:55Z</time>
      </trkpt>
      <trkpt lat="47.79221" lon="-2.67188">
        <ele>139.2</ele>
        <time>2024-09-15T10:47:56Z</time>
      </trkpt>
      <trkpt lat="47.79221" lon="-2.67192">
        <ele>139.4</ele>
        <time>2024-09-15T10:47:57Z</time>
      </trkpt>
      <trkpt lat="47.79221" lon="-2.67197">
        <ele>139.4</ele>
        <time>2024-09-15T10:47:58Z</time>
      </trkpt>
      <trkpt lat="47.79221" lon="-2.67202">
        <ele>139.6</ele>
        <time>2024-09-15T10:47:59Z</time>
      </trkpt>
      <trkpt lat="47.79222" lon="-2.67206">
        <ele>139.6</ele>
        <time>2024-09-15T10:48:00Z</time>
      </trkpt>
      <trkpt lat="47.79222" lon="-2.6721">
        <ele>139.6</ele>
        <time>2024-09-15T10:48:01Z</time>
      </trkpt>
      <trkpt lat="47.79223" lon="-2.67214">
        <ele>139.8</ele>
        <time>2024-09-15T10:48:02Z</time>
      </trkpt>
      <trkpt lat="47.79223" lon="-2.67219">
        <ele>140</ele>
        <time>2024-09-15T10:48:03Z</time>
      </trkpt>
      <trkpt lat="47.79223" lon="-2.67224">
        <ele>140</ele>
        <time>2024-09-15T10:48:04Z</time>
      </trkpt>
      <trkpt lat="47.79223" lon="-2.67228">
        <ele>140</ele>
        <time>2024-09-15T10:48:05Z</time>
      </trkpt>
      <trkpt lat="47.79223" lon="-2.67233">
        <ele>140.2</ele>
        <time>2024-09-15T10:48:06Z</time>
      </trkpt>
      <trkpt lat="47.79223" lon="-2.67239">
        <ele>140.2</ele>
        <time>2024-09-15T10:48:07Z</time>
      </trkpt>
      <trkpt lat="47.79223" lon="-2.67244">
        <ele>140.6</ele>
        <time>2024-09-15T10:48:08Z</time>
      </trkpt>
      <trkpt lat="47.79223" lon="-2.67249">
        <ele>140.8</ele>
        <time>2024-09-15T10:48:09Z</time>
      </trkpt>
      <trkpt lat="47.79223" lon="-2.67255">
        <ele>141</ele>
        <time>2024-09-15T10:48:10Z</time>
      </trkpt>
      <trkpt lat="47.79223" lon="-2.6726">
        <ele>141</ele>
        <time>2024-09-15T10:48:11Z</time>
      </trkpt>
      <trkpt lat="47.79223" lon="-2.67265">
        <ele>141.2</ele>
        <time>2024-09-15T10:48:12Z</time>
      </trkpt>
      <trkpt lat="47.79223" lon="-2.67271">
        <ele>141.2</ele>
        <time>2024-09-15T10:48:13Z</time>
      </trkpt>
      <trkpt lat="47.79223" lon="-2.67276">
        <ele>141.2</ele>
        <time>2024-09-15T10:48:14Z</time>
      </trkpt>
      <trkpt lat="47.79224" lon="-2.67282">
        <ele>141.2</ele>
        <time>2024-09-15T10:48:15Z</time>
      </trkpt>
      <trkpt lat="47.79224" lon="-2.67287">
        <ele>141.2</ele>
        <time>2024-09-15T10:48:16Z</time>
      </trkpt>
      <trkpt lat="47.79224" lon="-2.67293">
        <ele>141.4</ele>
        <time>2024-09-15T10:48:17Z</time>
      </trkpt>
      <trkpt lat="47.79224" lon="-2.67299">
        <ele>141.4</ele>
        <time>2024-09-15T10:48:18Z</time>
      </trkpt>
      <trkpt lat="47.79225" lon="-2.67304">
        <ele>141.4</ele>
        <time>2024-09-15T10:48:19Z</time>
      </trkpt>
      <trkpt lat="47.79225" lon="-2.67309">
        <ele>141.6</ele>
        <time>2024-09-15T10:48:20Z</time>
      </trkpt>
      <trkpt lat="47.79225" lon="-2.67314">
        <ele>141.6</ele>
        <time>2024-09-15T10:48:21Z</time>
      </trkpt>
      <trkpt lat="47.79226" lon="-2.67319">
        <ele>141.6</ele>
        <time>2024-09-15T10:48:22Z</time>
      </trkpt>
      <trkpt lat="47.79226" lon="-2.67324">
        <ele>141.8</ele>
        <time>2024-09-15T10:48:23Z</time>
      </trkpt>
      <trkpt lat="47.79226" lon="-2.67329">
        <ele>141.8</ele>
        <time>2024-09-15T10:48:24Z</time>
      </trkpt>
      <trkpt lat="47.79226" lon="-2.67333">
        <ele>142</ele>
        <time>2024-09-15T10:48:25Z</time>
      </trkpt>
      <trkpt lat="47.79226" lon="-2.67338">
        <ele>142.2</ele>
        <time>2024-09-15T10:48:26Z</time>
      </trkpt>
      <trkpt lat="47.79226" lon="-2.67342">
        <ele>142.2</ele>
        <time>2024-09-15T10:48:27Z</time>
      </trkpt>
      <trkpt lat="47.79226" lon="-2.67351">
        <ele>142.6</ele>
        <time>2024-09-15T10:48:29Z</time>
      </trkpt>
      <trkpt lat="47.79226" lon="-2.67375">
        <ele>143</ele>
        <time>2024-09-15T10:48:34Z</time>
      </trkpt>
      <trkpt lat="47.79226" lon="-2.6738">
        <ele>143.2</ele>
        <time>2024-09-15T10:48:35Z</time>
      </trkpt>
      <trkpt lat="47.79226" lon="-2.67389">
        <ele>143.4</ele>
        <time>2024-09-15T10:48:37Z</time>
      </trkpt>
      <trkpt lat="47.79226" lon="-2.67394">
        <ele>143.6</ele>
        <time>2024-09-15T10:48:38Z</time>
      </trkpt>
      <trkpt lat="47.79226" lon="-2.67411">
        <ele>144.4</ele>
        <time>2024-09-15T10:48:42Z</time>
      </trkpt>
      <trkpt lat="47.79226" lon="-2.67415">
        <ele>144.4</ele>
        <time>2024-09-15T10:48:43Z</time>
      </trkpt>
      <trkpt lat="47.79226" lon="-2.6742">
        <ele>144.6</ele>
        <time>2024-09-15T10:48:44Z</time>
      </trkpt>
      <trkpt lat="47.79225" lon="-2.67424">
        <ele>144.8</ele>
        <time>2024-09-15T10:48:45Z</time>
      </trkpt>
      <trkpt lat="47.79225" lon="-2.67429">
        <ele>144.8</ele>
        <time>2024-09-15T10:48:46Z</time>
      </trkpt>
      <trkpt lat="47.79225" lon="-2.67434">
        <ele>144.8</ele>
        <time>2024-09-15T10:48:47Z</time>
      </trkpt>
      <trkpt lat="47.79224" lon="-2.6744">
        <ele>145</ele>
        <time>2024-09-15T10:48:48Z</time>
      </trkpt>
      <trkpt lat="47.79223" lon="-2.67446">
        <ele>145</ele>
        <time>2024-09-15T10:48:49Z</time>
      </trkpt>
      <trkpt lat="47.79223" lon="-2.67452">
        <ele>145</ele>
        <time>2024-09-15T10:48:50Z</time>
      </trkpt>
      <trkpt lat="47.79223" lon="-2.67458">
        <ele>145</ele>
        <time>2024-09-15T10:48:51Z</time>
      </trkpt>
      <trkpt lat="47.79224" lon="-2.67464">
        <ele>145</ele>
        <time>2024-09-15T10:48:52Z</time>
      </trkpt>
      <trkpt lat="47.79225" lon="-2.6747">
        <ele>145</ele>
        <time>2024-09-15T10:48:53Z</time>
      </trkpt>
      <trkpt lat="47.79225" lon="-2.67477">
        <ele>145.2</ele>
        <time>2024-09-15T10:48:54Z</time>
      </trkpt>
      <trkpt lat="47.79225" lon="-2.67484">
        <ele>145.2</ele>
        <time>2024-09-15T10:48:55Z</time>
      </trkpt>
      <trkpt lat="47.79225" lon="-2.67491">
        <ele>145.2</ele>
        <time>2024-09-15T10:48:56Z</time>
      </trkpt>
      <trkpt lat="47.79224" lon="-2.67498">
        <ele>145.4</ele>
        <time>2024-09-15T10:48:57Z</time>
      </trkpt>
      <trkpt lat="47.79224" lon="-2.67506">
        <ele>145.4</ele>
        <time>2024-09-15T10:48:58Z</time>
      </trkpt>
      <trkpt lat="47.79224" lon="-2.67513">
        <ele>145.4</ele>
        <time>2024-09-15T10:48:59Z</time>
      </trkpt>
      <trkpt lat="47.79225" lon="-2.67527">
        <ele>145.8</ele>
        <time>2024-09-15T10:49:01Z</time>
      </trkpt>
      <trkpt lat="47.79225" lon="-2.67542">
        <ele>145.6</ele>
        <time>2024-09-15T10:49:03Z</time>
      </trkpt>
      <trkpt lat="47.79224" lon="-2.6755">
        <ele>145.8</ele>
        <time>2024-09-15T10:49:04Z</time>
      </trkpt>
      <trkpt lat="47.79223" lon="-2.67559">
        <ele>145.8</ele>
        <time>2024-09-15T10:49:05Z</time>
      </trkpt>
      <trkpt lat="47.79223" lon="-2.67576">
        <ele>145.6</ele>
        <time>2024-09-15T10:49:07Z</time>
      </trkpt>
      <trkpt lat="47.79221" lon="-2.67604">
        <ele>145.4</ele>
        <time>2024-09-15T10:49:10Z</time>
      </trkpt>
      <trkpt lat="47.79222" lon="-2.67613">
        <ele>145.4</ele>
        <time>2024-09-15T10:49:11Z</time>
      </trkpt>
      <trkpt lat="47.79221" lon="-2.67621">
        <ele>145.2</ele>
        <time>2024-09-15T10:49:12Z</time>
      </trkpt>
      <trkpt lat="47.79221" lon="-2.67629">
        <ele>145</ele>
        <time>2024-09-15T10:49:13Z</time>
      </trkpt>
      <trkpt lat="47.7922" lon="-2.67637">
        <ele>145</ele>
        <time>2024-09-15T10:49:14Z</time>
      </trkpt>
      <trkpt lat="47.7922" lon="-2.67645">
        <ele>144.8</ele>
        <time>2024-09-15T10:49:15Z</time>
      </trkpt>
      <trkpt lat="47.79221" lon="-2.67654">
        <ele>144.8</ele>
        <time>2024-09-15T10:49:16Z</time>
      </trkpt>
      <trkpt lat="47.79222" lon="-2.67661">
        <ele>144.8</ele>
        <time>2024-09-15T10:49:17Z</time>
      </trkpt>
      <trkpt lat="47.79222" lon="-2.67669">
        <ele>144.8</ele>
        <time>2024-09-15T10:49:18Z</time>
      </trkpt>
      <trkpt lat="47.79222" lon="-2.67676">
        <ele>144.8</ele>
        <time>2024-09-15T10:49:19Z</time>
      </trkpt>
      <trkpt lat="47.79221" lon="-2.67683">
        <ele>145</ele>
        <time>2024-09-15T10:49:20Z</time>
      </trkpt>
      <trkpt lat="47.7922" lon="-2.6769">
        <ele>145</ele>
        <time>2024-09-15T10:49:21Z</time>
      </trkpt>
      <trkpt lat="47.79218" lon="-2.67705">
        <ele>145</ele>
        <time>2024-09-15T10:49:23Z</time>
      </trkpt>
      <trkpt lat="47.79218" lon="-2.67712">
        <ele>145</ele>
        <time>2024-09-15T10:49:24Z</time>
      </trkpt>
      <trkpt lat="47.79219" lon="-2.67717">
        <ele>145</ele>
        <time>2024-09-15T10:49:25Z</time>
      </trkpt>
      <trkpt lat="47.79219" lon="-2.67723">
        <ele>145</ele>
        <time>2024-09-15T10:49:26Z</time>
      </trkpt>
      <trkpt lat="47.79219" lon="-2.6773">
        <ele>145</ele>
        <time>2024-09-15T10:49:27Z</time>
      </trkpt>
      <trkpt lat="47.7922" lon="-2.67735">
        <ele>145</ele>
        <time>2024-09-15T10:49:28Z</time>
      </trkpt>
      <trkpt lat="47.7922" lon="-2.67739">
        <ele>145.2</ele>
        <time>2024-09-15T10:49:29Z</time>
      </trkpt>
      <trkpt lat="47.7922" lon="-2.67742">
        <ele>145.2</ele>
        <time>2024-09-15T10:49:30Z</time>
      </trkpt>
      <trkpt lat="47.79219" lon="-2.67751">
        <ele>145.2</ele>
        <time>2024-09-15T10:49:32Z</time>
      </trkpt>
      <trkpt lat="47.79218" lon="-2.67756">
        <ele>145.2</ele>
        <time>2024-09-15T10:49:33Z</time>
      </trkpt>
      <trkpt lat="47.79217" lon="-2.67762">
        <ele>145.2</ele>
        <time>2024-09-15T10:49:34Z</time>
      </trkpt>
      <trkpt lat="47.79217" lon="-2.67776">
        <ele>145.2</ele>
        <time>2024-09-15T10:49:36Z</time>
      </trkpt>
      <trkpt lat="47.79217" lon="-2.67784">
        <ele>145</ele>
        <time>2024-09-15T10:49:37Z</time>
      </trkpt>
      <trkpt lat="47.79215" lon="-2.67807">
        <ele>145</ele>
        <time>2024-09-15T10:49:40Z</time>
      </trkpt>
      <trkpt lat="47.79215" lon="-2.67815">
        <ele>145</ele>
        <time>2024-09-15T10:49:41Z</time>
      </trkpt>
      <trkpt lat="47.79214" lon="-2.67822">
        <ele>145</ele>
        <time>2024-09-15T10:49:42Z</time>
      </trkpt>
      <trkpt lat="47.79214" lon="-2.67829">
        <ele>145</ele>
        <time>2024-09-15T10:49:43Z</time>
      </trkpt>
      <trkpt lat="47.79214" lon="-2.67836">
        <ele>145</ele>
        <time>2024-09-15T10:49:44Z</time>
      </trkpt>
      <trkpt lat="47.79213" lon="-2.67842">
        <ele>144.8</ele>
        <time>2024-09-15T10:49:45Z</time>
      </trkpt>
      <trkpt lat="47.79213" lon="-2.67869">
        <ele>144.8</ele>
        <time>2024-09-15T10:49:49Z</time>
      </trkpt>
      <trkpt lat="47.79213" lon="-2.67876">
        <ele>144.8</ele>
        <time>2024-09-15T10:49:50Z</time>
      </trkpt>
      <trkpt lat="47.79212" lon="-2.67897">
        <ele>144.6</ele>
        <time>2024-09-15T10:49:53Z</time>
      </trkpt>
      <trkpt lat="47.79212" lon="-2.67904">
        <ele>144.6</ele>
        <time>2024-09-15T10:49:54Z</time>
      </trkpt>
      <trkpt lat="47.79211" lon="-2.67911">
        <ele>144.4</ele>
        <time>2024-09-15T10:49:55Z</time>
      </trkpt>
      <trkpt lat="47.7921" lon="-2.67916">
        <ele>144.4</ele>
        <time>2024-09-15T10:49:56Z</time>
      </trkpt>
      <trkpt lat="47.7921" lon="-2.67924">
        <ele>144.2</ele>
        <time>2024-09-15T10:49:57Z</time>
      </trkpt>
      <trkpt lat="47.79209" lon="-2.67932">
        <ele>144.2</ele>
        <time>2024-09-15T10:49:58Z</time>
      </trkpt>
      <trkpt lat="47.79208" lon="-2.67938">
        <ele>144</ele>
        <time>2024-09-15T10:49:59Z</time>
      </trkpt>
      <trkpt lat="47.79205" lon="-2.67945">
        <ele>144</ele>
        <time>2024-09-15T10:50:00Z</time>
      </trkpt>
      <trkpt lat="47.79204" lon="-2.67951">
        <ele>144</ele>
        <time>2024-09-15T10:50:01Z</time>
      </trkpt>
      <trkpt lat="47.792" lon="-2.67966">
        <ele>144</ele>
        <time>2024-09-15T10:50:03Z</time>
      </trkpt>
      <trkpt lat="47.792" lon="-2.67973">
        <ele>144</ele>
        <time>2024-09-15T10:50:04Z</time>
      </trkpt>
      <trkpt lat="47.79202" lon="-2.67979">
        <ele>144</ele>
        <time>2024-09-15T10:50:05Z</time>
      </trkpt>
      <trkpt lat="47.79206" lon="-2.67985">
        <ele>144</ele>
        <time>2024-09-15T10:50:06Z</time>
      </trkpt>
      <trkpt lat="47.79211" lon="-2.67989">
        <ele>144.2</ele>
        <time>2024-09-15T10:50:07Z</time>
      </trkpt>
      <trkpt lat="47.79221" lon="-2.6799">
        <ele>144.2</ele>
        <time>2024-09-15T10:50:09Z</time>
      </trkpt>
      <trkpt lat="47.79226" lon="-2.6799">
        <ele>144.2</ele>
        <time>2024-09-15T10:50:10Z</time>
      </trkpt>
      <trkpt lat="47.79232" lon="-2.67989">
        <ele>144.4</ele>
        <time>2024-09-15T10:50:11Z</time>
      </trkpt>
      <trkpt lat="47.79238" lon="-2.67989">
        <ele>144.4</ele>
        <time>2024-09-15T10:50:12Z</time>
      </trkpt>
      <trkpt lat="47.79272" lon="-2.67995">
        <ele>145</ele>
        <time>2024-09-15T10:50:18Z</time>
      </trkpt>
      <trkpt lat="47.79284" lon="-2.67998">
        <ele>145.2</ele>
        <time>2024-09-15T10:50:20Z</time>
      </trkpt>
      <trkpt lat="47.79322" lon="-2.68004">
        <ele>145.2</ele>
        <time>2024-09-15T10:50:26Z</time>
      </trkpt>
      <trkpt lat="47.7937" lon="-2.68012">
        <ele>144.8</ele>
        <time>2024-09-15T10:50:33Z</time>
      </trkpt>
      <trkpt lat="47.79377" lon="-2.68013">
        <ele>144.8</ele>
        <time>2024-09-15T10:50:34Z</time>
      </trkpt>
      <trkpt lat="47.79383" lon="-2.68015">
        <ele>144.6</ele>
        <time>2024-09-15T10:50:35Z</time>
      </trkpt>
      <trkpt lat="47.7939" lon="-2.68016">
        <ele>144.6</ele>
        <time>2024-09-15T10:50:36Z</time>
      </trkpt>
      <trkpt lat="47.79402" lon="-2.68025">
        <ele>144.4</ele>
        <time>2024-09-15T10:50:38Z</time>
      </trkpt>
      <trkpt lat="47.79406" lon="-2.68032">
        <ele>144.2</ele>
        <time>2024-09-15T10:50:39Z</time>
      </trkpt>
      <trkpt lat="47.79409" lon="-2.68042">
        <ele>144</ele>
        <time>2024-09-15T10:50:40Z</time>
      </trkpt>
      <trkpt lat="47.79408" lon="-2.68051">
        <ele>143.8</ele>
        <time>2024-09-15T10:50:41Z</time>
      </trkpt>
      <trkpt lat="47.79405" lon="-2.68061">
        <ele>143.6</ele>
        <time>2024-09-15T10:50:42Z</time>
      </trkpt>
      <trkpt lat="47.79399" lon="-2.6808">
        <ele>143.4</ele>
        <time>2024-09-15T10:50:44Z</time>
      </trkpt>
      <trkpt lat="47.79396" lon="-2.68089">
        <ele>143.4</ele>
        <time>2024-09-15T10:50:45Z</time>
      </trkpt>
      <trkpt lat="47.79393" lon="-2.68099">
        <ele>143.4</ele>
        <time>2024-09-15T10:50:46Z</time>
      </trkpt>
      <trkpt lat="47.7939" lon="-2.68108">
        <ele>143</ele>
        <time>2024-09-15T10:50:47Z</time>
      </trkpt>
      <trkpt lat="47.79387" lon="-2.68117">
        <ele>143</ele>
        <time>2024-09-15T10:50:48Z</time>
      </trkpt>
      <trkpt lat="47.79384" lon="-2.68125">
        <ele>142.8</ele>
        <time>2024-09-15T10:50:49Z</time>
      </trkpt>
      <trkpt lat="47.79382" lon="-2.68134">
        <ele>142.8</ele>
        <time>2024-09-15T10:50:50Z</time>
      </trkpt>
      <trkpt lat="47.79379" lon="-2.68142">
        <ele>142.8</ele>
        <time>2024-09-15T10:50:51Z</time>
      </trkpt>
      <trkpt lat="47.79377" lon="-2.6815">
        <ele>142.6</ele>
        <time>2024-09-15T10:50:52Z</time>
      </trkpt>
      <trkpt lat="47.79375" lon="-2.68159">
        <ele>142.6</ele>
        <time>2024-09-15T10:50:53Z</time>
      </trkpt>
      <trkpt lat="47.79373" lon="-2.68167">
        <ele>142.6</ele>
        <time>2024-09-15T10:50:54Z</time>
      </trkpt>
      <trkpt lat="47.79371" lon="-2.68174">
        <ele>142.6</ele>
        <time>2024-09-15T10:50:55Z</time>
      </trkpt>
      <trkpt lat="47.79369" lon="-2.68182">
        <ele>142.6</ele>
        <time>2024-09-15T10:50:56Z</time>
      </trkpt>
      <trkpt lat="47.79367" lon="-2.68189">
        <ele>142.6</ele>
        <time>2024-09-15T10:50:57Z</time>
      </trkpt>
      <trkpt lat="47.79365" lon="-2.68196">
        <ele>142.8</ele>
        <time>2024-09-15T10:50:58Z</time>
      </trkpt>
      <trkpt lat="47.79364" lon="-2.68203">
        <ele>143</ele>
        <time>2024-09-15T10:50:59Z</time>
      </trkpt>
      <trkpt lat="47.79362" lon="-2.6821">
        <ele>143.2</ele>
        <time>2024-09-15T10:51:00Z</time>
      </trkpt>
      <trkpt lat="47.79361" lon="-2.68217">
        <ele>143.2</ele>
        <time>2024-09-15T10:51:01Z</time>
      </trkpt>
      <trkpt lat="47.7936" lon="-2.68224">
        <ele>143.4</ele>
        <time>2024-09-15T10:51:02Z</time>
      </trkpt>
      <trkpt lat="47.79359" lon="-2.68231">
        <ele>143.4</ele>
        <time>2024-09-15T10:51:03Z</time>
      </trkpt>
      <trkpt lat="47.79356" lon="-2.68259">
        <ele>143.8</ele>
        <time>2024-09-15T10:51:07Z</time>
      </trkpt>
      <trkpt lat="47.79348" lon="-2.68337">
        <ele>144.2</ele>
        <time>2024-09-15T10:51:17Z</time>
      </trkpt>
      <trkpt lat="47.79347" lon="-2.68346">
        <ele>144.2</ele>
        <time>2024-09-15T10:51:18Z</time>
      </trkpt>
      <trkpt lat="47.79346" lon="-2.68355">
        <ele>144.2</ele>
        <time>2024-09-15T10:51:19Z</time>
      </trkpt>
      <trkpt lat="47.79344" lon="-2.68364">
        <ele>144</ele>
        <time>2024-09-15T10:51:20Z</time>
      </trkpt>
      <trkpt lat="47.79344" lon="-2.68373">
        <ele>144</ele>
        <time>2024-09-15T10:51:21Z</time>
      </trkpt>
      <trkpt lat="47.79343" lon="-2.68382">
        <ele>144</ele>
        <time>2024-09-15T10:51:22Z</time>
      </trkpt>
      <trkpt lat="47.79342" lon="-2.6839">
        <ele>143.8</ele>
        <time>2024-09-15T10:51:23Z</time>
      </trkpt>
      <trkpt lat="47.79342" lon="-2.68397">
        <ele>143.8</ele>
        <time>2024-09-15T10:51:24Z</time>
      </trkpt>
      <trkpt lat="47.79341" lon="-2.68405">
        <ele>143.8</ele>
        <time>2024-09-15T10:51:25Z</time>
      </trkpt>
      <trkpt lat="47.7934" lon="-2.68412">
        <ele>143.8</ele>
        <time>2024-09-15T10:51:26Z</time>
      </trkpt>
      <trkpt lat="47.79339" lon="-2.68419">
        <ele>143.8</ele>
        <time>2024-09-15T10:51:27Z</time>
      </trkpt>
      <trkpt lat="47.79339" lon="-2.68426">
        <ele>143.8</ele>
        <time>2024-09-15T10:51:28Z</time>
      </trkpt>
      <trkpt lat="47.79338" lon="-2.68433">
        <ele>143.8</ele>
        <time>2024-09-15T10:51:29Z</time>
      </trkpt>
      <trkpt lat="47.79334" lon="-2.68468">
        <ele>144.2</ele>
        <time>2024-09-15T10:51:34Z</time>
      </trkpt>
      <trkpt lat="47.79329" lon="-2.68523">
        <ele>144.2</ele>
        <time>2024-09-15T10:51:41Z</time>
      </trkpt>
      <trkpt lat="47.79328" lon="-2.68538">
        <ele>144</ele>
        <time>2024-09-15T10:51:43Z</time>
      </trkpt>
      <trkpt lat="47.79327" lon="-2.68554">
        <ele>143.8</ele>
        <time>2024-09-15T10:51:45Z</time>
      </trkpt>
      <trkpt lat="47.79328" lon="-2.68571">
        <ele>143.6</ele>
        <time>2024-09-15T10:51:47Z</time>
      </trkpt>
      <trkpt lat="47.79334" lon="-2.68588">
        <ele>143</ele>
        <time>2024-09-15T10:51:49Z</time>
      </trkpt>
      <trkpt lat="47.79339" lon="-2.68596">
        <ele>142.8</ele>
        <time>2024-09-15T10:51:50Z</time>
      </trkpt>
      <trkpt lat="47.79344" lon="-2.68603">
        <ele>142</ele>
        <time>2024-09-15T10:51:51Z</time>
      </trkpt>
      <trkpt lat="47.79349" lon="-2.68609">
        <ele>141.4</ele>
        <time>2024-09-15T10:51:52Z</time>
      </trkpt>
      <trkpt lat="47.79353" lon="-2.68616">
        <ele>141</ele>
        <time>2024-09-15T10:51:53Z</time>
      </trkpt>
      <trkpt lat="47.79354" lon="-2.68623">
        <ele>140.6</ele>
        <time>2024-09-15T10:51:54Z</time>
      </trkpt>
      <trkpt lat="47.79353" lon="-2.6863">
        <ele>140.4</ele>
        <time>2024-09-15T10:51:55Z</time>
      </trkpt>
      <trkpt lat="47.79353" lon="-2.68637">
        <ele>140</ele>
        <time>2024-09-15T10:51:56Z</time>
      </trkpt>
      <trkpt lat="47.79353" lon="-2.68643">
        <ele>139.8</ele>
        <time>2024-09-15T10:51:57Z</time>
      </trkpt>
      <trkpt lat="47.79352" lon="-2.68648">
        <ele>139.6</ele>
        <time>2024-09-15T10:51:58Z</time>
      </trkpt>
      <trkpt lat="47.79352" lon="-2.68654">
        <ele>139.6</ele>
        <time>2024-09-15T10:51:59Z</time>
      </trkpt>
      <trkpt lat="47.79351" lon="-2.68661">
        <ele>139.2</ele>
        <time>2024-09-15T10:52:00Z</time>
      </trkpt>
      <trkpt lat="47.79351" lon="-2.68667">
        <ele>139</ele>
        <time>2024-09-15T10:52:01Z</time>
      </trkpt>
      <trkpt lat="47.7935" lon="-2.68698">
        <ele>139.2</ele>
        <time>2024-09-15T10:52:06Z</time>
      </trkpt>
      <trkpt lat="47.79349" lon="-2.68717">
        <ele>139.6</ele>
        <time>2024-09-15T10:52:09Z</time>
      </trkpt>
      <trkpt lat="47.79348" lon="-2.68722">
        <ele>140</ele>
        <time>2024-09-15T10:52:10Z</time>
      </trkpt>
      <trkpt lat="47.79348" lon="-2.68733">
        <ele>140.4</ele>
        <time>2024-09-15T10:52:12Z</time>
      </trkpt>
      <trkpt lat="47.79348" lon="-2.68739">
        <ele>140.6</ele>
        <time>2024-09-15T10:52:13Z</time>
      </trkpt>
      <trkpt lat="47.79348" lon="-2.6875">
        <ele>140.8</ele>
        <time>2024-09-15T10:52:15Z</time>
      </trkpt>
      <trkpt lat="47.79348" lon="-2.68753">
        <ele>141</ele>
        <time>2024-09-15T10:52:16Z</time>
      </trkpt>
      <trkpt lat="47.79349" lon="-2.68756">
        <ele>141.2</ele>
        <time>2024-09-15T10:52:17Z</time>
      </trkpt>
      <trkpt lat="47.7935" lon="-2.68758">
        <ele>141.2</ele>
        <time>2024-09-15T10:52:18Z</time>
      </trkpt>
      <trkpt lat="47.79352" lon="-2.68758">
        <ele>141.4</ele>
        <time>2024-09-15T10:52:19Z</time>
      </trkpt>
      <trkpt lat="47.79355" lon="-2.68756">
        <ele>141.4</ele>
        <time>2024-09-15T10:52:21Z</time>
      </trkpt>
      <trkpt lat="47.79358" lon="-2.68754">
        <ele>141.4</ele>
        <time>2024-09-15T10:52:22Z</time>
      </trkpt>
      <trkpt lat="47.79361" lon="-2.68754">
        <ele>141.4</ele>
        <time>2024-09-15T10:52:23Z</time>
      </trkpt>
      <trkpt lat="47.79367" lon="-2.68757">
        <ele>141.4</ele>
        <time>2024-09-15T10:52:25Z</time>
      </trkpt>
      <trkpt lat="47.79368" lon="-2.68762">
        <ele>141.4</ele>
        <time>2024-09-15T10:52:26Z</time>
      </trkpt>
      <trkpt lat="47.7937" lon="-2.68782">
        <ele>141.6</ele>
        <time>2024-09-15T10:52:29Z</time>
      </trkpt>
      <trkpt lat="47.79371" lon="-2.68787">
        <ele>141.6</ele>
        <time>2024-09-15T10:52:30Z</time>
      </trkpt>
      <trkpt lat="47.79372" lon="-2.68793">
        <ele>141.6</ele>
        <time>2024-09-15T10:52:31Z</time>
      </trkpt>
      <trkpt lat="47.79374" lon="-2.68806">
        <ele>141.4</ele>
        <time>2024-09-15T10:52:33Z</time>
      </trkpt>
      <trkpt lat="47.79373" lon="-2.68817">
        <ele>141.6</ele>
        <time>2024-09-15T10:52:35Z</time>
      </trkpt>
      <trkpt lat="47.79373" lon="-2.68822">
        <ele>141.6</ele>
        <time>2024-09-15T10:52:36Z</time>
      </trkpt>
      <trkpt lat="47.79374" lon="-2.68828">
        <ele>141.6</ele>
        <time>2024-09-15T10:52:37Z</time>
      </trkpt>
      <trkpt lat="47.79375" lon="-2.68834">
        <ele>141.8</ele>
        <time>2024-09-15T10:52:38Z</time>
      </trkpt>
      <trkpt lat="47.79376" lon="-2.6884">
        <ele>141.8</ele>
        <time>2024-09-15T10:52:39Z</time>
      </trkpt>
      <trkpt lat="47.79379" lon="-2.68854">
        <ele>141.8</ele>
        <time>2024-09-15T10:52:41Z</time>
      </trkpt>
      <trkpt lat="47.79379" lon="-2.6886">
        <ele>141.8</ele>
        <time>2024-09-15T10:52:42Z</time>
      </trkpt>
      <trkpt lat="47.79381" lon="-2.68873">
        <ele>141.8</ele>
        <time>2024-09-15T10:52:44Z</time>
      </trkpt>
      <trkpt lat="47.79382" lon="-2.68887">
        <ele>141.8</ele>
        <time>2024-09-15T10:52:46Z</time>
      </trkpt>
      <trkpt lat="47.79383" lon="-2.68892">
        <ele>142</ele>
        <time>2024-09-15T10:52:47Z</time>
      </trkpt>
      <trkpt lat="47.79383" lon="-2.68898">
        <ele>141.8</ele>
        <time>2024-09-15T10:52:48Z</time>
      </trkpt>
      <trkpt lat="47.79385" lon="-2.68905">
        <ele>141.8</ele>
        <time>2024-09-15T10:52:49Z</time>
      </trkpt>
      <trkpt lat="47.79387" lon="-2.68909">
        <ele>141.8</ele>
        <time>2024-09-15T10:52:50Z</time>
      </trkpt>
      <trkpt lat="47.79389" lon="-2.68915">
        <ele>142</ele>
        <time>2024-09-15T10:52:51Z</time>
      </trkpt>
      <trkpt lat="47.79393" lon="-2.68941">
        <ele>141.8</ele>
        <time>2024-09-15T10:52:54Z</time>
      </trkpt>
      <trkpt lat="47.79393" lon="-2.68948">
        <ele>141.8</ele>
        <time>2024-09-15T10:52:55Z</time>
      </trkpt>
      <trkpt lat="47.79395" lon="-2.68998">
        <ele>141.2</ele>
        <time>2024-09-15T10:53:01Z</time>
      </trkpt>
      <trkpt lat="47.79397" lon="-2.69027">
        <ele>140.6</ele>
        <time>2024-09-15T10:53:04Z</time>
      </trkpt>
      <trkpt lat="47.79398" lon="-2.69035">
        <ele>140.4</ele>
        <time>2024-09-15T10:53:05Z</time>
      </trkpt>
      <trkpt lat="47.79399" lon="-2.69042">
        <ele>140</ele>
        <time>2024-09-15T10:53:06Z</time>
      </trkpt>
      <trkpt lat="47.79399" lon="-2.69047">
        <ele>139.8</ele>
        <time>2024-09-15T10:53:07Z</time>
      </trkpt>
      <trkpt lat="47.79399" lon="-2.69052">
        <ele>139.4</ele>
        <time>2024-09-15T10:53:08Z</time>
      </trkpt>
      <trkpt lat="47.79399" lon="-2.69065">
        <ele>138.2</ele>
        <time>2024-09-15T10:53:11Z</time>
      </trkpt>
      <trkpt lat="47.794" lon="-2.69068">
        <ele>137.8</ele>
        <time>2024-09-15T10:53:12Z</time>
      </trkpt>
      <trkpt lat="47.79401" lon="-2.6907">
        <ele>137.6</ele>
        <time>2024-09-15T10:53:13Z</time>
      </trkpt>
      <trkpt lat="47.79403" lon="-2.6907">
        <ele>137.4</ele>
        <time>2024-09-15T10:53:14Z</time>
      </trkpt>
      <trkpt lat="47.79406" lon="-2.69072">
        <ele>137.2</ele>
        <time>2024-09-15T10:53:15Z</time>
      </trkpt>
      <trkpt lat="47.79409" lon="-2.69073">
        <ele>137</ele>
        <time>2024-09-15T10:53:16Z</time>
      </trkpt>
      <trkpt lat="47.79413" lon="-2.69074">
        <ele>137</ele>
        <time>2024-09-15T10:53:17Z</time>
      </trkpt>
      <trkpt lat="47.79416" lon="-2.69074">
        <ele>136.8</ele>
        <time>2024-09-15T10:53:18Z</time>
      </trkpt>
      <trkpt lat="47.79423" lon="-2.69077">
        <ele>136.6</ele>
        <time>2024-09-15T10:53:20Z</time>
      </trkpt>
      <trkpt lat="47.7943" lon="-2.69077">
        <ele>136.2</ele>
        <time>2024-09-15T10:53:22Z</time>
      </trkpt>
      <trkpt lat="47.79434" lon="-2.69077">
        <ele>135.2</ele>
        <time>2024-09-15T10:53:23Z</time>
      </trkpt>
      <trkpt lat="47.79439" lon="-2.69076">
        <ele>135.2</ele>
        <time>2024-09-15T10:53:24Z</time>
      </trkpt>
      <trkpt lat="47.79442" lon="-2.69074">
        <ele>135</ele>
        <time>2024-09-15T10:53:25Z</time>
      </trkpt>
      <trkpt lat="47.79445" lon="-2.69072">
        <ele>134.8</ele>
        <time>2024-09-15T10:53:26Z</time>
      </trkpt>
      <trkpt lat="47.79449" lon="-2.69071">
        <ele>134.6</ele>
        <time>2024-09-15T10:53:27Z</time>
      </trkpt>
      <trkpt lat="47.79451" lon="-2.69071">
        <ele>134.4</ele>
        <time>2024-09-15T10:53:28Z</time>
      </trkpt>
      <trkpt lat="47.79453" lon="-2.69074">
        <ele>134</ele>
        <time>2024-09-15T10:53:29Z</time>
      </trkpt>
      <trkpt lat="47.79455" lon="-2.6908">
        <ele>133.6</ele>
        <time>2024-09-15T10:53:30Z</time>
      </trkpt>
      <trkpt lat="47.79461" lon="-2.69092">
        <ele>133.2</ele>
        <time>2024-09-15T10:53:32Z</time>
      </trkpt>
      <trkpt lat="47.79464" lon="-2.69099">
        <ele>133</ele>
        <time>2024-09-15T10:53:33Z</time>
      </trkpt>
      <trkpt lat="47.79467" lon="-2.69112">
        <ele>132.8</ele>
        <time>2024-09-15T10:53:35Z</time>
      </trkpt>
      <trkpt lat="47.79484" lon="-2.69167">
        <ele>132.2</ele>
        <time>2024-09-15T10:53:43Z</time>
      </trkpt>
      <trkpt lat="47.79495" lon="-2.69215">
        <ele>133</ele>
        <time>2024-09-15T10:53:50Z</time>
      </trkpt>
      <trkpt lat="47.79497" lon="-2.69222">
        <ele>133</ele>
        <time>2024-09-15T10:53:51Z</time>
      </trkpt>
      <trkpt lat="47.79499" lon="-2.6923">
        <ele>133.4</ele>
        <time>2024-09-15T10:53:52Z</time>
      </trkpt>
      <trkpt lat="47.795" lon="-2.69237">
        <ele>133.4</ele>
        <time>2024-09-15T10:53:53Z</time>
      </trkpt>
      <trkpt lat="47.79503" lon="-2.69259">
        <ele>133.6</ele>
        <time>2024-09-15T10:53:56Z</time>
      </trkpt>
      <trkpt lat="47.79503" lon="-2.69266">
        <ele>133.8</ele>
        <time>2024-09-15T10:53:57Z</time>
      </trkpt>
      <trkpt lat="47.79503" lon="-2.69271">
        <ele>133.8</ele>
        <time>2024-09-15T10:53:58Z</time>
      </trkpt>
      <trkpt lat="47.79503" lon="-2.69275">
        <ele>133.8</ele>
        <time>2024-09-15T10:53:59Z</time>
      </trkpt>
      <trkpt lat="47.79504" lon="-2.69278">
        <ele>134</ele>
        <time>2024-09-15T10:54:00Z</time>
      </trkpt>
      <trkpt lat="47.79505" lon="-2.6928">
        <ele>134</ele>
        <time>2024-09-15T10:54:01Z</time>
      </trkpt>
      <trkpt lat="47.79507" lon="-2.69282">
        <ele>134</ele>
        <time>2024-09-15T10:54:02Z</time>
      </trkpt>
      <trkpt lat="47.79509" lon="-2.69285">
        <ele>134</ele>
        <time>2024-09-15T10:54:03Z</time>
      </trkpt>
      <trkpt lat="47.79511" lon="-2.6929">
        <ele>134</ele>
        <time>2024-09-15T10:54:04Z</time>
      </trkpt>
      <trkpt lat="47.79513" lon="-2.69295">
        <ele>134</ele>
        <time>2024-09-15T10:54:05Z</time>
      </trkpt>
      <trkpt lat="47.79514" lon="-2.69299">
        <ele>133.8</ele>
        <time>2024-09-15T10:54:06Z</time>
      </trkpt>
      <trkpt lat="47.79515" lon="-2.69305">
        <ele>133.8</ele>
        <time>2024-09-15T10:54:07Z</time>
      </trkpt>
      <trkpt lat="47.79516" lon="-2.6931">
        <ele>133.8</ele>
        <time>2024-09-15T10:54:08Z</time>
      </trkpt>
      <trkpt lat="47.79522" lon="-2.6933">
        <ele>133.6</ele>
        <time>2024-09-15T10:54:11Z</time>
      </trkpt>
      <trkpt lat="47.79523" lon="-2.69335">
        <ele>133.4</ele>
        <time>2024-09-15T10:54:12Z</time>
      </trkpt>
      <trkpt lat="47.79524" lon="-2.69339">
        <ele>133.4</ele>
        <time>2024-09-15T10:54:13Z</time>
      </trkpt>
      <trkpt lat="47.79524" lon="-2.69349">
        <ele>133.4</ele>
        <time>2024-09-15T10:54:15Z</time>
      </trkpt>
      <trkpt lat="47.79525" lon="-2.69359">
        <ele>133.4</ele>
        <time>2024-09-15T10:54:17Z</time>
      </trkpt>
      <trkpt lat="47.79526" lon="-2.69366">
        <ele>133.4</ele>
        <time>2024-09-15T10:54:18Z</time>
      </trkpt>
      <trkpt lat="47.79528" lon="-2.69373">
        <ele>133.4</ele>
        <time>2024-09-15T10:54:19Z</time>
      </trkpt>
      <trkpt lat="47.7953" lon="-2.6938">
        <ele>133.4</ele>
        <time>2024-09-15T10:54:20Z</time>
      </trkpt>
      <trkpt lat="47.79531" lon="-2.69387">
        <ele>133.4</ele>
        <time>2024-09-15T10:54:21Z</time>
      </trkpt>
      <trkpt lat="47.79532" lon="-2.694">
        <ele>133.4</ele>
        <time>2024-09-15T10:54:23Z</time>
      </trkpt>
      <trkpt lat="47.79534" lon="-2.69412">
        <ele>133</ele>
        <time>2024-09-15T10:54:25Z</time>
      </trkpt>
      <trkpt lat="47.79534" lon="-2.69418">
        <ele>132.8</ele>
        <time>2024-09-15T10:54:26Z</time>
      </trkpt>
      <trkpt lat="47.79532" lon="-2.69424">
        <ele>132.8</ele>
        <time>2024-09-15T10:54:27Z</time>
      </trkpt>
      <trkpt lat="47.79531" lon="-2.69429">
        <ele>132.2</ele>
        <time>2024-09-15T10:54:28Z</time>
      </trkpt>
      <trkpt lat="47.79528" lon="-2.69432">
        <ele>132</ele>
        <time>2024-09-15T10:54:29Z</time>
      </trkpt>
      <trkpt lat="47.79523" lon="-2.69436">
        <ele>131.4</ele>
        <time>2024-09-15T10:54:31Z</time>
      </trkpt>
      <trkpt lat="47.79518" lon="-2.69438">
        <ele>130.8</ele>
        <time>2024-09-15T10:54:32Z</time>
      </trkpt>
      <trkpt lat="47.79514" lon="-2.69439">
        <ele>130.6</ele>
        <time>2024-09-15T10:54:33Z</time>
      </trkpt>
      <trkpt lat="47.79511" lon="-2.6944">
        <ele>130.6</ele>
        <time>2024-09-15T10:54:34Z</time>
      </trkpt>
      <trkpt lat="47.79507" lon="-2.6944">
        <ele>130.4</ele>
        <time>2024-09-15T10:54:35Z</time>
      </trkpt>
      <trkpt lat="47.79504" lon="-2.69442">
        <ele>130.4</ele>
        <time>2024-09-15T10:54:36Z</time>
      </trkpt>
      <trkpt lat="47.79493" lon="-2.69446">
        <ele>130.4</ele>
        <time>2024-09-15T10:54:39Z</time>
      </trkpt>
      <trkpt lat="47.79489" lon="-2.69448">
        <ele>130.4</ele>
        <time>2024-09-15T10:54:40Z</time>
      </trkpt>
      <trkpt lat="47.79484" lon="-2.69449">
        <ele>130.8</ele>
        <time>2024-09-15T10:54:42Z</time>
      </trkpt>
      <trkpt lat="47.79482" lon="-2.6945">
        <ele>130.8</ele>
        <time>2024-09-15T10:54:43Z</time>
      </trkpt>
      <trkpt lat="47.79479" lon="-2.69452">
        <ele>131</ele>
        <time>2024-09-15T10:54:45Z</time>
      </trkpt>
      <trkpt lat="47.79477" lon="-2.69453">
        <ele>131</ele>
        <time>2024-09-15T10:54:46Z</time>
      </trkpt>
      <trkpt lat="47.79474" lon="-2.69453">
        <ele>131</ele>
        <time>2024-09-15T10:54:47Z</time>
      </trkpt>
      <trkpt lat="47.79471" lon="-2.69453">
        <ele>131.2</ele>
        <time>2024-09-15T10:54:48Z</time>
      </trkpt>
      <trkpt lat="47.79465" lon="-2.69454">
        <ele>131.4</ele>
        <time>2024-09-15T10:54:50Z</time>
      </trkpt>
      <trkpt lat="47.79463" lon="-2.69454">
        <ele>131.6</ele>
        <time>2024-09-15T10:54:51Z</time>
      </trkpt>
      <trkpt lat="47.79458" lon="-2.69453">
        <ele>131.8</ele>
        <time>2024-09-15T10:54:53Z</time>
      </trkpt>
      <trkpt lat="47.79455" lon="-2.69453">
        <ele>132</ele>
        <time>2024-09-15T10:54:54Z</time>
      </trkpt>
      <trkpt lat="47.79452" lon="-2.69454">
        <ele>132.2</ele>
        <time>2024-09-15T10:54:55Z</time>
      </trkpt>
      <trkpt lat="47.79446" lon="-2.69457">
        <ele>132.4</ele>
        <time>2024-09-15T10:54:57Z</time>
      </trkpt>
      <trkpt lat="47.79443" lon="-2.69459">
        <ele>132.6</ele>
        <time>2024-09-15T10:54:58Z</time>
      </trkpt>
      <trkpt lat="47.79436" lon="-2.69462">
        <ele>133</ele>
        <time>2024-09-15T10:55:01Z</time>
      </trkpt>
      <trkpt lat="47.79435" lon="-2.69464">
        <ele>133</ele>
        <time>2024-09-15T10:55:02Z</time>
      </trkpt>
      <trkpt lat="47.7943" lon="-2.69468">
        <ele>133.2</ele>
        <time>2024-09-15T10:55:04Z</time>
      </trkpt>
      <trkpt lat="47.79428" lon="-2.69468">
        <ele>133.2</ele>
        <time>2024-09-15T10:55:05Z</time>
      </trkpt>
      <trkpt lat="47.79426" lon="-2.69469">
        <ele>133.2</ele>
        <time>2024-09-15T10:55:06Z</time>
      </trkpt>
      <trkpt lat="47.79423" lon="-2.69469">
        <ele>133.2</ele>
        <time>2024-09-15T10:55:07Z</time>
      </trkpt>
      <trkpt lat="47.79416" lon="-2.69472">
        <ele>133.4</ele>
        <time>2024-09-15T10:55:10Z</time>
      </trkpt>
      <trkpt lat="47.79414" lon="-2.69473">
        <ele>133.4</ele>
        <time>2024-09-15T10:55:11Z</time>
      </trkpt>
      <trkpt lat="47.79409" lon="-2.69476">
        <ele>133.4</ele>
        <time>2024-09-15T10:55:13Z</time>
      </trkpt>
      <trkpt lat="47.79407" lon="-2.69478">
        <ele>133.4</ele>
        <time>2024-09-15T10:55:14Z</time>
      </trkpt>
      <trkpt lat="47.79405" lon="-2.69479">
        <ele>133.4</ele>
        <time>2024-09-15T10:55:15Z</time>
      </trkpt>
      <trkpt lat="47.79402" lon="-2.6948">
        <ele>133.4</ele>
        <time>2024-09-15T10:55:16Z</time>
      </trkpt>
      <trkpt lat="47.79399" lon="-2.6948">
        <ele>133.6</ele>
        <time>2024-09-15T10:55:17Z</time>
      </trkpt>
      <trkpt lat="47.79397" lon="-2.6948">
        <ele>133.8</ele>
        <time>2024-09-15T10:55:18Z</time>
      </trkpt>
      <trkpt lat="47.79394" lon="-2.69481">
        <ele>134</ele>
        <time>2024-09-15T10:55:19Z</time>
      </trkpt>
      <trkpt lat="47.79389" lon="-2.69481">
        <ele>134.2</ele>
        <time>2024-09-15T10:55:21Z</time>
      </trkpt>
      <trkpt lat="47.79386" lon="-2.69481">
        <ele>134.2</ele>
        <time>2024-09-15T10:55:22Z</time>
      </trkpt>
      <trkpt lat="47.79379" lon="-2.69478">
        <ele>134.2</ele>
        <time>2024-09-15T10:55:25Z</time>
      </trkpt>
      <trkpt lat="47.79377" lon="-2.69476">
        <ele>134.4</ele>
        <time>2024-09-15T10:55:26Z</time>
      </trkpt>
      <trkpt lat="47.79374" lon="-2.69475">
        <ele>134.4</ele>
        <time>2024-09-15T10:55:27Z</time>
      </trkpt>
      <trkpt lat="47.7937" lon="-2.69475">
        <ele>134.4</ele>
        <time>2024-09-15T10:55:29Z</time>
      </trkpt>
      <trkpt lat="47.79368" lon="-2.69476">
        <ele>134.4</ele>
        <time>2024-09-15T10:55:30Z</time>
      </trkpt>
      <trkpt lat="47.79367" lon="-2.69476">
        <ele>134.8</ele>
        <time>2024-09-15T10:55:31Z</time>
      </trkpt>
      <trkpt lat="47.79366" lon="-2.69476">
        <ele>135</ele>
        <time>2024-09-15T10:55:32Z</time>
      </trkpt>
      <trkpt lat="47.79361" lon="-2.69476">
        <ele>135.4</ele>
        <time>2024-09-15T10:55:35Z</time>
      </trkpt>
      <trkpt lat="47.79355" lon="-2.69476">
        <ele>135.6</ele>
        <time>2024-09-15T10:55:38Z</time>
      </trkpt>
      <trkpt lat="47.79353" lon="-2.69476">
        <ele>135.8</ele>
        <time>2024-09-15T10:55:39Z</time>
      </trkpt>
      <trkpt lat="47.79352" lon="-2.69476">
        <ele>135.8</ele>
        <time>2024-09-15T10:55:40Z</time>
      </trkpt>
      <trkpt lat="47.79349" lon="-2.69476">
        <ele>136.4</ele>
        <time>2024-09-15T10:55:42Z</time>
      </trkpt>
      <trkpt lat="47.79347" lon="-2.69477">
        <ele>136.4</ele>
        <time>2024-09-15T10:55:43Z</time>
      </trkpt>
      <trkpt lat="47.79345" lon="-2.69479">
        <ele>136.8</ele>
        <time>2024-09-15T10:55:45Z</time>
      </trkpt>
      <trkpt lat="47.79343" lon="-2.6948">
        <ele>137</ele>
        <time>2024-09-15T10:55:46Z</time>
      </trkpt>
      <trkpt lat="47.79342" lon="-2.69481">
        <ele>137.2</ele>
        <time>2024-09-15T10:55:47Z</time>
      </trkpt>
      <trkpt lat="47.79339" lon="-2.69482">
        <ele>137.4</ele>
        <time>2024-09-15T10:55:48Z</time>
      </trkpt>
      <trkpt lat="47.79337" lon="-2.69483">
        <ele>137.4</ele>
        <time>2024-09-15T10:55:49Z</time>
      </trkpt>
      <trkpt lat="47.79336" lon="-2.69483">
        <ele>137.6</ele>
        <time>2024-09-15T10:55:50Z</time>
      </trkpt>
      <trkpt lat="47.79334" lon="-2.69484">
        <ele>137.6</ele>
        <time>2024-09-15T10:55:51Z</time>
      </trkpt>
      <trkpt lat="47.79332" lon="-2.69484">
        <ele>137.8</ele>
        <time>2024-09-15T10:55:52Z</time>
      </trkpt>
      <trkpt lat="47.7933" lon="-2.69485">
        <ele>138</ele>
        <time>2024-09-15T10:55:53Z</time>
      </trkpt>
      <trkpt lat="47.79328" lon="-2.69485">
        <ele>138</ele>
        <time>2024-09-15T10:55:54Z</time>
      </trkpt>
      <trkpt lat="47.79327" lon="-2.69485">
        <ele>138.2</ele>
        <time>2024-09-15T10:55:55Z</time>
      </trkpt>
      <trkpt lat="47.79324" lon="-2.69486">
        <ele>138.4</ele>
        <time>2024-09-15T10:55:56Z</time>
      </trkpt>
      <trkpt lat="47.79322" lon="-2.69486">
        <ele>138.8</ele>
        <time>2024-09-15T10:55:57Z</time>
      </trkpt>
      <trkpt lat="47.7932" lon="-2.69487">
        <ele>138.8</ele>
        <time>2024-09-15T10:55:58Z</time>
      </trkpt>
      <trkpt lat="47.79317" lon="-2.69487">
        <ele>138.8</ele>
        <time>2024-09-15T10:55:59Z</time>
      </trkpt>
      <trkpt lat="47.79315" lon="-2.69488">
        <ele>139</ele>
        <time>2024-09-15T10:56:00Z</time>
      </trkpt>
      <trkpt lat="47.79313" lon="-2.69489">
        <ele>139</ele>
        <time>2024-09-15T10:56:01Z</time>
      </trkpt>
      <trkpt lat="47.79311" lon="-2.6949">
        <ele>139</ele>
        <time>2024-09-15T10:56:02Z</time>
      </trkpt>
      <trkpt lat="47.7931" lon="-2.69491">
        <ele>139.2</ele>
        <time>2024-09-15T10:56:03Z</time>
      </trkpt>
      <trkpt lat="47.79308" lon="-2.69492">
        <ele>139.4</ele>
        <time>2024-09-15T10:56:04Z</time>
      </trkpt>
      <trkpt lat="47.79306" lon="-2.69493">
        <ele>139.4</ele>
        <time>2024-09-15T10:56:05Z</time>
      </trkpt>
      <trkpt lat="47.79304" lon="-2.69492">
        <ele>139.6</ele>
        <time>2024-09-15T10:56:06Z</time>
      </trkpt>
      <trkpt lat="47.79302" lon="-2.69493">
        <ele>139.6</ele>
        <time>2024-09-15T10:56:07Z</time>
      </trkpt>
      <trkpt lat="47.79301" lon="-2.69493">
        <ele>139.8</ele>
        <time>2024-09-15T10:56:08Z</time>
      </trkpt>
      <trkpt lat="47.793" lon="-2.69493">
        <ele>140</ele>
        <time>2024-09-15T10:56:09Z</time>
      </trkpt>
      <trkpt lat="47.79298" lon="-2.69494">
        <ele>140.2</ele>
        <time>2024-09-15T10:56:10Z</time>
      </trkpt>
      <trkpt lat="47.79296" lon="-2.69494">
        <ele>140.4</ele>
        <time>2024-09-15T10:56:11Z</time>
      </trkpt>
      <trkpt lat="47.79295" lon="-2.69495">
        <ele>140.4</ele>
        <time>2024-09-15T10:56:12Z</time>
      </trkpt>
      <trkpt lat="47.79292" lon="-2.69496">
        <ele>140.6</ele>
        <time>2024-09-15T10:56:13Z</time>
      </trkpt>
      <trkpt lat="47.7929" lon="-2.69497">
        <ele>140.6</ele>
        <time>2024-09-15T10:56:14Z</time>
      </trkpt>
      <trkpt lat="47.79288" lon="-2.69498">
        <ele>140.8</ele>
        <time>2024-09-15T10:56:15Z</time>
      </trkpt>
      <trkpt lat="47.79285" lon="-2.69499">
        <ele>140.8</ele>
        <time>2024-09-15T10:56:16Z</time>
      </trkpt>
      <trkpt lat="47.79282" lon="-2.69499">
        <ele>141</ele>
        <time>2024-09-15T10:56:17Z</time>
      </trkpt>
      <trkpt lat="47.7928" lon="-2.695">
        <ele>141</ele>
        <time>2024-09-15T10:56:18Z</time>
      </trkpt>
      <trkpt lat="47.79278" lon="-2.69501">
        <ele>141.2</ele>
        <time>2024-09-15T10:56:19Z</time>
      </trkpt>
      <trkpt lat="47.79275" lon="-2.69502">
        <ele>141.4</ele>
        <time>2024-09-15T10:56:20Z</time>
      </trkpt>
      <trkpt lat="47.79273" lon="-2.69502">
        <ele>141.4</ele>
        <time>2024-09-15T10:56:21Z</time>
      </trkpt>
      <trkpt lat="47.79271" lon="-2.69502">
        <ele>141.6</ele>
        <time>2024-09-15T10:56:22Z</time>
      </trkpt>
      <trkpt lat="47.79268" lon="-2.69502">
        <ele>141.8</ele>
        <time>2024-09-15T10:56:23Z</time>
      </trkpt>
      <trkpt lat="47.79266" lon="-2.695">
        <ele>142</ele>
        <time>2024-09-15T10:56:24Z</time>
      </trkpt>
      <trkpt lat="47.79265" lon="-2.69498">
        <ele>142.2</ele>
        <time>2024-09-15T10:56:25Z</time>
      </trkpt>
      <trkpt lat="47.79264" lon="-2.69496">
        <ele>142.2</ele>
        <time>2024-09-15T10:56:26Z</time>
      </trkpt>
      <trkpt lat="47.79262" lon="-2.69495">
        <ele>142.4</ele>
        <time>2024-09-15T10:56:27Z</time>
      </trkpt>
      <trkpt lat="47.79259" lon="-2.69495">
        <ele>142.6</ele>
        <time>2024-09-15T10:56:28Z</time>
      </trkpt>
      <trkpt lat="47.79257" lon="-2.69494">
        <ele>142.8</ele>
        <time>2024-09-15T10:56:29Z</time>
      </trkpt>
      <trkpt lat="47.79255" lon="-2.69494">
        <ele>143</ele>
        <time>2024-09-15T10:56:30Z</time>
      </trkpt>
      <trkpt lat="47.79253" lon="-2.69493">
        <ele>143.2</ele>
        <time>2024-09-15T10:56:31Z</time>
      </trkpt>
      <trkpt lat="47.79251" lon="-2.69493">
        <ele>143.4</ele>
        <time>2024-09-15T10:56:32Z</time>
      </trkpt>
      <trkpt lat="47.79249" lon="-2.69494">
        <ele>143.4</ele>
        <time>2024-09-15T10:56:33Z</time>
      </trkpt>
      <trkpt lat="47.79247" lon="-2.69494">
        <ele>143.6</ele>
        <time>2024-09-15T10:56:34Z</time>
      </trkpt>
      <trkpt lat="47.79244" lon="-2.69493">
        <ele>143.6</ele>
        <time>2024-09-15T10:56:35Z</time>
      </trkpt>
      <trkpt lat="47.79241" lon="-2.69493">
        <ele>143.8</ele>
        <time>2024-09-15T10:56:36Z</time>
      </trkpt>
      <trkpt lat="47.7924" lon="-2.69492">
        <ele>143.8</ele>
        <time>2024-09-15T10:56:37Z</time>
      </trkpt>
      <trkpt lat="47.79239" lon="-2.69493">
        <ele>144</ele>
        <time>2024-09-15T10:56:38Z</time>
      </trkpt>
      <trkpt lat="47.79238" lon="-2.69493">
        <ele>144.2</ele>
        <time>2024-09-15T10:56:39Z</time>
      </trkpt>
      <trkpt lat="47.79236" lon="-2.69495">
        <ele>144.2</ele>
        <time>2024-09-15T10:56:40Z</time>
      </trkpt>
      <trkpt lat="47.79234" lon="-2.69496">
        <ele>144.2</ele>
        <time>2024-09-15T10:56:41Z</time>
      </trkpt>
      <trkpt lat="47.79233" lon="-2.69497">
        <ele>144.4</ele>
        <time>2024-09-15T10:56:42Z</time>
      </trkpt>
      <trkpt lat="47.79231" lon="-2.69498">
        <ele>144.4</ele>
        <time>2024-09-15T10:56:43Z</time>
      </trkpt>
      <trkpt lat="47.79229" lon="-2.69499">
        <ele>144.6</ele>
        <time>2024-09-15T10:56:44Z</time>
      </trkpt>
      <trkpt lat="47.79227" lon="-2.69499">
        <ele>144.8</ele>
        <time>2024-09-15T10:56:45Z</time>
      </trkpt>
      <trkpt lat="47.79225" lon="-2.69499">
        <ele>145</ele>
        <time>2024-09-15T10:56:46Z</time>
      </trkpt>
      <trkpt lat="47.79223" lon="-2.695">
        <ele>145.2</ele>
        <time>2024-09-15T10:56:47Z</time>
      </trkpt>
      <trkpt lat="47.79222" lon="-2.695">
        <ele>145.4</ele>
        <time>2024-09-15T10:56:48Z</time>
      </trkpt>
      <trkpt lat="47.7922" lon="-2.69501">
        <ele>145.6</ele>
        <time>2024-09-15T10:56:49Z</time>
      </trkpt>
      <trkpt lat="47.79219" lon="-2.69501">
        <ele>145.6</ele>
        <time>2024-09-15T10:56:50Z</time>
      </trkpt>
      <trkpt lat="47.79217" lon="-2.69501">
        <ele>145.8</ele>
        <time>2024-09-15T10:56:51Z</time>
      </trkpt>
      <trkpt lat="47.79215" lon="-2.69502">
        <ele>145.8</ele>
        <time>2024-09-15T10:56:52Z</time>
      </trkpt>
      <trkpt lat="47.79213" lon="-2.69502">
        <ele>146.4</ele>
        <time>2024-09-15T10:56:53Z</time>
      </trkpt>
      <trkpt lat="47.79211" lon="-2.69503">
        <ele>146.6</ele>
        <time>2024-09-15T10:56:54Z</time>
      </trkpt>
      <trkpt lat="47.79209" lon="-2.69504">
        <ele>146.8</ele>
        <time>2024-09-15T10:56:55Z</time>
      </trkpt>
      <trkpt lat="47.79207" lon="-2.69505">
        <ele>146.8</ele>
        <time>2024-09-15T10:56:56Z</time>
      </trkpt>
      <trkpt lat="47.79204" lon="-2.69506">
        <ele>147</ele>
        <time>2024-09-15T10:56:57Z</time>
      </trkpt>
      <trkpt lat="47.79203" lon="-2.69506">
        <ele>147</ele>
        <time>2024-09-15T10:56:58Z</time>
      </trkpt>
      <trkpt lat="47.79201" lon="-2.69507">
        <ele>147.2</ele>
        <time>2024-09-15T10:56:59Z</time>
      </trkpt>
      <trkpt lat="47.792" lon="-2.69507">
        <ele>147.4</ele>
        <time>2024-09-15T10:57:00Z</time>
      </trkpt>
      <trkpt lat="47.79198" lon="-2.69508">
        <ele>147.6</ele>
        <time>2024-09-15T10:57:01Z</time>
      </trkpt>
      <trkpt lat="47.79196" lon="-2.69508">
        <ele>148</ele>
        <time>2024-09-15T10:57:02Z</time>
      </trkpt>
      <trkpt lat="47.79195" lon="-2.69508">
        <ele>148</ele>
        <time>2024-09-15T10:57:03Z</time>
      </trkpt>
      <trkpt lat="47.79194" lon="-2.69508">
        <ele>148.2</ele>
        <time>2024-09-15T10:57:04Z</time>
      </trkpt>
      <trkpt lat="47.79193" lon="-2.69508">
        <ele>148.2</ele>
        <time>2024-09-15T10:57:05Z</time>
      </trkpt>
      <trkpt lat="47.79192" lon="-2.69509">
        <ele>148.4</ele>
        <time>2024-09-15T10:57:06Z</time>
      </trkpt>
      <trkpt lat="47.79191" lon="-2.69509">
        <ele>148.6</ele>
        <time>2024-09-15T10:57:07Z</time>
      </trkpt>
      <trkpt lat="47.7919" lon="-2.69509">
        <ele>148.8</ele>
        <time>2024-09-15T10:57:08Z</time>
      </trkpt>
      <trkpt lat="47.79189" lon="-2.6951">
        <ele>149</ele>
        <time>2024-09-15T10:57:09Z</time>
      </trkpt>
      <trkpt lat="47.79187" lon="-2.6951">
        <ele>149</ele>
        <time>2024-09-15T10:57:10Z</time>
      </trkpt>
      <trkpt lat="47.79186" lon="-2.6951">
        <ele>149.2</ele>
        <time>2024-09-15T10:57:11Z</time>
      </trkpt>
      <trkpt lat="47.79184" lon="-2.69511">
        <ele>149.4</ele>
        <time>2024-09-15T10:57:12Z</time>
      </trkpt>
      <trkpt lat="47.79183" lon="-2.69511">
        <ele>149.6</ele>
        <time>2024-09-15T10:57:13Z</time>
      </trkpt>
      <trkpt lat="47.79181" lon="-2.69512">
        <ele>149.6</ele>
        <time>2024-09-15T10:57:14Z</time>
      </trkpt>
      <trkpt lat="47.7918" lon="-2.69512">
        <ele>150</ele>
        <time>2024-09-15T10:57:15Z</time>
      </trkpt>
      <trkpt lat="47.79178" lon="-2.69513">
        <ele>150</ele>
        <time>2024-09-15T10:57:16Z</time>
      </trkpt>
      <trkpt lat="47.79177" lon="-2.69513">
        <ele>150.4</ele>
        <time>2024-09-15T10:57:17Z</time>
      </trkpt>
      <trkpt lat="47.79176" lon="-2.69513">
        <ele>150.6</ele>
        <time>2024-09-15T10:57:18Z</time>
      </trkpt>
      <trkpt lat="47.79174" lon="-2.69513">
        <ele>150.6</ele>
        <time>2024-09-15T10:57:19Z</time>
      </trkpt>
      <trkpt lat="47.79172" lon="-2.69514">
        <ele>150.8</ele>
        <time>2024-09-15T10:57:20Z</time>
      </trkpt>
      <trkpt lat="47.79169" lon="-2.69514">
        <ele>150.8</ele>
        <time>2024-09-15T10:57:21Z</time>
      </trkpt>
      <trkpt lat="47.79167" lon="-2.69515">
        <ele>151.2</ele>
        <time>2024-09-15T10:57:22Z</time>
      </trkpt>
      <trkpt lat="47.79164" lon="-2.69515">
        <ele>151.4</ele>
        <time>2024-09-15T10:57:23Z</time>
      </trkpt>
      <trkpt lat="47.79161" lon="-2.69516">
        <ele>151.6</ele>
        <time>2024-09-15T10:57:24Z</time>
      </trkpt>
      <trkpt lat="47.79159" lon="-2.69516">
        <ele>151.6</ele>
        <time>2024-09-15T10:57:25Z</time>
      </trkpt>
      <trkpt lat="47.79156" lon="-2.69517">
        <ele>152</ele>
        <time>2024-09-15T10:57:26Z</time>
      </trkpt>
      <trkpt lat="47.79153" lon="-2.69518">
        <ele>152.2</ele>
        <time>2024-09-15T10:57:27Z</time>
      </trkpt>
      <trkpt lat="47.7915" lon="-2.69519">
        <ele>152.6</ele>
        <time>2024-09-15T10:57:28Z</time>
      </trkpt>
      <trkpt lat="47.79146" lon="-2.6952">
        <ele>153</ele>
        <time>2024-09-15T10:57:29Z</time>
      </trkpt>
      <trkpt lat="47.79143" lon="-2.69521">
        <ele>153</ele>
        <time>2024-09-15T10:57:30Z</time>
      </trkpt>
      <trkpt lat="47.79139" lon="-2.69521">
        <ele>153.2</ele>
        <time>2024-09-15T10:57:31Z</time>
      </trkpt>
      <trkpt lat="47.79135" lon="-2.69521">
        <ele>153.2</ele>
        <time>2024-09-15T10:57:32Z</time>
      </trkpt>
      <trkpt lat="47.7913" lon="-2.69522">
        <ele>153.2</ele>
        <time>2024-09-15T10:57:33Z</time>
      </trkpt>
      <trkpt lat="47.79126" lon="-2.69523">
        <ele>153.4</ele>
        <time>2024-09-15T10:57:34Z</time>
      </trkpt>
      <trkpt lat="47.79121" lon="-2.69523">
        <ele>153.6</ele>
        <time>2024-09-15T10:57:35Z</time>
      </trkpt>
      <trkpt lat="47.79118" lon="-2.69524">
        <ele>153.8</ele>
        <time>2024-09-15T10:57:36Z</time>
      </trkpt>
      <trkpt lat="47.79114" lon="-2.69526">
        <ele>154</ele>
        <time>2024-09-15T10:57:37Z</time>
      </trkpt>
      <trkpt lat="47.79112" lon="-2.6953">
        <ele>154.2</ele>
        <time>2024-09-15T10:57:38Z</time>
      </trkpt>
      <trkpt lat="47.79111" lon="-2.69534">
        <ele>154.2</ele>
        <time>2024-09-15T10:57:39Z</time>
      </trkpt>
      <trkpt lat="47.79111" lon="-2.69539">
        <ele>154.4</ele>
        <time>2024-09-15T10:57:40Z</time>
      </trkpt>
      <trkpt lat="47.79112" lon="-2.69544">
        <ele>154.4</ele>
        <time>2024-09-15T10:57:41Z</time>
      </trkpt>
      <trkpt lat="47.79111" lon="-2.6955">
        <ele>154.4</ele>
        <time>2024-09-15T10:57:42Z</time>
      </trkpt>
      <trkpt lat="47.7911" lon="-2.69556">
        <ele>154.4</ele>
        <time>2024-09-15T10:57:43Z</time>
      </trkpt>
      <trkpt lat="47.79107" lon="-2.69561">
        <ele>154.4</ele>
        <time>2024-09-15T10:57:44Z</time>
      </trkpt>
      <trkpt lat="47.79104" lon="-2.69562">
        <ele>154.4</ele>
        <time>2024-09-15T10:57:45Z</time>
      </trkpt>
      <trkpt lat="47.791" lon="-2.69562">
        <ele>154.4</ele>
        <time>2024-09-15T10:57:46Z</time>
      </trkpt>
      <trkpt lat="47.79097" lon="-2.69562">
        <ele>154.4</ele>
        <time>2024-09-15T10:57:47Z</time>
      </trkpt>
      <trkpt lat="47.79093" lon="-2.69561">
        <ele>154.4</ele>
        <time>2024-09-15T10:57:48Z</time>
      </trkpt>
      <trkpt lat="47.79089" lon="-2.6956">
        <ele>154.4</ele>
        <time>2024-09-15T10:57:49Z</time>
      </trkpt>
      <trkpt lat="47.79085" lon="-2.69558">
        <ele>154.4</ele>
        <time>2024-09-15T10:57:50Z</time>
      </trkpt>
      <trkpt lat="47.79082" lon="-2.69557">
        <ele>154.4</ele>
        <time>2024-09-15T10:57:51Z</time>
      </trkpt>
      <trkpt lat="47.79078" lon="-2.69557">
        <ele>154.4</ele>
        <time>2024-09-15T10:57:52Z</time>
      </trkpt>
      <trkpt lat="47.79073" lon="-2.69556">
        <ele>154.2</ele>
        <time>2024-09-15T10:57:53Z</time>
      </trkpt>
      <trkpt lat="47.79069" lon="-2.69555">
        <ele>154.2</ele>
        <time>2024-09-15T10:57:54Z</time>
      </trkpt>
      <trkpt lat="47.7906" lon="-2.69554">
        <ele>153.8</ele>
        <time>2024-09-15T10:57:56Z</time>
      </trkpt>
      <trkpt lat="47.79055" lon="-2.69553">
        <ele>153.6</ele>
        <time>2024-09-15T10:57:57Z</time>
      </trkpt>
      <trkpt lat="47.7905" lon="-2.69551">
        <ele>153.6</ele>
        <time>2024-09-15T10:57:58Z</time>
      </trkpt>
      <trkpt lat="47.79029" lon="-2.69546">
        <ele>153.2</ele>
        <time>2024-09-15T10:58:02Z</time>
      </trkpt>
      <trkpt lat="47.79024" lon="-2.69545">
        <ele>153.2</ele>
        <time>2024-09-15T10:58:03Z</time>
      </trkpt>
      <trkpt lat="47.79019" lon="-2.69545">
        <ele>153</ele>
        <time>2024-09-15T10:58:04Z</time>
      </trkpt>
      <trkpt lat="47.79003" lon="-2.69541">
        <ele>152.4</ele>
        <time>2024-09-15T10:58:07Z</time>
      </trkpt>
      <trkpt lat="47.78988" lon="-2.69539">
        <ele>152</ele>
        <time>2024-09-15T10:58:10Z</time>
      </trkpt>
      <trkpt lat="47.78984" lon="-2.69539">
        <ele>151.8</ele>
        <time>2024-09-15T10:58:11Z</time>
      </trkpt>
      <trkpt lat="47.7898" lon="-2.69539">
        <ele>151.6</ele>
        <time>2024-09-15T10:58:12Z</time>
      </trkpt>
      <trkpt lat="47.78977" lon="-2.69539">
        <ele>151.4</ele>
        <time>2024-09-15T10:58:13Z</time>
      </trkpt>
      <trkpt lat="47.78974" lon="-2.69538">
        <ele>151.4</ele>
        <time>2024-09-15T10:58:14Z</time>
      </trkpt>
      <trkpt lat="47.78969" lon="-2.69528">
        <ele>150.6</ele>
        <time>2024-09-15T10:58:16Z</time>
      </trkpt>
      <trkpt lat="47.78964" lon="-2.69515">
        <ele>150.4</ele>
        <time>2024-09-15T10:58:18Z</time>
      </trkpt>
      <trkpt lat="47.78962" lon="-2.69508">
        <ele>150.2</ele>
        <time>2024-09-15T10:58:19Z</time>
      </trkpt>
      <trkpt lat="47.78956" lon="-2.69493">
        <ele>150</ele>
        <time>2024-09-15T10:58:21Z</time>
      </trkpt>
      <trkpt lat="47.7895" lon="-2.69476">
        <ele>149.6</ele>
        <time>2024-09-15T10:58:23Z</time>
      </trkpt>
      <trkpt lat="47.78936" lon="-2.69438">
        <ele>148.6</ele>
        <time>2024-09-15T10:58:27Z</time>
      </trkpt>
      <trkpt lat="47.7892" lon="-2.69396">
        <ele>147.4</ele>
        <time>2024-09-15T10:58:31Z</time>
      </trkpt>
      <trkpt lat="47.78907" lon="-2.69364">
        <ele>146.6</ele>
        <time>2024-09-15T10:58:34Z</time>
      </trkpt>
      <trkpt lat="47.78903" lon="-2.69353">
        <ele>146.4</ele>
        <time>2024-09-15T10:58:35Z</time>
      </trkpt>
      <trkpt lat="47.78898" lon="-2.69342">
        <ele>146.2</ele>
        <time>2024-09-15T10:58:36Z</time>
      </trkpt>
      <trkpt lat="47.78895" lon="-2.69333">
        <ele>145.8</ele>
        <time>2024-09-15T10:58:37Z</time>
      </trkpt>
      <trkpt lat="47.7889" lon="-2.69321">
        <ele>145</ele>
        <time>2024-09-15T10:58:38Z</time>
      </trkpt>
      <trkpt lat="47.78886" lon="-2.6931">
        <ele>144.6</ele>
        <time>2024-09-15T10:58:39Z</time>
      </trkpt>
      <trkpt lat="47.78882" lon="-2.69301">
        <ele>144.2</ele>
        <time>2024-09-15T10:58:40Z</time>
      </trkpt>
      <trkpt lat="47.78878" lon="-2.69291">
        <ele>144.2</ele>
        <time>2024-09-15T10:58:41Z</time>
      </trkpt>
      <trkpt lat="47.78874" lon="-2.69282">
        <ele>143.8</ele>
        <time>2024-09-15T10:58:42Z</time>
      </trkpt>
      <trkpt lat="47.78869" lon="-2.69275">
        <ele>143.6</ele>
        <time>2024-09-15T10:58:43Z</time>
      </trkpt>
      <trkpt lat="47.78864" lon="-2.69268">
        <ele>143.2</ele>
        <time>2024-09-15T10:58:44Z</time>
      </trkpt>
      <trkpt lat="47.7886" lon="-2.69262">
        <ele>143</ele>
        <time>2024-09-15T10:58:45Z</time>
      </trkpt>
      <trkpt lat="47.78857" lon="-2.69254">
        <ele>142.4</ele>
        <time>2024-09-15T10:58:46Z</time>
      </trkpt>
      <trkpt lat="47.78857" lon="-2.69246">
        <ele>142</ele>
        <time>2024-09-15T10:58:47Z</time>
      </trkpt>
      <trkpt lat="47.78859" lon="-2.69238">
        <ele>141.6</ele>
        <time>2024-09-15T10:58:48Z</time>
      </trkpt>
      <trkpt lat="47.78862" lon="-2.69232">
        <ele>141.2</ele>
        <time>2024-09-15T10:58:49Z</time>
      </trkpt>
      <trkpt lat="47.78866" lon="-2.69227">
        <ele>141</ele>
        <time>2024-09-15T10:58:50Z</time>
      </trkpt>
      <trkpt lat="47.78871" lon="-2.69222">
        <ele>140.8</ele>
        <time>2024-09-15T10:58:51Z</time>
      </trkpt>
      <trkpt lat="47.78885" lon="-2.69208">
        <ele>140.6</ele>
        <time>2024-09-15T10:58:54Z</time>
      </trkpt>
      <trkpt lat="47.7889" lon="-2.69204">
        <ele>140.6</ele>
        <time>2024-09-15T10:58:55Z</time>
      </trkpt>
      <trkpt lat="47.78895" lon="-2.69201">
        <ele>140.6</ele>
        <time>2024-09-15T10:58:56Z</time>
      </trkpt>
      <trkpt lat="47.789" lon="-2.69199">
        <ele>140.6</ele>
        <time>2024-09-15T10:58:57Z</time>
      </trkpt>
      <trkpt lat="47.78904" lon="-2.692">
        <ele>140.8</ele>
        <time>2024-09-15T10:58:58Z</time>
      </trkpt>
      <trkpt lat="47.78908" lon="-2.69202">
        <ele>141</ele>
        <time>2024-09-15T10:58:59Z</time>
      </trkpt>
      <trkpt lat="47.7891" lon="-2.69207">
        <ele>141.2</ele>
        <time>2024-09-15T10:59:00Z</time>
      </trkpt>
      <trkpt lat="47.78912" lon="-2.69211">
        <ele>141.2</ele>
        <time>2024-09-15T10:59:01Z</time>
      </trkpt>
      <trkpt lat="47.78914" lon="-2.69215">
        <ele>141.4</ele>
        <time>2024-09-15T10:59:02Z</time>
      </trkpt>
      <trkpt lat="47.78915" lon="-2.69219">
        <ele>141.4</ele>
        <time>2024-09-15T10:59:03Z</time>
      </trkpt>
      <trkpt lat="47.78915" lon="-2.69222">
        <ele>141.8</ele>
        <time>2024-09-15T10:59:04Z</time>
      </trkpt>
      <trkpt lat="47.78913" lon="-2.69223">
        <ele>142</ele>
        <time>2024-09-15T10:59:05Z</time>
      </trkpt>
      <trkpt lat="47.78912" lon="-2.69223">
        <ele>142.2</ele>
        <time>2024-09-15T10:59:06Z</time>
      </trkpt>
      <trkpt lat="47.78912" lon="-2.69224">
        <ele>142.4</ele>
        <time>2024-09-15T10:59:07Z</time>
      </trkpt>
    </trkseg>
  </trk>
</gpx>